<?xml version="1.0" encoding="UTF-8" standalone="no" ?>
<gpx xmlns="http://www.topografix.com/GPX/1/1" xmlns:xsi="http://www.w3.org/2001/XMLSchema-instance" xsi:schemaLocation="http://www.topografix.com/GPX/1/1 http://www.topografix.com/GPX/1/1/gpx.xsd" version="1.1" creator="VisuGPX - https://www.visugpx.com">
  <metadata>
    <name>Thezillieu jour 1</name>
    <desc><![CDATA[Au départ du gîte de Genevray.
Sans difficulté]]></desc>
  </metadata>
  <trk>
    <name><![CDATA[SityTrail - vs]]></name>
    <trkseg>
      <trkpt lat="45.88714" lon="5.58809">
        <ele>831</ele>
        <time>2021-09-04T12:23:56.939Z</time>
      </trkpt>
      <trkpt lat="45.88707" lon="5.58802">
        <ele>831</ele>
        <time>2021-09-04T12:28:20.232Z</time>
      </trkpt>
      <trkpt lat="45.88706" lon="5.58802">
        <ele>831</ele>
        <time>2021-09-04T12:28:24.235Z</time>
      </trkpt>
      <trkpt lat="45.88706" lon="5.58802">
        <ele>831</ele>
        <time>2021-09-04T12:28:29.243Z</time>
      </trkpt>
      <trkpt lat="45.88705" lon="5.58802">
        <ele>831</ele>
        <time>2021-09-04T12:28:34.230Z</time>
      </trkpt>
      <trkpt lat="45.88705" lon="5.58802">
        <ele>831</ele>
        <time>2021-09-04T12:28:38.231Z</time>
      </trkpt>
      <trkpt lat="45.88705" lon="5.58802">
        <ele>831</ele>
        <time>2021-09-04T12:29:05.269Z</time>
      </trkpt>
      <trkpt lat="45.88705" lon="5.58803">
        <ele>831</ele>
        <time>2021-09-04T12:29:10.267Z</time>
      </trkpt>
      <trkpt lat="45.88704" lon="5.58804">
        <ele>831</ele>
        <time>2021-09-04T12:29:15.269Z</time>
      </trkpt>
      <trkpt lat="45.88706" lon="5.58808">
        <ele>831</ele>
        <time>2021-09-04T12:29:20.262Z</time>
      </trkpt>
      <trkpt lat="45.8871" lon="5.58814">
        <ele>831</ele>
        <time>2021-09-04T12:29:24.289Z</time>
      </trkpt>
      <trkpt lat="45.88714" lon="5.58821">
        <ele>832</ele>
        <time>2021-09-04T12:29:29.280Z</time>
      </trkpt>
      <trkpt lat="45.88717" lon="5.58829">
        <ele>832</ele>
        <time>2021-09-04T12:29:34.286Z</time>
      </trkpt>
      <trkpt lat="45.88719" lon="5.58837">
        <ele>832</ele>
        <time>2021-09-04T12:29:39.256Z</time>
      </trkpt>
      <trkpt lat="45.88721" lon="5.58843">
        <ele>832</ele>
        <time>2021-09-04T12:29:43.266Z</time>
      </trkpt>
      <trkpt lat="45.88722" lon="5.58849">
        <ele>833</ele>
        <time>2021-09-04T12:29:47.270Z</time>
      </trkpt>
      <trkpt lat="45.88722" lon="5.58857">
        <ele>833</ele>
        <time>2021-09-04T12:29:52.233Z</time>
      </trkpt>
      <trkpt lat="45.88724" lon="5.58864">
        <ele>833</ele>
        <time>2021-09-04T12:29:56.269Z</time>
      </trkpt>
      <trkpt lat="45.88726" lon="5.58872">
        <ele>833</ele>
        <time>2021-09-04T12:30:01.292Z</time>
      </trkpt>
      <trkpt lat="45.88729" lon="5.5888">
        <ele>833</ele>
        <time>2021-09-04T12:30:06.298Z</time>
      </trkpt>
      <trkpt lat="45.88732" lon="5.58888">
        <ele>833</ele>
        <time>2021-09-04T12:30:11.264Z</time>
      </trkpt>
      <trkpt lat="45.88735" lon="5.58896">
        <ele>833</ele>
        <time>2021-09-04T12:30:16.234Z</time>
      </trkpt>
      <trkpt lat="45.88739" lon="5.58902">
        <ele>836</ele>
        <time>2021-09-04T12:30:20.263Z</time>
      </trkpt>
      <trkpt lat="45.88744" lon="5.58907">
        <ele>834</ele>
        <time>2021-09-04T12:30:25.287Z</time>
      </trkpt>
      <trkpt lat="45.88749" lon="5.5891">
        <ele>834</ele>
        <time>2021-09-04T12:30:30.266Z</time>
      </trkpt>
      <trkpt lat="45.88755" lon="5.58912">
        <ele>834</ele>
        <time>2021-09-04T12:30:35.271Z</time>
      </trkpt>
      <trkpt lat="45.8876" lon="5.58913">
        <ele>834</ele>
        <time>2021-09-04T12:30:39.317Z</time>
      </trkpt>
      <trkpt lat="45.88766" lon="5.58913">
        <ele>835</ele>
        <time>2021-09-04T12:30:44.264Z</time>
      </trkpt>
      <trkpt lat="45.88773" lon="5.58913">
        <ele>835</ele>
        <time>2021-09-04T12:30:49.262Z</time>
      </trkpt>
      <trkpt lat="45.88779" lon="5.58913">
        <ele>835</ele>
        <time>2021-09-04T12:30:54.228Z</time>
      </trkpt>
      <trkpt lat="45.88784" lon="5.58913">
        <ele>835</ele>
        <time>2021-09-04T12:30:58.269Z</time>
      </trkpt>
      <trkpt lat="45.8879" lon="5.58912">
        <ele>835</ele>
        <time>2021-09-04T12:31:03.258Z</time>
      </trkpt>
      <trkpt lat="45.88795" lon="5.58911">
        <ele>834</ele>
        <time>2021-09-04T12:31:07.276Z</time>
      </trkpt>
      <trkpt lat="45.888" lon="5.5891">
        <ele>834</ele>
        <time>2021-09-04T12:31:11.280Z</time>
      </trkpt>
      <trkpt lat="45.88805" lon="5.5891">
        <ele>834</ele>
        <time>2021-09-04T12:31:15.307Z</time>
      </trkpt>
      <trkpt lat="45.88812" lon="5.58909">
        <ele>834</ele>
        <time>2021-09-04T12:31:20.236Z</time>
      </trkpt>
      <trkpt lat="45.88817" lon="5.58907">
        <ele>834</ele>
        <time>2021-09-04T12:31:24.284Z</time>
      </trkpt>
      <trkpt lat="45.88824" lon="5.58907">
        <ele>835</ele>
        <time>2021-09-04T12:31:29.282Z</time>
      </trkpt>
      <trkpt lat="45.8883" lon="5.58906">
        <ele>835</ele>
        <time>2021-09-04T12:31:34.295Z</time>
      </trkpt>
      <trkpt lat="45.88837" lon="5.58907">
        <ele>835</ele>
        <time>2021-09-04T12:31:39.274Z</time>
      </trkpt>
      <trkpt lat="45.88843" lon="5.58908">
        <ele>835</ele>
        <time>2021-09-04T12:31:44.274Z</time>
      </trkpt>
      <trkpt lat="45.88848" lon="5.58911">
        <ele>836</ele>
        <time>2021-09-04T12:31:49.267Z</time>
      </trkpt>
      <trkpt lat="45.88853" lon="5.58914">
        <ele>836</ele>
        <time>2021-09-04T12:31:53.304Z</time>
      </trkpt>
      <trkpt lat="45.88859" lon="5.58917">
        <ele>836</ele>
        <time>2021-09-04T12:31:58.275Z</time>
      </trkpt>
      <trkpt lat="45.88865" lon="5.5892">
        <ele>836</ele>
        <time>2021-09-04T12:32:03.257Z</time>
      </trkpt>
      <trkpt lat="45.88869" lon="5.58923">
        <ele>836</ele>
        <time>2021-09-04T12:32:07.271Z</time>
      </trkpt>
      <trkpt lat="45.88874" lon="5.58925">
        <ele>836</ele>
        <time>2021-09-04T12:32:12.277Z</time>
      </trkpt>
      <trkpt lat="45.8888" lon="5.58927">
        <ele>838</ele>
        <time>2021-09-04T12:32:17.248Z</time>
      </trkpt>
      <trkpt lat="45.88886" lon="5.5893">
        <ele>838</ele>
        <time>2021-09-04T12:32:22.243Z</time>
      </trkpt>
      <trkpt lat="45.88892" lon="5.58932">
        <ele>839</ele>
        <time>2021-09-04T12:32:27.248Z</time>
      </trkpt>
      <trkpt lat="45.88897" lon="5.58934">
        <ele>839</ele>
        <time>2021-09-04T12:32:31.230Z</time>
      </trkpt>
      <trkpt lat="45.88903" lon="5.58936">
        <ele>840</ele>
        <time>2021-09-04T12:32:36.241Z</time>
      </trkpt>
      <trkpt lat="45.88909" lon="5.58937">
        <ele>840</ele>
        <time>2021-09-04T12:32:40.246Z</time>
      </trkpt>
      <trkpt lat="45.88915" lon="5.58937">
        <ele>840</ele>
        <time>2021-09-04T12:32:45.243Z</time>
      </trkpt>
      <trkpt lat="45.88921" lon="5.58936">
        <ele>840</ele>
        <time>2021-09-04T12:32:50.246Z</time>
      </trkpt>
      <trkpt lat="45.88926" lon="5.58935">
        <ele>840</ele>
        <time>2021-09-04T12:32:55.244Z</time>
      </trkpt>
      <trkpt lat="45.88933" lon="5.58935">
        <ele>841</ele>
        <time>2021-09-04T12:33:00.244Z</time>
      </trkpt>
      <trkpt lat="45.88937" lon="5.58935">
        <ele>841</ele>
        <time>2021-09-04T12:33:04.245Z</time>
      </trkpt>
      <trkpt lat="45.88943" lon="5.58934">
        <ele>841</ele>
        <time>2021-09-04T12:33:09.243Z</time>
      </trkpt>
      <trkpt lat="45.88948" lon="5.58928">
        <ele>842</ele>
        <time>2021-09-04T12:33:14.239Z</time>
      </trkpt>
      <trkpt lat="45.8895" lon="5.58922">
        <ele>842</ele>
        <time>2021-09-04T12:33:18.246Z</time>
      </trkpt>
      <trkpt lat="45.88954" lon="5.58916">
        <ele>842</ele>
        <time>2021-09-04T12:33:23.240Z</time>
      </trkpt>
      <trkpt lat="45.88957" lon="5.58912">
        <ele>842</ele>
        <time>2021-09-04T12:33:27.246Z</time>
      </trkpt>
      <trkpt lat="45.88962" lon="5.58906">
        <ele>843</ele>
        <time>2021-09-04T12:33:32.237Z</time>
      </trkpt>
      <trkpt lat="45.88966" lon="5.58903">
        <ele>843</ele>
        <time>2021-09-04T12:33:36.247Z</time>
      </trkpt>
      <trkpt lat="45.88971" lon="5.58899">
        <ele>844</ele>
        <time>2021-09-04T12:33:41.223Z</time>
      </trkpt>
      <trkpt lat="45.88974" lon="5.58895">
        <ele>844</ele>
        <time>2021-09-04T12:33:45.281Z</time>
      </trkpt>
      <trkpt lat="45.88976" lon="5.58888">
        <ele>844</ele>
        <time>2021-09-04T12:33:50.238Z</time>
      </trkpt>
      <trkpt lat="45.88975" lon="5.58881">
        <ele>844</ele>
        <time>2021-09-04T12:33:54.246Z</time>
      </trkpt>
      <trkpt lat="45.88973" lon="5.58874">
        <ele>845</ele>
        <time>2021-09-04T12:33:59.228Z</time>
      </trkpt>
      <trkpt lat="45.8897" lon="5.58867">
        <ele>845</ele>
        <time>2021-09-04T12:34:04.244Z</time>
      </trkpt>
      <trkpt lat="45.88963" lon="5.58873">
        <ele>845</ele>
        <time>2021-09-04T12:35:18.243Z</time>
      </trkpt>
      <trkpt lat="45.88964" lon="5.58875">
        <ele>845</ele>
        <time>2021-09-04T12:35:22.240Z</time>
      </trkpt>
      <trkpt lat="45.88961" lon="5.58874">
        <ele>845</ele>
        <time>2021-09-04T12:35:27.247Z</time>
      </trkpt>
      <trkpt lat="45.88958" lon="5.58871">
        <ele>843</ele>
        <time>2021-09-04T12:35:32.236Z</time>
      </trkpt>
      <trkpt lat="45.88956" lon="5.58876">
        <ele>842</ele>
        <time>2021-09-04T12:35:36.245Z</time>
      </trkpt>
      <trkpt lat="45.88959" lon="5.58879">
        <ele>844</ele>
        <time>2021-09-04T12:36:08.238Z</time>
      </trkpt>
      <trkpt lat="45.88959" lon="5.58879">
        <ele>844</ele>
        <time>2021-09-04T12:36:13.236Z</time>
      </trkpt>
      <trkpt lat="45.88959" lon="5.58879">
        <ele>844</ele>
        <time>2021-09-04T12:36:17.240Z</time>
      </trkpt>
      <trkpt lat="45.88961" lon="5.58876">
        <ele>844</ele>
        <time>2021-09-04T12:36:21.228Z</time>
      </trkpt>
      <trkpt lat="45.88964" lon="5.58867">
        <ele>845</ele>
        <time>2021-09-04T12:36:26.245Z</time>
      </trkpt>
      <trkpt lat="45.8897" lon="5.58871">
        <ele>845</ele>
        <time>2021-09-04T12:37:07.240Z</time>
      </trkpt>
      <trkpt lat="45.8897" lon="5.58871">
        <ele>845</ele>
        <time>2021-09-04T12:37:12.245Z</time>
      </trkpt>
      <trkpt lat="45.88971" lon="5.58872">
        <ele>845</ele>
        <time>2021-09-04T12:37:16.294Z</time>
      </trkpt>
      <trkpt lat="45.88971" lon="5.58875">
        <ele>845</ele>
        <time>2021-09-04T12:37:21.263Z</time>
      </trkpt>
      <trkpt lat="45.88972" lon="5.58879">
        <ele>844</ele>
        <time>2021-09-04T12:37:25.272Z</time>
      </trkpt>
      <trkpt lat="45.88975" lon="5.58884">
        <ele>844</ele>
        <time>2021-09-04T12:37:34.280Z</time>
      </trkpt>
      <trkpt lat="45.88975" lon="5.58887">
        <ele>844</ele>
        <time>2021-09-04T12:37:39.265Z</time>
      </trkpt>
      <trkpt lat="45.88972" lon="5.58889">
        <ele>844</ele>
        <time>2021-09-04T12:37:43.300Z</time>
      </trkpt>
      <trkpt lat="45.88969" lon="5.58888">
        <ele>844</ele>
        <time>2021-09-04T12:37:48.296Z</time>
      </trkpt>
      <trkpt lat="45.88964" lon="5.58888">
        <ele>844</ele>
        <time>2021-09-04T12:37:53.276Z</time>
      </trkpt>
      <trkpt lat="45.8896" lon="5.58885">
        <ele>844</ele>
        <time>2021-09-04T12:37:57.293Z</time>
      </trkpt>
      <trkpt lat="45.88958" lon="5.58877">
        <ele>842</ele>
        <time>2021-09-04T12:38:02.269Z</time>
      </trkpt>
      <trkpt lat="45.88957" lon="5.58869">
        <ele>843</ele>
        <time>2021-09-04T12:38:06.293Z</time>
      </trkpt>
      <trkpt lat="45.88956" lon="5.58861">
        <ele>843</ele>
        <time>2021-09-04T12:38:11.268Z</time>
      </trkpt>
      <trkpt lat="45.88955" lon="5.58851">
        <ele>843</ele>
        <time>2021-09-04T12:38:16.236Z</time>
      </trkpt>
      <trkpt lat="45.88954" lon="5.58844">
        <ele>844</ele>
        <time>2021-09-04T12:38:20.258Z</time>
      </trkpt>
      <trkpt lat="45.88953" lon="5.58838">
        <ele>844</ele>
        <time>2021-09-04T12:38:24.302Z</time>
      </trkpt>
      <trkpt lat="45.88953" lon="5.58829">
        <ele>844</ele>
        <time>2021-09-04T12:38:29.298Z</time>
      </trkpt>
      <trkpt lat="45.88952" lon="5.58819">
        <ele>844</ele>
        <time>2021-09-04T12:38:34.270Z</time>
      </trkpt>
      <trkpt lat="45.88951" lon="5.58811">
        <ele>844</ele>
        <time>2021-09-04T12:38:39.224Z</time>
      </trkpt>
      <trkpt lat="45.88951" lon="5.58804">
        <ele>844</ele>
        <time>2021-09-04T12:38:43.269Z</time>
      </trkpt>
      <trkpt lat="45.8895" lon="5.58798">
        <ele>844</ele>
        <time>2021-09-04T12:38:47.275Z</time>
      </trkpt>
      <trkpt lat="45.88948" lon="5.58784">
        <ele>843</ele>
        <time>2021-09-04T12:38:52.278Z</time>
      </trkpt>
      <trkpt lat="45.8895" lon="5.58771">
        <ele>843</ele>
        <time>2021-09-04T12:38:57.281Z</time>
      </trkpt>
      <trkpt lat="45.88949" lon="5.58766">
        <ele>843</ele>
        <time>2021-09-04T12:39:01.286Z</time>
      </trkpt>
      <trkpt lat="45.88948" lon="5.58761">
        <ele>841</ele>
        <time>2021-09-04T12:39:06.273Z</time>
      </trkpt>
      <trkpt lat="45.88947" lon="5.58755">
        <ele>841</ele>
        <time>2021-09-04T12:39:10.289Z</time>
      </trkpt>
      <trkpt lat="45.88946" lon="5.58748">
        <ele>841</ele>
        <time>2021-09-04T12:39:15.270Z</time>
      </trkpt>
      <trkpt lat="45.88944" lon="5.5874">
        <ele>841</ele>
        <time>2021-09-04T12:39:20.262Z</time>
      </trkpt>
      <trkpt lat="45.88942" lon="5.58733">
        <ele>839</ele>
        <time>2021-09-04T12:39:25.257Z</time>
      </trkpt>
      <trkpt lat="45.88941" lon="5.58726">
        <ele>839</ele>
        <time>2021-09-04T12:39:29.300Z</time>
      </trkpt>
      <trkpt lat="45.88939" lon="5.58718">
        <ele>839</ele>
        <time>2021-09-04T12:39:34.267Z</time>
      </trkpt>
      <trkpt lat="45.88938" lon="5.58711">
        <ele>839</ele>
        <time>2021-09-04T12:39:38.270Z</time>
      </trkpt>
      <trkpt lat="45.88937" lon="5.58703">
        <ele>838</ele>
        <time>2021-09-04T12:39:43.299Z</time>
      </trkpt>
      <trkpt lat="45.88938" lon="5.58695">
        <ele>838</ele>
        <time>2021-09-04T12:39:48.299Z</time>
      </trkpt>
      <trkpt lat="45.88937" lon="5.58689">
        <ele>838</ele>
        <time>2021-09-04T12:39:52.309Z</time>
      </trkpt>
      <trkpt lat="45.88938" lon="5.5868">
        <ele>836</ele>
        <time>2021-09-04T12:39:57.272Z</time>
      </trkpt>
      <trkpt lat="45.88937" lon="5.58673">
        <ele>836</ele>
        <time>2021-09-04T12:40:01.295Z</time>
      </trkpt>
      <trkpt lat="45.88936" lon="5.58667">
        <ele>836</ele>
        <time>2021-09-04T12:40:05.302Z</time>
      </trkpt>
      <trkpt lat="45.88936" lon="5.58657">
        <ele>836</ele>
        <time>2021-09-04T12:40:10.299Z</time>
      </trkpt>
      <trkpt lat="45.88934" lon="5.58649">
        <ele>834</ele>
        <time>2021-09-04T12:40:15.272Z</time>
      </trkpt>
      <trkpt lat="45.88932" lon="5.58641">
        <ele>834</ele>
        <time>2021-09-04T12:40:20.267Z</time>
      </trkpt>
      <trkpt lat="45.88932" lon="5.58634">
        <ele>834</ele>
        <time>2021-09-04T12:40:24.273Z</time>
      </trkpt>
      <trkpt lat="45.88931" lon="5.58627">
        <ele>834</ele>
        <time>2021-09-04T12:40:28.295Z</time>
      </trkpt>
      <trkpt lat="45.88931" lon="5.58619">
        <ele>832</ele>
        <time>2021-09-04T12:40:33.290Z</time>
      </trkpt>
      <trkpt lat="45.88929" lon="5.58609">
        <ele>832</ele>
        <time>2021-09-04T12:40:38.296Z</time>
      </trkpt>
      <trkpt lat="45.88928" lon="5.586">
        <ele>832</ele>
        <time>2021-09-04T12:40:43.289Z</time>
      </trkpt>
      <trkpt lat="45.88926" lon="5.5859">
        <ele>830</ele>
        <time>2021-09-04T12:40:48.258Z</time>
      </trkpt>
      <trkpt lat="45.88926" lon="5.58581">
        <ele>830</ele>
        <time>2021-09-04T12:40:53.251Z</time>
      </trkpt>
      <trkpt lat="45.88925" lon="5.58574">
        <ele>830</ele>
        <time>2021-09-04T12:40:57.263Z</time>
      </trkpt>
      <trkpt lat="45.88924" lon="5.58565">
        <ele>829</ele>
        <time>2021-09-04T12:41:02.270Z</time>
      </trkpt>
      <trkpt lat="45.88924" lon="5.58556">
        <ele>829</ele>
        <time>2021-09-04T12:41:07.277Z</time>
      </trkpt>
      <trkpt lat="45.88925" lon="5.58547">
        <ele>829</ele>
        <time>2021-09-04T12:41:11.299Z</time>
      </trkpt>
      <trkpt lat="45.88923" lon="5.58537">
        <ele>828</ele>
        <time>2021-09-04T12:41:16.292Z</time>
      </trkpt>
      <trkpt lat="45.88921" lon="5.58528">
        <ele>828</ele>
        <time>2021-09-04T12:41:21.267Z</time>
      </trkpt>
      <trkpt lat="45.88918" lon="5.5852">
        <ele>828</ele>
        <time>2021-09-04T12:41:26.265Z</time>
      </trkpt>
      <trkpt lat="45.88914" lon="5.58512">
        <ele>828</ele>
        <time>2021-09-04T12:41:31.266Z</time>
      </trkpt>
      <trkpt lat="45.88911" lon="5.58503">
        <ele>828</ele>
        <time>2021-09-04T12:41:36.266Z</time>
      </trkpt>
      <trkpt lat="45.88907" lon="5.58497">
        <ele>828</ele>
        <time>2021-09-04T12:41:40.324Z</time>
      </trkpt>
      <trkpt lat="45.88904" lon="5.5849">
        <ele>828</ele>
        <time>2021-09-04T12:41:45.302Z</time>
      </trkpt>
      <trkpt lat="45.88901" lon="5.58484">
        <ele>830</ele>
        <time>2021-09-04T12:41:49.318Z</time>
      </trkpt>
      <trkpt lat="45.88897" lon="5.58478">
        <ele>830</ele>
        <time>2021-09-04T12:41:53.327Z</time>
      </trkpt>
      <trkpt lat="45.88894" lon="5.58473">
        <ele>830</ele>
        <time>2021-09-04T12:41:58.258Z</time>
      </trkpt>
      <trkpt lat="45.8889" lon="5.58468">
        <ele>830</ele>
        <time>2021-09-04T12:42:02.267Z</time>
      </trkpt>
      <trkpt lat="45.88885" lon="5.58462">
        <ele>830</ele>
        <time>2021-09-04T12:42:06.301Z</time>
      </trkpt>
      <trkpt lat="45.88879" lon="5.58457">
        <ele>831</ele>
        <time>2021-09-04T12:42:11.271Z</time>
      </trkpt>
      <trkpt lat="45.88874" lon="5.58452">
        <ele>834</ele>
        <time>2021-09-04T12:42:15.280Z</time>
      </trkpt>
      <trkpt lat="45.88868" lon="5.58447">
        <ele>834</ele>
        <time>2021-09-04T12:42:20.327Z</time>
      </trkpt>
      <trkpt lat="45.88864" lon="5.58441">
        <ele>834</ele>
        <time>2021-09-04T12:42:25.264Z</time>
      </trkpt>
      <trkpt lat="45.88859" lon="5.58433">
        <ele>834</ele>
        <time>2021-09-04T12:42:30.317Z</time>
      </trkpt>
      <trkpt lat="45.88854" lon="5.58425">
        <ele>836</ele>
        <time>2021-09-04T12:42:35.279Z</time>
      </trkpt>
      <trkpt lat="45.88851" lon="5.58417">
        <ele>836</ele>
        <time>2021-09-04T12:42:40.298Z</time>
      </trkpt>
      <trkpt lat="45.88847" lon="5.58409">
        <ele>836</ele>
        <time>2021-09-04T12:42:45.297Z</time>
      </trkpt>
      <trkpt lat="45.88842" lon="5.58402">
        <ele>841</ele>
        <time>2021-09-04T12:42:50.263Z</time>
      </trkpt>
      <trkpt lat="45.88837" lon="5.58395">
        <ele>841</ele>
        <time>2021-09-04T12:42:55.261Z</time>
      </trkpt>
      <trkpt lat="45.88834" lon="5.58387">
        <ele>841</ele>
        <time>2021-09-04T12:43:00.316Z</time>
      </trkpt>
      <trkpt lat="45.88832" lon="5.58379">
        <ele>841</ele>
        <time>2021-09-04T12:43:05.321Z</time>
      </trkpt>
      <trkpt lat="45.88831" lon="5.5837">
        <ele>844</ele>
        <time>2021-09-04T12:43:10.223Z</time>
      </trkpt>
      <trkpt lat="45.8883" lon="5.58363">
        <ele>844</ele>
        <time>2021-09-04T12:43:14.261Z</time>
      </trkpt>
      <trkpt lat="45.88828" lon="5.58356">
        <ele>844</ele>
        <time>2021-09-04T12:43:18.274Z</time>
      </trkpt>
      <trkpt lat="45.88826" lon="5.58347">
        <ele>844</ele>
        <time>2021-09-04T12:43:23.269Z</time>
      </trkpt>
      <trkpt lat="45.88825" lon="5.5834">
        <ele>846</ele>
        <time>2021-09-04T12:43:27.273Z</time>
      </trkpt>
      <trkpt lat="45.88822" lon="5.58331">
        <ele>846</ele>
        <time>2021-09-04T12:43:32.266Z</time>
      </trkpt>
      <trkpt lat="45.88817" lon="5.58323">
        <ele>846</ele>
        <time>2021-09-04T12:43:37.278Z</time>
      </trkpt>
      <trkpt lat="45.8881" lon="5.5832">
        <ele>846</ele>
        <time>2021-09-04T12:43:42.276Z</time>
      </trkpt>
      <trkpt lat="45.8881" lon="5.5832">
        <ele>846</ele>
        <time>2021-09-04T12:43:47.270Z</time>
      </trkpt>
      <trkpt lat="45.8881" lon="5.58319">
        <ele>847</ele>
        <time>2021-09-04T12:43:51.283Z</time>
      </trkpt>
      <trkpt lat="45.88808" lon="5.58317">
        <ele>847</ele>
        <time>2021-09-04T12:43:56.307Z</time>
      </trkpt>
      <trkpt lat="45.88802" lon="5.58314">
        <ele>847</ele>
        <time>2021-09-04T12:44:01.275Z</time>
      </trkpt>
      <trkpt lat="45.88796" lon="5.58308">
        <ele>847</ele>
        <time>2021-09-04T12:44:06.265Z</time>
      </trkpt>
      <trkpt lat="45.88791" lon="5.58303">
        <ele>846</ele>
        <time>2021-09-04T12:44:11.225Z</time>
      </trkpt>
      <trkpt lat="45.88786" lon="5.583">
        <ele>846</ele>
        <time>2021-09-04T12:44:15.258Z</time>
      </trkpt>
      <trkpt lat="45.88779" lon="5.58297">
        <ele>846</ele>
        <time>2021-09-04T12:44:20.232Z</time>
      </trkpt>
      <trkpt lat="45.88774" lon="5.58295">
        <ele>846</ele>
        <time>2021-09-04T12:44:24.262Z</time>
      </trkpt>
      <trkpt lat="45.88768" lon="5.58293">
        <ele>846</ele>
        <time>2021-09-04T12:44:28.312Z</time>
      </trkpt>
      <trkpt lat="45.88761" lon="5.58291">
        <ele>848</ele>
        <time>2021-09-04T12:44:33.266Z</time>
      </trkpt>
      <trkpt lat="45.88754" lon="5.58289">
        <ele>848</ele>
        <time>2021-09-04T12:44:38.269Z</time>
      </trkpt>
      <trkpt lat="45.88747" lon="5.58286">
        <ele>848</ele>
        <time>2021-09-04T12:44:43.260Z</time>
      </trkpt>
      <trkpt lat="45.88741" lon="5.58283">
        <ele>848</ele>
        <time>2021-09-04T12:44:48.280Z</time>
      </trkpt>
      <trkpt lat="45.88735" lon="5.5828">
        <ele>850</ele>
        <time>2021-09-04T12:44:52.295Z</time>
      </trkpt>
      <trkpt lat="45.88728" lon="5.58277">
        <ele>850</ele>
        <time>2021-09-04T12:44:57.267Z</time>
      </trkpt>
      <trkpt lat="45.88721" lon="5.58274">
        <ele>850</ele>
        <time>2021-09-04T12:45:02.265Z</time>
      </trkpt>
      <trkpt lat="45.88717" lon="5.58272">
        <ele>850</ele>
        <time>2021-09-04T12:45:06.285Z</time>
      </trkpt>
      <trkpt lat="45.8871" lon="5.58269">
        <ele>850</ele>
        <time>2021-09-04T12:45:11.259Z</time>
      </trkpt>
      <trkpt lat="45.88705" lon="5.58268">
        <ele>853</ele>
        <time>2021-09-04T12:45:15.298Z</time>
      </trkpt>
      <trkpt lat="45.88699" lon="5.58265">
        <ele>853</ele>
        <time>2021-09-04T12:45:20.292Z</time>
      </trkpt>
      <trkpt lat="45.88693" lon="5.58262">
        <ele>853</ele>
        <time>2021-09-04T12:45:25.292Z</time>
      </trkpt>
      <trkpt lat="45.88686" lon="5.58258">
        <ele>853</ele>
        <time>2021-09-04T12:45:30.265Z</time>
      </trkpt>
      <trkpt lat="45.8868" lon="5.58254">
        <ele>854</ele>
        <time>2021-09-04T12:45:35.251Z</time>
      </trkpt>
      <trkpt lat="45.88674" lon="5.5825">
        <ele>854</ele>
        <time>2021-09-04T12:45:40.263Z</time>
      </trkpt>
      <trkpt lat="45.88668" lon="5.58247">
        <ele>854</ele>
        <time>2021-09-04T12:45:45.291Z</time>
      </trkpt>
      <trkpt lat="45.88662" lon="5.58243">
        <ele>854</ele>
        <time>2021-09-04T12:45:50.268Z</time>
      </trkpt>
      <trkpt lat="45.88657" lon="5.58238">
        <ele>854</ele>
        <time>2021-09-04T12:45:55.268Z</time>
      </trkpt>
      <trkpt lat="45.8865" lon="5.58236">
        <ele>856</ele>
        <time>2021-09-04T12:46:00.307Z</time>
      </trkpt>
      <trkpt lat="45.88644" lon="5.58234">
        <ele>856</ele>
        <time>2021-09-04T12:46:05.271Z</time>
      </trkpt>
      <trkpt lat="45.88639" lon="5.58232">
        <ele>856</ele>
        <time>2021-09-04T12:46:09.293Z</time>
      </trkpt>
      <trkpt lat="45.88634" lon="5.58231">
        <ele>856</ele>
        <time>2021-09-04T12:46:13.310Z</time>
      </trkpt>
      <trkpt lat="45.88628" lon="5.58228">
        <ele>856</ele>
        <time>2021-09-04T12:46:18.242Z</time>
      </trkpt>
      <trkpt lat="45.88623" lon="5.58224">
        <ele>860</ele>
        <time>2021-09-04T12:46:22.309Z</time>
      </trkpt>
      <trkpt lat="45.88617" lon="5.58221">
        <ele>860</ele>
        <time>2021-09-04T12:46:27.258Z</time>
      </trkpt>
      <trkpt lat="45.88611" lon="5.58219">
        <ele>860</ele>
        <time>2021-09-04T12:46:31.268Z</time>
      </trkpt>
      <trkpt lat="45.88606" lon="5.58216">
        <ele>860</ele>
        <time>2021-09-04T12:46:35.291Z</time>
      </trkpt>
      <trkpt lat="45.88602" lon="5.58215">
        <ele>860</ele>
        <time>2021-09-04T12:46:39.302Z</time>
      </trkpt>
      <trkpt lat="45.88596" lon="5.5821">
        <ele>864</ele>
        <time>2021-09-04T12:46:44.285Z</time>
      </trkpt>
      <trkpt lat="45.8859" lon="5.58207">
        <ele>864</ele>
        <time>2021-09-04T12:46:49.267Z</time>
      </trkpt>
      <trkpt lat="45.88584" lon="5.58202">
        <ele>864</ele>
        <time>2021-09-04T12:46:54.262Z</time>
      </trkpt>
      <trkpt lat="45.88581" lon="5.58198">
        <ele>864</ele>
        <time>2021-09-04T12:46:58.272Z</time>
      </trkpt>
      <trkpt lat="45.88578" lon="5.5819">
        <ele>864</ele>
        <time>2021-09-04T12:47:03.264Z</time>
      </trkpt>
      <trkpt lat="45.88574" lon="5.58184">
        <ele>864</ele>
        <time>2021-09-04T12:47:07.278Z</time>
      </trkpt>
      <trkpt lat="45.88573" lon="5.58177">
        <ele>866</ele>
        <time>2021-09-04T12:47:12.259Z</time>
      </trkpt>
      <trkpt lat="45.8857" lon="5.58172">
        <ele>866</ele>
        <time>2021-09-04T12:47:16.271Z</time>
      </trkpt>
      <trkpt lat="45.88566" lon="5.58165">
        <ele>866</ele>
        <time>2021-09-04T12:47:21.304Z</time>
      </trkpt>
      <trkpt lat="45.88563" lon="5.58156">
        <ele>866</ele>
        <time>2021-09-04T12:47:26.281Z</time>
      </trkpt>
      <trkpt lat="45.8856" lon="5.58146">
        <ele>868</ele>
        <time>2021-09-04T12:47:31.292Z</time>
      </trkpt>
      <trkpt lat="45.88559" lon="5.58137">
        <ele>868</ele>
        <time>2021-09-04T12:47:35.305Z</time>
      </trkpt>
      <trkpt lat="45.88558" lon="5.58128">
        <ele>868</ele>
        <time>2021-09-04T12:47:40.277Z</time>
      </trkpt>
      <trkpt lat="45.88555" lon="5.5812">
        <ele>870</ele>
        <time>2021-09-04T12:47:45.260Z</time>
      </trkpt>
      <trkpt lat="45.88555" lon="5.58112">
        <ele>870</ele>
        <time>2021-09-04T12:47:50.267Z</time>
      </trkpt>
      <trkpt lat="45.88557" lon="5.58101">
        <ele>870</ele>
        <time>2021-09-04T12:47:55.259Z</time>
      </trkpt>
      <trkpt lat="45.88556" lon="5.58094">
        <ele>872</ele>
        <time>2021-09-04T12:47:59.269Z</time>
      </trkpt>
      <trkpt lat="45.88553" lon="5.58085">
        <ele>872</ele>
        <time>2021-09-04T12:48:04.302Z</time>
      </trkpt>
      <trkpt lat="45.88558" lon="5.58078">
        <ele>872</ele>
        <time>2021-09-04T12:48:09.291Z</time>
      </trkpt>
      <trkpt lat="45.88557" lon="5.58069">
        <ele>875</ele>
        <time>2021-09-04T12:48:35.327Z</time>
      </trkpt>
      <trkpt lat="45.88557" lon="5.58069">
        <ele>875</ele>
        <time>2021-09-04T12:48:40.314Z</time>
      </trkpt>
      <trkpt lat="45.88553" lon="5.58058">
        <ele>875</ele>
        <time>2021-09-04T12:48:45.300Z</time>
      </trkpt>
      <trkpt lat="45.88547" lon="5.58041">
        <ele>880</ele>
        <time>2021-09-04T12:48:50.274Z</time>
      </trkpt>
      <trkpt lat="45.88541" lon="5.58036">
        <ele>885</ele>
        <time>2021-09-04T12:48:54.301Z</time>
      </trkpt>
      <trkpt lat="45.88536" lon="5.58039">
        <ele>885</ele>
        <time>2021-09-04T12:48:58.308Z</time>
      </trkpt>
      <trkpt lat="45.88531" lon="5.58041">
        <ele>885</ele>
        <time>2021-09-04T12:49:03.304Z</time>
      </trkpt>
      <trkpt lat="45.88527" lon="5.58045">
        <ele>876</ele>
        <time>2021-09-04T12:49:08.266Z</time>
      </trkpt>
      <trkpt lat="45.88523" lon="5.58047">
        <ele>876</ele>
        <time>2021-09-04T12:49:12.292Z</time>
      </trkpt>
      <trkpt lat="45.88522" lon="5.58047">
        <ele>876</ele>
        <time>2021-09-04T12:49:17.257Z</time>
      </trkpt>
      <trkpt lat="45.88524" lon="5.58048">
        <ele>876</ele>
        <time>2021-09-04T12:49:21.269Z</time>
      </trkpt>
      <trkpt lat="45.88527" lon="5.5805">
        <ele>876</ele>
        <time>2021-09-04T12:49:26.268Z</time>
      </trkpt>
      <trkpt lat="45.8853" lon="5.58055">
        <ele>876</ele>
        <time>2021-09-04T12:49:31.311Z</time>
      </trkpt>
      <trkpt lat="45.88534" lon="5.58058">
        <ele>876</ele>
        <time>2021-09-04T12:49:36.306Z</time>
      </trkpt>
      <trkpt lat="45.88537" lon="5.58061">
        <ele>876</ele>
        <time>2021-09-04T12:49:40.320Z</time>
      </trkpt>
      <trkpt lat="45.88539" lon="5.58065">
        <ele>876</ele>
        <time>2021-09-04T12:49:45.302Z</time>
      </trkpt>
      <trkpt lat="45.88541" lon="5.5807">
        <ele>872</ele>
        <time>2021-09-04T12:49:50.308Z</time>
      </trkpt>
      <trkpt lat="45.88544" lon="5.58074">
        <ele>872</ele>
        <time>2021-09-04T12:49:55.258Z</time>
      </trkpt>
      <trkpt lat="45.88547" lon="5.58076">
        <ele>872</ele>
        <time>2021-09-04T12:49:59.264Z</time>
      </trkpt>
      <trkpt lat="45.88548" lon="5.58083">
        <ele>872</ele>
        <time>2021-09-04T12:50:04.303Z</time>
      </trkpt>
      <trkpt lat="45.88548" lon="5.58089">
        <ele>872</ele>
        <time>2021-09-04T12:50:09.300Z</time>
      </trkpt>
      <trkpt lat="45.88546" lon="5.58096">
        <ele>872</ele>
        <time>2021-09-04T12:50:14.291Z</time>
      </trkpt>
      <trkpt lat="45.88548" lon="5.58103">
        <ele>870</ele>
        <time>2021-09-04T12:50:18.298Z</time>
      </trkpt>
      <trkpt lat="45.88549" lon="5.58112">
        <ele>870</ele>
        <time>2021-09-04T12:50:23.268Z</time>
      </trkpt>
      <trkpt lat="45.88549" lon="5.58118">
        <ele>870</ele>
        <time>2021-09-04T12:50:28.294Z</time>
      </trkpt>
      <trkpt lat="45.88551" lon="5.58126">
        <ele>868</ele>
        <time>2021-09-04T12:50:33.266Z</time>
      </trkpt>
      <trkpt lat="45.88553" lon="5.58134">
        <ele>868</ele>
        <time>2021-09-04T12:50:38.267Z</time>
      </trkpt>
      <trkpt lat="45.88553" lon="5.5814">
        <ele>868</ele>
        <time>2021-09-04T12:50:42.291Z</time>
      </trkpt>
      <trkpt lat="45.88554" lon="5.5815">
        <ele>868</ele>
        <time>2021-09-04T12:50:47.270Z</time>
      </trkpt>
      <trkpt lat="45.88556" lon="5.58155">
        <ele>866</ele>
        <time>2021-09-04T12:50:51.292Z</time>
      </trkpt>
      <trkpt lat="45.8856" lon="5.58162">
        <ele>866</ele>
        <time>2021-09-04T12:50:56.265Z</time>
      </trkpt>
      <trkpt lat="45.88565" lon="5.5817">
        <ele>866</ele>
        <time>2021-09-04T12:51:01.267Z</time>
      </trkpt>
      <trkpt lat="45.88568" lon="5.58176">
        <ele>866</ele>
        <time>2021-09-04T12:51:06.305Z</time>
      </trkpt>
      <trkpt lat="45.88573" lon="5.58183">
        <ele>864</ele>
        <time>2021-09-04T12:51:11.274Z</time>
      </trkpt>
      <trkpt lat="45.88576" lon="5.5819">
        <ele>864</ele>
        <time>2021-09-04T12:51:15.294Z</time>
      </trkpt>
      <trkpt lat="45.8858" lon="5.58197">
        <ele>864</ele>
        <time>2021-09-04T12:51:20.293Z</time>
      </trkpt>
      <trkpt lat="45.88584" lon="5.58205">
        <ele>864</ele>
        <time>2021-09-04T12:51:25.294Z</time>
      </trkpt>
      <trkpt lat="45.8859" lon="5.5821">
        <ele>864</ele>
        <time>2021-09-04T12:51:30.266Z</time>
      </trkpt>
      <trkpt lat="45.88595" lon="5.58214">
        <ele>864</ele>
        <time>2021-09-04T12:51:34.273Z</time>
      </trkpt>
      <trkpt lat="45.886" lon="5.58214">
        <ele>860</ele>
        <time>2021-09-04T12:51:38.289Z</time>
      </trkpt>
      <trkpt lat="45.88606" lon="5.58217">
        <ele>860</ele>
        <time>2021-09-04T12:51:43.271Z</time>
      </trkpt>
      <trkpt lat="45.88612" lon="5.5822">
        <ele>860</ele>
        <time>2021-09-04T12:51:48.268Z</time>
      </trkpt>
      <trkpt lat="45.88618" lon="5.58222">
        <ele>860</ele>
        <time>2021-09-04T12:51:53.260Z</time>
      </trkpt>
      <trkpt lat="45.88623" lon="5.58224">
        <ele>860</ele>
        <time>2021-09-04T12:51:57.267Z</time>
      </trkpt>
      <trkpt lat="45.88628" lon="5.58225">
        <ele>856</ele>
        <time>2021-09-04T12:52:01.324Z</time>
      </trkpt>
      <trkpt lat="45.88633" lon="5.58227">
        <ele>856</ele>
        <time>2021-09-04T12:52:06.257Z</time>
      </trkpt>
      <trkpt lat="45.88638" lon="5.58229">
        <ele>856</ele>
        <time>2021-09-04T12:52:10.315Z</time>
      </trkpt>
      <trkpt lat="45.88645" lon="5.58233">
        <ele>856</ele>
        <time>2021-09-04T12:52:15.317Z</time>
      </trkpt>
      <trkpt lat="45.88651" lon="5.58235">
        <ele>856</ele>
        <time>2021-09-04T12:52:20.238Z</time>
      </trkpt>
      <trkpt lat="45.88656" lon="5.58237">
        <ele>854</ele>
        <time>2021-09-04T12:52:24.312Z</time>
      </trkpt>
      <trkpt lat="45.88661" lon="5.58241">
        <ele>854</ele>
        <time>2021-09-04T12:52:29.228Z</time>
      </trkpt>
      <trkpt lat="45.88665" lon="5.58245">
        <ele>854</ele>
        <time>2021-09-04T12:52:33.275Z</time>
      </trkpt>
      <trkpt lat="45.8867" lon="5.58248">
        <ele>854</ele>
        <time>2021-09-04T12:52:37.289Z</time>
      </trkpt>
      <trkpt lat="45.88676" lon="5.58252">
        <ele>854</ele>
        <time>2021-09-04T12:52:42.265Z</time>
      </trkpt>
      <trkpt lat="45.88682" lon="5.58255">
        <ele>853</ele>
        <time>2021-09-04T12:52:47.269Z</time>
      </trkpt>
      <trkpt lat="45.88685" lon="5.58259">
        <ele>853</ele>
        <time>2021-09-04T12:52:51.302Z</time>
      </trkpt>
      <trkpt lat="45.8869" lon="5.58263">
        <ele>853</ele>
        <time>2021-09-04T12:52:56.261Z</time>
      </trkpt>
      <trkpt lat="45.88694" lon="5.58266">
        <ele>853</ele>
        <time>2021-09-04T12:53:00.268Z</time>
      </trkpt>
      <trkpt lat="45.88701" lon="5.58268">
        <ele>853</ele>
        <time>2021-09-04T12:53:05.316Z</time>
      </trkpt>
      <trkpt lat="45.88707" lon="5.5827">
        <ele>853</ele>
        <time>2021-09-04T12:53:10.257Z</time>
      </trkpt>
      <trkpt lat="45.88712" lon="5.58271">
        <ele>850</ele>
        <time>2021-09-04T12:53:14.272Z</time>
      </trkpt>
      <trkpt lat="45.88719" lon="5.58274">
        <ele>850</ele>
        <time>2021-09-04T12:53:19.272Z</time>
      </trkpt>
      <trkpt lat="45.88725" lon="5.58277">
        <ele>850</ele>
        <time>2021-09-04T12:53:24.262Z</time>
      </trkpt>
      <trkpt lat="45.8873" lon="5.5828">
        <ele>850</ele>
        <time>2021-09-04T12:53:28.290Z</time>
      </trkpt>
      <trkpt lat="45.88736" lon="5.58282">
        <ele>848</ele>
        <time>2021-09-04T12:53:33.268Z</time>
      </trkpt>
      <trkpt lat="45.88743" lon="5.58284">
        <ele>848</ele>
        <time>2021-09-04T12:53:38.269Z</time>
      </trkpt>
      <trkpt lat="45.88749" lon="5.58286">
        <ele>848</ele>
        <time>2021-09-04T12:53:43.304Z</time>
      </trkpt>
      <trkpt lat="45.88756" lon="5.58288">
        <ele>848</ele>
        <time>2021-09-04T12:53:48.295Z</time>
      </trkpt>
      <trkpt lat="45.88761" lon="5.58289">
        <ele>848</ele>
        <time>2021-09-04T12:53:52.287Z</time>
      </trkpt>
      <trkpt lat="45.88767" lon="5.58291">
        <ele>848</ele>
        <time>2021-09-04T12:53:57.295Z</time>
      </trkpt>
      <trkpt lat="45.88773" lon="5.58293">
        <ele>846</ele>
        <time>2021-09-04T12:54:02.275Z</time>
      </trkpt>
      <trkpt lat="45.88778" lon="5.58294">
        <ele>846</ele>
        <time>2021-09-04T12:54:06.290Z</time>
      </trkpt>
      <trkpt lat="45.88783" lon="5.58296">
        <ele>846</ele>
        <time>2021-09-04T12:54:10.301Z</time>
      </trkpt>
      <trkpt lat="45.8879" lon="5.58299">
        <ele>846</ele>
        <time>2021-09-04T12:54:15.264Z</time>
      </trkpt>
      <trkpt lat="45.88795" lon="5.58304">
        <ele>847</ele>
        <time>2021-09-04T12:54:19.320Z</time>
      </trkpt>
      <trkpt lat="45.88799" lon="5.58311">
        <ele>847</ele>
        <time>2021-09-04T12:54:24.264Z</time>
      </trkpt>
      <trkpt lat="45.88804" lon="5.58314">
        <ele>847</ele>
        <time>2021-09-04T12:54:28.321Z</time>
      </trkpt>
      <trkpt lat="45.88809" lon="5.58319">
        <ele>847</ele>
        <time>2021-09-04T12:54:33.276Z</time>
      </trkpt>
      <trkpt lat="45.88814" lon="5.58325">
        <ele>846</ele>
        <time>2021-09-04T12:54:38.295Z</time>
      </trkpt>
      <trkpt lat="45.88818" lon="5.58331">
        <ele>846</ele>
        <time>2021-09-04T12:54:43.294Z</time>
      </trkpt>
      <trkpt lat="45.88824" lon="5.58329">
        <ele>846</ele>
        <time>2021-09-04T12:54:48.274Z</time>
      </trkpt>
      <trkpt lat="45.88828" lon="5.58327">
        <ele>846</ele>
        <time>2021-09-04T12:54:52.302Z</time>
      </trkpt>
      <trkpt lat="45.88834" lon="5.58326">
        <ele>846</ele>
        <time>2021-09-04T12:54:57.292Z</time>
      </trkpt>
      <trkpt lat="45.8884" lon="5.58327">
        <ele>846</ele>
        <time>2021-09-04T12:55:02.263Z</time>
      </trkpt>
      <trkpt lat="45.88845" lon="5.58327">
        <ele>846</ele>
        <time>2021-09-04T12:55:06.268Z</time>
      </trkpt>
      <trkpt lat="45.8885" lon="5.58327">
        <ele>846</ele>
        <time>2021-09-04T12:55:10.273Z</time>
      </trkpt>
      <trkpt lat="45.88855" lon="5.58326">
        <ele>846</ele>
        <time>2021-09-04T12:55:14.296Z</time>
      </trkpt>
      <trkpt lat="45.88859" lon="5.58325">
        <ele>846</ele>
        <time>2021-09-04T12:55:18.302Z</time>
      </trkpt>
      <trkpt lat="45.88864" lon="5.58325">
        <ele>846</ele>
        <time>2021-09-04T12:55:23.257Z</time>
      </trkpt>
      <trkpt lat="45.88869" lon="5.58324">
        <ele>846</ele>
        <time>2021-09-04T12:55:27.279Z</time>
      </trkpt>
      <trkpt lat="45.88874" lon="5.58325">
        <ele>846</ele>
        <time>2021-09-04T12:55:32.299Z</time>
      </trkpt>
      <trkpt lat="45.8888" lon="5.58324">
        <ele>846</ele>
        <time>2021-09-04T12:55:37.269Z</time>
      </trkpt>
      <trkpt lat="45.88886" lon="5.58324">
        <ele>846</ele>
        <time>2021-09-04T12:55:42.267Z</time>
      </trkpt>
      <trkpt lat="45.88892" lon="5.58323">
        <ele>846</ele>
        <time>2021-09-04T12:55:47.256Z</time>
      </trkpt>
      <trkpt lat="45.88897" lon="5.58324">
        <ele>846</ele>
        <time>2021-09-04T12:55:51.296Z</time>
      </trkpt>
      <trkpt lat="45.88905" lon="5.58324">
        <ele>845</ele>
        <time>2021-09-04T12:55:56.267Z</time>
      </trkpt>
      <trkpt lat="45.88914" lon="5.58322">
        <ele>845</ele>
        <time>2021-09-04T12:56:01.294Z</time>
      </trkpt>
      <trkpt lat="45.88922" lon="5.58322">
        <ele>845</ele>
        <time>2021-09-04T12:56:05.305Z</time>
      </trkpt>
      <trkpt lat="45.88928" lon="5.58321">
        <ele>845</ele>
        <time>2021-09-04T12:56:10.303Z</time>
      </trkpt>
      <trkpt lat="45.88934" lon="5.58322">
        <ele>843</ele>
        <time>2021-09-04T12:56:15.291Z</time>
      </trkpt>
      <trkpt lat="45.88937" lon="5.5832">
        <ele>843</ele>
        <time>2021-09-04T12:56:19.293Z</time>
      </trkpt>
      <trkpt lat="45.88941" lon="5.5832">
        <ele>843</ele>
        <time>2021-09-04T12:56:24.265Z</time>
      </trkpt>
      <trkpt lat="45.88945" lon="5.58318">
        <ele>844</ele>
        <time>2021-09-04T12:56:28.295Z</time>
      </trkpt>
      <trkpt lat="45.88952" lon="5.58316">
        <ele>844</ele>
        <time>2021-09-04T12:56:33.292Z</time>
      </trkpt>
      <trkpt lat="45.88958" lon="5.58316">
        <ele>844</ele>
        <time>2021-09-04T12:56:38.261Z</time>
      </trkpt>
      <trkpt lat="45.88962" lon="5.58316">
        <ele>841</ele>
        <time>2021-09-04T12:56:43.300Z</time>
      </trkpt>
      <trkpt lat="45.8897" lon="5.58313">
        <ele>841</ele>
        <time>2021-09-04T12:56:48.268Z</time>
      </trkpt>
      <trkpt lat="45.88976" lon="5.58311">
        <ele>841</ele>
        <time>2021-09-04T12:56:53.281Z</time>
      </trkpt>
      <trkpt lat="45.88982" lon="5.58309">
        <ele>841</ele>
        <time>2021-09-04T12:56:58.263Z</time>
      </trkpt>
      <trkpt lat="45.88988" lon="5.58308">
        <ele>834</ele>
        <time>2021-09-04T12:57:03.270Z</time>
      </trkpt>
      <trkpt lat="45.88993" lon="5.58307">
        <ele>834</ele>
        <time>2021-09-04T12:57:07.290Z</time>
      </trkpt>
      <trkpt lat="45.88996" lon="5.58306">
        <ele>834</ele>
        <time>2021-09-04T12:57:12.269Z</time>
      </trkpt>
      <trkpt lat="45.89" lon="5.58306">
        <ele>834</ele>
        <time>2021-09-04T12:57:17.256Z</time>
      </trkpt>
      <trkpt lat="45.89004" lon="5.58306">
        <ele>834</ele>
        <time>2021-09-04T12:57:21.262Z</time>
      </trkpt>
      <trkpt lat="45.89008" lon="5.58302">
        <ele>834</ele>
        <time>2021-09-04T12:57:26.267Z</time>
      </trkpt>
      <trkpt lat="45.89012" lon="5.58299">
        <ele>834</ele>
        <time>2021-09-04T12:57:31.260Z</time>
      </trkpt>
      <trkpt lat="45.89017" lon="5.58299">
        <ele>829</ele>
        <time>2021-09-04T12:57:36.263Z</time>
      </trkpt>
      <trkpt lat="45.89023" lon="5.58298">
        <ele>829</ele>
        <time>2021-09-04T12:57:41.253Z</time>
      </trkpt>
      <trkpt lat="45.89027" lon="5.58297">
        <ele>829</ele>
        <time>2021-09-04T12:57:45.263Z</time>
      </trkpt>
      <trkpt lat="45.89031" lon="5.58294">
        <ele>829</ele>
        <time>2021-09-04T12:57:49.286Z</time>
      </trkpt>
      <trkpt lat="45.89036" lon="5.58291">
        <ele>831</ele>
        <time>2021-09-04T12:57:54.278Z</time>
      </trkpt>
      <trkpt lat="45.89042" lon="5.58289">
        <ele>828</ele>
        <time>2021-09-04T12:57:59.310Z</time>
      </trkpt>
      <trkpt lat="45.89048" lon="5.58294">
        <ele>827</ele>
        <time>2021-09-04T12:58:04.261Z</time>
      </trkpt>
      <trkpt lat="45.8905" lon="5.583">
        <ele>827</ele>
        <time>2021-09-04T12:58:08.266Z</time>
      </trkpt>
      <trkpt lat="45.89053" lon="5.58306">
        <ele>827</ele>
        <time>2021-09-04T12:58:13.298Z</time>
      </trkpt>
      <trkpt lat="45.89056" lon="5.58311">
        <ele>827</ele>
        <time>2021-09-04T12:58:18.293Z</time>
      </trkpt>
      <trkpt lat="45.89056" lon="5.58313">
        <ele>827</ele>
        <time>2021-09-04T12:58:23.230Z</time>
      </trkpt>
      <trkpt lat="45.89059" lon="5.58317">
        <ele>827</ele>
        <time>2021-09-04T12:58:27.250Z</time>
      </trkpt>
      <trkpt lat="45.89061" lon="5.58324">
        <ele>826</ele>
        <time>2021-09-04T12:58:31.267Z</time>
      </trkpt>
      <trkpt lat="45.89065" lon="5.58333">
        <ele>826</ele>
        <time>2021-09-04T12:58:36.275Z</time>
      </trkpt>
      <trkpt lat="45.89067" lon="5.58339">
        <ele>826</ele>
        <time>2021-09-04T12:58:40.291Z</time>
      </trkpt>
      <trkpt lat="45.8907" lon="5.58347">
        <ele>826</ele>
        <time>2021-09-04T12:58:45.269Z</time>
      </trkpt>
      <trkpt lat="45.89074" lon="5.58355">
        <ele>826</ele>
        <time>2021-09-04T12:58:50.240Z</time>
      </trkpt>
      <trkpt lat="45.89077" lon="5.5836">
        <ele>826</ele>
        <time>2021-09-04T12:58:54.290Z</time>
      </trkpt>
      <trkpt lat="45.89081" lon="5.58367">
        <ele>826</ele>
        <time>2021-09-04T12:58:59.265Z</time>
      </trkpt>
      <trkpt lat="45.89084" lon="5.58372">
        <ele>826</ele>
        <time>2021-09-04T12:59:03.295Z</time>
      </trkpt>
      <trkpt lat="45.89089" lon="5.58378">
        <ele>828</ele>
        <time>2021-09-04T12:59:08.267Z</time>
      </trkpt>
      <trkpt lat="45.89092" lon="5.58385">
        <ele>828</ele>
        <time>2021-09-04T12:59:13.307Z</time>
      </trkpt>
      <trkpt lat="45.89097" lon="5.58389">
        <ele>828</ele>
        <time>2021-09-04T12:59:18.268Z</time>
      </trkpt>
      <trkpt lat="45.89103" lon="5.58388">
        <ele>828</ele>
        <time>2021-09-04T12:59:22.267Z</time>
      </trkpt>
      <trkpt lat="45.89109" lon="5.58385">
        <ele>828</ele>
        <time>2021-09-04T12:59:27.252Z</time>
      </trkpt>
      <trkpt lat="45.89113" lon="5.58381">
        <ele>828</ele>
        <time>2021-09-04T12:59:32.266Z</time>
      </trkpt>
      <trkpt lat="45.89116" lon="5.58377">
        <ele>828</ele>
        <time>2021-09-04T12:59:36.279Z</time>
      </trkpt>
      <trkpt lat="45.89117" lon="5.58374">
        <ele>826</ele>
        <time>2021-09-04T12:59:40.291Z</time>
      </trkpt>
      <trkpt lat="45.89123" lon="5.58369">
        <ele>826</ele>
        <time>2021-09-04T12:59:45.263Z</time>
      </trkpt>
      <trkpt lat="45.8913" lon="5.58363">
        <ele>829</ele>
        <time>2021-09-04T12:59:50.263Z</time>
      </trkpt>
      <trkpt lat="45.89133" lon="5.58356">
        <ele>829</ele>
        <time>2021-09-04T12:59:54.285Z</time>
      </trkpt>
      <trkpt lat="45.89136" lon="5.58347">
        <ele>829</ele>
        <time>2021-09-04T12:59:59.248Z</time>
      </trkpt>
      <trkpt lat="45.89137" lon="5.5834">
        <ele>826</ele>
        <time>2021-09-04T13:00:03.266Z</time>
      </trkpt>
      <trkpt lat="45.89138" lon="5.58333">
        <ele>826</ele>
        <time>2021-09-04T13:00:07.291Z</time>
      </trkpt>
      <trkpt lat="45.89141" lon="5.58327">
        <ele>826</ele>
        <time>2021-09-04T13:00:11.307Z</time>
      </trkpt>
      <trkpt lat="45.89145" lon="5.58321">
        <ele>826</ele>
        <time>2021-09-04T13:00:16.274Z</time>
      </trkpt>
      <trkpt lat="45.8915" lon="5.58317">
        <ele>824</ele>
        <time>2021-09-04T13:00:20.302Z</time>
      </trkpt>
      <trkpt lat="45.89155" lon="5.58312">
        <ele>825</ele>
        <time>2021-09-04T13:00:25.227Z</time>
      </trkpt>
      <trkpt lat="45.89158" lon="5.5831">
        <ele>825</ele>
        <time>2021-09-04T13:00:29.302Z</time>
      </trkpt>
      <trkpt lat="45.89163" lon="5.58304">
        <ele>825</ele>
        <time>2021-09-04T13:00:34.275Z</time>
      </trkpt>
      <trkpt lat="45.89166" lon="5.583">
        <ele>825</ele>
        <time>2021-09-04T13:00:38.300Z</time>
      </trkpt>
      <trkpt lat="45.8917" lon="5.58292">
        <ele>825</ele>
        <time>2021-09-04T13:00:43.231Z</time>
      </trkpt>
      <trkpt lat="45.89172" lon="5.58286">
        <ele>822</ele>
        <time>2021-09-04T13:00:47.297Z</time>
      </trkpt>
      <trkpt lat="45.89176" lon="5.5828">
        <ele>822</ele>
        <time>2021-09-04T13:00:52.265Z</time>
      </trkpt>
      <trkpt lat="45.89178" lon="5.58274">
        <ele>822</ele>
        <time>2021-09-04T13:00:56.295Z</time>
      </trkpt>
      <trkpt lat="45.89182" lon="5.58267">
        <ele>822</ele>
        <time>2021-09-04T13:01:01.267Z</time>
      </trkpt>
      <trkpt lat="45.89188" lon="5.58263">
        <ele>820</ele>
        <time>2021-09-04T13:01:06.272Z</time>
      </trkpt>
      <trkpt lat="45.89192" lon="5.58262">
        <ele>820</ele>
        <time>2021-09-04T13:01:11.267Z</time>
      </trkpt>
      <trkpt lat="45.89197" lon="5.5826">
        <ele>820</ele>
        <time>2021-09-04T13:01:15.288Z</time>
      </trkpt>
      <trkpt lat="45.89206" lon="5.58257">
        <ele>820</ele>
        <time>2021-09-04T13:01:20.257Z</time>
      </trkpt>
      <trkpt lat="45.89212" lon="5.58256">
        <ele>820</ele>
        <time>2021-09-04T13:01:24.269Z</time>
      </trkpt>
      <trkpt lat="45.89218" lon="5.58255">
        <ele>820</ele>
        <time>2021-09-04T13:01:29.267Z</time>
      </trkpt>
      <trkpt lat="45.89223" lon="5.58257">
        <ele>820</ele>
        <time>2021-09-04T13:01:33.322Z</time>
      </trkpt>
      <trkpt lat="45.89228" lon="5.58255">
        <ele>820</ele>
        <time>2021-09-04T13:01:38.255Z</time>
      </trkpt>
      <trkpt lat="45.89232" lon="5.58253">
        <ele>820</ele>
        <time>2021-09-04T13:01:42.268Z</time>
      </trkpt>
      <trkpt lat="45.89238" lon="5.5825">
        <ele>819</ele>
        <time>2021-09-04T13:01:47.316Z</time>
      </trkpt>
      <trkpt lat="45.89245" lon="5.58251">
        <ele>819</ele>
        <time>2021-09-04T13:01:52.270Z</time>
      </trkpt>
      <trkpt lat="45.89251" lon="5.58248">
        <ele>819</ele>
        <time>2021-09-04T13:01:57.320Z</time>
      </trkpt>
      <trkpt lat="45.89255" lon="5.58248">
        <ele>819</ele>
        <time>2021-09-04T13:02:02.318Z</time>
      </trkpt>
      <trkpt lat="45.89261" lon="5.58249">
        <ele>819</ele>
        <time>2021-09-04T13:02:07.299Z</time>
      </trkpt>
      <trkpt lat="45.89267" lon="5.58249">
        <ele>820</ele>
        <time>2021-09-04T13:02:12.268Z</time>
      </trkpt>
      <trkpt lat="45.89271" lon="5.5825">
        <ele>820</ele>
        <time>2021-09-04T13:02:16.292Z</time>
      </trkpt>
      <trkpt lat="45.89276" lon="5.58251">
        <ele>820</ele>
        <time>2021-09-04T13:02:21.270Z</time>
      </trkpt>
      <trkpt lat="45.89282" lon="5.58253">
        <ele>820</ele>
        <time>2021-09-04T13:02:26.224Z</time>
      </trkpt>
      <trkpt lat="45.89287" lon="5.58256">
        <ele>820</ele>
        <time>2021-09-04T13:02:30.234Z</time>
      </trkpt>
      <trkpt lat="45.89291" lon="5.58258">
        <ele>820</ele>
        <time>2021-09-04T13:02:34.291Z</time>
      </trkpt>
      <trkpt lat="45.89295" lon="5.58259">
        <ele>819</ele>
        <time>2021-09-04T13:02:38.310Z</time>
      </trkpt>
      <trkpt lat="45.893" lon="5.58261">
        <ele>819</ele>
        <time>2021-09-04T13:02:43.291Z</time>
      </trkpt>
      <trkpt lat="45.89307" lon="5.58263">
        <ele>819</ele>
        <time>2021-09-04T13:02:48.267Z</time>
      </trkpt>
      <trkpt lat="45.89312" lon="5.58264">
        <ele>819</ele>
        <time>2021-09-04T13:02:52.276Z</time>
      </trkpt>
      <trkpt lat="45.89316" lon="5.58265">
        <ele>820</ele>
        <time>2021-09-04T13:02:56.293Z</time>
      </trkpt>
      <trkpt lat="45.89322" lon="5.58266">
        <ele>820</ele>
        <time>2021-09-04T13:03:01.310Z</time>
      </trkpt>
      <trkpt lat="45.89329" lon="5.58267">
        <ele>820</ele>
        <time>2021-09-04T13:03:06.262Z</time>
      </trkpt>
      <trkpt lat="45.89334" lon="5.58266">
        <ele>820</ele>
        <time>2021-09-04T13:03:10.292Z</time>
      </trkpt>
      <trkpt lat="45.89342" lon="5.58265">
        <ele>820</ele>
        <time>2021-09-04T13:03:15.295Z</time>
      </trkpt>
      <trkpt lat="45.89348" lon="5.58263">
        <ele>821</ele>
        <time>2021-09-04T13:03:20.269Z</time>
      </trkpt>
      <trkpt lat="45.89354" lon="5.58264">
        <ele>821</ele>
        <time>2021-09-04T13:03:25.266Z</time>
      </trkpt>
      <trkpt lat="45.89359" lon="5.58265">
        <ele>821</ele>
        <time>2021-09-04T13:03:29.297Z</time>
      </trkpt>
      <trkpt lat="45.89367" lon="5.58265">
        <ele>821</ele>
        <time>2021-09-04T13:03:34.254Z</time>
      </trkpt>
      <trkpt lat="45.89374" lon="5.58265">
        <ele>821</ele>
        <time>2021-09-04T13:03:38.292Z</time>
      </trkpt>
      <trkpt lat="45.8938" lon="5.58264">
        <ele>819</ele>
        <time>2021-09-04T13:03:43.293Z</time>
      </trkpt>
      <trkpt lat="45.89385" lon="5.58264">
        <ele>820</ele>
        <time>2021-09-04T13:03:48.267Z</time>
      </trkpt>
      <trkpt lat="45.8939" lon="5.58265">
        <ele>820</ele>
        <time>2021-09-04T13:03:53.293Z</time>
      </trkpt>
      <trkpt lat="45.89395" lon="5.5826">
        <ele>819</ele>
        <time>2021-09-04T13:03:58.318Z</time>
      </trkpt>
      <trkpt lat="45.89401" lon="5.58255">
        <ele>819</ele>
        <time>2021-09-04T13:04:03.307Z</time>
      </trkpt>
      <trkpt lat="45.89407" lon="5.58249">
        <ele>818</ele>
        <time>2021-09-04T13:04:08.257Z</time>
      </trkpt>
      <trkpt lat="45.89414" lon="5.58246">
        <ele>818</ele>
        <time>2021-09-04T13:04:13.303Z</time>
      </trkpt>
      <trkpt lat="45.8942" lon="5.58245">
        <ele>818</ele>
        <time>2021-09-04T13:04:18.263Z</time>
      </trkpt>
      <trkpt lat="45.89427" lon="5.58243">
        <ele>818</ele>
        <time>2021-09-04T13:04:23.264Z</time>
      </trkpt>
      <trkpt lat="45.89433" lon="5.58245">
        <ele>816</ele>
        <time>2021-09-04T13:04:28.260Z</time>
      </trkpt>
      <trkpt lat="45.89439" lon="5.58246">
        <ele>816</ele>
        <time>2021-09-04T13:04:33.275Z</time>
      </trkpt>
      <trkpt lat="45.89445" lon="5.58251">
        <ele>816</ele>
        <time>2021-09-04T13:04:38.254Z</time>
      </trkpt>
      <trkpt lat="45.8945" lon="5.58255">
        <ele>816</ele>
        <time>2021-09-04T13:04:43.287Z</time>
      </trkpt>
      <trkpt lat="45.89455" lon="5.58259">
        <ele>816</ele>
        <time>2021-09-04T13:04:48.264Z</time>
      </trkpt>
      <trkpt lat="45.8946" lon="5.58265">
        <ele>813</ele>
        <time>2021-09-04T13:04:53.296Z</time>
      </trkpt>
      <trkpt lat="45.89464" lon="5.58272">
        <ele>813</ele>
        <time>2021-09-04T13:04:58.257Z</time>
      </trkpt>
      <trkpt lat="45.89468" lon="5.58277">
        <ele>813</ele>
        <time>2021-09-04T13:05:02.264Z</time>
      </trkpt>
      <trkpt lat="45.89473" lon="5.58281">
        <ele>813</ele>
        <time>2021-09-04T13:05:06.288Z</time>
      </trkpt>
      <trkpt lat="45.89478" lon="5.58284">
        <ele>813</ele>
        <time>2021-09-04T13:05:10.309Z</time>
      </trkpt>
      <trkpt lat="45.89484" lon="5.58289">
        <ele>813</ele>
        <time>2021-09-04T13:05:15.308Z</time>
      </trkpt>
      <trkpt lat="45.89489" lon="5.58295">
        <ele>812</ele>
        <time>2021-09-04T13:05:20.254Z</time>
      </trkpt>
      <trkpt lat="45.89493" lon="5.583">
        <ele>812</ele>
        <time>2021-09-04T13:05:24.314Z</time>
      </trkpt>
      <trkpt lat="45.89495" lon="5.58309">
        <ele>812</ele>
        <time>2021-09-04T13:05:29.254Z</time>
      </trkpt>
      <trkpt lat="45.89498" lon="5.58315">
        <ele>812</ele>
        <time>2021-09-04T13:05:33.264Z</time>
      </trkpt>
      <trkpt lat="45.89502" lon="5.58317">
        <ele>812</ele>
        <time>2021-09-04T13:05:38.274Z</time>
      </trkpt>
      <trkpt lat="45.89508" lon="5.58321">
        <ele>812</ele>
        <time>2021-09-04T13:05:43.299Z</time>
      </trkpt>
      <trkpt lat="45.89517" lon="5.58325">
        <ele>812</ele>
        <time>2021-09-04T13:05:48.267Z</time>
      </trkpt>
      <trkpt lat="45.89524" lon="5.58329">
        <ele>812</ele>
        <time>2021-09-04T13:05:53.267Z</time>
      </trkpt>
      <trkpt lat="45.8953" lon="5.58332">
        <ele>812</ele>
        <time>2021-09-04T13:05:57.270Z</time>
      </trkpt>
      <trkpt lat="45.89536" lon="5.58336">
        <ele>812</ele>
        <time>2021-09-04T13:06:02.266Z</time>
      </trkpt>
      <trkpt lat="45.89543" lon="5.58337">
        <ele>811</ele>
        <time>2021-09-04T13:06:07.258Z</time>
      </trkpt>
      <trkpt lat="45.89548" lon="5.58336">
        <ele>811</ele>
        <time>2021-09-04T13:06:11.267Z</time>
      </trkpt>
      <trkpt lat="45.89554" lon="5.58334">
        <ele>811</ele>
        <time>2021-09-04T13:06:16.293Z</time>
      </trkpt>
      <trkpt lat="45.89559" lon="5.58333">
        <ele>811</ele>
        <time>2021-09-04T13:06:21.267Z</time>
      </trkpt>
      <trkpt lat="45.89565" lon="5.58329">
        <ele>811</ele>
        <time>2021-09-04T13:06:26.260Z</time>
      </trkpt>
      <trkpt lat="45.89569" lon="5.58327">
        <ele>810</ele>
        <time>2021-09-04T13:06:30.268Z</time>
      </trkpt>
      <trkpt lat="45.89578" lon="5.58323">
        <ele>810</ele>
        <time>2021-09-04T13:06:35.266Z</time>
      </trkpt>
      <trkpt lat="45.89584" lon="5.58319">
        <ele>809</ele>
        <time>2021-09-04T13:06:40.259Z</time>
      </trkpt>
      <trkpt lat="45.89589" lon="5.58318">
        <ele>809</ele>
        <time>2021-09-04T13:06:44.311Z</time>
      </trkpt>
      <trkpt lat="45.89594" lon="5.58315">
        <ele>809</ele>
        <time>2021-09-04T13:06:48.316Z</time>
      </trkpt>
      <trkpt lat="45.896" lon="5.58312">
        <ele>808</ele>
        <time>2021-09-04T13:06:53.250Z</time>
      </trkpt>
      <trkpt lat="45.89603" lon="5.58307">
        <ele>808</ele>
        <time>2021-09-04T13:06:57.264Z</time>
      </trkpt>
      <trkpt lat="45.89606" lon="5.58301">
        <ele>808</ele>
        <time>2021-09-04T13:07:01.291Z</time>
      </trkpt>
      <trkpt lat="45.89605" lon="5.58292">
        <ele>808</ele>
        <time>2021-09-04T13:07:06.265Z</time>
      </trkpt>
      <trkpt lat="45.89605" lon="5.58283">
        <ele>808</ele>
        <time>2021-09-04T13:07:11.273Z</time>
      </trkpt>
      <trkpt lat="45.89605" lon="5.58276">
        <ele>808</ele>
        <time>2021-09-04T13:07:15.286Z</time>
      </trkpt>
      <trkpt lat="45.89604" lon="5.58268">
        <ele>808</ele>
        <time>2021-09-04T13:07:19.292Z</time>
      </trkpt>
      <trkpt lat="45.89604" lon="5.58261">
        <ele>808</ele>
        <time>2021-09-04T13:07:23.299Z</time>
      </trkpt>
      <trkpt lat="45.89604" lon="5.58253">
        <ele>808</ele>
        <time>2021-09-04T13:07:28.290Z</time>
      </trkpt>
      <trkpt lat="45.89604" lon="5.58244">
        <ele>808</ele>
        <time>2021-09-04T13:07:33.259Z</time>
      </trkpt>
      <trkpt lat="45.89605" lon="5.58235">
        <ele>810</ele>
        <time>2021-09-04T13:07:37.271Z</time>
      </trkpt>
      <trkpt lat="45.89605" lon="5.58227">
        <ele>810</ele>
        <time>2021-09-04T13:07:41.298Z</time>
      </trkpt>
      <trkpt lat="45.89605" lon="5.58218">
        <ele>810</ele>
        <time>2021-09-04T13:07:46.264Z</time>
      </trkpt>
      <trkpt lat="45.89605" lon="5.58208">
        <ele>813</ele>
        <time>2021-09-04T13:07:51.296Z</time>
      </trkpt>
      <trkpt lat="45.89605" lon="5.58199">
        <ele>813</ele>
        <time>2021-09-04T13:07:55.307Z</time>
      </trkpt>
      <trkpt lat="45.89604" lon="5.58189">
        <ele>813</ele>
        <time>2021-09-04T13:08:00.298Z</time>
      </trkpt>
      <trkpt lat="45.89603" lon="5.58179">
        <ele>816</ele>
        <time>2021-09-04T13:08:05.273Z</time>
      </trkpt>
      <trkpt lat="45.89603" lon="5.58171">
        <ele>816</ele>
        <time>2021-09-04T13:08:09.296Z</time>
      </trkpt>
      <trkpt lat="45.89603" lon="5.58159">
        <ele>816</ele>
        <time>2021-09-04T13:08:14.269Z</time>
      </trkpt>
      <trkpt lat="45.89603" lon="5.58151">
        <ele>818</ele>
        <time>2021-09-04T13:08:18.293Z</time>
      </trkpt>
      <trkpt lat="45.89603" lon="5.58142">
        <ele>818</ele>
        <time>2021-09-04T13:08:23.290Z</time>
      </trkpt>
      <trkpt lat="45.89604" lon="5.58134">
        <ele>818</ele>
        <time>2021-09-04T13:08:28.293Z</time>
      </trkpt>
      <trkpt lat="45.89605" lon="5.58124">
        <ele>820</ele>
        <time>2021-09-04T13:08:33.226Z</time>
      </trkpt>
      <trkpt lat="45.89606" lon="5.58117">
        <ele>820</ele>
        <time>2021-09-04T13:08:37.292Z</time>
      </trkpt>
      <trkpt lat="45.89608" lon="5.58109">
        <ele>820</ele>
        <time>2021-09-04T13:08:42.288Z</time>
      </trkpt>
      <trkpt lat="45.89612" lon="5.581">
        <ele>820</ele>
        <time>2021-09-04T13:08:47.296Z</time>
      </trkpt>
      <trkpt lat="45.89613" lon="5.58092">
        <ele>822</ele>
        <time>2021-09-04T13:08:52.259Z</time>
      </trkpt>
      <trkpt lat="45.89615" lon="5.58083">
        <ele>822</ele>
        <time>2021-09-04T13:08:57.271Z</time>
      </trkpt>
      <trkpt lat="45.89618" lon="5.58077">
        <ele>822</ele>
        <time>2021-09-04T13:09:02.258Z</time>
      </trkpt>
      <trkpt lat="45.8962" lon="5.58067">
        <ele>826</ele>
        <time>2021-09-04T13:09:07.268Z</time>
      </trkpt>
      <trkpt lat="45.8962" lon="5.58055">
        <ele>826</ele>
        <time>2021-09-04T13:09:12.269Z</time>
      </trkpt>
      <trkpt lat="45.89623" lon="5.58048">
        <ele>826</ele>
        <time>2021-09-04T13:09:17.264Z</time>
      </trkpt>
      <trkpt lat="45.89626" lon="5.58042">
        <ele>827</ele>
        <time>2021-09-04T13:09:21.294Z</time>
      </trkpt>
      <trkpt lat="45.89629" lon="5.58034">
        <ele>834</ele>
        <time>2021-09-04T13:09:26.265Z</time>
      </trkpt>
      <trkpt lat="45.8963" lon="5.58027">
        <ele>834</ele>
        <time>2021-09-04T13:09:30.288Z</time>
      </trkpt>
      <trkpt lat="45.89634" lon="5.5802">
        <ele>834</ele>
        <time>2021-09-04T13:09:34.298Z</time>
      </trkpt>
      <trkpt lat="45.89637" lon="5.58014">
        <ele>834</ele>
        <time>2021-09-04T13:09:39.261Z</time>
      </trkpt>
      <trkpt lat="45.89639" lon="5.58009">
        <ele>841</ele>
        <time>2021-09-04T13:09:43.300Z</time>
      </trkpt>
      <trkpt lat="45.89639" lon="5.58004">
        <ele>841</ele>
        <time>2021-09-04T13:09:47.308Z</time>
      </trkpt>
      <trkpt lat="45.89639" lon="5.58">
        <ele>841</ele>
        <time>2021-09-04T13:09:52.298Z</time>
      </trkpt>
      <trkpt lat="45.89642" lon="5.57989">
        <ele>841</ele>
        <time>2021-09-04T13:09:57.272Z</time>
      </trkpt>
      <trkpt lat="45.89646" lon="5.57977">
        <ele>846</ele>
        <time>2021-09-04T13:10:02.275Z</time>
      </trkpt>
      <trkpt lat="45.89654" lon="5.57973">
        <ele>844</ele>
        <time>2021-09-04T13:10:06.295Z</time>
      </trkpt>
      <trkpt lat="45.89659" lon="5.57963">
        <ele>844</ele>
        <time>2021-09-04T13:10:11.249Z</time>
      </trkpt>
      <trkpt lat="45.89661" lon="5.57954">
        <ele>847</ele>
        <time>2021-09-04T13:10:15.257Z</time>
      </trkpt>
      <trkpt lat="45.89665" lon="5.57943">
        <ele>847</ele>
        <time>2021-09-04T13:10:28.266Z</time>
      </trkpt>
      <trkpt lat="45.89662" lon="5.57939">
        <ele>847</ele>
        <time>2021-09-04T13:10:33.224Z</time>
      </trkpt>
      <trkpt lat="45.89662" lon="5.57931">
        <ele>848</ele>
        <time>2021-09-04T13:10:37.254Z</time>
      </trkpt>
      <trkpt lat="45.89663" lon="5.57925">
        <ele>848</ele>
        <time>2021-09-04T13:10:42.297Z</time>
      </trkpt>
      <trkpt lat="45.89663" lon="5.57917">
        <ele>848</ele>
        <time>2021-09-04T13:10:47.267Z</time>
      </trkpt>
      <trkpt lat="45.89662" lon="5.57911">
        <ele>848</ele>
        <time>2021-09-04T13:10:51.305Z</time>
      </trkpt>
      <trkpt lat="45.8966" lon="5.57903">
        <ele>848</ele>
        <time>2021-09-04T13:10:56.296Z</time>
      </trkpt>
      <trkpt lat="45.89659" lon="5.57896">
        <ele>848</ele>
        <time>2021-09-04T13:11:00.314Z</time>
      </trkpt>
      <trkpt lat="45.89659" lon="5.57889">
        <ele>848</ele>
        <time>2021-09-04T13:11:05.268Z</time>
      </trkpt>
      <trkpt lat="45.89658" lon="5.57882">
        <ele>848</ele>
        <time>2021-09-04T13:11:10.257Z</time>
      </trkpt>
      <trkpt lat="45.89658" lon="5.57872">
        <ele>849</ele>
        <time>2021-09-04T13:11:15.285Z</time>
      </trkpt>
      <trkpt lat="45.89659" lon="5.57866">
        <ele>849</ele>
        <time>2021-09-04T13:11:19.289Z</time>
      </trkpt>
      <trkpt lat="45.8966" lon="5.57859">
        <ele>849</ele>
        <time>2021-09-04T13:11:24.274Z</time>
      </trkpt>
      <trkpt lat="45.89662" lon="5.57854">
        <ele>849</ele>
        <time>2021-09-04T13:11:28.282Z</time>
      </trkpt>
      <trkpt lat="45.89665" lon="5.57851">
        <ele>849</ele>
        <time>2021-09-04T13:11:33.278Z</time>
      </trkpt>
      <trkpt lat="45.89669" lon="5.57848">
        <ele>849</ele>
        <time>2021-09-04T13:11:37.291Z</time>
      </trkpt>
      <trkpt lat="45.89671" lon="5.57842">
        <ele>850</ele>
        <time>2021-09-04T13:11:42.277Z</time>
      </trkpt>
      <trkpt lat="45.89671" lon="5.57835">
        <ele>850</ele>
        <time>2021-09-04T13:11:47.266Z</time>
      </trkpt>
      <trkpt lat="45.89671" lon="5.57829">
        <ele>850</ele>
        <time>2021-09-04T13:11:51.274Z</time>
      </trkpt>
      <trkpt lat="45.89673" lon="5.57823">
        <ele>850</ele>
        <time>2021-09-04T13:11:55.289Z</time>
      </trkpt>
      <trkpt lat="45.89674" lon="5.57816">
        <ele>852</ele>
        <time>2021-09-04T13:12:00.260Z</time>
      </trkpt>
      <trkpt lat="45.89679" lon="5.5781">
        <ele>852</ele>
        <time>2021-09-04T13:12:05.302Z</time>
      </trkpt>
      <trkpt lat="45.89683" lon="5.57804">
        <ele>848</ele>
        <time>2021-09-04T13:12:10.301Z</time>
      </trkpt>
      <trkpt lat="45.89688" lon="5.57798">
        <ele>848</ele>
        <time>2021-09-04T13:12:15.269Z</time>
      </trkpt>
      <trkpt lat="45.89692" lon="5.57794">
        <ele>848</ele>
        <time>2021-09-04T13:12:19.302Z</time>
      </trkpt>
      <trkpt lat="45.89696" lon="5.57789">
        <ele>852</ele>
        <time>2021-09-04T13:12:24.265Z</time>
      </trkpt>
      <trkpt lat="45.89702" lon="5.57784">
        <ele>852</ele>
        <time>2021-09-04T13:12:29.222Z</time>
      </trkpt>
      <trkpt lat="45.89706" lon="5.57781">
        <ele>852</ele>
        <time>2021-09-04T13:12:33.293Z</time>
      </trkpt>
      <trkpt lat="45.89711" lon="5.57781">
        <ele>851</ele>
        <time>2021-09-04T13:12:38.289Z</time>
      </trkpt>
      <trkpt lat="45.89716" lon="5.57777">
        <ele>851</ele>
        <time>2021-09-04T13:12:43.285Z</time>
      </trkpt>
      <trkpt lat="45.89719" lon="5.57767">
        <ele>851</ele>
        <time>2021-09-04T13:12:48.229Z</time>
      </trkpt>
      <trkpt lat="45.89717" lon="5.57759">
        <ele>854</ele>
        <time>2021-09-04T13:12:52.295Z</time>
      </trkpt>
      <trkpt lat="45.89713" lon="5.57751">
        <ele>854</ele>
        <time>2021-09-04T13:12:57.220Z</time>
      </trkpt>
      <trkpt lat="45.89709" lon="5.57745">
        <ele>854</ele>
        <time>2021-09-04T13:13:01.315Z</time>
      </trkpt>
      <trkpt lat="45.89704" lon="5.5774">
        <ele>855</ele>
        <time>2021-09-04T13:13:06.262Z</time>
      </trkpt>
      <trkpt lat="45.89702" lon="5.57736">
        <ele>855</ele>
        <time>2021-09-04T13:13:10.281Z</time>
      </trkpt>
      <trkpt lat="45.89702" lon="5.57736">
        <ele>855</ele>
        <time>2021-09-04T13:13:15.302Z</time>
      </trkpt>
      <trkpt lat="45.89705" lon="5.57725">
        <ele>858</ele>
        <time>2021-09-04T13:13:57.296Z</time>
      </trkpt>
      <trkpt lat="45.89726" lon="5.57727">
        <ele>857</ele>
        <time>2021-09-04T13:14:02.267Z</time>
      </trkpt>
      <trkpt lat="45.89728" lon="5.57723">
        <ele>857</ele>
        <time>2021-09-04T13:14:06.316Z</time>
      </trkpt>
      <trkpt lat="45.8973" lon="5.57718">
        <ele>857</ele>
        <time>2021-09-04T13:14:10.310Z</time>
      </trkpt>
      <trkpt lat="45.89733" lon="5.57712">
        <ele>857</ele>
        <time>2021-09-04T13:14:15.294Z</time>
      </trkpt>
      <trkpt lat="45.89734" lon="5.57704">
        <ele>860</ele>
        <time>2021-09-04T13:14:20.251Z</time>
      </trkpt>
      <trkpt lat="45.89736" lon="5.57695">
        <ele>860</ele>
        <time>2021-09-04T13:14:25.287Z</time>
      </trkpt>
      <trkpt lat="45.89738" lon="5.57689">
        <ele>862</ele>
        <time>2021-09-04T13:14:30.261Z</time>
      </trkpt>
      <trkpt lat="45.89739" lon="5.5768">
        <ele>865</ele>
        <time>2021-09-04T13:14:35.264Z</time>
      </trkpt>
      <trkpt lat="45.8974" lon="5.57674">
        <ele>865</ele>
        <time>2021-09-04T13:14:40.265Z</time>
      </trkpt>
      <trkpt lat="45.89742" lon="5.57669">
        <ele>865</ele>
        <time>2021-09-04T13:14:45.261Z</time>
      </trkpt>
      <trkpt lat="45.89745" lon="5.57661">
        <ele>865</ele>
        <time>2021-09-04T13:14:50.228Z</time>
      </trkpt>
      <trkpt lat="45.89747" lon="5.57656">
        <ele>865</ele>
        <time>2021-09-04T13:14:54.232Z</time>
      </trkpt>
      <trkpt lat="45.8975" lon="5.57651">
        <ele>866</ele>
        <time>2021-09-04T13:14:58.316Z</time>
      </trkpt>
      <trkpt lat="45.89754" lon="5.57644">
        <ele>866</ele>
        <time>2021-09-04T13:15:03.259Z</time>
      </trkpt>
      <trkpt lat="45.89759" lon="5.57637">
        <ele>866</ele>
        <time>2021-09-04T13:15:08.292Z</time>
      </trkpt>
      <trkpt lat="45.89763" lon="5.57629">
        <ele>866</ele>
        <time>2021-09-04T13:15:13.268Z</time>
      </trkpt>
      <trkpt lat="45.89766" lon="5.57626">
        <ele>865</ele>
        <time>2021-09-04T13:15:17.295Z</time>
      </trkpt>
      <trkpt lat="45.89769" lon="5.57623">
        <ele>866</ele>
        <time>2021-09-04T13:15:22.263Z</time>
      </trkpt>
      <trkpt lat="45.89772" lon="5.57623">
        <ele>866</ele>
        <time>2021-09-04T13:15:26.302Z</time>
      </trkpt>
      <trkpt lat="45.89776" lon="5.5762">
        <ele>866</ele>
        <time>2021-09-04T13:15:31.289Z</time>
      </trkpt>
      <trkpt lat="45.8978" lon="5.57618">
        <ele>866</ele>
        <time>2021-09-04T13:15:36.277Z</time>
      </trkpt>
      <trkpt lat="45.89785" lon="5.57614">
        <ele>866</ele>
        <time>2021-09-04T13:15:41.268Z</time>
      </trkpt>
      <trkpt lat="45.89789" lon="5.57609">
        <ele>866</ele>
        <time>2021-09-04T13:15:46.287Z</time>
      </trkpt>
      <trkpt lat="45.89794" lon="5.57605">
        <ele>866</ele>
        <time>2021-09-04T13:15:51.261Z</time>
      </trkpt>
      <trkpt lat="45.89801" lon="5.57601">
        <ele>866</ele>
        <time>2021-09-04T13:15:56.267Z</time>
      </trkpt>
      <trkpt lat="45.89805" lon="5.57597">
        <ele>869</ele>
        <time>2021-09-04T13:16:00.288Z</time>
      </trkpt>
      <trkpt lat="45.8981" lon="5.57588">
        <ele>869</ele>
        <time>2021-09-04T13:16:05.257Z</time>
      </trkpt>
      <trkpt lat="45.89815" lon="5.57581">
        <ele>869</ele>
        <time>2021-09-04T13:16:09.267Z</time>
      </trkpt>
      <trkpt lat="45.89821" lon="5.57577">
        <ele>866</ele>
        <time>2021-09-04T13:16:13.265Z</time>
      </trkpt>
      <trkpt lat="45.89828" lon="5.57574">
        <ele>866</ele>
        <time>2021-09-04T13:16:18.314Z</time>
      </trkpt>
      <trkpt lat="45.89833" lon="5.57567">
        <ele>872</ele>
        <time>2021-09-04T13:16:23.259Z</time>
      </trkpt>
      <trkpt lat="45.89838" lon="5.57564">
        <ele>872</ele>
        <time>2021-09-04T13:16:27.290Z</time>
      </trkpt>
      <trkpt lat="45.89843" lon="5.57559">
        <ele>872</ele>
        <time>2021-09-04T13:16:32.262Z</time>
      </trkpt>
      <trkpt lat="45.89847" lon="5.57555">
        <ele>865</ele>
        <time>2021-09-04T13:16:36.270Z</time>
      </trkpt>
      <trkpt lat="45.89852" lon="5.57551">
        <ele>865</ele>
        <time>2021-09-04T13:16:40.299Z</time>
      </trkpt>
      <trkpt lat="45.89857" lon="5.57545">
        <ele>865</ele>
        <time>2021-09-04T13:16:45.270Z</time>
      </trkpt>
      <trkpt lat="45.89862" lon="5.57539">
        <ele>873</ele>
        <time>2021-09-04T13:16:50.233Z</time>
      </trkpt>
      <trkpt lat="45.89865" lon="5.57535">
        <ele>873</ele>
        <time>2021-09-04T13:16:54.288Z</time>
      </trkpt>
      <trkpt lat="45.8987" lon="5.5753">
        <ele>873</ele>
        <time>2021-09-04T13:16:59.269Z</time>
      </trkpt>
      <trkpt lat="45.89875" lon="5.57524">
        <ele>873</ele>
        <time>2021-09-04T13:17:03.295Z</time>
      </trkpt>
      <trkpt lat="45.89879" lon="5.57517">
        <ele>871</ele>
        <time>2021-09-04T13:17:08.265Z</time>
      </trkpt>
      <trkpt lat="45.89882" lon="5.57511">
        <ele>879</ele>
        <time>2021-09-04T13:17:12.287Z</time>
      </trkpt>
      <trkpt lat="45.89887" lon="5.57506">
        <ele>879</ele>
        <time>2021-09-04T13:17:17.261Z</time>
      </trkpt>
      <trkpt lat="45.8989" lon="5.57497">
        <ele>879</ele>
        <time>2021-09-04T13:17:22.268Z</time>
      </trkpt>
      <trkpt lat="45.89895" lon="5.57492">
        <ele>879</ele>
        <time>2021-09-04T13:17:27.285Z</time>
      </trkpt>
      <trkpt lat="45.89902" lon="5.57485">
        <ele>886</ele>
        <time>2021-09-04T13:17:32.265Z</time>
      </trkpt>
      <trkpt lat="45.89907" lon="5.5748">
        <ele>880</ele>
        <time>2021-09-04T13:17:37.255Z</time>
      </trkpt>
      <trkpt lat="45.89911" lon="5.57475">
        <ele>880</ele>
        <time>2021-09-04T13:17:41.257Z</time>
      </trkpt>
      <trkpt lat="45.89915" lon="5.57469">
        <ele>880</ele>
        <time>2021-09-04T13:17:46.263Z</time>
      </trkpt>
      <trkpt lat="45.89921" lon="5.57465">
        <ele>880</ele>
        <time>2021-09-04T13:17:51.255Z</time>
      </trkpt>
      <trkpt lat="45.89925" lon="5.5746">
        <ele>880</ele>
        <time>2021-09-04T13:17:55.297Z</time>
      </trkpt>
      <trkpt lat="45.89931" lon="5.57454">
        <ele>882</ele>
        <time>2021-09-04T13:18:00.257Z</time>
      </trkpt>
      <trkpt lat="45.89936" lon="5.57447">
        <ele>882</ele>
        <time>2021-09-04T13:18:04.295Z</time>
      </trkpt>
      <trkpt lat="45.8994" lon="5.57439">
        <ele>882</ele>
        <time>2021-09-04T13:18:09.264Z</time>
      </trkpt>
      <trkpt lat="45.89943" lon="5.57432">
        <ele>882</ele>
        <time>2021-09-04T13:18:14.258Z</time>
      </trkpt>
      <trkpt lat="45.89946" lon="5.57426">
        <ele>891</ele>
        <time>2021-09-04T13:18:18.292Z</time>
      </trkpt>
      <trkpt lat="45.89952" lon="5.57421">
        <ele>891</ele>
        <time>2021-09-04T13:18:23.258Z</time>
      </trkpt>
      <trkpt lat="45.89957" lon="5.57413">
        <ele>891</ele>
        <time>2021-09-04T13:18:27.290Z</time>
      </trkpt>
      <trkpt lat="45.89954" lon="5.57399">
        <ele>899</ele>
        <time>2021-09-04T13:18:32.259Z</time>
      </trkpt>
      <trkpt lat="45.89955" lon="5.57389">
        <ele>899</ele>
        <time>2021-09-04T13:18:37.259Z</time>
      </trkpt>
      <trkpt lat="45.89958" lon="5.57371">
        <ele>898</ele>
        <time>2021-09-04T13:19:01.266Z</time>
      </trkpt>
      <trkpt lat="45.89956" lon="5.57372">
        <ele>905</ele>
        <time>2021-09-04T13:19:06.261Z</time>
      </trkpt>
      <trkpt lat="45.89954" lon="5.5737">
        <ele>905</ele>
        <time>2021-09-04T13:19:10.265Z</time>
      </trkpt>
      <trkpt lat="45.89956" lon="5.57359">
        <ele>905</ele>
        <time>2021-09-04T13:19:15.260Z</time>
      </trkpt>
      <trkpt lat="45.89956" lon="5.57356">
        <ele>905</ele>
        <time>2021-09-04T13:19:20.262Z</time>
      </trkpt>
      <trkpt lat="45.89955" lon="5.57355">
        <ele>905</ele>
        <time>2021-09-04T13:19:25.301Z</time>
      </trkpt>
      <trkpt lat="45.89956" lon="5.57351">
        <ele>905</ele>
        <time>2021-09-04T13:19:30.290Z</time>
      </trkpt>
      <trkpt lat="45.89963" lon="5.57347">
        <ele>904</ele>
        <time>2021-09-04T13:19:35.295Z</time>
      </trkpt>
      <trkpt lat="45.89968" lon="5.57345">
        <ele>904</ele>
        <time>2021-09-04T13:19:40.253Z</time>
      </trkpt>
      <trkpt lat="45.89973" lon="5.57347">
        <ele>898</ele>
        <time>2021-09-04T13:19:44.262Z</time>
      </trkpt>
      <trkpt lat="45.89975" lon="5.5734">
        <ele>904</ele>
        <time>2021-09-04T13:19:49.300Z</time>
      </trkpt>
      <trkpt lat="45.89977" lon="5.57333">
        <ele>904</ele>
        <time>2021-09-04T13:19:54.262Z</time>
      </trkpt>
      <trkpt lat="45.8998" lon="5.57328">
        <ele>904</ele>
        <time>2021-09-04T13:19:58.294Z</time>
      </trkpt>
      <trkpt lat="45.89975" lon="5.5733">
        <ele>904</ele>
        <time>2021-09-04T13:20:07.274Z</time>
      </trkpt>
      <trkpt lat="45.89973" lon="5.57329">
        <ele>904</ele>
        <time>2021-09-04T13:20:12.270Z</time>
      </trkpt>
      <trkpt lat="45.89972" lon="5.57326">
        <ele>904</ele>
        <time>2021-09-04T13:20:16.286Z</time>
      </trkpt>
      <trkpt lat="45.89974" lon="5.57319">
        <ele>911</ele>
        <time>2021-09-04T13:20:21.262Z</time>
      </trkpt>
      <trkpt lat="45.89977" lon="5.57314">
        <ele>911</ele>
        <time>2021-09-04T13:20:25.293Z</time>
      </trkpt>
      <trkpt lat="45.89978" lon="5.57307">
        <ele>911</ele>
        <time>2021-09-04T13:20:30.298Z</time>
      </trkpt>
      <trkpt lat="45.89979" lon="5.573">
        <ele>911</ele>
        <time>2021-09-04T13:20:34.313Z</time>
      </trkpt>
      <trkpt lat="45.89983" lon="5.57292">
        <ele>911</ele>
        <time>2021-09-04T13:20:39.262Z</time>
      </trkpt>
      <trkpt lat="45.89985" lon="5.57284">
        <ele>915</ele>
        <time>2021-09-04T13:20:44.289Z</time>
      </trkpt>
      <trkpt lat="45.89987" lon="5.57279">
        <ele>911</ele>
        <time>2021-09-04T13:20:48.300Z</time>
      </trkpt>
      <trkpt lat="45.89989" lon="5.57273">
        <ele>911</ele>
        <time>2021-09-04T13:20:53.223Z</time>
      </trkpt>
      <trkpt lat="45.89991" lon="5.57268">
        <ele>911</ele>
        <time>2021-09-04T13:20:57.263Z</time>
      </trkpt>
      <trkpt lat="45.89991" lon="5.57261">
        <ele>917</ele>
        <time>2021-09-04T13:21:01.315Z</time>
      </trkpt>
      <trkpt lat="45.8999" lon="5.57253">
        <ele>917</ele>
        <time>2021-09-04T13:21:06.277Z</time>
      </trkpt>
      <trkpt lat="45.89991" lon="5.57245">
        <ele>917</ele>
        <time>2021-09-04T13:21:10.320Z</time>
      </trkpt>
      <trkpt lat="45.89994" lon="5.57235">
        <ele>923</ele>
        <time>2021-09-04T13:21:15.303Z</time>
      </trkpt>
      <trkpt lat="45.89996" lon="5.57228">
        <ele>923</ele>
        <time>2021-09-04T13:21:20.255Z</time>
      </trkpt>
      <trkpt lat="45.89997" lon="5.57219">
        <ele>923</ele>
        <time>2021-09-04T13:21:25.294Z</time>
      </trkpt>
      <trkpt lat="45.89999" lon="5.5721">
        <ele>923</ele>
        <time>2021-09-04T13:21:30.294Z</time>
      </trkpt>
      <trkpt lat="45.90002" lon="5.57202">
        <ele>930</ele>
        <time>2021-09-04T13:21:35.291Z</time>
      </trkpt>
      <trkpt lat="45.90002" lon="5.57195">
        <ele>930</ele>
        <time>2021-09-04T13:21:39.289Z</time>
      </trkpt>
      <trkpt lat="45.90003" lon="5.57186">
        <ele>930</ele>
        <time>2021-09-04T13:21:44.261Z</time>
      </trkpt>
      <trkpt lat="45.90008" lon="5.57178">
        <ele>935</ele>
        <time>2021-09-04T13:21:48.290Z</time>
      </trkpt>
      <trkpt lat="45.90012" lon="5.57169">
        <ele>935</ele>
        <time>2021-09-04T13:21:53.265Z</time>
      </trkpt>
      <trkpt lat="45.90016" lon="5.57163">
        <ele>930</ele>
        <time>2021-09-04T13:21:57.299Z</time>
      </trkpt>
      <trkpt lat="45.90019" lon="5.57159">
        <ele>930</ele>
        <time>2021-09-04T13:22:01.299Z</time>
      </trkpt>
      <trkpt lat="45.90024" lon="5.57154">
        <ele>930</ele>
        <time>2021-09-04T13:22:06.264Z</time>
      </trkpt>
      <trkpt lat="45.90027" lon="5.5715">
        <ele>936</ele>
        <time>2021-09-04T13:22:10.311Z</time>
      </trkpt>
      <trkpt lat="45.90029" lon="5.57142">
        <ele>936</ele>
        <time>2021-09-04T13:22:15.291Z</time>
      </trkpt>
      <trkpt lat="45.90031" lon="5.57134">
        <ele>936</ele>
        <time>2021-09-04T13:22:20.298Z</time>
      </trkpt>
      <trkpt lat="45.90033" lon="5.57126">
        <ele>936</ele>
        <time>2021-09-04T13:22:25.265Z</time>
      </trkpt>
      <trkpt lat="45.90033" lon="5.57117">
        <ele>941</ele>
        <time>2021-09-04T13:22:30.263Z</time>
      </trkpt>
      <trkpt lat="45.90035" lon="5.5711">
        <ele>941</ele>
        <time>2021-09-04T13:22:34.301Z</time>
      </trkpt>
      <trkpt lat="45.90036" lon="5.57102">
        <ele>941</ele>
        <time>2021-09-04T13:22:39.259Z</time>
      </trkpt>
      <trkpt lat="45.90038" lon="5.57094">
        <ele>947</ele>
        <time>2021-09-04T13:22:44.288Z</time>
      </trkpt>
      <trkpt lat="45.90037" lon="5.57084">
        <ele>947</ele>
        <time>2021-09-04T13:22:49.265Z</time>
      </trkpt>
      <trkpt lat="45.90034" lon="5.57071">
        <ele>947</ele>
        <time>2021-09-04T13:22:54.303Z</time>
      </trkpt>
      <trkpt lat="45.90034" lon="5.5706">
        <ele>951</ele>
        <time>2021-09-04T13:22:59.229Z</time>
      </trkpt>
      <trkpt lat="45.90035" lon="5.57053">
        <ele>951</ele>
        <time>2021-09-04T13:23:03.299Z</time>
      </trkpt>
      <trkpt lat="45.90038" lon="5.57039">
        <ele>955</ele>
        <time>2021-09-04T13:23:08.253Z</time>
      </trkpt>
      <trkpt lat="45.90039" lon="5.57031">
        <ele>955</ele>
        <time>2021-09-04T13:23:12.259Z</time>
      </trkpt>
      <trkpt lat="45.90041" lon="5.57015">
        <ele>955</ele>
        <time>2021-09-04T13:23:17.292Z</time>
      </trkpt>
      <trkpt lat="45.90042" lon="5.57002">
        <ele>957</ele>
        <time>2021-09-04T13:23:22.266Z</time>
      </trkpt>
      <trkpt lat="45.90043" lon="5.56994">
        <ele>957</ele>
        <time>2021-09-04T13:23:26.296Z</time>
      </trkpt>
      <trkpt lat="45.90045" lon="5.56984">
        <ele>960</ele>
        <time>2021-09-04T13:23:31.266Z</time>
      </trkpt>
      <trkpt lat="45.90047" lon="5.56978">
        <ele>960</ele>
        <time>2021-09-04T13:23:35.294Z</time>
      </trkpt>
      <trkpt lat="45.90049" lon="5.56971">
        <ele>960</ele>
        <time>2021-09-04T13:23:40.291Z</time>
      </trkpt>
      <trkpt lat="45.90049" lon="5.56963">
        <ele>960</ele>
        <time>2021-09-04T13:23:44.289Z</time>
      </trkpt>
      <trkpt lat="45.90051" lon="5.56954">
        <ele>963</ele>
        <time>2021-09-04T13:23:49.267Z</time>
      </trkpt>
      <trkpt lat="45.90053" lon="5.56946">
        <ele>963</ele>
        <time>2021-09-04T13:23:54.262Z</time>
      </trkpt>
      <trkpt lat="45.90056" lon="5.56939">
        <ele>963</ele>
        <time>2021-09-04T13:23:58.285Z</time>
      </trkpt>
      <trkpt lat="45.90059" lon="5.56931">
        <ele>963</ele>
        <time>2021-09-04T13:24:03.255Z</time>
      </trkpt>
      <trkpt lat="45.90061" lon="5.56925">
        <ele>966</ele>
        <time>2021-09-04T13:24:07.290Z</time>
      </trkpt>
      <trkpt lat="45.90064" lon="5.56918">
        <ele>966</ele>
        <time>2021-09-04T13:24:12.252Z</time>
      </trkpt>
      <trkpt lat="45.90067" lon="5.56911">
        <ele>966</ele>
        <time>2021-09-04T13:24:17.271Z</time>
      </trkpt>
      <trkpt lat="45.90069" lon="5.56905">
        <ele>966</ele>
        <time>2021-09-04T13:24:21.292Z</time>
      </trkpt>
      <trkpt lat="45.90074" lon="5.56897">
        <ele>967</ele>
        <time>2021-09-04T13:24:26.251Z</time>
      </trkpt>
      <trkpt lat="45.90078" lon="5.56886">
        <ele>967</ele>
        <time>2021-09-04T13:24:30.285Z</time>
      </trkpt>
      <trkpt lat="45.90084" lon="5.56875">
        <ele>972</ele>
        <time>2021-09-04T13:24:35.269Z</time>
      </trkpt>
      <trkpt lat="45.90087" lon="5.56861">
        <ele>972</ele>
        <time>2021-09-04T13:24:40.289Z</time>
      </trkpt>
      <trkpt lat="45.90089" lon="5.56853">
        <ele>972</ele>
        <time>2021-09-04T13:24:44.299Z</time>
      </trkpt>
      <trkpt lat="45.90088" lon="5.56845">
        <ele>976</ele>
        <time>2021-09-04T13:24:49.268Z</time>
      </trkpt>
      <trkpt lat="45.90087" lon="5.56841">
        <ele>976</ele>
        <time>2021-09-04T13:24:53.296Z</time>
      </trkpt>
      <trkpt lat="45.90089" lon="5.56837">
        <ele>976</ele>
        <time>2021-09-04T13:24:58.235Z</time>
      </trkpt>
      <trkpt lat="45.90091" lon="5.56831">
        <ele>976</ele>
        <time>2021-09-04T13:25:02.288Z</time>
      </trkpt>
      <trkpt lat="45.90092" lon="5.56823">
        <ele>976</ele>
        <time>2021-09-04T13:25:07.262Z</time>
      </trkpt>
      <trkpt lat="45.90093" lon="5.56817">
        <ele>980</ele>
        <time>2021-09-04T13:25:11.300Z</time>
      </trkpt>
      <trkpt lat="45.90094" lon="5.5681">
        <ele>980</ele>
        <time>2021-09-04T13:25:16.275Z</time>
      </trkpt>
      <trkpt lat="45.90096" lon="5.56805">
        <ele>980</ele>
        <time>2021-09-04T13:25:20.315Z</time>
      </trkpt>
      <trkpt lat="45.90097" lon="5.56797">
        <ele>973</ele>
        <time>2021-09-04T13:25:25.266Z</time>
      </trkpt>
      <trkpt lat="45.90099" lon="5.56788">
        <ele>978</ele>
        <time>2021-09-04T13:25:30.256Z</time>
      </trkpt>
      <trkpt lat="45.90099" lon="5.56778">
        <ele>978</ele>
        <time>2021-09-04T13:25:35.263Z</time>
      </trkpt>
      <trkpt lat="45.90099" lon="5.56767">
        <ele>978</ele>
        <time>2021-09-04T13:25:39.291Z</time>
      </trkpt>
      <trkpt lat="45.90101" lon="5.56753">
        <ele>983</ele>
        <time>2021-09-04T13:25:44.258Z</time>
      </trkpt>
      <trkpt lat="45.90102" lon="5.56746">
        <ele>983</ele>
        <time>2021-09-04T13:25:49.264Z</time>
      </trkpt>
      <trkpt lat="45.90105" lon="5.56741">
        <ele>983</ele>
        <time>2021-09-04T13:25:53.288Z</time>
      </trkpt>
      <trkpt lat="45.90106" lon="5.56732">
        <ele>989</ele>
        <time>2021-09-04T13:25:58.264Z</time>
      </trkpt>
      <trkpt lat="45.90108" lon="5.56723">
        <ele>989</ele>
        <time>2021-09-04T13:26:03.257Z</time>
      </trkpt>
      <trkpt lat="45.90109" lon="5.56716">
        <ele>989</ele>
        <time>2021-09-04T13:26:07.288Z</time>
      </trkpt>
      <trkpt lat="45.90112" lon="5.56707">
        <ele>994</ele>
        <time>2021-09-04T13:26:12.249Z</time>
      </trkpt>
      <trkpt lat="45.90114" lon="5.56699">
        <ele>994</ele>
        <time>2021-09-04T13:26:16.264Z</time>
      </trkpt>
      <trkpt lat="45.90116" lon="5.56691">
        <ele>994</ele>
        <time>2021-09-04T13:26:21.260Z</time>
      </trkpt>
      <trkpt lat="45.90117" lon="5.56684">
        <ele>994</ele>
        <time>2021-09-04T13:26:25.294Z</time>
      </trkpt>
      <trkpt lat="45.90122" lon="5.56678">
        <ele>998</ele>
        <time>2021-09-04T13:26:30.263Z</time>
      </trkpt>
      <trkpt lat="45.90124" lon="5.56667">
        <ele>998</ele>
        <time>2021-09-04T13:26:34.270Z</time>
      </trkpt>
      <trkpt lat="45.90129" lon="5.56658">
        <ele>989</ele>
        <time>2021-09-04T13:26:39.259Z</time>
      </trkpt>
      <trkpt lat="45.90131" lon="5.56654">
        <ele>989</ele>
        <time>2021-09-04T13:26:43.273Z</time>
      </trkpt>
      <trkpt lat="45.90136" lon="5.5665">
        <ele>994</ele>
        <time>2021-09-04T13:26:48.257Z</time>
      </trkpt>
      <trkpt lat="45.90138" lon="5.56643">
        <ele>994</ele>
        <time>2021-09-04T13:26:52.262Z</time>
      </trkpt>
      <trkpt lat="45.90139" lon="5.56634">
        <ele>994</ele>
        <time>2021-09-04T13:26:56.294Z</time>
      </trkpt>
      <trkpt lat="45.9014" lon="5.56624">
        <ele>1000</ele>
        <time>2021-09-04T13:27:01.288Z</time>
      </trkpt>
      <trkpt lat="45.9014" lon="5.56613">
        <ele>1000</ele>
        <time>2021-09-04T13:27:06.265Z</time>
      </trkpt>
      <trkpt lat="45.90139" lon="5.56603">
        <ele>1000</ele>
        <time>2021-09-04T13:27:11.251Z</time>
      </trkpt>
      <trkpt lat="45.9014" lon="5.56594">
        <ele>1005</ele>
        <time>2021-09-04T13:27:15.267Z</time>
      </trkpt>
      <trkpt lat="45.90142" lon="5.56581">
        <ele>1005</ele>
        <time>2021-09-04T13:27:20.255Z</time>
      </trkpt>
      <trkpt lat="45.90143" lon="5.56574">
        <ele>1005</ele>
        <time>2021-09-04T13:27:24.263Z</time>
      </trkpt>
      <trkpt lat="45.90143" lon="5.56564">
        <ele>1009</ele>
        <time>2021-09-04T13:27:29.257Z</time>
      </trkpt>
      <trkpt lat="45.90144" lon="5.56556">
        <ele>1009</ele>
        <time>2021-09-04T13:27:33.258Z</time>
      </trkpt>
      <trkpt lat="45.90147" lon="5.5654">
        <ele>1013</ele>
        <time>2021-09-04T13:27:38.261Z</time>
      </trkpt>
      <trkpt lat="45.90149" lon="5.56533">
        <ele>1013</ele>
        <time>2021-09-04T13:27:42.272Z</time>
      </trkpt>
      <trkpt lat="45.90149" lon="5.56525">
        <ele>1013</ele>
        <time>2021-09-04T13:27:47.260Z</time>
      </trkpt>
      <trkpt lat="45.90149" lon="5.56524">
        <ele>1013</ele>
        <time>2021-09-04T13:27:51.266Z</time>
      </trkpt>
      <trkpt lat="45.90149" lon="5.56524">
        <ele>1013</ele>
        <time>2021-09-04T13:27:55.274Z</time>
      </trkpt>
      <trkpt lat="45.90148" lon="5.56516">
        <ele>1013</ele>
        <time>2021-09-04T13:28:00.254Z</time>
      </trkpt>
      <trkpt lat="45.90147" lon="5.56503">
        <ele>1017</ele>
        <time>2021-09-04T13:28:04.295Z</time>
      </trkpt>
      <trkpt lat="45.90149" lon="5.56493">
        <ele>1017</ele>
        <time>2021-09-04T13:28:09.268Z</time>
      </trkpt>
      <trkpt lat="45.90149" lon="5.56489">
        <ele>1017</ele>
        <time>2021-09-04T13:28:13.318Z</time>
      </trkpt>
      <trkpt lat="45.90149" lon="5.56481">
        <ele>1020</ele>
        <time>2021-09-04T13:28:18.263Z</time>
      </trkpt>
      <trkpt lat="45.9015" lon="5.56475">
        <ele>1020</ele>
        <time>2021-09-04T13:28:22.269Z</time>
      </trkpt>
      <trkpt lat="45.90151" lon="5.56467">
        <ele>1020</ele>
        <time>2021-09-04T13:28:27.255Z</time>
      </trkpt>
      <trkpt lat="45.90152" lon="5.56463">
        <ele>1020</ele>
        <time>2021-09-04T13:28:31.291Z</time>
      </trkpt>
      <trkpt lat="45.90152" lon="5.56456">
        <ele>1025</ele>
        <time>2021-09-04T13:28:36.311Z</time>
      </trkpt>
      <trkpt lat="45.90152" lon="5.56449">
        <ele>1025</ele>
        <time>2021-09-04T13:28:41.259Z</time>
      </trkpt>
      <trkpt lat="45.9015" lon="5.56445">
        <ele>1025</ele>
        <time>2021-09-04T13:28:45.301Z</time>
      </trkpt>
      <trkpt lat="45.90146" lon="5.5644">
        <ele>1025</ele>
        <time>2021-09-04T13:28:50.300Z</time>
      </trkpt>
      <trkpt lat="45.90143" lon="5.56434">
        <ele>1025</ele>
        <time>2021-09-04T13:28:55.270Z</time>
      </trkpt>
      <trkpt lat="45.90141" lon="5.56427">
        <ele>1029</ele>
        <time>2021-09-04T13:29:00.225Z</time>
      </trkpt>
      <trkpt lat="45.90142" lon="5.56421">
        <ele>1029</ele>
        <time>2021-09-04T13:29:04.263Z</time>
      </trkpt>
      <trkpt lat="45.90138" lon="5.56416">
        <ele>1029</ele>
        <time>2021-09-04T13:29:09.266Z</time>
      </trkpt>
      <trkpt lat="45.90136" lon="5.56412">
        <ele>1029</ele>
        <time>2021-09-04T13:29:13.297Z</time>
      </trkpt>
      <trkpt lat="45.90133" lon="5.56404">
        <ele>1029</ele>
        <time>2021-09-04T13:29:18.265Z</time>
      </trkpt>
      <trkpt lat="45.90132" lon="5.56398">
        <ele>1033</ele>
        <time>2021-09-04T13:29:22.273Z</time>
      </trkpt>
      <trkpt lat="45.90129" lon="5.56393">
        <ele>1033</ele>
        <time>2021-09-04T13:29:26.297Z</time>
      </trkpt>
      <trkpt lat="45.90128" lon="5.56387">
        <ele>1033</ele>
        <time>2021-09-04T13:29:30.307Z</time>
      </trkpt>
      <trkpt lat="45.90127" lon="5.56377">
        <ele>1033</ele>
        <time>2021-09-04T13:29:35.294Z</time>
      </trkpt>
      <trkpt lat="45.90127" lon="5.56367">
        <ele>1035</ele>
        <time>2021-09-04T13:29:40.270Z</time>
      </trkpt>
      <trkpt lat="45.90126" lon="5.5636">
        <ele>1035</ele>
        <time>2021-09-04T13:29:44.301Z</time>
      </trkpt>
      <trkpt lat="45.90125" lon="5.56353">
        <ele>1040</ele>
        <time>2021-09-04T13:29:49.217Z</time>
      </trkpt>
      <trkpt lat="45.90123" lon="5.56347">
        <ele>1040</ele>
        <time>2021-09-04T13:29:53.278Z</time>
      </trkpt>
      <trkpt lat="45.90122" lon="5.5634">
        <ele>1041</ele>
        <time>2021-09-04T13:29:58.264Z</time>
      </trkpt>
      <trkpt lat="45.9012" lon="5.56335">
        <ele>1041</ele>
        <time>2021-09-04T13:30:02.298Z</time>
      </trkpt>
      <trkpt lat="45.90119" lon="5.56327">
        <ele>1041</ele>
        <time>2021-09-04T13:30:07.264Z</time>
      </trkpt>
      <trkpt lat="45.90116" lon="5.56323">
        <ele>1041</ele>
        <time>2021-09-04T13:30:11.301Z</time>
      </trkpt>
      <trkpt lat="45.90112" lon="5.56321">
        <ele>1041</ele>
        <time>2021-09-04T13:30:16.266Z</time>
      </trkpt>
      <trkpt lat="45.90107" lon="5.56319">
        <ele>1041</ele>
        <time>2021-09-04T13:30:21.257Z</time>
      </trkpt>
      <trkpt lat="45.90103" lon="5.56317">
        <ele>1041</ele>
        <time>2021-09-04T13:30:25.299Z</time>
      </trkpt>
      <trkpt lat="45.901" lon="5.56312">
        <ele>1041</ele>
        <time>2021-09-04T13:30:29.302Z</time>
      </trkpt>
      <trkpt lat="45.90098" lon="5.56306">
        <ele>1041</ele>
        <time>2021-09-04T13:30:33.315Z</time>
      </trkpt>
      <trkpt lat="45.90094" lon="5.56299">
        <ele>1043</ele>
        <time>2021-09-04T13:30:38.315Z</time>
      </trkpt>
      <trkpt lat="45.90091" lon="5.56294">
        <ele>1043</ele>
        <time>2021-09-04T13:30:43.309Z</time>
      </trkpt>
      <trkpt lat="45.90086" lon="5.5629">
        <ele>1043</ele>
        <time>2021-09-04T13:30:48.288Z</time>
      </trkpt>
      <trkpt lat="45.90081" lon="5.56283">
        <ele>1043</ele>
        <time>2021-09-04T13:30:53.268Z</time>
      </trkpt>
      <trkpt lat="45.9008" lon="5.56276">
        <ele>1043</ele>
        <time>2021-09-04T13:30:58.229Z</time>
      </trkpt>
      <trkpt lat="45.90081" lon="5.5627">
        <ele>1043</ele>
        <time>2021-09-04T13:31:02.264Z</time>
      </trkpt>
      <trkpt lat="45.90079" lon="5.56261">
        <ele>1043</ele>
        <time>2021-09-04T13:31:07.287Z</time>
      </trkpt>
      <trkpt lat="45.90075" lon="5.56255">
        <ele>1043</ele>
        <time>2021-09-04T13:31:12.248Z</time>
      </trkpt>
      <trkpt lat="45.90071" lon="5.56251">
        <ele>1043</ele>
        <time>2021-09-04T13:31:16.256Z</time>
      </trkpt>
      <trkpt lat="45.90066" lon="5.56245">
        <ele>1041</ele>
        <time>2021-09-04T13:31:21.260Z</time>
      </trkpt>
      <trkpt lat="45.90061" lon="5.56241">
        <ele>1041</ele>
        <time>2021-09-04T13:31:26.265Z</time>
      </trkpt>
      <trkpt lat="45.90057" lon="5.56238">
        <ele>1041</ele>
        <time>2021-09-04T13:31:30.293Z</time>
      </trkpt>
      <trkpt lat="45.90051" lon="5.56235">
        <ele>1039</ele>
        <time>2021-09-04T13:31:35.252Z</time>
      </trkpt>
      <trkpt lat="45.90048" lon="5.56232">
        <ele>1039</ele>
        <time>2021-09-04T13:31:39.285Z</time>
      </trkpt>
      <trkpt lat="45.90042" lon="5.5623">
        <ele>1039</ele>
        <time>2021-09-04T13:31:44.260Z</time>
      </trkpt>
      <trkpt lat="45.90036" lon="5.56228">
        <ele>1039</ele>
        <time>2021-09-04T13:31:49.266Z</time>
      </trkpt>
      <trkpt lat="45.90029" lon="5.56225">
        <ele>1039</ele>
        <time>2021-09-04T13:31:54.258Z</time>
      </trkpt>
      <trkpt lat="45.90025" lon="5.5622">
        <ele>1039</ele>
        <time>2021-09-04T13:31:58.327Z</time>
      </trkpt>
      <trkpt lat="45.90021" lon="5.56212">
        <ele>1039</ele>
        <time>2021-09-04T13:32:03.302Z</time>
      </trkpt>
      <trkpt lat="45.90018" lon="5.56202">
        <ele>1037</ele>
        <time>2021-09-04T13:32:07.324Z</time>
      </trkpt>
      <trkpt lat="45.90021" lon="5.56188">
        <ele>1037</ele>
        <time>2021-09-04T13:32:12.267Z</time>
      </trkpt>
      <trkpt lat="45.90024" lon="5.56174">
        <ele>1036</ele>
        <time>2021-09-04T13:32:17.293Z</time>
      </trkpt>
      <trkpt lat="45.90025" lon="5.56163">
        <ele>1036</ele>
        <time>2021-09-04T13:32:22.255Z</time>
      </trkpt>
      <trkpt lat="45.90027" lon="5.56157">
        <ele>1036</ele>
        <time>2021-09-04T13:32:26.267Z</time>
      </trkpt>
      <trkpt lat="45.90028" lon="5.56151">
        <ele>1037</ele>
        <time>2021-09-04T13:32:30.270Z</time>
      </trkpt>
      <trkpt lat="45.90029" lon="5.56145">
        <ele>1037</ele>
        <time>2021-09-04T13:32:35.262Z</time>
      </trkpt>
      <trkpt lat="45.9003" lon="5.56136">
        <ele>1037</ele>
        <time>2021-09-04T13:32:40.303Z</time>
      </trkpt>
      <trkpt lat="45.90031" lon="5.56127">
        <ele>1037</ele>
        <time>2021-09-04T13:32:45.293Z</time>
      </trkpt>
      <trkpt lat="45.90031" lon="5.56119">
        <ele>1039</ele>
        <time>2021-09-04T13:32:50.269Z</time>
      </trkpt>
      <trkpt lat="45.90034" lon="5.56111">
        <ele>1039</ele>
        <time>2021-09-04T13:32:55.257Z</time>
      </trkpt>
      <trkpt lat="45.90036" lon="5.56104">
        <ele>1039</ele>
        <time>2021-09-04T13:32:59.289Z</time>
      </trkpt>
      <trkpt lat="45.90038" lon="5.56098">
        <ele>1039</ele>
        <time>2021-09-04T13:33:03.289Z</time>
      </trkpt>
      <trkpt lat="45.90041" lon="5.5609">
        <ele>1041</ele>
        <time>2021-09-04T13:33:08.226Z</time>
      </trkpt>
      <trkpt lat="45.90044" lon="5.56083">
        <ele>1036</ele>
        <time>2021-09-04T13:33:12.262Z</time>
      </trkpt>
      <trkpt lat="45.90046" lon="5.56077">
        <ele>1036</ele>
        <time>2021-09-04T13:33:17.255Z</time>
      </trkpt>
      <trkpt lat="45.9005" lon="5.5607">
        <ele>1036</ele>
        <time>2021-09-04T13:33:22.252Z</time>
      </trkpt>
      <trkpt lat="45.90053" lon="5.56064">
        <ele>1036</ele>
        <time>2021-09-04T13:33:26.255Z</time>
      </trkpt>
      <trkpt lat="45.90057" lon="5.56059">
        <ele>1036</ele>
        <time>2021-09-04T13:33:31.301Z</time>
      </trkpt>
      <trkpt lat="45.9006" lon="5.56054">
        <ele>1036</ele>
        <time>2021-09-04T13:33:36.287Z</time>
      </trkpt>
      <trkpt lat="45.90065" lon="5.5605">
        <ele>1036</ele>
        <time>2021-09-04T13:33:40.301Z</time>
      </trkpt>
      <trkpt lat="45.9007" lon="5.56047">
        <ele>1032</ele>
        <time>2021-09-04T13:33:45.293Z</time>
      </trkpt>
      <trkpt lat="45.90075" lon="5.56043">
        <ele>1032</ele>
        <time>2021-09-04T13:33:50.258Z</time>
      </trkpt>
      <trkpt lat="45.90079" lon="5.56039">
        <ele>1031</ele>
        <time>2021-09-04T13:33:54.302Z</time>
      </trkpt>
      <trkpt lat="45.90086" lon="5.56034">
        <ele>1031</ele>
        <time>2021-09-04T13:33:59.263Z</time>
      </trkpt>
      <trkpt lat="45.90092" lon="5.56027">
        <ele>1031</ele>
        <time>2021-09-04T13:34:04.292Z</time>
      </trkpt>
      <trkpt lat="45.90097" lon="5.56018">
        <ele>1031</ele>
        <time>2021-09-04T13:34:09.257Z</time>
      </trkpt>
      <trkpt lat="45.90106" lon="5.56005">
        <ele>1028</ele>
        <time>2021-09-04T13:34:14.230Z</time>
      </trkpt>
      <trkpt lat="45.90114" lon="5.55997">
        <ele>1028</ele>
        <time>2021-09-04T13:34:19.264Z</time>
      </trkpt>
      <trkpt lat="45.90117" lon="5.55998">
        <ele>1028</ele>
        <time>2021-09-04T13:34:23.298Z</time>
      </trkpt>
      <trkpt lat="45.90123" lon="5.55998">
        <ele>1028</ele>
        <time>2021-09-04T13:34:28.259Z</time>
      </trkpt>
      <trkpt lat="45.90128" lon="5.55999">
        <ele>1027</ele>
        <time>2021-09-04T13:34:32.266Z</time>
      </trkpt>
      <trkpt lat="45.90135" lon="5.55996">
        <ele>1027</ele>
        <time>2021-09-04T13:34:37.248Z</time>
      </trkpt>
      <trkpt lat="45.90139" lon="5.55991">
        <ele>1027</ele>
        <time>2021-09-04T13:34:41.267Z</time>
      </trkpt>
      <trkpt lat="45.90144" lon="5.55985">
        <ele>1029</ele>
        <time>2021-09-04T13:34:46.254Z</time>
      </trkpt>
      <trkpt lat="45.90149" lon="5.5598">
        <ele>1029</ele>
        <time>2021-09-04T13:34:50.266Z</time>
      </trkpt>
      <trkpt lat="45.90154" lon="5.55973">
        <ele>1030</ele>
        <time>2021-09-04T13:34:55.284Z</time>
      </trkpt>
      <trkpt lat="45.9016" lon="5.55964">
        <ele>1030</ele>
        <time>2021-09-04T13:35:00.269Z</time>
      </trkpt>
      <trkpt lat="45.90163" lon="5.55957">
        <ele>1031</ele>
        <time>2021-09-04T13:35:05.256Z</time>
      </trkpt>
      <trkpt lat="45.90164" lon="5.55946">
        <ele>1031</ele>
        <time>2021-09-04T13:35:10.294Z</time>
      </trkpt>
      <trkpt lat="45.90164" lon="5.55929">
        <ele>1031</ele>
        <time>2021-09-04T13:35:15.287Z</time>
      </trkpt>
      <trkpt lat="45.90161" lon="5.55912">
        <ele>1031</ele>
        <time>2021-09-04T13:35:20.291Z</time>
      </trkpt>
      <trkpt lat="45.9016" lon="5.55902">
        <ele>1032</ele>
        <time>2021-09-04T13:35:25.264Z</time>
      </trkpt>
      <trkpt lat="45.9016" lon="5.55894">
        <ele>1032</ele>
        <time>2021-09-04T13:35:29.269Z</time>
      </trkpt>
      <trkpt lat="45.90161" lon="5.55884">
        <ele>1032</ele>
        <time>2021-09-04T13:35:34.273Z</time>
      </trkpt>
      <trkpt lat="45.90161" lon="5.55876">
        <ele>1032</ele>
        <time>2021-09-04T13:35:38.280Z</time>
      </trkpt>
      <trkpt lat="45.90162" lon="5.55868">
        <ele>1033</ele>
        <time>2021-09-04T13:35:42.292Z</time>
      </trkpt>
      <trkpt lat="45.90163" lon="5.55851">
        <ele>1033</ele>
        <time>2021-09-04T13:35:47.291Z</time>
      </trkpt>
      <trkpt lat="45.90162" lon="5.5584">
        <ele>1033</ele>
        <time>2021-09-04T13:35:52.270Z</time>
      </trkpt>
      <trkpt lat="45.90163" lon="5.55828">
        <ele>1033</ele>
        <time>2021-09-04T13:35:57.259Z</time>
      </trkpt>
      <trkpt lat="45.90164" lon="5.55819">
        <ele>1032</ele>
        <time>2021-09-04T13:36:01.284Z</time>
      </trkpt>
      <trkpt lat="45.90167" lon="5.5581">
        <ele>1032</ele>
        <time>2021-09-04T13:36:06.267Z</time>
      </trkpt>
      <trkpt lat="45.90169" lon="5.55803">
        <ele>1032</ele>
        <time>2021-09-04T13:36:11.256Z</time>
      </trkpt>
      <trkpt lat="45.90171" lon="5.55795">
        <ele>1032</ele>
        <time>2021-09-04T13:36:16.292Z</time>
      </trkpt>
      <trkpt lat="45.90172" lon="5.55783">
        <ele>1031</ele>
        <time>2021-09-04T13:36:21.260Z</time>
      </trkpt>
      <trkpt lat="45.90178" lon="5.55774">
        <ele>1031</ele>
        <time>2021-09-04T13:36:25.272Z</time>
      </trkpt>
      <trkpt lat="45.90183" lon="5.55768">
        <ele>1035</ele>
        <time>2021-09-04T13:36:30.273Z</time>
      </trkpt>
      <trkpt lat="45.90186" lon="5.55768">
        <ele>1035</ele>
        <time>2021-09-04T13:36:35.267Z</time>
      </trkpt>
      <trkpt lat="45.90187" lon="5.55769">
        <ele>1035</ele>
        <time>2021-09-04T13:36:39.292Z</time>
      </trkpt>
      <trkpt lat="45.9019" lon="5.5577">
        <ele>1035</ele>
        <time>2021-09-04T13:36:44.280Z</time>
      </trkpt>
      <trkpt lat="45.90196" lon="5.55765">
        <ele>1035</ele>
        <time>2021-09-04T13:36:49.270Z</time>
      </trkpt>
      <trkpt lat="45.902" lon="5.55758">
        <ele>1035</ele>
        <time>2021-09-04T13:36:53.275Z</time>
      </trkpt>
      <trkpt lat="45.90205" lon="5.55748">
        <ele>1035</ele>
        <time>2021-09-04T13:36:58.248Z</time>
      </trkpt>
      <trkpt lat="45.9021" lon="5.55739">
        <ele>1037</ele>
        <time>2021-09-04T13:37:03.252Z</time>
      </trkpt>
      <trkpt lat="45.90212" lon="5.55728">
        <ele>1038</ele>
        <time>2021-09-04T13:37:08.215Z</time>
      </trkpt>
      <trkpt lat="45.90208" lon="5.55717">
        <ele>1038</ele>
        <time>2021-09-04T13:37:12.255Z</time>
      </trkpt>
      <trkpt lat="45.90204" lon="5.55707">
        <ele>1039</ele>
        <time>2021-09-04T13:37:17.280Z</time>
      </trkpt>
      <trkpt lat="45.90199" lon="5.55694">
        <ele>1039</ele>
        <time>2021-09-04T13:37:22.277Z</time>
      </trkpt>
      <trkpt lat="45.90196" lon="5.55684">
        <ele>1039</ele>
        <time>2021-09-04T13:37:26.274Z</time>
      </trkpt>
      <trkpt lat="45.90196" lon="5.55672">
        <ele>1041</ele>
        <time>2021-09-04T13:37:31.262Z</time>
      </trkpt>
      <trkpt lat="45.90197" lon="5.55663">
        <ele>1041</ele>
        <time>2021-09-04T13:37:36.283Z</time>
      </trkpt>
      <trkpt lat="45.90201" lon="5.55658">
        <ele>1041</ele>
        <time>2021-09-04T13:37:41.257Z</time>
      </trkpt>
      <trkpt lat="45.90204" lon="5.55654">
        <ele>1041</ele>
        <time>2021-09-04T13:37:45.264Z</time>
      </trkpt>
      <trkpt lat="45.90208" lon="5.55651">
        <ele>1043</ele>
        <time>2021-09-04T13:37:50.272Z</time>
      </trkpt>
      <trkpt lat="45.90212" lon="5.55651">
        <ele>1044</ele>
        <time>2021-09-04T13:37:55.263Z</time>
      </trkpt>
      <trkpt lat="45.90217" lon="5.55649">
        <ele>1044</ele>
        <time>2021-09-04T13:37:59.297Z</time>
      </trkpt>
      <trkpt lat="45.90222" lon="5.55645">
        <ele>1044</ele>
        <time>2021-09-04T13:38:04.266Z</time>
      </trkpt>
      <trkpt lat="45.90229" lon="5.55644">
        <ele>1044</ele>
        <time>2021-09-04T13:38:08.291Z</time>
      </trkpt>
      <trkpt lat="45.90238" lon="5.55637">
        <ele>1045</ele>
        <time>2021-09-04T13:38:13.292Z</time>
      </trkpt>
      <trkpt lat="45.90244" lon="5.5563">
        <ele>1045</ele>
        <time>2021-09-04T13:38:18.262Z</time>
      </trkpt>
      <trkpt lat="45.90248" lon="5.55627">
        <ele>1045</ele>
        <time>2021-09-04T13:38:22.302Z</time>
      </trkpt>
      <trkpt lat="45.90253" lon="5.55623">
        <ele>1047</ele>
        <time>2021-09-04T13:38:27.256Z</time>
      </trkpt>
      <trkpt lat="45.90258" lon="5.55618">
        <ele>1047</ele>
        <time>2021-09-04T13:38:31.263Z</time>
      </trkpt>
      <trkpt lat="45.90263" lon="5.55607">
        <ele>1047</ele>
        <time>2021-09-04T13:38:35.269Z</time>
      </trkpt>
      <trkpt lat="45.90268" lon="5.55593">
        <ele>1050</ele>
        <time>2021-09-04T13:38:40.215Z</time>
      </trkpt>
      <trkpt lat="45.90274" lon="5.55581">
        <ele>1050</ele>
        <time>2021-09-04T13:38:44.260Z</time>
      </trkpt>
      <trkpt lat="45.90279" lon="5.55573">
        <ele>1050</ele>
        <time>2021-09-04T13:38:48.272Z</time>
      </trkpt>
      <trkpt lat="45.90286" lon="5.55561">
        <ele>1052</ele>
        <time>2021-09-04T13:38:53.263Z</time>
      </trkpt>
      <trkpt lat="45.90293" lon="5.55552">
        <ele>1054</ele>
        <time>2021-09-04T13:38:58.266Z</time>
      </trkpt>
      <trkpt lat="45.903" lon="5.55543">
        <ele>1054</ele>
        <time>2021-09-04T13:39:03.265Z</time>
      </trkpt>
      <trkpt lat="45.90307" lon="5.55536">
        <ele>1055</ele>
        <time>2021-09-04T13:39:08.218Z</time>
      </trkpt>
      <trkpt lat="45.90313" lon="5.55533">
        <ele>1055</ele>
        <time>2021-09-04T13:39:12.288Z</time>
      </trkpt>
      <trkpt lat="45.90318" lon="5.5553">
        <ele>1055</ele>
        <time>2021-09-04T13:39:16.290Z</time>
      </trkpt>
      <trkpt lat="45.90326" lon="5.55526">
        <ele>1057</ele>
        <time>2021-09-04T13:39:21.285Z</time>
      </trkpt>
      <trkpt lat="45.90331" lon="5.55522">
        <ele>1057</ele>
        <time>2021-09-04T13:39:25.286Z</time>
      </trkpt>
      <trkpt lat="45.90338" lon="5.55509">
        <ele>1059</ele>
        <time>2021-09-04T13:39:30.257Z</time>
      </trkpt>
      <trkpt lat="45.90339" lon="5.55498">
        <ele>1059</ele>
        <time>2021-09-04T13:39:34.285Z</time>
      </trkpt>
      <trkpt lat="45.90346" lon="5.55484">
        <ele>1060</ele>
        <time>2021-09-04T13:39:39.265Z</time>
      </trkpt>
      <trkpt lat="45.9035" lon="5.55475">
        <ele>1061</ele>
        <time>2021-09-04T13:39:43.286Z</time>
      </trkpt>
      <trkpt lat="45.90355" lon="5.55467">
        <ele>1061</ele>
        <time>2021-09-04T13:39:48.265Z</time>
      </trkpt>
      <trkpt lat="45.9036" lon="5.55459">
        <ele>1061</ele>
        <time>2021-09-04T13:39:53.263Z</time>
      </trkpt>
      <trkpt lat="45.90363" lon="5.55454">
        <ele>1062</ele>
        <time>2021-09-04T13:42:32.305Z</time>
      </trkpt>
      <trkpt lat="45.90366" lon="5.55449">
        <ele>1062</ele>
        <time>2021-09-04T13:42:37.256Z</time>
      </trkpt>
      <trkpt lat="45.90369" lon="5.55447">
        <ele>1062</ele>
        <time>2021-09-04T13:42:41.294Z</time>
      </trkpt>
      <trkpt lat="45.90374" lon="5.55444">
        <ele>1062</ele>
        <time>2021-09-04T13:42:46.282Z</time>
      </trkpt>
      <trkpt lat="45.90377" lon="5.55438">
        <ele>1059</ele>
        <time>2021-09-04T13:42:50.293Z</time>
      </trkpt>
      <trkpt lat="45.90376" lon="5.55432">
        <ele>1059</ele>
        <time>2021-09-04T13:42:54.308Z</time>
      </trkpt>
      <trkpt lat="45.90374" lon="5.55424">
        <ele>1060</ele>
        <time>2021-09-04T13:42:59.295Z</time>
      </trkpt>
      <trkpt lat="45.90377" lon="5.55417">
        <ele>1059</ele>
        <time>2021-09-04T13:43:04.264Z</time>
      </trkpt>
      <trkpt lat="45.90379" lon="5.55414">
        <ele>1059</ele>
        <time>2021-09-04T13:43:08.289Z</time>
      </trkpt>
      <trkpt lat="45.90383" lon="5.55411">
        <ele>1059</ele>
        <time>2021-09-04T13:43:13.259Z</time>
      </trkpt>
      <trkpt lat="45.90387" lon="5.55407">
        <ele>1059</ele>
        <time>2021-09-04T13:43:18.294Z</time>
      </trkpt>
      <trkpt lat="45.90391" lon="5.55402">
        <ele>1058</ele>
        <time>2021-09-04T13:43:23.257Z</time>
      </trkpt>
      <trkpt lat="45.90397" lon="5.55399">
        <ele>1058</ele>
        <time>2021-09-04T13:43:27.288Z</time>
      </trkpt>
      <trkpt lat="45.90402" lon="5.55396">
        <ele>1058</ele>
        <time>2021-09-04T13:43:32.223Z</time>
      </trkpt>
      <trkpt lat="45.90405" lon="5.55394">
        <ele>1061</ele>
        <time>2021-09-04T13:43:36.264Z</time>
      </trkpt>
      <trkpt lat="45.90411" lon="5.55391">
        <ele>1061</ele>
        <time>2021-09-04T13:43:41.307Z</time>
      </trkpt>
      <trkpt lat="45.90418" lon="5.55388">
        <ele>1061</ele>
        <time>2021-09-04T13:43:46.267Z</time>
      </trkpt>
      <trkpt lat="45.90423" lon="5.55385">
        <ele>1061</ele>
        <time>2021-09-04T13:43:51.302Z</time>
      </trkpt>
      <trkpt lat="45.90429" lon="5.55381">
        <ele>1061</ele>
        <time>2021-09-04T13:43:56.263Z</time>
      </trkpt>
      <trkpt lat="45.90435" lon="5.55378">
        <ele>1061</ele>
        <time>2021-09-04T13:44:01.296Z</time>
      </trkpt>
      <trkpt lat="45.9044" lon="5.55376">
        <ele>1061</ele>
        <time>2021-09-04T13:44:06.252Z</time>
      </trkpt>
      <trkpt lat="45.90445" lon="5.55374">
        <ele>1062</ele>
        <time>2021-09-04T13:44:11.264Z</time>
      </trkpt>
      <trkpt lat="45.9045" lon="5.55372">
        <ele>1062</ele>
        <time>2021-09-04T13:44:16.280Z</time>
      </trkpt>
      <trkpt lat="45.90456" lon="5.5537">
        <ele>1062</ele>
        <time>2021-09-04T13:44:21.303Z</time>
      </trkpt>
      <trkpt lat="45.90462" lon="5.55367">
        <ele>1060</ele>
        <time>2021-09-04T13:44:26.261Z</time>
      </trkpt>
      <trkpt lat="45.90467" lon="5.55365">
        <ele>1060</ele>
        <time>2021-09-04T13:44:30.291Z</time>
      </trkpt>
      <trkpt lat="45.90472" lon="5.55362">
        <ele>1060</ele>
        <time>2021-09-04T13:44:34.285Z</time>
      </trkpt>
      <trkpt lat="45.90477" lon="5.55358">
        <ele>1060</ele>
        <time>2021-09-04T13:44:39.262Z</time>
      </trkpt>
      <trkpt lat="45.90484" lon="5.55357">
        <ele>1060</ele>
        <time>2021-09-04T13:44:44.298Z</time>
      </trkpt>
      <trkpt lat="45.9049" lon="5.55355">
        <ele>1059</ele>
        <time>2021-09-04T13:44:49.257Z</time>
      </trkpt>
      <trkpt lat="45.90495" lon="5.55354">
        <ele>1059</ele>
        <time>2021-09-04T13:44:53.305Z</time>
      </trkpt>
      <trkpt lat="45.90501" lon="5.55353">
        <ele>1059</ele>
        <time>2021-09-04T13:44:58.270Z</time>
      </trkpt>
      <trkpt lat="45.90507" lon="5.55352">
        <ele>1059</ele>
        <time>2021-09-04T13:45:03.286Z</time>
      </trkpt>
      <trkpt lat="45.90513" lon="5.55351">
        <ele>1059</ele>
        <time>2021-09-04T13:45:08.268Z</time>
      </trkpt>
      <trkpt lat="45.90518" lon="5.5535">
        <ele>1055</ele>
        <time>2021-09-04T13:45:12.288Z</time>
      </trkpt>
      <trkpt lat="45.90524" lon="5.55349">
        <ele>1055</ele>
        <time>2021-09-04T13:45:17.258Z</time>
      </trkpt>
      <trkpt lat="45.90531" lon="5.55346">
        <ele>1056</ele>
        <time>2021-09-04T13:45:22.266Z</time>
      </trkpt>
      <trkpt lat="45.90538" lon="5.55342">
        <ele>1056</ele>
        <time>2021-09-04T13:45:26.269Z</time>
      </trkpt>
      <trkpt lat="45.90547" lon="5.55338">
        <ele>1053</ele>
        <time>2021-09-04T13:45:31.232Z</time>
      </trkpt>
      <trkpt lat="45.9055" lon="5.55336">
        <ele>1053</ele>
        <time>2021-09-04T13:45:35.294Z</time>
      </trkpt>
      <trkpt lat="45.90555" lon="5.55333">
        <ele>1053</ele>
        <time>2021-09-04T13:45:40.262Z</time>
      </trkpt>
      <trkpt lat="45.90559" lon="5.5533">
        <ele>1053</ele>
        <time>2021-09-04T13:45:45.256Z</time>
      </trkpt>
      <trkpt lat="45.90563" lon="5.55329">
        <ele>1053</ele>
        <time>2021-09-04T13:45:49.260Z</time>
      </trkpt>
      <trkpt lat="45.90567" lon="5.55328">
        <ele>1053</ele>
        <time>2021-09-04T13:45:53.259Z</time>
      </trkpt>
      <trkpt lat="45.90572" lon="5.55324">
        <ele>1050</ele>
        <time>2021-09-04T13:45:58.268Z</time>
      </trkpt>
      <trkpt lat="45.90576" lon="5.5532">
        <ele>1050</ele>
        <time>2021-09-04T13:46:03.320Z</time>
      </trkpt>
      <trkpt lat="45.9058" lon="5.55318">
        <ele>1050</ele>
        <time>2021-09-04T13:46:08.264Z</time>
      </trkpt>
      <trkpt lat="45.90583" lon="5.55316">
        <ele>1050</ele>
        <time>2021-09-04T13:46:12.281Z</time>
      </trkpt>
      <trkpt lat="45.90588" lon="5.55314">
        <ele>1050</ele>
        <time>2021-09-04T13:46:17.267Z</time>
      </trkpt>
      <trkpt lat="45.90592" lon="5.55312">
        <ele>1050</ele>
        <time>2021-09-04T13:46:21.285Z</time>
      </trkpt>
      <trkpt lat="45.90597" lon="5.5531">
        <ele>1047</ele>
        <time>2021-09-04T13:46:26.255Z</time>
      </trkpt>
      <trkpt lat="45.90601" lon="5.55309">
        <ele>1047</ele>
        <time>2021-09-04T13:46:30.289Z</time>
      </trkpt>
      <trkpt lat="45.90607" lon="5.55308">
        <ele>1047</ele>
        <time>2021-09-04T13:46:35.262Z</time>
      </trkpt>
      <trkpt lat="45.90613" lon="5.55308">
        <ele>1047</ele>
        <time>2021-09-04T13:46:40.261Z</time>
      </trkpt>
      <trkpt lat="45.90618" lon="5.55309">
        <ele>1047</ele>
        <time>2021-09-04T13:46:45.269Z</time>
      </trkpt>
      <trkpt lat="45.90624" lon="5.55305">
        <ele>1047</ele>
        <time>2021-09-04T13:46:50.267Z</time>
      </trkpt>
      <trkpt lat="45.90629" lon="5.55305">
        <ele>1044</ele>
        <time>2021-09-04T13:46:54.272Z</time>
      </trkpt>
      <trkpt lat="45.90634" lon="5.55304">
        <ele>1044</ele>
        <time>2021-09-04T13:46:59.303Z</time>
      </trkpt>
      <trkpt lat="45.90638" lon="5.55304">
        <ele>1044</ele>
        <time>2021-09-04T13:47:03.311Z</time>
      </trkpt>
      <trkpt lat="45.90643" lon="5.55304">
        <ele>1044</ele>
        <time>2021-09-04T13:47:08.305Z</time>
      </trkpt>
      <trkpt lat="45.90647" lon="5.55304">
        <ele>1044</ele>
        <time>2021-09-04T13:47:13.267Z</time>
      </trkpt>
      <trkpt lat="45.90651" lon="5.55303">
        <ele>1044</ele>
        <time>2021-09-04T13:47:17.293Z</time>
      </trkpt>
      <trkpt lat="45.90657" lon="5.553">
        <ele>1043</ele>
        <time>2021-09-04T13:47:22.266Z</time>
      </trkpt>
      <trkpt lat="45.90662" lon="5.55299">
        <ele>1043</ele>
        <time>2021-09-04T13:47:26.275Z</time>
      </trkpt>
      <trkpt lat="45.90668" lon="5.55297">
        <ele>1043</ele>
        <time>2021-09-04T13:47:31.231Z</time>
      </trkpt>
      <trkpt lat="45.90672" lon="5.55294">
        <ele>1043</ele>
        <time>2021-09-04T13:47:35.268Z</time>
      </trkpt>
      <trkpt lat="45.90679" lon="5.55291">
        <ele>1041</ele>
        <time>2021-09-04T13:47:39.304Z</time>
      </trkpt>
      <trkpt lat="45.90685" lon="5.55289">
        <ele>1040</ele>
        <time>2021-09-04T13:47:44.296Z</time>
      </trkpt>
      <trkpt lat="45.90689" lon="5.55287">
        <ele>1040</ele>
        <time>2021-09-04T13:47:49.288Z</time>
      </trkpt>
      <trkpt lat="45.90695" lon="5.55286">
        <ele>1040</ele>
        <time>2021-09-04T13:47:54.259Z</time>
      </trkpt>
      <trkpt lat="45.907" lon="5.55286">
        <ele>1040</ele>
        <time>2021-09-04T13:47:58.291Z</time>
      </trkpt>
      <trkpt lat="45.90706" lon="5.55286">
        <ele>1040</ele>
        <time>2021-09-04T13:48:03.260Z</time>
      </trkpt>
      <trkpt lat="45.90711" lon="5.55285">
        <ele>1039</ele>
        <time>2021-09-04T13:48:07.292Z</time>
      </trkpt>
      <trkpt lat="45.90717" lon="5.55284">
        <ele>1039</ele>
        <time>2021-09-04T13:48:12.257Z</time>
      </trkpt>
      <trkpt lat="45.90721" lon="5.55283">
        <ele>1039</ele>
        <time>2021-09-04T13:48:16.294Z</time>
      </trkpt>
      <trkpt lat="45.90727" lon="5.55281">
        <ele>1039</ele>
        <time>2021-09-04T13:48:21.266Z</time>
      </trkpt>
      <trkpt lat="45.9073" lon="5.55281">
        <ele>1039</ele>
        <time>2021-09-04T13:48:26.262Z</time>
      </trkpt>
      <trkpt lat="45.90733" lon="5.55279">
        <ele>1039</ele>
        <time>2021-09-04T13:48:31.259Z</time>
      </trkpt>
      <trkpt lat="45.90736" lon="5.55279">
        <ele>1039</ele>
        <time>2021-09-04T13:48:35.303Z</time>
      </trkpt>
      <trkpt lat="45.90741" lon="5.55277">
        <ele>1035</ele>
        <time>2021-09-04T13:48:40.290Z</time>
      </trkpt>
      <trkpt lat="45.90745" lon="5.55275">
        <ele>1035</ele>
        <time>2021-09-04T13:48:45.259Z</time>
      </trkpt>
      <trkpt lat="45.90749" lon="5.55274">
        <ele>1035</ele>
        <time>2021-09-04T13:48:49.290Z</time>
      </trkpt>
      <trkpt lat="45.90753" lon="5.55273">
        <ele>1035</ele>
        <time>2021-09-04T13:48:53.304Z</time>
      </trkpt>
      <trkpt lat="45.90758" lon="5.55274">
        <ele>1035</ele>
        <time>2021-09-04T13:48:58.304Z</time>
      </trkpt>
      <trkpt lat="45.90761" lon="5.55275">
        <ele>1035</ele>
        <time>2021-09-04T13:49:02.301Z</time>
      </trkpt>
      <trkpt lat="45.90766" lon="5.55275">
        <ele>1034</ele>
        <time>2021-09-04T13:49:07.293Z</time>
      </trkpt>
      <trkpt lat="45.90771" lon="5.55275">
        <ele>1034</ele>
        <time>2021-09-04T13:49:12.261Z</time>
      </trkpt>
      <trkpt lat="45.90775" lon="5.55273">
        <ele>1034</ele>
        <time>2021-09-04T13:49:16.296Z</time>
      </trkpt>
      <trkpt lat="45.90779" lon="5.55269">
        <ele>1034</ele>
        <time>2021-09-04T13:49:20.311Z</time>
      </trkpt>
      <trkpt lat="45.90785" lon="5.55265">
        <ele>1034</ele>
        <time>2021-09-04T13:49:25.286Z</time>
      </trkpt>
      <trkpt lat="45.9079" lon="5.55262">
        <ele>1034</ele>
        <time>2021-09-04T13:49:30.306Z</time>
      </trkpt>
      <trkpt lat="45.90794" lon="5.5526">
        <ele>1033</ele>
        <time>2021-09-04T13:49:35.273Z</time>
      </trkpt>
      <trkpt lat="45.90798" lon="5.55256">
        <ele>1033</ele>
        <time>2021-09-04T13:49:39.300Z</time>
      </trkpt>
      <trkpt lat="45.90802" lon="5.55252">
        <ele>1033</ele>
        <time>2021-09-04T13:49:44.266Z</time>
      </trkpt>
      <trkpt lat="45.90806" lon="5.55248">
        <ele>1033</ele>
        <time>2021-09-04T13:49:48.267Z</time>
      </trkpt>
      <trkpt lat="45.90811" lon="5.55242">
        <ele>1033</ele>
        <time>2021-09-04T13:49:53.271Z</time>
      </trkpt>
      <trkpt lat="45.90814" lon="5.55238">
        <ele>1033</ele>
        <time>2021-09-04T13:49:57.295Z</time>
      </trkpt>
      <trkpt lat="45.90829" lon="5.55237">
        <ele>1031</ele>
        <time>2021-09-04T13:50:30.287Z</time>
      </trkpt>
      <trkpt lat="45.90831" lon="5.55235">
        <ele>1030</ele>
        <time>2021-09-04T13:50:35.265Z</time>
      </trkpt>
      <trkpt lat="45.90834" lon="5.5523">
        <ele>1030</ele>
        <time>2021-09-04T13:50:39.287Z</time>
      </trkpt>
      <trkpt lat="45.90838" lon="5.55225">
        <ele>1030</ele>
        <time>2021-09-04T13:50:44.263Z</time>
      </trkpt>
      <trkpt lat="45.90842" lon="5.5522">
        <ele>1030</ele>
        <time>2021-09-04T13:50:48.286Z</time>
      </trkpt>
      <trkpt lat="45.90846" lon="5.55216">
        <ele>1030</ele>
        <time>2021-09-04T13:50:53.268Z</time>
      </trkpt>
      <trkpt lat="45.9085" lon="5.55212">
        <ele>1029</ele>
        <time>2021-09-04T13:50:57.288Z</time>
      </trkpt>
      <trkpt lat="45.90855" lon="5.55208">
        <ele>1029</ele>
        <time>2021-09-04T13:51:01.297Z</time>
      </trkpt>
      <trkpt lat="45.9086" lon="5.55204">
        <ele>1027</ele>
        <time>2021-09-04T13:51:06.285Z</time>
      </trkpt>
      <trkpt lat="45.90865" lon="5.552">
        <ele>1027</ele>
        <time>2021-09-04T13:51:11.323Z</time>
      </trkpt>
      <trkpt lat="45.90871" lon="5.55196">
        <ele>1027</ele>
        <time>2021-09-04T13:51:16.263Z</time>
      </trkpt>
      <trkpt lat="45.90876" lon="5.55194">
        <ele>1029</ele>
        <time>2021-09-04T13:51:20.314Z</time>
      </trkpt>
      <trkpt lat="45.90882" lon="5.55192">
        <ele>1029</ele>
        <time>2021-09-04T13:51:25.302Z</time>
      </trkpt>
      <trkpt lat="45.90888" lon="5.55189">
        <ele>1029</ele>
        <time>2021-09-04T13:51:30.293Z</time>
      </trkpt>
      <trkpt lat="45.90894" lon="5.55186">
        <ele>1029</ele>
        <time>2021-09-04T13:51:35.270Z</time>
      </trkpt>
      <trkpt lat="45.90899" lon="5.55184">
        <ele>1029</ele>
        <time>2021-09-04T13:51:39.300Z</time>
      </trkpt>
      <trkpt lat="45.90906" lon="5.5518">
        <ele>1027</ele>
        <time>2021-09-04T13:51:43.313Z</time>
      </trkpt>
      <trkpt lat="45.90913" lon="5.55175">
        <ele>1027</ele>
        <time>2021-09-04T13:51:48.308Z</time>
      </trkpt>
      <trkpt lat="45.90919" lon="5.55171">
        <ele>1027</ele>
        <time>2021-09-04T13:51:53.265Z</time>
      </trkpt>
      <trkpt lat="45.90924" lon="5.55168">
        <ele>1027</ele>
        <time>2021-09-04T13:51:57.294Z</time>
      </trkpt>
      <trkpt lat="45.90929" lon="5.55166">
        <ele>1027</ele>
        <time>2021-09-04T13:52:01.314Z</time>
      </trkpt>
      <trkpt lat="45.90934" lon="5.55166">
        <ele>1031</ele>
        <time>2021-09-04T13:52:05.318Z</time>
      </trkpt>
      <trkpt lat="45.9094" lon="5.55164">
        <ele>1031</ele>
        <time>2021-09-04T13:52:10.270Z</time>
      </trkpt>
      <trkpt lat="45.90945" lon="5.55162">
        <ele>1031</ele>
        <time>2021-09-04T13:52:14.286Z</time>
      </trkpt>
      <trkpt lat="45.90951" lon="5.55158">
        <ele>1031</ele>
        <time>2021-09-04T13:52:19.274Z</time>
      </trkpt>
      <trkpt lat="45.90957" lon="5.55157">
        <ele>1031</ele>
        <time>2021-09-04T13:52:24.255Z</time>
      </trkpt>
      <trkpt lat="45.90963" lon="5.55158">
        <ele>1033</ele>
        <time>2021-09-04T13:52:29.232Z</time>
      </trkpt>
      <trkpt lat="45.90968" lon="5.55158">
        <ele>1033</ele>
        <time>2021-09-04T13:52:33.253Z</time>
      </trkpt>
      <trkpt lat="45.90974" lon="5.5516">
        <ele>1033</ele>
        <time>2021-09-04T13:52:37.257Z</time>
      </trkpt>
      <trkpt lat="45.90981" lon="5.55164">
        <ele>1033</ele>
        <time>2021-09-04T13:52:42.205Z</time>
      </trkpt>
      <trkpt lat="45.90986" lon="5.55172">
        <ele>1033</ele>
        <time>2021-09-04T13:52:47.212Z</time>
      </trkpt>
      <trkpt lat="45.90992" lon="5.55173">
        <ele>1035</ele>
        <time>2021-09-04T13:52:52.211Z</time>
      </trkpt>
      <trkpt lat="45.90999" lon="5.55168">
        <ele>1035</ele>
        <time>2021-09-04T13:52:57.223Z</time>
      </trkpt>
      <trkpt lat="45.91005" lon="5.55163">
        <ele>1035</ele>
        <time>2021-09-04T13:53:02.216Z</time>
      </trkpt>
      <trkpt lat="45.91011" lon="5.5516">
        <ele>1035</ele>
        <time>2021-09-04T13:53:06.219Z</time>
      </trkpt>
      <trkpt lat="45.91017" lon="5.55156">
        <ele>1035</ele>
        <time>2021-09-04T13:53:11.212Z</time>
      </trkpt>
      <trkpt lat="45.91022" lon="5.55153">
        <ele>1035</ele>
        <time>2021-09-04T13:53:15.218Z</time>
      </trkpt>
      <trkpt lat="45.91027" lon="5.5515">
        <ele>1035</ele>
        <time>2021-09-04T13:53:20.208Z</time>
      </trkpt>
      <trkpt lat="45.91032" lon="5.55149">
        <ele>1035</ele>
        <time>2021-09-04T13:53:24.210Z</time>
      </trkpt>
      <trkpt lat="45.91039" lon="5.55148">
        <ele>1035</ele>
        <time>2021-09-04T13:53:29.215Z</time>
      </trkpt>
      <trkpt lat="45.91044" lon="5.55148">
        <ele>1034</ele>
        <time>2021-09-04T13:53:33.222Z</time>
      </trkpt>
      <trkpt lat="45.91051" lon="5.55147">
        <ele>1034</ele>
        <time>2021-09-04T13:53:38.221Z</time>
      </trkpt>
      <trkpt lat="45.91056" lon="5.55148">
        <ele>1034</ele>
        <time>2021-09-04T13:53:43.211Z</time>
      </trkpt>
      <trkpt lat="45.9106" lon="5.5515">
        <ele>1034</ele>
        <time>2021-09-04T13:53:47.220Z</time>
      </trkpt>
      <trkpt lat="45.91066" lon="5.55148">
        <ele>1034</ele>
        <time>2021-09-04T13:53:51.223Z</time>
      </trkpt>
      <trkpt lat="45.91071" lon="5.55145">
        <ele>1032</ele>
        <time>2021-09-04T13:53:56.221Z</time>
      </trkpt>
      <trkpt lat="45.91073" lon="5.55132">
        <ele>1032</ele>
        <time>2021-09-04T13:54:01.224Z</time>
      </trkpt>
      <trkpt lat="45.91075" lon="5.55122">
        <ele>1030</ele>
        <time>2021-09-04T13:54:06.219Z</time>
      </trkpt>
      <trkpt lat="45.91076" lon="5.55113">
        <ele>1030</ele>
        <time>2021-09-04T13:54:10.232Z</time>
      </trkpt>
      <trkpt lat="45.91078" lon="5.55103">
        <ele>1030</ele>
        <time>2021-09-04T13:54:15.226Z</time>
      </trkpt>
      <trkpt lat="45.91083" lon="5.55098">
        <ele>1030</ele>
        <time>2021-09-04T13:54:20.225Z</time>
      </trkpt>
      <trkpt lat="45.91088" lon="5.55093">
        <ele>1026</ele>
        <time>2021-09-04T13:54:25.225Z</time>
      </trkpt>
      <trkpt lat="45.91095" lon="5.55092">
        <ele>1026</ele>
        <time>2021-09-04T13:54:30.223Z</time>
      </trkpt>
      <trkpt lat="45.911" lon="5.55091">
        <ele>1026</ele>
        <time>2021-09-04T13:54:34.236Z</time>
      </trkpt>
      <trkpt lat="45.91106" lon="5.55089">
        <ele>1026</ele>
        <time>2021-09-04T13:54:39.222Z</time>
      </trkpt>
      <trkpt lat="45.91112" lon="5.55088">
        <ele>1026</ele>
        <time>2021-09-04T13:54:43.229Z</time>
      </trkpt>
      <trkpt lat="45.91119" lon="5.55086">
        <ele>1026</ele>
        <time>2021-09-04T13:54:48.229Z</time>
      </trkpt>
      <trkpt lat="45.91126" lon="5.55084">
        <ele>1028</ele>
        <time>2021-09-04T13:54:53.226Z</time>
      </trkpt>
      <trkpt lat="45.91133" lon="5.55081">
        <ele>1028</ele>
        <time>2021-09-04T13:54:58.232Z</time>
      </trkpt>
      <trkpt lat="45.9114" lon="5.55079">
        <ele>1028</ele>
        <time>2021-09-04T13:55:03.228Z</time>
      </trkpt>
      <trkpt lat="45.91147" lon="5.55077">
        <ele>1028</ele>
        <time>2021-09-04T13:55:08.229Z</time>
      </trkpt>
      <trkpt lat="45.91154" lon="5.55075">
        <ele>1028</ele>
        <time>2021-09-04T13:55:13.221Z</time>
      </trkpt>
      <trkpt lat="45.9116" lon="5.55074">
        <ele>1028</ele>
        <time>2021-09-04T13:55:17.225Z</time>
      </trkpt>
      <trkpt lat="45.91167" lon="5.55073">
        <ele>1028</ele>
        <time>2021-09-04T13:55:22.231Z</time>
      </trkpt>
      <trkpt lat="45.91174" lon="5.55073">
        <ele>1028</ele>
        <time>2021-09-04T13:55:27.224Z</time>
      </trkpt>
      <trkpt lat="45.91179" lon="5.55072">
        <ele>1028</ele>
        <time>2021-09-04T13:55:31.229Z</time>
      </trkpt>
      <trkpt lat="45.91186" lon="5.55071">
        <ele>1025</ele>
        <time>2021-09-04T13:55:36.213Z</time>
      </trkpt>
      <trkpt lat="45.91192" lon="5.5507">
        <ele>1025</ele>
        <time>2021-09-04T13:55:40.221Z</time>
      </trkpt>
      <trkpt lat="45.91198" lon="5.5507">
        <ele>1025</ele>
        <time>2021-09-04T13:55:44.222Z</time>
      </trkpt>
      <trkpt lat="45.91205" lon="5.55068">
        <ele>1024</ele>
        <time>2021-09-04T13:55:49.228Z</time>
      </trkpt>
      <trkpt lat="45.91212" lon="5.55065">
        <ele>1023</ele>
        <time>2021-09-04T13:55:54.226Z</time>
      </trkpt>
      <trkpt lat="45.91219" lon="5.55062">
        <ele>1023</ele>
        <time>2021-09-04T13:55:59.222Z</time>
      </trkpt>
      <trkpt lat="45.91226" lon="5.55062">
        <ele>1023</ele>
        <time>2021-09-04T13:56:04.225Z</time>
      </trkpt>
      <trkpt lat="45.91236" lon="5.55074">
        <ele>1022</ele>
        <time>2021-09-04T13:56:29.221Z</time>
      </trkpt>
      <trkpt lat="45.91236" lon="5.55075">
        <ele>1022</ele>
        <time>2021-09-04T13:56:34.218Z</time>
      </trkpt>
      <trkpt lat="45.91236" lon="5.55075">
        <ele>1022</ele>
        <time>2021-09-04T13:56:39.210Z</time>
      </trkpt>
      <trkpt lat="45.91239" lon="5.55076">
        <ele>1022</ele>
        <time>2021-09-04T13:56:44.220Z</time>
      </trkpt>
      <trkpt lat="45.9124" lon="5.55076">
        <ele>1022</ele>
        <time>2021-09-04T13:56:49.213Z</time>
      </trkpt>
      <trkpt lat="45.91245" lon="5.5508">
        <ele>1022</ele>
        <time>2021-09-04T13:59:00.303Z</time>
      </trkpt>
      <trkpt lat="45.91245" lon="5.5508">
        <ele>1022</ele>
        <time>2021-09-04T13:59:05.268Z</time>
      </trkpt>
      <trkpt lat="45.91245" lon="5.5508">
        <ele>1022</ele>
        <time>2021-09-04T13:59:09.270Z</time>
      </trkpt>
      <trkpt lat="45.91247" lon="5.55082">
        <ele>1022</ele>
        <time>2021-09-04T13:59:14.264Z</time>
      </trkpt>
      <trkpt lat="45.91252" lon="5.5508">
        <ele>1022</ele>
        <time>2021-09-04T13:59:19.222Z</time>
      </trkpt>
      <trkpt lat="45.91254" lon="5.55075">
        <ele>1022</ele>
        <time>2021-09-04T13:59:23.254Z</time>
      </trkpt>
      <trkpt lat="45.91258" lon="5.55072">
        <ele>1022</ele>
        <time>2021-09-04T13:59:27.259Z</time>
      </trkpt>
      <trkpt lat="45.91261" lon="5.5507">
        <ele>1022</ele>
        <time>2021-09-04T13:59:32.264Z</time>
      </trkpt>
      <trkpt lat="45.91265" lon="5.55069">
        <ele>1019</ele>
        <time>2021-09-04T13:59:37.258Z</time>
      </trkpt>
      <trkpt lat="45.91269" lon="5.55067">
        <ele>1019</ele>
        <time>2021-09-04T13:59:41.265Z</time>
      </trkpt>
      <trkpt lat="45.91274" lon="5.55066">
        <ele>1019</ele>
        <time>2021-09-04T13:59:46.250Z</time>
      </trkpt>
      <trkpt lat="45.9128" lon="5.55065">
        <ele>1019</ele>
        <time>2021-09-04T13:59:51.251Z</time>
      </trkpt>
      <trkpt lat="45.91285" lon="5.55064">
        <ele>1019</ele>
        <time>2021-09-04T13:59:55.276Z</time>
      </trkpt>
      <trkpt lat="45.9129" lon="5.55063">
        <ele>1019</ele>
        <time>2021-09-04T14:00:00.262Z</time>
      </trkpt>
      <trkpt lat="45.91295" lon="5.55062">
        <ele>1017</ele>
        <time>2021-09-04T14:00:05.251Z</time>
      </trkpt>
      <trkpt lat="45.91299" lon="5.55061">
        <ele>1017</ele>
        <time>2021-09-04T14:00:09.264Z</time>
      </trkpt>
      <trkpt lat="45.91304" lon="5.5506">
        <ele>1017</ele>
        <time>2021-09-04T14:00:14.259Z</time>
      </trkpt>
      <trkpt lat="45.9131" lon="5.5506">
        <ele>1017</ele>
        <time>2021-09-04T14:00:19.305Z</time>
      </trkpt>
      <trkpt lat="45.91315" lon="5.5506">
        <ele>1017</ele>
        <time>2021-09-04T14:00:23.325Z</time>
      </trkpt>
      <trkpt lat="45.91321" lon="5.55062">
        <ele>1016</ele>
        <time>2021-09-04T14:00:28.252Z</time>
      </trkpt>
      <trkpt lat="45.91328" lon="5.55064">
        <ele>1016</ele>
        <time>2021-09-04T14:00:33.296Z</time>
      </trkpt>
      <trkpt lat="45.91334" lon="5.55065">
        <ele>1016</ele>
        <time>2021-09-04T14:00:38.256Z</time>
      </trkpt>
      <trkpt lat="45.91339" lon="5.55066">
        <ele>1016</ele>
        <time>2021-09-04T14:00:43.233Z</time>
      </trkpt>
      <trkpt lat="45.91343" lon="5.55066">
        <ele>1016</ele>
        <time>2021-09-04T14:00:47.261Z</time>
      </trkpt>
      <trkpt lat="45.91347" lon="5.55067">
        <ele>1016</ele>
        <time>2021-09-04T14:00:51.281Z</time>
      </trkpt>
      <trkpt lat="45.91351" lon="5.5507">
        <ele>1014</ele>
        <time>2021-09-04T14:00:55.289Z</time>
      </trkpt>
      <trkpt lat="45.91356" lon="5.5507">
        <ele>1014</ele>
        <time>2021-09-04T14:01:00.258Z</time>
      </trkpt>
      <trkpt lat="45.91359" lon="5.55071">
        <ele>1014</ele>
        <time>2021-09-04T14:01:04.266Z</time>
      </trkpt>
      <trkpt lat="45.91364" lon="5.55073">
        <ele>1014</ele>
        <time>2021-09-04T14:01:08.310Z</time>
      </trkpt>
      <trkpt lat="45.91369" lon="5.55076">
        <ele>1014</ele>
        <time>2021-09-04T14:01:13.283Z</time>
      </trkpt>
      <trkpt lat="45.91374" lon="5.55077">
        <ele>1014</ele>
        <time>2021-09-04T14:01:18.216Z</time>
      </trkpt>
      <trkpt lat="45.91378" lon="5.55077">
        <ele>1012</ele>
        <time>2021-09-04T14:01:22.262Z</time>
      </trkpt>
      <trkpt lat="45.91383" lon="5.55076">
        <ele>1012</ele>
        <time>2021-09-04T14:01:26.282Z</time>
      </trkpt>
      <trkpt lat="45.91388" lon="5.55076">
        <ele>1012</ele>
        <time>2021-09-04T14:01:30.291Z</time>
      </trkpt>
      <trkpt lat="45.91392" lon="5.55074">
        <ele>1012</ele>
        <time>2021-09-04T14:01:35.255Z</time>
      </trkpt>
      <trkpt lat="45.91397" lon="5.55071">
        <ele>1012</ele>
        <time>2021-09-04T14:01:40.257Z</time>
      </trkpt>
      <trkpt lat="45.91402" lon="5.5507">
        <ele>1012</ele>
        <time>2021-09-04T14:01:45.301Z</time>
      </trkpt>
      <trkpt lat="45.91406" lon="5.55067">
        <ele>1011</ele>
        <time>2021-09-04T14:01:49.319Z</time>
      </trkpt>
      <trkpt lat="45.91413" lon="5.55069">
        <ele>1011</ele>
        <time>2021-09-04T14:01:54.300Z</time>
      </trkpt>
      <trkpt lat="45.91419" lon="5.5507">
        <ele>1010</ele>
        <time>2021-09-04T14:01:58.319Z</time>
      </trkpt>
      <trkpt lat="45.91424" lon="5.55069">
        <ele>1010</ele>
        <time>2021-09-04T14:02:03.276Z</time>
      </trkpt>
      <trkpt lat="45.9143" lon="5.5507">
        <ele>1010</ele>
        <time>2021-09-04T14:02:08.290Z</time>
      </trkpt>
      <trkpt lat="45.91436" lon="5.55069">
        <ele>1010</ele>
        <time>2021-09-04T14:02:13.261Z</time>
      </trkpt>
      <trkpt lat="45.91443" lon="5.55068">
        <ele>1010</ele>
        <time>2021-09-04T14:02:18.257Z</time>
      </trkpt>
      <trkpt lat="45.91449" lon="5.55066">
        <ele>1010</ele>
        <time>2021-09-04T14:02:22.311Z</time>
      </trkpt>
      <trkpt lat="45.91454" lon="5.55063">
        <ele>1010</ele>
        <time>2021-09-04T14:02:27.257Z</time>
      </trkpt>
      <trkpt lat="45.91458" lon="5.55059">
        <ele>1010</ele>
        <time>2021-09-04T14:02:31.262Z</time>
      </trkpt>
      <trkpt lat="45.91468" lon="5.55053">
        <ele>1009</ele>
        <time>2021-09-04T14:02:36.301Z</time>
      </trkpt>
      <trkpt lat="45.9147" lon="5.5505">
        <ele>1009</ele>
        <time>2021-09-04T14:02:40.319Z</time>
      </trkpt>
      <trkpt lat="45.91475" lon="5.55051">
        <ele>1009</ele>
        <time>2021-09-04T14:02:45.303Z</time>
      </trkpt>
      <trkpt lat="45.9148" lon="5.55055">
        <ele>1009</ele>
        <time>2021-09-04T14:02:50.286Z</time>
      </trkpt>
      <trkpt lat="45.91483" lon="5.55057">
        <ele>1009</ele>
        <time>2021-09-04T14:02:54.298Z</time>
      </trkpt>
      <trkpt lat="45.91483" lon="5.55057">
        <ele>1009</ele>
        <time>2021-09-04T14:02:58.315Z</time>
      </trkpt>
      <trkpt lat="45.91484" lon="5.55059">
        <ele>1009</ele>
        <time>2021-09-04T14:03:03.256Z</time>
      </trkpt>
      <trkpt lat="45.91487" lon="5.55061">
        <ele>1006</ele>
        <time>2021-09-04T14:03:07.259Z</time>
      </trkpt>
      <trkpt lat="45.9149" lon="5.55063">
        <ele>1006</ele>
        <time>2021-09-04T14:03:11.288Z</time>
      </trkpt>
      <trkpt lat="45.91496" lon="5.55065">
        <ele>1006</ele>
        <time>2021-09-04T14:03:16.256Z</time>
      </trkpt>
      <trkpt lat="45.91501" lon="5.55068">
        <ele>1006</ele>
        <time>2021-09-04T14:03:21.261Z</time>
      </trkpt>
      <trkpt lat="45.91503" lon="5.55071">
        <ele>1008</ele>
        <time>2021-09-04T14:03:26.249Z</time>
      </trkpt>
      <trkpt lat="45.91503" lon="5.55074">
        <ele>1008</ele>
        <time>2021-09-04T14:03:31.252Z</time>
      </trkpt>
      <trkpt lat="45.91502" lon="5.55079">
        <ele>1008</ele>
        <time>2021-09-04T14:03:36.292Z</time>
      </trkpt>
      <trkpt lat="45.91505" lon="5.5508">
        <ele>1008</ele>
        <time>2021-09-04T14:03:40.298Z</time>
      </trkpt>
      <trkpt lat="45.91507" lon="5.55083">
        <ele>1008</ele>
        <time>2021-09-04T14:03:44.307Z</time>
      </trkpt>
      <trkpt lat="45.9151" lon="5.55085">
        <ele>1008</ele>
        <time>2021-09-04T14:03:49.304Z</time>
      </trkpt>
      <trkpt lat="45.91512" lon="5.55088">
        <ele>1008</ele>
        <time>2021-09-04T14:03:53.307Z</time>
      </trkpt>
      <trkpt lat="45.91514" lon="5.55093">
        <ele>1008</ele>
        <time>2021-09-04T14:03:58.255Z</time>
      </trkpt>
      <trkpt lat="45.91516" lon="5.55095">
        <ele>1005</ele>
        <time>2021-09-04T14:04:02.291Z</time>
      </trkpt>
      <trkpt lat="45.91518" lon="5.55099">
        <ele>1006</ele>
        <time>2021-09-04T14:04:07.248Z</time>
      </trkpt>
      <trkpt lat="45.91521" lon="5.551">
        <ele>1006</ele>
        <time>2021-09-04T14:04:12.253Z</time>
      </trkpt>
      <trkpt lat="45.91524" lon="5.55101">
        <ele>1006</ele>
        <time>2021-09-04T14:04:16.286Z</time>
      </trkpt>
      <trkpt lat="45.91528" lon="5.55101">
        <ele>1006</ele>
        <time>2021-09-04T14:04:21.257Z</time>
      </trkpt>
      <trkpt lat="45.91531" lon="5.55103">
        <ele>1006</ele>
        <time>2021-09-04T14:04:25.285Z</time>
      </trkpt>
      <trkpt lat="45.91535" lon="5.55106">
        <ele>1006</ele>
        <time>2021-09-04T14:04:30.250Z</time>
      </trkpt>
      <trkpt lat="45.91538" lon="5.55111">
        <ele>1006</ele>
        <time>2021-09-04T14:04:35.256Z</time>
      </trkpt>
      <trkpt lat="45.9154" lon="5.55116">
        <ele>1006</ele>
        <time>2021-09-04T14:04:39.298Z</time>
      </trkpt>
      <trkpt lat="45.91544" lon="5.55122">
        <ele>1005</ele>
        <time>2021-09-04T14:04:44.257Z</time>
      </trkpt>
      <trkpt lat="45.91546" lon="5.55129">
        <ele>1003</ele>
        <time>2021-09-04T14:04:49.287Z</time>
      </trkpt>
      <trkpt lat="45.91548" lon="5.55135">
        <ele>1003</ele>
        <time>2021-09-04T14:04:53.297Z</time>
      </trkpt>
      <trkpt lat="45.91548" lon="5.55142">
        <ele>1003</ele>
        <time>2021-09-04T14:04:58.256Z</time>
      </trkpt>
      <trkpt lat="45.91547" lon="5.55148">
        <ele>1003</ele>
        <time>2021-09-04T14:05:02.263Z</time>
      </trkpt>
      <trkpt lat="45.91544" lon="5.55152">
        <ele>1003</ele>
        <time>2021-09-04T14:05:06.292Z</time>
      </trkpt>
      <trkpt lat="45.9154" lon="5.55156">
        <ele>999</ele>
        <time>2021-09-04T14:05:11.314Z</time>
      </trkpt>
      <trkpt lat="45.91538" lon="5.5516">
        <ele>999</ele>
        <time>2021-09-04T14:05:16.259Z</time>
      </trkpt>
      <trkpt lat="45.91538" lon="5.55165">
        <ele>999</ele>
        <time>2021-09-04T14:05:21.214Z</time>
      </trkpt>
      <trkpt lat="45.91536" lon="5.55171">
        <ele>999</ele>
        <time>2021-09-04T14:05:25.250Z</time>
      </trkpt>
      <trkpt lat="45.91535" lon="5.55178">
        <ele>999</ele>
        <time>2021-09-04T14:05:29.259Z</time>
      </trkpt>
      <trkpt lat="45.91536" lon="5.55186">
        <ele>993</ele>
        <time>2021-09-04T14:05:34.262Z</time>
      </trkpt>
      <trkpt lat="45.91538" lon="5.55192">
        <ele>993</ele>
        <time>2021-09-04T14:05:39.261Z</time>
      </trkpt>
      <trkpt lat="45.91538" lon="5.55198">
        <ele>993</ele>
        <time>2021-09-04T14:05:43.267Z</time>
      </trkpt>
      <trkpt lat="45.91542" lon="5.55202">
        <ele>993</ele>
        <time>2021-09-04T14:05:48.292Z</time>
      </trkpt>
      <trkpt lat="45.91545" lon="5.55206">
        <ele>993</ele>
        <time>2021-09-04T14:05:53.255Z</time>
      </trkpt>
      <trkpt lat="45.91546" lon="5.55208">
        <ele>993</ele>
        <time>2021-09-04T14:05:57.251Z</time>
      </trkpt>
      <trkpt lat="45.91549" lon="5.55209">
        <ele>988</ele>
        <time>2021-09-04T14:06:02.254Z</time>
      </trkpt>
      <trkpt lat="45.9155" lon="5.5521">
        <ele>988</ele>
        <time>2021-09-04T14:06:07.262Z</time>
      </trkpt>
      <trkpt lat="45.91552" lon="5.55214">
        <ele>988</ele>
        <time>2021-09-04T14:06:12.280Z</time>
      </trkpt>
      <trkpt lat="45.91557" lon="5.55217">
        <ele>988</ele>
        <time>2021-09-04T14:06:17.254Z</time>
      </trkpt>
      <trkpt lat="45.9156" lon="5.55217">
        <ele>988</ele>
        <time>2021-09-04T14:06:21.262Z</time>
      </trkpt>
      <trkpt lat="45.91562" lon="5.55222">
        <ele>988</ele>
        <time>2021-09-04T14:06:26.295Z</time>
      </trkpt>
      <trkpt lat="45.91563" lon="5.55226">
        <ele>988</ele>
        <time>2021-09-04T14:06:31.259Z</time>
      </trkpt>
      <trkpt lat="45.91563" lon="5.5523">
        <ele>988</ele>
        <time>2021-09-04T14:06:35.267Z</time>
      </trkpt>
      <trkpt lat="45.91566" lon="5.5524">
        <ele>984</ele>
        <time>2021-09-04T14:06:45.254Z</time>
      </trkpt>
      <trkpt lat="45.91566" lon="5.55244">
        <ele>984</ele>
        <time>2021-09-04T14:06:49.261Z</time>
      </trkpt>
      <trkpt lat="45.91568" lon="5.55246">
        <ele>984</ele>
        <time>2021-09-04T14:06:53.287Z</time>
      </trkpt>
      <trkpt lat="45.9157" lon="5.55244">
        <ele>985</ele>
        <time>2021-09-04T14:06:58.285Z</time>
      </trkpt>
      <trkpt lat="45.91573" lon="5.55243">
        <ele>985</ele>
        <time>2021-09-04T14:07:03.225Z</time>
      </trkpt>
      <trkpt lat="45.91575" lon="5.55242">
        <ele>985</ele>
        <time>2021-09-04T14:07:07.259Z</time>
      </trkpt>
      <trkpt lat="45.91578" lon="5.55241">
        <ele>985</ele>
        <time>2021-09-04T14:07:11.291Z</time>
      </trkpt>
      <trkpt lat="45.91583" lon="5.55239">
        <ele>985</ele>
        <time>2021-09-04T14:07:16.282Z</time>
      </trkpt>
      <trkpt lat="45.91588" lon="5.55237">
        <ele>985</ele>
        <time>2021-09-04T14:07:21.215Z</time>
      </trkpt>
      <trkpt lat="45.91591" lon="5.55236">
        <ele>988</ele>
        <time>2021-09-04T14:07:25.259Z</time>
      </trkpt>
      <trkpt lat="45.91597" lon="5.55234">
        <ele>987</ele>
        <time>2021-09-04T14:07:30.245Z</time>
      </trkpt>
      <trkpt lat="45.91602" lon="5.55231">
        <ele>987</ele>
        <time>2021-09-04T14:07:34.279Z</time>
      </trkpt>
      <trkpt lat="45.91607" lon="5.5523">
        <ele>987</ele>
        <time>2021-09-04T14:07:39.258Z</time>
      </trkpt>
      <trkpt lat="45.91617" lon="5.55233">
        <ele>987</ele>
        <time>2021-09-04T14:07:53.289Z</time>
      </trkpt>
      <trkpt lat="45.91618" lon="5.55235">
        <ele>987</ele>
        <time>2021-09-04T14:07:58.263Z</time>
      </trkpt>
      <trkpt lat="45.91618" lon="5.55239">
        <ele>987</ele>
        <time>2021-09-04T14:08:02.305Z</time>
      </trkpt>
      <trkpt lat="45.9162" lon="5.55247">
        <ele>987</ele>
        <time>2021-09-04T14:08:07.308Z</time>
      </trkpt>
      <trkpt lat="45.91626" lon="5.55252">
        <ele>987</ele>
        <time>2021-09-04T14:08:12.262Z</time>
      </trkpt>
      <trkpt lat="45.91632" lon="5.55254">
        <ele>987</ele>
        <time>2021-09-04T14:08:17.272Z</time>
      </trkpt>
      <trkpt lat="45.91636" lon="5.55252">
        <ele>987</ele>
        <time>2021-09-04T14:08:21.283Z</time>
      </trkpt>
      <trkpt lat="45.9164" lon="5.5525">
        <ele>987</ele>
        <time>2021-09-04T14:08:25.296Z</time>
      </trkpt>
      <trkpt lat="45.91646" lon="5.55247">
        <ele>987</ele>
        <time>2021-09-04T14:08:30.270Z</time>
      </trkpt>
      <trkpt lat="45.9165" lon="5.55244">
        <ele>987</ele>
        <time>2021-09-04T14:08:35.270Z</time>
      </trkpt>
      <trkpt lat="45.91654" lon="5.55243">
        <ele>985</ele>
        <time>2021-09-04T14:08:39.287Z</time>
      </trkpt>
      <trkpt lat="45.91659" lon="5.5524">
        <ele>985</ele>
        <time>2021-09-04T14:08:44.260Z</time>
      </trkpt>
      <trkpt lat="45.91663" lon="5.55238">
        <ele>985</ele>
        <time>2021-09-04T14:08:48.283Z</time>
      </trkpt>
      <trkpt lat="45.91667" lon="5.55235">
        <ele>986</ele>
        <time>2021-09-04T14:08:52.295Z</time>
      </trkpt>
      <trkpt lat="45.91672" lon="5.55232">
        <ele>986</ele>
        <time>2021-09-04T14:08:57.282Z</time>
      </trkpt>
      <trkpt lat="45.91676" lon="5.55231">
        <ele>986</ele>
        <time>2021-09-04T14:09:01.287Z</time>
      </trkpt>
      <trkpt lat="45.91681" lon="5.55229">
        <ele>985</ele>
        <time>2021-09-04T14:09:06.293Z</time>
      </trkpt>
      <trkpt lat="45.91686" lon="5.55227">
        <ele>985</ele>
        <time>2021-09-04T14:09:11.264Z</time>
      </trkpt>
      <trkpt lat="45.91692" lon="5.55225">
        <ele>985</ele>
        <time>2021-09-04T14:09:16.295Z</time>
      </trkpt>
      <trkpt lat="45.91698" lon="5.55223">
        <ele>985</ele>
        <time>2021-09-04T14:09:21.208Z</time>
      </trkpt>
      <trkpt lat="45.91703" lon="5.55223">
        <ele>985</ele>
        <time>2021-09-04T14:09:25.262Z</time>
      </trkpt>
      <trkpt lat="45.91709" lon="5.55222">
        <ele>983</ele>
        <time>2021-09-04T14:09:30.261Z</time>
      </trkpt>
      <trkpt lat="45.91715" lon="5.5522">
        <ele>983</ele>
        <time>2021-09-04T14:09:35.265Z</time>
      </trkpt>
      <trkpt lat="45.9172" lon="5.55218">
        <ele>983</ele>
        <time>2021-09-04T14:09:40.250Z</time>
      </trkpt>
      <trkpt lat="45.91727" lon="5.55217">
        <ele>983</ele>
        <time>2021-09-04T14:09:45.261Z</time>
      </trkpt>
      <trkpt lat="45.91732" lon="5.55217">
        <ele>983</ele>
        <time>2021-09-04T14:09:49.296Z</time>
      </trkpt>
      <trkpt lat="45.91738" lon="5.55214">
        <ele>980</ele>
        <time>2021-09-04T14:09:54.303Z</time>
      </trkpt>
      <trkpt lat="45.91744" lon="5.55211">
        <ele>980</ele>
        <time>2021-09-04T14:09:59.289Z</time>
      </trkpt>
      <trkpt lat="45.91749" lon="5.55208">
        <ele>980</ele>
        <time>2021-09-04T14:10:03.291Z</time>
      </trkpt>
      <trkpt lat="45.91753" lon="5.55205">
        <ele>982</ele>
        <time>2021-09-04T14:10:07.300Z</time>
      </trkpt>
      <trkpt lat="45.91758" lon="5.552">
        <ele>982</ele>
        <time>2021-09-04T14:10:12.294Z</time>
      </trkpt>
      <trkpt lat="45.91762" lon="5.55194">
        <ele>982</ele>
        <time>2021-09-04T14:10:17.282Z</time>
      </trkpt>
      <trkpt lat="45.91767" lon="5.55189">
        <ele>982</ele>
        <time>2021-09-04T14:10:22.257Z</time>
      </trkpt>
      <trkpt lat="45.9177" lon="5.55184">
        <ele>982</ele>
        <time>2021-09-04T14:10:26.278Z</time>
      </trkpt>
      <trkpt lat="45.91775" lon="5.5518">
        <ele>981</ele>
        <time>2021-09-04T14:10:31.255Z</time>
      </trkpt>
      <trkpt lat="45.91779" lon="5.55177">
        <ele>981</ele>
        <time>2021-09-04T14:10:35.286Z</time>
      </trkpt>
      <trkpt lat="45.91784" lon="5.55174">
        <ele>981</ele>
        <time>2021-09-04T14:10:39.289Z</time>
      </trkpt>
      <trkpt lat="45.91788" lon="5.55169">
        <ele>981</ele>
        <time>2021-09-04T14:10:44.260Z</time>
      </trkpt>
      <trkpt lat="45.91793" lon="5.55167">
        <ele>981</ele>
        <time>2021-09-04T14:10:48.293Z</time>
      </trkpt>
      <trkpt lat="45.91799" lon="5.55164">
        <ele>981</ele>
        <time>2021-09-04T14:10:53.276Z</time>
      </trkpt>
      <trkpt lat="45.91804" lon="5.55162">
        <ele>981</ele>
        <time>2021-09-04T14:10:57.289Z</time>
      </trkpt>
      <trkpt lat="45.91809" lon="5.5516">
        <ele>981</ele>
        <time>2021-09-04T14:11:01.321Z</time>
      </trkpt>
      <trkpt lat="45.91815" lon="5.55156">
        <ele>981</ele>
        <time>2021-09-04T14:11:06.288Z</time>
      </trkpt>
      <trkpt lat="45.91819" lon="5.55154">
        <ele>981</ele>
        <time>2021-09-04T14:11:10.301Z</time>
      </trkpt>
      <trkpt lat="45.91825" lon="5.55151">
        <ele>981</ele>
        <time>2021-09-04T14:11:15.297Z</time>
      </trkpt>
      <trkpt lat="45.91832" lon="5.55148">
        <ele>981</ele>
        <time>2021-09-04T14:11:20.224Z</time>
      </trkpt>
      <trkpt lat="45.91837" lon="5.55147">
        <ele>981</ele>
        <time>2021-09-04T14:11:24.291Z</time>
      </trkpt>
      <trkpt lat="45.91843" lon="5.55145">
        <ele>981</ele>
        <time>2021-09-04T14:11:29.262Z</time>
      </trkpt>
      <trkpt lat="45.91848" lon="5.55142">
        <ele>983</ele>
        <time>2021-09-04T14:11:33.286Z</time>
      </trkpt>
      <trkpt lat="45.91854" lon="5.55141">
        <ele>983</ele>
        <time>2021-09-04T14:11:38.257Z</time>
      </trkpt>
      <trkpt lat="45.9186" lon="5.55141">
        <ele>983</ele>
        <time>2021-09-04T14:11:42.256Z</time>
      </trkpt>
      <trkpt lat="45.91864" lon="5.55138">
        <ele>983</ele>
        <time>2021-09-04T14:11:46.282Z</time>
      </trkpt>
      <trkpt lat="45.91872" lon="5.55135">
        <ele>983</ele>
        <time>2021-09-04T14:11:51.255Z</time>
      </trkpt>
      <trkpt lat="45.91877" lon="5.55134">
        <ele>982</ele>
        <time>2021-09-04T14:11:55.285Z</time>
      </trkpt>
      <trkpt lat="45.91885" lon="5.55131">
        <ele>982</ele>
        <time>2021-09-04T14:12:00.254Z</time>
      </trkpt>
      <trkpt lat="45.91895" lon="5.5513">
        <ele>982</ele>
        <time>2021-09-04T14:12:05.248Z</time>
      </trkpt>
      <trkpt lat="45.919" lon="5.5513">
        <ele>982</ele>
        <time>2021-09-04T14:12:09.299Z</time>
      </trkpt>
      <trkpt lat="45.91904" lon="5.55129">
        <ele>978</ele>
        <time>2021-09-04T14:12:14.308Z</time>
      </trkpt>
      <trkpt lat="45.9191" lon="5.55128">
        <ele>978</ele>
        <time>2021-09-04T14:12:18.349Z</time>
      </trkpt>
      <trkpt lat="45.91916" lon="5.55127">
        <ele>978</ele>
        <time>2021-09-04T14:12:23.298Z</time>
      </trkpt>
      <trkpt lat="45.91923" lon="5.55128">
        <ele>978</ele>
        <time>2021-09-04T14:12:28.232Z</time>
      </trkpt>
      <trkpt lat="45.91926" lon="5.55127">
        <ele>978</ele>
        <time>2021-09-04T14:12:32.314Z</time>
      </trkpt>
      <trkpt lat="45.91928" lon="5.55126">
        <ele>978</ele>
        <time>2021-09-04T14:12:37.226Z</time>
      </trkpt>
      <trkpt lat="45.91933" lon="5.55126">
        <ele>975</ele>
        <time>2021-09-04T14:12:41.256Z</time>
      </trkpt>
      <trkpt lat="45.91938" lon="5.55124">
        <ele>971</ele>
        <time>2021-09-04T14:12:45.285Z</time>
      </trkpt>
      <trkpt lat="45.91942" lon="5.55121">
        <ele>971</ele>
        <time>2021-09-04T14:12:50.247Z</time>
      </trkpt>
      <trkpt lat="45.91946" lon="5.55119">
        <ele>971</ele>
        <time>2021-09-04T14:12:54.280Z</time>
      </trkpt>
      <trkpt lat="45.91951" lon="5.55115">
        <ele>971</ele>
        <time>2021-09-04T14:12:59.257Z</time>
      </trkpt>
      <trkpt lat="45.91955" lon="5.55111">
        <ele>971</ele>
        <time>2021-09-04T14:13:03.278Z</time>
      </trkpt>
      <trkpt lat="45.91959" lon="5.55107">
        <ele>970</ele>
        <time>2021-09-04T14:13:08.264Z</time>
      </trkpt>
      <trkpt lat="45.91964" lon="5.55104">
        <ele>970</ele>
        <time>2021-09-04T14:13:13.253Z</time>
      </trkpt>
      <trkpt lat="45.91969" lon="5.55101">
        <ele>970</ele>
        <time>2021-09-04T14:13:17.280Z</time>
      </trkpt>
      <trkpt lat="45.91975" lon="5.55103">
        <ele>970</ele>
        <time>2021-09-04T14:13:22.223Z</time>
      </trkpt>
      <trkpt lat="45.91977" lon="5.55101">
        <ele>970</ele>
        <time>2021-09-04T14:13:26.296Z</time>
      </trkpt>
      <trkpt lat="45.9198" lon="5.55099">
        <ele>970</ele>
        <time>2021-09-04T14:13:31.257Z</time>
      </trkpt>
      <trkpt lat="45.91983" lon="5.55096">
        <ele>965</ele>
        <time>2021-09-04T14:13:35.285Z</time>
      </trkpt>
      <trkpt lat="45.91988" lon="5.55092">
        <ele>964</ele>
        <time>2021-09-04T14:13:40.290Z</time>
      </trkpt>
      <trkpt lat="45.91995" lon="5.55089">
        <ele>964</ele>
        <time>2021-09-04T14:13:45.288Z</time>
      </trkpt>
      <trkpt lat="45.92" lon="5.55087">
        <ele>964</ele>
        <time>2021-09-04T14:13:50.257Z</time>
      </trkpt>
      <trkpt lat="45.92004" lon="5.55084">
        <ele>964</ele>
        <time>2021-09-04T14:13:55.254Z</time>
      </trkpt>
      <trkpt lat="45.92008" lon="5.55082">
        <ele>964</ele>
        <time>2021-09-04T14:13:59.279Z</time>
      </trkpt>
      <trkpt lat="45.92014" lon="5.55081">
        <ele>964</ele>
        <time>2021-09-04T14:14:04.303Z</time>
      </trkpt>
      <trkpt lat="45.92019" lon="5.55079">
        <ele>964</ele>
        <time>2021-09-04T14:14:09.311Z</time>
      </trkpt>
      <trkpt lat="45.92024" lon="5.55078">
        <ele>964</ele>
        <time>2021-09-04T14:14:14.300Z</time>
      </trkpt>
      <trkpt lat="45.92028" lon="5.55077">
        <ele>964</ele>
        <time>2021-09-04T14:14:18.314Z</time>
      </trkpt>
      <trkpt lat="45.92027" lon="5.55076">
        <ele>964</ele>
        <time>2021-09-04T14:14:23.254Z</time>
      </trkpt>
      <trkpt lat="45.92027" lon="5.55076">
        <ele>964</ele>
        <time>2021-09-04T14:14:27.311Z</time>
      </trkpt>
      <trkpt lat="45.92027" lon="5.55076">
        <ele>964</ele>
        <time>2021-09-04T14:14:32.251Z</time>
      </trkpt>
      <trkpt lat="45.92031" lon="5.55075">
        <ele>964</ele>
        <time>2021-09-04T14:14:36.263Z</time>
      </trkpt>
      <trkpt lat="45.92037" lon="5.55071">
        <ele>964</ele>
        <time>2021-09-04T14:14:40.277Z</time>
      </trkpt>
      <trkpt lat="45.92042" lon="5.55069">
        <ele>959</ele>
        <time>2021-09-04T14:14:45.319Z</time>
      </trkpt>
      <trkpt lat="45.92047" lon="5.55065">
        <ele>959</ele>
        <time>2021-09-04T14:14:50.225Z</time>
      </trkpt>
      <trkpt lat="45.9205" lon="5.55063">
        <ele>959</ele>
        <time>2021-09-04T14:14:54.259Z</time>
      </trkpt>
      <trkpt lat="45.92055" lon="5.5506">
        <ele>959</ele>
        <time>2021-09-04T14:14:59.259Z</time>
      </trkpt>
      <trkpt lat="45.92059" lon="5.55057">
        <ele>959</ele>
        <time>2021-09-04T14:15:03.280Z</time>
      </trkpt>
      <trkpt lat="45.92064" lon="5.55053">
        <ele>959</ele>
        <time>2021-09-04T14:15:08.275Z</time>
      </trkpt>
      <trkpt lat="45.92071" lon="5.5505">
        <ele>963</ele>
        <time>2021-09-04T14:15:13.251Z</time>
      </trkpt>
      <trkpt lat="45.92076" lon="5.55047">
        <ele>963</ele>
        <time>2021-09-04T14:15:17.259Z</time>
      </trkpt>
      <trkpt lat="45.92082" lon="5.55044">
        <ele>963</ele>
        <time>2021-09-04T14:15:22.215Z</time>
      </trkpt>
      <trkpt lat="45.92086" lon="5.55042">
        <ele>963</ele>
        <time>2021-09-04T14:15:26.281Z</time>
      </trkpt>
      <trkpt lat="45.92093" lon="5.55039">
        <ele>951</ele>
        <time>2021-09-04T14:15:31.298Z</time>
      </trkpt>
      <trkpt lat="45.92098" lon="5.55036">
        <ele>954</ele>
        <time>2021-09-04T14:15:36.262Z</time>
      </trkpt>
      <trkpt lat="45.92103" lon="5.55032">
        <ele>954</ele>
        <time>2021-09-04T14:15:41.286Z</time>
      </trkpt>
      <trkpt lat="45.92106" lon="5.55028">
        <ele>954</ele>
        <time>2021-09-04T14:15:45.303Z</time>
      </trkpt>
      <trkpt lat="45.92111" lon="5.55025">
        <ele>954</ele>
        <time>2021-09-04T14:15:50.254Z</time>
      </trkpt>
      <trkpt lat="45.92115" lon="5.55022">
        <ele>954</ele>
        <time>2021-09-04T14:15:54.255Z</time>
      </trkpt>
      <trkpt lat="45.92119" lon="5.5502">
        <ele>954</ele>
        <time>2021-09-04T14:15:58.292Z</time>
      </trkpt>
      <trkpt lat="45.92124" lon="5.55016">
        <ele>954</ele>
        <time>2021-09-04T14:16:03.289Z</time>
      </trkpt>
      <trkpt lat="45.92129" lon="5.55013">
        <ele>947</ele>
        <time>2021-09-04T14:16:08.246Z</time>
      </trkpt>
      <trkpt lat="45.92133" lon="5.55011">
        <ele>947</ele>
        <time>2021-09-04T14:16:12.278Z</time>
      </trkpt>
      <trkpt lat="45.92138" lon="5.55007">
        <ele>947</ele>
        <time>2021-09-04T14:16:17.262Z</time>
      </trkpt>
      <trkpt lat="45.92144" lon="5.55004">
        <ele>947</ele>
        <time>2021-09-04T14:16:22.251Z</time>
      </trkpt>
      <trkpt lat="45.92149" lon="5.55001">
        <ele>947</ele>
        <time>2021-09-04T14:16:26.308Z</time>
      </trkpt>
      <trkpt lat="45.92155" lon="5.54996">
        <ele>949</ele>
        <time>2021-09-04T14:16:31.269Z</time>
      </trkpt>
      <trkpt lat="45.92162" lon="5.54994">
        <ele>949</ele>
        <time>2021-09-04T14:16:36.293Z</time>
      </trkpt>
      <trkpt lat="45.92167" lon="5.54993">
        <ele>949</ele>
        <time>2021-09-04T14:16:41.254Z</time>
      </trkpt>
      <trkpt lat="45.92172" lon="5.54991">
        <ele>949</ele>
        <time>2021-09-04T14:16:45.306Z</time>
      </trkpt>
      <trkpt lat="45.92178" lon="5.54988">
        <ele>949</ele>
        <time>2021-09-04T14:16:50.246Z</time>
      </trkpt>
      <trkpt lat="45.92183" lon="5.54986">
        <ele>953</ele>
        <time>2021-09-04T14:16:55.293Z</time>
      </trkpt>
      <trkpt lat="45.92189" lon="5.54985">
        <ele>944</ele>
        <time>2021-09-04T14:17:00.286Z</time>
      </trkpt>
      <trkpt lat="45.92193" lon="5.54984">
        <ele>944</ele>
        <time>2021-09-04T14:17:04.285Z</time>
      </trkpt>
      <trkpt lat="45.922" lon="5.54982">
        <ele>944</ele>
        <time>2021-09-04T14:17:09.255Z</time>
      </trkpt>
      <trkpt lat="45.92205" lon="5.5498">
        <ele>944</ele>
        <time>2021-09-04T14:17:13.294Z</time>
      </trkpt>
      <trkpt lat="45.92217" lon="5.5498">
        <ele>945</ele>
        <time>2021-09-04T14:17:18.296Z</time>
      </trkpt>
      <trkpt lat="45.92223" lon="5.5498">
        <ele>945</ele>
        <time>2021-09-04T14:17:23.221Z</time>
      </trkpt>
      <trkpt lat="45.92227" lon="5.5498">
        <ele>945</ele>
        <time>2021-09-04T14:17:27.242Z</time>
      </trkpt>
      <trkpt lat="45.92232" lon="5.54979">
        <ele>945</ele>
        <time>2021-09-04T14:17:31.280Z</time>
      </trkpt>
      <trkpt lat="45.92237" lon="5.54978">
        <ele>944</ele>
        <time>2021-09-04T14:17:35.285Z</time>
      </trkpt>
      <trkpt lat="45.92242" lon="5.54977">
        <ele>944</ele>
        <time>2021-09-04T14:17:39.309Z</time>
      </trkpt>
      <trkpt lat="45.9225" lon="5.54976">
        <ele>944</ele>
        <time>2021-09-04T14:17:44.298Z</time>
      </trkpt>
      <trkpt lat="45.92256" lon="5.54974">
        <ele>944</ele>
        <time>2021-09-04T14:17:49.279Z</time>
      </trkpt>
      <trkpt lat="45.9226" lon="5.54974">
        <ele>944</ele>
        <time>2021-09-04T14:17:53.286Z</time>
      </trkpt>
      <trkpt lat="45.92267" lon="5.54974">
        <ele>941</ele>
        <time>2021-09-04T14:17:58.286Z</time>
      </trkpt>
      <trkpt lat="45.92273" lon="5.54973">
        <ele>941</ele>
        <time>2021-09-04T14:18:02.286Z</time>
      </trkpt>
      <trkpt lat="45.92278" lon="5.54969">
        <ele>941</ele>
        <time>2021-09-04T14:18:06.298Z</time>
      </trkpt>
      <trkpt lat="45.92284" lon="5.54966">
        <ele>941</ele>
        <time>2021-09-04T14:18:10.303Z</time>
      </trkpt>
      <trkpt lat="45.92294" lon="5.54963">
        <ele>941</ele>
        <time>2021-09-04T14:18:15.263Z</time>
      </trkpt>
      <trkpt lat="45.92301" lon="5.54964">
        <ele>941</ele>
        <time>2021-09-04T14:18:20.289Z</time>
      </trkpt>
      <trkpt lat="45.92307" lon="5.54962">
        <ele>941</ele>
        <time>2021-09-04T14:18:25.248Z</time>
      </trkpt>
      <trkpt lat="45.92313" lon="5.54956">
        <ele>937</ele>
        <time>2021-09-04T14:18:30.293Z</time>
      </trkpt>
      <trkpt lat="45.92315" lon="5.54948">
        <ele>937</ele>
        <time>2021-09-04T14:18:35.257Z</time>
      </trkpt>
      <trkpt lat="45.92318" lon="5.54939">
        <ele>937</ele>
        <time>2021-09-04T14:18:40.253Z</time>
      </trkpt>
      <trkpt lat="45.92319" lon="5.54932">
        <ele>937</ele>
        <time>2021-09-04T14:18:44.288Z</time>
      </trkpt>
      <trkpt lat="45.92317" lon="5.54923">
        <ele>934</ele>
        <time>2021-09-04T14:18:49.250Z</time>
      </trkpt>
      <trkpt lat="45.92317" lon="5.54915">
        <ele>934</ele>
        <time>2021-09-04T14:18:53.262Z</time>
      </trkpt>
      <trkpt lat="45.92315" lon="5.54905">
        <ele>934</ele>
        <time>2021-09-04T14:18:58.225Z</time>
      </trkpt>
      <trkpt lat="45.92313" lon="5.54899">
        <ele>931</ele>
        <time>2021-09-04T14:19:02.259Z</time>
      </trkpt>
      <trkpt lat="45.9231" lon="5.54891">
        <ele>931</ele>
        <time>2021-09-04T14:19:07.258Z</time>
      </trkpt>
      <trkpt lat="45.92309" lon="5.54885">
        <ele>931</ele>
        <time>2021-09-04T14:19:11.285Z</time>
      </trkpt>
      <trkpt lat="45.9231" lon="5.54877">
        <ele>931</ele>
        <time>2021-09-04T14:19:16.259Z</time>
      </trkpt>
      <trkpt lat="45.9231" lon="5.54867">
        <ele>928</ele>
        <time>2021-09-04T14:19:49.303Z</time>
      </trkpt>
      <trkpt lat="45.9231" lon="5.54867">
        <ele>928</ele>
        <time>2021-09-04T14:19:54.289Z</time>
      </trkpt>
      <trkpt lat="45.9231" lon="5.54866">
        <ele>928</ele>
        <time>2021-09-04T14:19:58.306Z</time>
      </trkpt>
      <trkpt lat="45.92311" lon="5.5486">
        <ele>928</ele>
        <time>2021-09-04T14:20:03.252Z</time>
      </trkpt>
      <trkpt lat="45.92313" lon="5.54852">
        <ele>928</ele>
        <time>2021-09-04T14:20:07.257Z</time>
      </trkpt>
      <trkpt lat="45.92316" lon="5.54843">
        <ele>928</ele>
        <time>2021-09-04T14:20:12.254Z</time>
      </trkpt>
      <trkpt lat="45.92318" lon="5.54834">
        <ele>928</ele>
        <time>2021-09-04T14:20:17.247Z</time>
      </trkpt>
      <trkpt lat="45.9232" lon="5.54828">
        <ele>924</ele>
        <time>2021-09-04T14:20:21.315Z</time>
      </trkpt>
      <trkpt lat="45.92322" lon="5.54818">
        <ele>923</ele>
        <time>2021-09-04T14:20:26.247Z</time>
      </trkpt>
      <trkpt lat="45.92323" lon="5.54812">
        <ele>923</ele>
        <time>2021-09-04T14:20:30.258Z</time>
      </trkpt>
      <trkpt lat="45.92324" lon="5.54805">
        <ele>923</ele>
        <time>2021-09-04T14:20:35.257Z</time>
      </trkpt>
      <trkpt lat="45.92324" lon="5.54797">
        <ele>923</ele>
        <time>2021-09-04T14:20:40.247Z</time>
      </trkpt>
      <trkpt lat="45.92326" lon="5.54788">
        <ele>920</ele>
        <time>2021-09-04T14:20:45.259Z</time>
      </trkpt>
      <trkpt lat="45.92326" lon="5.54781">
        <ele>920</ele>
        <time>2021-09-04T14:20:49.286Z</time>
      </trkpt>
      <trkpt lat="45.92327" lon="5.54774">
        <ele>920</ele>
        <time>2021-09-04T14:20:54.212Z</time>
      </trkpt>
      <trkpt lat="45.92329" lon="5.54768">
        <ele>920</ele>
        <time>2021-09-04T14:20:58.257Z</time>
      </trkpt>
      <trkpt lat="45.92331" lon="5.54757">
        <ele>917</ele>
        <time>2021-09-04T14:21:03.256Z</time>
      </trkpt>
      <trkpt lat="45.92333" lon="5.54747">
        <ele>917</ele>
        <time>2021-09-04T14:21:08.293Z</time>
      </trkpt>
      <trkpt lat="45.92334" lon="5.54738">
        <ele>917</ele>
        <time>2021-09-04T14:21:13.271Z</time>
      </trkpt>
      <trkpt lat="45.92335" lon="5.54727">
        <ele>914</ele>
        <time>2021-09-04T14:21:18.250Z</time>
      </trkpt>
      <trkpt lat="45.92332" lon="5.54712">
        <ele>914</ele>
        <time>2021-09-04T14:21:23.220Z</time>
      </trkpt>
      <trkpt lat="45.92333" lon="5.54706">
        <ele>912</ele>
        <time>2021-09-04T14:21:27.261Z</time>
      </trkpt>
      <trkpt lat="45.92337" lon="5.54702">
        <ele>912</ele>
        <time>2021-09-04T14:21:31.267Z</time>
      </trkpt>
      <trkpt lat="45.92341" lon="5.54699">
        <ele>912</ele>
        <time>2021-09-04T14:21:36.265Z</time>
      </trkpt>
      <trkpt lat="45.92345" lon="5.54697">
        <ele>912</ele>
        <time>2021-09-04T14:21:41.271Z</time>
      </trkpt>
      <trkpt lat="45.92352" lon="5.54694">
        <ele>913</ele>
        <time>2021-09-04T14:21:46.257Z</time>
      </trkpt>
      <trkpt lat="45.92357" lon="5.5469">
        <ele>913</ele>
        <time>2021-09-04T14:21:50.274Z</time>
      </trkpt>
      <trkpt lat="45.9236" lon="5.54684">
        <ele>913</ele>
        <time>2021-09-04T14:21:55.251Z</time>
      </trkpt>
      <trkpt lat="45.92363" lon="5.54678">
        <ele>911</ele>
        <time>2021-09-04T14:22:00.256Z</time>
      </trkpt>
      <trkpt lat="45.92369" lon="5.54673">
        <ele>911</ele>
        <time>2021-09-04T14:22:05.241Z</time>
      </trkpt>
      <trkpt lat="45.92374" lon="5.54669">
        <ele>911</ele>
        <time>2021-09-04T14:22:09.260Z</time>
      </trkpt>
      <trkpt lat="45.92378" lon="5.54662">
        <ele>909</ele>
        <time>2021-09-04T14:22:14.256Z</time>
      </trkpt>
      <trkpt lat="45.92382" lon="5.54659">
        <ele>909</ele>
        <time>2021-09-04T14:22:18.262Z</time>
      </trkpt>
      <trkpt lat="45.92387" lon="5.54655">
        <ele>909</ele>
        <time>2021-09-04T14:22:23.219Z</time>
      </trkpt>
      <trkpt lat="45.92391" lon="5.54653">
        <ele>909</ele>
        <time>2021-09-04T14:22:28.221Z</time>
      </trkpt>
      <trkpt lat="45.92395" lon="5.5465">
        <ele>907</ele>
        <time>2021-09-04T14:22:32.255Z</time>
      </trkpt>
      <trkpt lat="45.924" lon="5.54647">
        <ele>907</ele>
        <time>2021-09-04T14:22:37.257Z</time>
      </trkpt>
      <trkpt lat="45.92406" lon="5.54645">
        <ele>901</ele>
        <time>2021-09-04T14:22:42.263Z</time>
      </trkpt>
      <trkpt lat="45.92411" lon="5.54645">
        <ele>901</ele>
        <time>2021-09-04T14:22:47.250Z</time>
      </trkpt>
      <trkpt lat="45.92416" lon="5.54646">
        <ele>901</ele>
        <time>2021-09-04T14:22:51.260Z</time>
      </trkpt>
      <trkpt lat="45.92422" lon="5.54648">
        <ele>901</ele>
        <time>2021-09-04T14:22:56.254Z</time>
      </trkpt>
      <trkpt lat="45.92426" lon="5.5465">
        <ele>901</ele>
        <time>2021-09-04T14:23:00.257Z</time>
      </trkpt>
      <trkpt lat="45.92431" lon="5.54653">
        <ele>896</ele>
        <time>2021-09-04T14:23:05.265Z</time>
      </trkpt>
      <trkpt lat="45.92434" lon="5.54658">
        <ele>896</ele>
        <time>2021-09-04T14:23:09.264Z</time>
      </trkpt>
      <trkpt lat="45.92439" lon="5.54666">
        <ele>896</ele>
        <time>2021-09-04T14:23:14.252Z</time>
      </trkpt>
      <trkpt lat="45.92443" lon="5.54673">
        <ele>896</ele>
        <time>2021-09-04T14:23:18.277Z</time>
      </trkpt>
      <trkpt lat="45.92448" lon="5.54679">
        <ele>896</ele>
        <time>2021-09-04T14:23:23.259Z</time>
      </trkpt>
      <trkpt lat="45.92454" lon="5.54687">
        <ele>895</ele>
        <time>2021-09-04T14:23:28.251Z</time>
      </trkpt>
      <trkpt lat="45.92461" lon="5.54693">
        <ele>889</ele>
        <time>2021-09-04T14:23:33.277Z</time>
      </trkpt>
      <trkpt lat="45.92467" lon="5.54698">
        <ele>889</ele>
        <time>2021-09-04T14:23:38.271Z</time>
      </trkpt>
      <trkpt lat="45.92472" lon="5.54705">
        <ele>889</ele>
        <time>2021-09-04T14:23:43.259Z</time>
      </trkpt>
      <trkpt lat="45.92474" lon="5.54709">
        <ele>891</ele>
        <time>2021-09-04T14:23:47.270Z</time>
      </trkpt>
      <trkpt lat="45.92477" lon="5.54717">
        <ele>891</ele>
        <time>2021-09-04T14:23:52.247Z</time>
      </trkpt>
      <trkpt lat="45.92478" lon="5.54717">
        <ele>891</ele>
        <time>2021-09-04T14:23:56.274Z</time>
      </trkpt>
      <trkpt lat="45.92484" lon="5.54722">
        <ele>891</ele>
        <time>2021-09-04T14:24:01.277Z</time>
      </trkpt>
      <trkpt lat="45.92489" lon="5.54727">
        <ele>889</ele>
        <time>2021-09-04T14:24:06.257Z</time>
      </trkpt>
      <trkpt lat="45.92494" lon="5.54733">
        <ele>889</ele>
        <time>2021-09-04T14:24:11.257Z</time>
      </trkpt>
      <trkpt lat="45.92498" lon="5.54738">
        <ele>890</ele>
        <time>2021-09-04T14:24:15.269Z</time>
      </trkpt>
      <trkpt lat="45.92502" lon="5.54745">
        <ele>890</ele>
        <time>2021-09-04T14:24:20.265Z</time>
      </trkpt>
      <trkpt lat="45.92507" lon="5.54751">
        <ele>890</ele>
        <time>2021-09-04T14:24:25.279Z</time>
      </trkpt>
      <trkpt lat="45.92511" lon="5.54757">
        <ele>890</ele>
        <time>2021-09-04T14:24:30.286Z</time>
      </trkpt>
      <trkpt lat="45.92515" lon="5.54762">
        <ele>889</ele>
        <time>2021-09-04T14:24:34.290Z</time>
      </trkpt>
      <trkpt lat="45.92519" lon="5.54766">
        <ele>889</ele>
        <time>2021-09-04T14:24:38.313Z</time>
      </trkpt>
      <trkpt lat="45.92526" lon="5.54773">
        <ele>889</ele>
        <time>2021-09-04T14:24:43.285Z</time>
      </trkpt>
      <trkpt lat="45.92532" lon="5.54779">
        <ele>889</ele>
        <time>2021-09-04T14:24:48.271Z</time>
      </trkpt>
      <trkpt lat="45.92537" lon="5.54782">
        <ele>889</ele>
        <time>2021-09-04T14:24:52.280Z</time>
      </trkpt>
      <trkpt lat="45.92542" lon="5.54786">
        <ele>889</ele>
        <time>2021-09-04T14:24:57.258Z</time>
      </trkpt>
      <trkpt lat="45.92547" lon="5.54789">
        <ele>889</ele>
        <time>2021-09-04T14:25:02.255Z</time>
      </trkpt>
      <trkpt lat="45.92553" lon="5.54792">
        <ele>886</ele>
        <time>2021-09-04T14:25:07.255Z</time>
      </trkpt>
      <trkpt lat="45.92558" lon="5.54795">
        <ele>886</ele>
        <time>2021-09-04T14:25:11.283Z</time>
      </trkpt>
      <trkpt lat="45.92563" lon="5.54798">
        <ele>886</ele>
        <time>2021-09-04T14:25:15.302Z</time>
      </trkpt>
      <trkpt lat="45.92568" lon="5.54799">
        <ele>886</ele>
        <time>2021-09-04T14:25:19.299Z</time>
      </trkpt>
      <trkpt lat="45.92574" lon="5.548">
        <ele>882</ele>
        <time>2021-09-04T14:25:24.278Z</time>
      </trkpt>
      <trkpt lat="45.92581" lon="5.548">
        <ele>882</ele>
        <time>2021-09-04T14:25:29.269Z</time>
      </trkpt>
      <trkpt lat="45.92586" lon="5.54799">
        <ele>882</ele>
        <time>2021-09-04T14:25:33.277Z</time>
      </trkpt>
      <trkpt lat="45.92593" lon="5.54798">
        <ele>882</ele>
        <time>2021-09-04T14:25:38.288Z</time>
      </trkpt>
      <trkpt lat="45.926" lon="5.54797">
        <ele>879</ele>
        <time>2021-09-04T14:25:43.258Z</time>
      </trkpt>
      <trkpt lat="45.92608" lon="5.54796">
        <ele>879</ele>
        <time>2021-09-04T14:25:48.249Z</time>
      </trkpt>
      <trkpt lat="45.92616" lon="5.54795">
        <ele>879</ele>
        <time>2021-09-04T14:25:53.288Z</time>
      </trkpt>
      <trkpt lat="45.92623" lon="5.54793">
        <ele>879</ele>
        <time>2021-09-04T14:25:58.260Z</time>
      </trkpt>
      <trkpt lat="45.92631" lon="5.54791">
        <ele>879</ele>
        <time>2021-09-04T14:26:03.323Z</time>
      </trkpt>
      <trkpt lat="45.92638" lon="5.54789">
        <ele>879</ele>
        <time>2021-09-04T14:26:08.253Z</time>
      </trkpt>
      <trkpt lat="45.92646" lon="5.54787">
        <ele>879</ele>
        <time>2021-09-04T14:26:13.245Z</time>
      </trkpt>
      <trkpt lat="45.92651" lon="5.54786">
        <ele>879</ele>
        <time>2021-09-04T14:26:17.271Z</time>
      </trkpt>
      <trkpt lat="45.92658" lon="5.54784">
        <ele>877</ele>
        <time>2021-09-04T14:26:22.275Z</time>
      </trkpt>
      <trkpt lat="45.92665" lon="5.54781">
        <ele>877</ele>
        <time>2021-09-04T14:26:27.267Z</time>
      </trkpt>
      <trkpt lat="45.92671" lon="5.54779">
        <ele>877</ele>
        <time>2021-09-04T14:26:31.292Z</time>
      </trkpt>
      <trkpt lat="45.92677" lon="5.54777">
        <ele>877</ele>
        <time>2021-09-04T14:26:36.261Z</time>
      </trkpt>
      <trkpt lat="45.92683" lon="5.54775">
        <ele>875</ele>
        <time>2021-09-04T14:26:40.268Z</time>
      </trkpt>
      <trkpt lat="45.9269" lon="5.54772">
        <ele>875</ele>
        <time>2021-09-04T14:26:45.278Z</time>
      </trkpt>
      <trkpt lat="45.92695" lon="5.54771">
        <ele>875</ele>
        <time>2021-09-04T14:26:49.272Z</time>
      </trkpt>
      <trkpt lat="45.92702" lon="5.54767">
        <ele>875</ele>
        <time>2021-09-04T14:26:54.265Z</time>
      </trkpt>
      <trkpt lat="45.92709" lon="5.54763">
        <ele>875</ele>
        <time>2021-09-04T14:26:59.284Z</time>
      </trkpt>
      <trkpt lat="45.92715" lon="5.54761">
        <ele>875</ele>
        <time>2021-09-04T14:27:03.267Z</time>
      </trkpt>
      <trkpt lat="45.92722" lon="5.54759">
        <ele>875</ele>
        <time>2021-09-04T14:27:08.289Z</time>
      </trkpt>
      <trkpt lat="45.92729" lon="5.54755">
        <ele>875</ele>
        <time>2021-09-04T14:27:13.259Z</time>
      </trkpt>
      <trkpt lat="45.92735" lon="5.5475">
        <ele>875</ele>
        <time>2021-09-04T14:27:18.262Z</time>
      </trkpt>
      <trkpt lat="45.92741" lon="5.54742">
        <ele>875</ele>
        <time>2021-09-04T14:27:23.247Z</time>
      </trkpt>
      <trkpt lat="45.92746" lon="5.54735">
        <ele>877</ele>
        <time>2021-09-04T14:27:28.261Z</time>
      </trkpt>
      <trkpt lat="45.92752" lon="5.54728">
        <ele>877</ele>
        <time>2021-09-04T14:27:33.254Z</time>
      </trkpt>
      <trkpt lat="45.92757" lon="5.5472">
        <ele>877</ele>
        <time>2021-09-04T14:27:38.222Z</time>
      </trkpt>
      <trkpt lat="45.92761" lon="5.54714">
        <ele>877</ele>
        <time>2021-09-04T14:27:42.262Z</time>
      </trkpt>
      <trkpt lat="45.92766" lon="5.54707">
        <ele>879</ele>
        <time>2021-09-04T14:27:47.263Z</time>
      </trkpt>
      <trkpt lat="45.92772" lon="5.54699">
        <ele>879</ele>
        <time>2021-09-04T14:27:52.271Z</time>
      </trkpt>
      <trkpt lat="45.92777" lon="5.54692">
        <ele>879</ele>
        <time>2021-09-04T14:27:57.264Z</time>
      </trkpt>
      <trkpt lat="45.92781" lon="5.54686">
        <ele>879</ele>
        <time>2021-09-04T14:28:01.294Z</time>
      </trkpt>
      <trkpt lat="45.92785" lon="5.54677">
        <ele>881</ele>
        <time>2021-09-04T14:28:06.255Z</time>
      </trkpt>
      <trkpt lat="45.92788" lon="5.54669">
        <ele>881</ele>
        <time>2021-09-04T14:28:10.277Z</time>
      </trkpt>
      <trkpt lat="45.92792" lon="5.54661">
        <ele>877</ele>
        <time>2021-09-04T14:28:15.263Z</time>
      </trkpt>
      <trkpt lat="45.92796" lon="5.54653">
        <ele>877</ele>
        <time>2021-09-04T14:28:20.257Z</time>
      </trkpt>
      <trkpt lat="45.92798" lon="5.54645">
        <ele>881</ele>
        <time>2021-09-04T14:28:24.260Z</time>
      </trkpt>
      <trkpt lat="45.928" lon="5.54638">
        <ele>881</ele>
        <time>2021-09-04T14:28:28.281Z</time>
      </trkpt>
      <trkpt lat="45.92802" lon="5.54629">
        <ele>881</ele>
        <time>2021-09-04T14:28:33.250Z</time>
      </trkpt>
      <trkpt lat="45.92803" lon="5.54621">
        <ele>882</ele>
        <time>2021-09-04T14:28:37.257Z</time>
      </trkpt>
      <trkpt lat="45.92807" lon="5.54612">
        <ele>882</ele>
        <time>2021-09-04T14:28:42.275Z</time>
      </trkpt>
      <trkpt lat="45.9281" lon="5.54604">
        <ele>882</ele>
        <time>2021-09-04T14:28:47.259Z</time>
      </trkpt>
      <trkpt lat="45.92813" lon="5.54596">
        <ele>883</ele>
        <time>2021-09-04T14:28:52.210Z</time>
      </trkpt>
      <trkpt lat="45.92817" lon="5.54593">
        <ele>883</ele>
        <time>2021-09-04T14:28:56.290Z</time>
      </trkpt>
      <trkpt lat="45.92821" lon="5.54592">
        <ele>883</ele>
        <time>2021-09-04T14:29:00.302Z</time>
      </trkpt>
      <trkpt lat="45.92827" lon="5.54592">
        <ele>883</ele>
        <time>2021-09-04T14:29:05.230Z</time>
      </trkpt>
      <trkpt lat="45.92832" lon="5.54592">
        <ele>883</ele>
        <time>2021-09-04T14:29:09.277Z</time>
      </trkpt>
      <trkpt lat="45.92837" lon="5.54595">
        <ele>883</ele>
        <time>2021-09-04T14:29:14.263Z</time>
      </trkpt>
      <trkpt lat="45.92843" lon="5.54597">
        <ele>883</ele>
        <time>2021-09-04T14:29:19.254Z</time>
      </trkpt>
      <trkpt lat="45.92849" lon="5.54599">
        <ele>881</ele>
        <time>2021-09-04T14:29:24.297Z</time>
      </trkpt>
      <trkpt lat="45.92853" lon="5.546">
        <ele>881</ele>
        <time>2021-09-04T14:29:28.313Z</time>
      </trkpt>
      <trkpt lat="45.92859" lon="5.54604">
        <ele>881</ele>
        <time>2021-09-04T14:29:33.249Z</time>
      </trkpt>
      <trkpt lat="45.92866" lon="5.54607">
        <ele>881</ele>
        <time>2021-09-04T14:29:38.220Z</time>
      </trkpt>
      <trkpt lat="45.92872" lon="5.54611">
        <ele>881</ele>
        <time>2021-09-04T14:29:43.264Z</time>
      </trkpt>
      <trkpt lat="45.92878" lon="5.54614">
        <ele>880</ele>
        <time>2021-09-04T14:29:48.265Z</time>
      </trkpt>
      <trkpt lat="45.92884" lon="5.5462">
        <ele>880</ele>
        <time>2021-09-04T14:29:53.265Z</time>
      </trkpt>
      <trkpt lat="45.92889" lon="5.54625">
        <ele>879</ele>
        <time>2021-09-04T14:29:58.254Z</time>
      </trkpt>
      <trkpt lat="45.92894" lon="5.54631">
        <ele>879</ele>
        <time>2021-09-04T14:30:02.275Z</time>
      </trkpt>
      <trkpt lat="45.92898" lon="5.54637">
        <ele>879</ele>
        <time>2021-09-04T14:30:07.270Z</time>
      </trkpt>
      <trkpt lat="45.92903" lon="5.54641">
        <ele>878</ele>
        <time>2021-09-04T14:30:11.306Z</time>
      </trkpt>
      <trkpt lat="45.92909" lon="5.54643">
        <ele>878</ele>
        <time>2021-09-04T14:30:16.291Z</time>
      </trkpt>
      <trkpt lat="45.92916" lon="5.54646">
        <ele>878</ele>
        <time>2021-09-04T14:30:21.248Z</time>
      </trkpt>
      <trkpt lat="45.92921" lon="5.54648">
        <ele>878</ele>
        <time>2021-09-04T14:30:25.282Z</time>
      </trkpt>
      <trkpt lat="45.92927" lon="5.54649">
        <ele>878</ele>
        <time>2021-09-04T14:30:30.255Z</time>
      </trkpt>
      <trkpt lat="45.92932" lon="5.54648">
        <ele>878</ele>
        <time>2021-09-04T14:30:34.285Z</time>
      </trkpt>
      <trkpt lat="45.92938" lon="5.54649">
        <ele>878</ele>
        <time>2021-09-04T14:30:39.257Z</time>
      </trkpt>
      <trkpt lat="45.92943" lon="5.5465">
        <ele>878</ele>
        <time>2021-09-04T14:30:43.282Z</time>
      </trkpt>
      <trkpt lat="45.9295" lon="5.54651">
        <ele>878</ele>
        <time>2021-09-04T14:30:48.286Z</time>
      </trkpt>
      <trkpt lat="45.92957" lon="5.54652">
        <ele>878</ele>
        <time>2021-09-04T14:30:53.256Z</time>
      </trkpt>
      <trkpt lat="45.92963" lon="5.54651">
        <ele>881</ele>
        <time>2021-09-04T14:30:57.263Z</time>
      </trkpt>
      <trkpt lat="45.92969" lon="5.54651">
        <ele>881</ele>
        <time>2021-09-04T14:31:01.286Z</time>
      </trkpt>
      <trkpt lat="45.92976" lon="5.54651">
        <ele>881</ele>
        <time>2021-09-04T14:31:06.245Z</time>
      </trkpt>
      <trkpt lat="45.92983" lon="5.5465">
        <ele>881</ele>
        <time>2021-09-04T14:31:11.257Z</time>
      </trkpt>
      <trkpt lat="45.92988" lon="5.54652">
        <ele>884</ele>
        <time>2021-09-04T14:31:15.277Z</time>
      </trkpt>
      <trkpt lat="45.92995" lon="5.54647">
        <ele>884</ele>
        <time>2021-09-04T14:31:20.258Z</time>
      </trkpt>
      <trkpt lat="45.93003" lon="5.54641">
        <ele>884</ele>
        <time>2021-09-04T14:31:25.296Z</time>
      </trkpt>
      <trkpt lat="45.93007" lon="5.54635">
        <ele>884</ele>
        <time>2021-09-04T14:31:30.258Z</time>
      </trkpt>
      <trkpt lat="45.93011" lon="5.54628">
        <ele>884</ele>
        <time>2021-09-04T14:31:35.261Z</time>
      </trkpt>
      <trkpt lat="45.93015" lon="5.54621">
        <ele>886</ele>
        <time>2021-09-04T14:31:40.273Z</time>
      </trkpt>
      <trkpt lat="45.9302" lon="5.54614">
        <ele>886</ele>
        <time>2021-09-04T14:31:45.256Z</time>
      </trkpt>
      <trkpt lat="45.93024" lon="5.5461">
        <ele>886</ele>
        <time>2021-09-04T14:31:49.266Z</time>
      </trkpt>
      <trkpt lat="45.93028" lon="5.54605">
        <ele>886</ele>
        <time>2021-09-04T14:31:54.261Z</time>
      </trkpt>
      <trkpt lat="45.93034" lon="5.546">
        <ele>886</ele>
        <time>2021-09-04T14:31:59.302Z</time>
      </trkpt>
      <trkpt lat="45.93038" lon="5.54595">
        <ele>885</ele>
        <time>2021-09-04T14:32:03.319Z</time>
      </trkpt>
      <trkpt lat="45.93043" lon="5.54591">
        <ele>886</ele>
        <time>2021-09-04T14:32:08.259Z</time>
      </trkpt>
      <trkpt lat="45.93048" lon="5.54587">
        <ele>886</ele>
        <time>2021-09-04T14:32:13.286Z</time>
      </trkpt>
      <trkpt lat="45.93054" lon="5.54582">
        <ele>886</ele>
        <time>2021-09-04T14:32:18.255Z</time>
      </trkpt>
      <trkpt lat="45.93058" lon="5.54578">
        <ele>886</ele>
        <time>2021-09-04T14:32:22.289Z</time>
      </trkpt>
      <trkpt lat="45.93063" lon="5.54574">
        <ele>886</ele>
        <time>2021-09-04T14:32:27.289Z</time>
      </trkpt>
      <trkpt lat="45.93069" lon="5.54569">
        <ele>884</ele>
        <time>2021-09-04T14:32:32.254Z</time>
      </trkpt>
      <trkpt lat="45.93074" lon="5.54565">
        <ele>885</ele>
        <time>2021-09-04T14:32:36.279Z</time>
      </trkpt>
      <trkpt lat="45.93078" lon="5.54561">
        <ele>885</ele>
        <time>2021-09-04T14:32:40.287Z</time>
      </trkpt>
      <trkpt lat="45.93084" lon="5.54555">
        <ele>885</ele>
        <time>2021-09-04T14:32:45.305Z</time>
      </trkpt>
      <trkpt lat="45.93089" lon="5.54549">
        <ele>885</ele>
        <time>2021-09-04T14:32:50.254Z</time>
      </trkpt>
      <trkpt lat="45.93092" lon="5.54543">
        <ele>885</ele>
        <time>2021-09-04T14:32:54.313Z</time>
      </trkpt>
      <trkpt lat="45.93096" lon="5.54537">
        <ele>885</ele>
        <time>2021-09-04T14:32:59.239Z</time>
      </trkpt>
      <trkpt lat="45.93099" lon="5.5453">
        <ele>885</ele>
        <time>2021-09-04T14:33:03.250Z</time>
      </trkpt>
      <trkpt lat="45.93103" lon="5.54522">
        <ele>885</ele>
        <time>2021-09-04T14:33:08.223Z</time>
      </trkpt>
      <trkpt lat="45.93106" lon="5.54516">
        <ele>885</ele>
        <time>2021-09-04T14:33:12.262Z</time>
      </trkpt>
      <trkpt lat="45.9311" lon="5.54508">
        <ele>885</ele>
        <time>2021-09-04T14:33:17.243Z</time>
      </trkpt>
      <trkpt lat="45.93113" lon="5.54501">
        <ele>885</ele>
        <time>2021-09-04T14:33:21.268Z</time>
      </trkpt>
      <trkpt lat="45.93118" lon="5.54494">
        <ele>885</ele>
        <time>2021-09-04T14:33:26.279Z</time>
      </trkpt>
      <trkpt lat="45.93122" lon="5.54487">
        <ele>885</ele>
        <time>2021-09-04T14:33:31.273Z</time>
      </trkpt>
      <trkpt lat="45.93127" lon="5.54481">
        <ele>885</ele>
        <time>2021-09-04T14:33:36.249Z</time>
      </trkpt>
      <trkpt lat="45.93131" lon="5.54477">
        <ele>885</ele>
        <time>2021-09-04T14:33:40.261Z</time>
      </trkpt>
      <trkpt lat="45.93137" lon="5.54473">
        <ele>885</ele>
        <time>2021-09-04T14:33:45.244Z</time>
      </trkpt>
      <trkpt lat="45.93142" lon="5.54469">
        <ele>885</ele>
        <time>2021-09-04T14:33:50.266Z</time>
      </trkpt>
      <trkpt lat="45.93148" lon="5.54466">
        <ele>885</ele>
        <time>2021-09-04T14:33:55.259Z</time>
      </trkpt>
      <trkpt lat="45.93152" lon="5.54464">
        <ele>885</ele>
        <time>2021-09-04T14:33:59.266Z</time>
      </trkpt>
      <trkpt lat="45.93158" lon="5.54463">
        <ele>886</ele>
        <time>2021-09-04T14:34:04.274Z</time>
      </trkpt>
      <trkpt lat="45.93164" lon="5.54461">
        <ele>886</ele>
        <time>2021-09-04T14:34:09.247Z</time>
      </trkpt>
      <trkpt lat="45.9317" lon="5.5446">
        <ele>886</ele>
        <time>2021-09-04T14:34:14.214Z</time>
      </trkpt>
      <trkpt lat="45.93174" lon="5.5446">
        <ele>886</ele>
        <time>2021-09-04T14:34:18.225Z</time>
      </trkpt>
      <trkpt lat="45.93179" lon="5.5446">
        <ele>886</ele>
        <time>2021-09-04T14:34:22.256Z</time>
      </trkpt>
      <trkpt lat="45.93185" lon="5.5446">
        <ele>885</ele>
        <time>2021-09-04T14:34:27.277Z</time>
      </trkpt>
      <trkpt lat="45.93192" lon="5.5446">
        <ele>885</ele>
        <time>2021-09-04T14:34:32.252Z</time>
      </trkpt>
      <trkpt lat="45.93198" lon="5.54461">
        <ele>885</ele>
        <time>2021-09-04T14:34:37.261Z</time>
      </trkpt>
      <trkpt lat="45.93202" lon="5.54461">
        <ele>885</ele>
        <time>2021-09-04T14:34:41.260Z</time>
      </trkpt>
      <trkpt lat="45.93207" lon="5.54461">
        <ele>885</ele>
        <time>2021-09-04T14:34:45.285Z</time>
      </trkpt>
      <trkpt lat="45.93213" lon="5.54462">
        <ele>884</ele>
        <time>2021-09-04T14:34:50.248Z</time>
      </trkpt>
      <trkpt lat="45.93217" lon="5.54462">
        <ele>884</ele>
        <time>2021-09-04T14:34:54.263Z</time>
      </trkpt>
      <trkpt lat="45.93222" lon="5.54462">
        <ele>884</ele>
        <time>2021-09-04T14:34:59.267Z</time>
      </trkpt>
      <trkpt lat="45.93228" lon="5.54464">
        <ele>884</ele>
        <time>2021-09-04T14:35:04.259Z</time>
      </trkpt>
      <trkpt lat="45.93233" lon="5.54465">
        <ele>884</ele>
        <time>2021-09-04T14:35:09.257Z</time>
      </trkpt>
      <trkpt lat="45.93238" lon="5.54466">
        <ele>883</ele>
        <time>2021-09-04T14:35:13.293Z</time>
      </trkpt>
      <trkpt lat="45.93243" lon="5.54468">
        <ele>883</ele>
        <time>2021-09-04T14:35:18.307Z</time>
      </trkpt>
      <trkpt lat="45.93249" lon="5.5447">
        <ele>883</ele>
        <time>2021-09-04T14:35:23.246Z</time>
      </trkpt>
      <trkpt lat="45.93254" lon="5.54471">
        <ele>883</ele>
        <time>2021-09-04T14:35:27.261Z</time>
      </trkpt>
      <trkpt lat="45.93259" lon="5.54474">
        <ele>883</ele>
        <time>2021-09-04T14:35:32.290Z</time>
      </trkpt>
      <trkpt lat="45.93265" lon="5.54477">
        <ele>880</ele>
        <time>2021-09-04T14:35:37.287Z</time>
      </trkpt>
      <trkpt lat="45.93271" lon="5.5448">
        <ele>880</ele>
        <time>2021-09-04T14:35:42.279Z</time>
      </trkpt>
      <trkpt lat="45.93276" lon="5.54482">
        <ele>880</ele>
        <time>2021-09-04T14:35:46.294Z</time>
      </trkpt>
      <trkpt lat="45.93282" lon="5.54484">
        <ele>880</ele>
        <time>2021-09-04T14:35:51.213Z</time>
      </trkpt>
      <trkpt lat="45.93287" lon="5.54485">
        <ele>880</ele>
        <time>2021-09-04T14:35:55.285Z</time>
      </trkpt>
      <trkpt lat="45.93293" lon="5.54488">
        <ele>878</ele>
        <time>2021-09-04T14:36:00.251Z</time>
      </trkpt>
      <trkpt lat="45.93299" lon="5.54489">
        <ele>878</ele>
        <time>2021-09-04T14:36:04.280Z</time>
      </trkpt>
      <trkpt lat="45.93305" lon="5.54491">
        <ele>878</ele>
        <time>2021-09-04T14:36:09.258Z</time>
      </trkpt>
      <trkpt lat="45.9331" lon="5.54492">
        <ele>878</ele>
        <time>2021-09-04T14:36:14.263Z</time>
      </trkpt>
      <trkpt lat="45.93316" lon="5.54492">
        <ele>878</ele>
        <time>2021-09-04T14:36:19.282Z</time>
      </trkpt>
      <trkpt lat="45.93322" lon="5.54494">
        <ele>874</ele>
        <time>2021-09-04T14:36:24.271Z</time>
      </trkpt>
      <trkpt lat="45.93326" lon="5.54495">
        <ele>874</ele>
        <time>2021-09-04T14:36:28.273Z</time>
      </trkpt>
      <trkpt lat="45.93332" lon="5.54496">
        <ele>874</ele>
        <time>2021-09-04T14:36:33.255Z</time>
      </trkpt>
      <trkpt lat="45.93337" lon="5.54497">
        <ele>874</ele>
        <time>2021-09-04T14:36:37.274Z</time>
      </trkpt>
      <trkpt lat="45.93342" lon="5.54499">
        <ele>874</ele>
        <time>2021-09-04T14:36:42.261Z</time>
      </trkpt>
      <trkpt lat="45.93346" lon="5.54501">
        <ele>874</ele>
        <time>2021-09-04T14:36:46.274Z</time>
      </trkpt>
      <trkpt lat="45.93351" lon="5.54503">
        <ele>873</ele>
        <time>2021-09-04T14:36:51.270Z</time>
      </trkpt>
      <trkpt lat="45.93357" lon="5.54504">
        <ele>873</ele>
        <time>2021-09-04T14:36:56.272Z</time>
      </trkpt>
      <trkpt lat="45.93363" lon="5.54506">
        <ele>873</ele>
        <time>2021-09-04T14:37:01.279Z</time>
      </trkpt>
      <trkpt lat="45.93366" lon="5.54507">
        <ele>873</ele>
        <time>2021-09-04T14:37:05.282Z</time>
      </trkpt>
      <trkpt lat="45.93371" lon="5.54507">
        <ele>873</ele>
        <time>2021-09-04T14:37:10.247Z</time>
      </trkpt>
      <trkpt lat="45.93377" lon="5.54508">
        <ele>871</ele>
        <time>2021-09-04T14:37:15.243Z</time>
      </trkpt>
      <trkpt lat="45.93383" lon="5.54509">
        <ele>871</ele>
        <time>2021-09-04T14:37:19.252Z</time>
      </trkpt>
      <trkpt lat="45.93387" lon="5.54508">
        <ele>871</ele>
        <time>2021-09-04T14:37:23.259Z</time>
      </trkpt>
      <trkpt lat="45.93391" lon="5.54507">
        <ele>871</ele>
        <time>2021-09-04T14:37:27.270Z</time>
      </trkpt>
      <trkpt lat="45.93395" lon="5.54507">
        <ele>871</ele>
        <time>2021-09-04T14:37:31.271Z</time>
      </trkpt>
      <trkpt lat="45.93399" lon="5.54508">
        <ele>871</ele>
        <time>2021-09-04T14:37:36.270Z</time>
      </trkpt>
      <trkpt lat="45.93405" lon="5.54506">
        <ele>868</ele>
        <time>2021-09-04T14:37:41.267Z</time>
      </trkpt>
      <trkpt lat="45.93409" lon="5.54506">
        <ele>868</ele>
        <time>2021-09-04T14:37:45.267Z</time>
      </trkpt>
      <trkpt lat="45.93415" lon="5.54506">
        <ele>868</ele>
        <time>2021-09-04T14:37:50.273Z</time>
      </trkpt>
      <trkpt lat="45.93421" lon="5.54507">
        <ele>868</ele>
        <time>2021-09-04T14:37:55.239Z</time>
      </trkpt>
      <trkpt lat="45.93425" lon="5.54506">
        <ele>868</ele>
        <time>2021-09-04T14:37:59.259Z</time>
      </trkpt>
      <trkpt lat="45.9343" lon="5.54507">
        <ele>868</ele>
        <time>2021-09-04T14:38:03.274Z</time>
      </trkpt>
      <trkpt lat="45.93436" lon="5.54505">
        <ele>866</ele>
        <time>2021-09-04T14:38:08.260Z</time>
      </trkpt>
      <trkpt lat="45.9344" lon="5.54505">
        <ele>866</ele>
        <time>2021-09-04T14:38:12.270Z</time>
      </trkpt>
      <trkpt lat="45.93445" lon="5.54505">
        <ele>866</ele>
        <time>2021-09-04T14:38:17.250Z</time>
      </trkpt>
      <trkpt lat="45.9345" lon="5.54505">
        <ele>866</ele>
        <time>2021-09-04T14:38:22.250Z</time>
      </trkpt>
      <trkpt lat="45.93458" lon="5.54505">
        <ele>866</ele>
        <time>2021-09-04T14:38:27.273Z</time>
      </trkpt>
      <trkpt lat="45.93464" lon="5.54503">
        <ele>865</ele>
        <time>2021-09-04T14:38:32.258Z</time>
      </trkpt>
      <trkpt lat="45.93468" lon="5.54503">
        <ele>865</ele>
        <time>2021-09-04T14:38:36.274Z</time>
      </trkpt>
      <trkpt lat="45.93473" lon="5.54504">
        <ele>865</ele>
        <time>2021-09-04T14:38:41.278Z</time>
      </trkpt>
      <trkpt lat="45.93478" lon="5.54505">
        <ele>865</ele>
        <time>2021-09-04T14:38:45.283Z</time>
      </trkpt>
      <trkpt lat="45.93481" lon="5.54504">
        <ele>865</ele>
        <time>2021-09-04T14:38:49.292Z</time>
      </trkpt>
      <trkpt lat="45.93487" lon="5.54503">
        <ele>864</ele>
        <time>2021-09-04T14:38:54.270Z</time>
      </trkpt>
      <trkpt lat="45.93489" lon="5.54503">
        <ele>864</ele>
        <time>2021-09-04T14:38:59.269Z</time>
      </trkpt>
      <trkpt lat="45.93492" lon="5.54503">
        <ele>864</ele>
        <time>2021-09-04T14:39:03.286Z</time>
      </trkpt>
      <trkpt lat="45.93497" lon="5.54502">
        <ele>864</ele>
        <time>2021-09-04T14:39:08.260Z</time>
      </trkpt>
      <trkpt lat="45.93501" lon="5.54501">
        <ele>864</ele>
        <time>2021-09-04T14:39:12.268Z</time>
      </trkpt>
      <trkpt lat="45.93508" lon="5.54499">
        <ele>864</ele>
        <time>2021-09-04T14:39:17.275Z</time>
      </trkpt>
      <trkpt lat="45.93514" lon="5.54496">
        <ele>864</ele>
        <time>2021-09-04T14:39:22.257Z</time>
      </trkpt>
      <trkpt lat="45.93519" lon="5.54494">
        <ele>863</ele>
        <time>2021-09-04T14:39:26.259Z</time>
      </trkpt>
      <trkpt lat="45.93524" lon="5.54492">
        <ele>863</ele>
        <time>2021-09-04T14:39:31.344Z</time>
      </trkpt>
      <trkpt lat="45.93529" lon="5.5449">
        <ele>863</ele>
        <time>2021-09-04T14:39:36.269Z</time>
      </trkpt>
      <trkpt lat="45.93534" lon="5.54489">
        <ele>863</ele>
        <time>2021-09-04T14:39:40.289Z</time>
      </trkpt>
      <trkpt lat="45.93539" lon="5.54488">
        <ele>863</ele>
        <time>2021-09-04T14:39:45.251Z</time>
      </trkpt>
      <trkpt lat="45.93543" lon="5.54487">
        <ele>862</ele>
        <time>2021-09-04T14:39:49.281Z</time>
      </trkpt>
      <trkpt lat="45.93549" lon="5.54486">
        <ele>862</ele>
        <time>2021-09-04T14:39:54.212Z</time>
      </trkpt>
      <trkpt lat="45.93554" lon="5.54486">
        <ele>863</ele>
        <time>2021-09-04T14:39:58.268Z</time>
      </trkpt>
      <trkpt lat="45.93561" lon="5.54486">
        <ele>863</ele>
        <time>2021-09-04T14:40:03.263Z</time>
      </trkpt>
      <trkpt lat="45.93568" lon="5.54486">
        <ele>862</ele>
        <time>2021-09-04T14:40:08.246Z</time>
      </trkpt>
      <trkpt lat="45.93573" lon="5.54485">
        <ele>860</ele>
        <time>2021-09-04T14:40:13.212Z</time>
      </trkpt>
      <trkpt lat="45.93577" lon="5.54485">
        <ele>860</ele>
        <time>2021-09-04T14:40:17.254Z</time>
      </trkpt>
      <trkpt lat="45.93582" lon="5.54485">
        <ele>860</ele>
        <time>2021-09-04T14:40:21.267Z</time>
      </trkpt>
      <trkpt lat="45.93588" lon="5.54485">
        <ele>860</ele>
        <time>2021-09-04T14:40:26.272Z</time>
      </trkpt>
      <trkpt lat="45.93594" lon="5.54486">
        <ele>858</ele>
        <time>2021-09-04T14:40:31.261Z</time>
      </trkpt>
      <trkpt lat="45.93598" lon="5.54485">
        <ele>858</ele>
        <time>2021-09-04T14:40:36.252Z</time>
      </trkpt>
      <trkpt lat="45.93603" lon="5.54486">
        <ele>858</ele>
        <time>2021-09-04T14:40:40.285Z</time>
      </trkpt>
      <trkpt lat="45.9361" lon="5.54486">
        <ele>857</ele>
        <time>2021-09-04T14:40:45.255Z</time>
      </trkpt>
      <trkpt lat="45.93616" lon="5.54487">
        <ele>857</ele>
        <time>2021-09-04T14:40:50.253Z</time>
      </trkpt>
      <trkpt lat="45.93622" lon="5.54489">
        <ele>857</ele>
        <time>2021-09-04T14:40:55.289Z</time>
      </trkpt>
      <trkpt lat="45.93628" lon="5.54489">
        <ele>856</ele>
        <time>2021-09-04T14:41:00.288Z</time>
      </trkpt>
      <trkpt lat="45.93635" lon="5.54488">
        <ele>856</ele>
        <time>2021-09-04T14:41:05.264Z</time>
      </trkpt>
      <trkpt lat="45.9364" lon="5.54487">
        <ele>856</ele>
        <time>2021-09-04T14:41:10.267Z</time>
      </trkpt>
      <trkpt lat="45.93645" lon="5.54486">
        <ele>856</ele>
        <time>2021-09-04T14:41:14.285Z</time>
      </trkpt>
      <trkpt lat="45.9365" lon="5.54485">
        <ele>857</ele>
        <time>2021-09-04T14:41:19.254Z</time>
      </trkpt>
      <trkpt lat="45.93655" lon="5.54484">
        <ele>856</ele>
        <time>2021-09-04T14:41:23.294Z</time>
      </trkpt>
      <trkpt lat="45.93661" lon="5.54482">
        <ele>856</ele>
        <time>2021-09-04T14:41:28.254Z</time>
      </trkpt>
      <trkpt lat="45.93666" lon="5.54481">
        <ele>856</ele>
        <time>2021-09-04T14:41:33.282Z</time>
      </trkpt>
      <trkpt lat="45.93672" lon="5.54479">
        <ele>856</ele>
        <time>2021-09-04T14:41:38.245Z</time>
      </trkpt>
      <trkpt lat="45.93678" lon="5.54479">
        <ele>856</ele>
        <time>2021-09-04T14:41:42.274Z</time>
      </trkpt>
      <trkpt lat="45.93684" lon="5.54478">
        <ele>852</ele>
        <time>2021-09-04T14:41:47.301Z</time>
      </trkpt>
      <trkpt lat="45.93692" lon="5.54479">
        <ele>852</ele>
        <time>2021-09-04T14:41:52.235Z</time>
      </trkpt>
      <trkpt lat="45.93705" lon="5.54485">
        <ele>852</ele>
        <time>2021-09-04T14:41:56.260Z</time>
      </trkpt>
      <trkpt lat="45.93722" lon="5.54493">
        <ele>854</ele>
        <time>2021-09-04T14:42:01.250Z</time>
      </trkpt>
      <trkpt lat="45.9373" lon="5.54494">
        <ele>854</ele>
        <time>2021-09-04T14:42:05.260Z</time>
      </trkpt>
      <trkpt lat="45.93739" lon="5.54495">
        <ele>855</ele>
        <time>2021-09-04T14:42:10.246Z</time>
      </trkpt>
      <trkpt lat="45.93749" lon="5.54495">
        <ele>855</ele>
        <time>2021-09-04T14:42:14.253Z</time>
      </trkpt>
      <trkpt lat="45.93758" lon="5.54493">
        <ele>855</ele>
        <time>2021-09-04T14:42:19.248Z</time>
      </trkpt>
      <trkpt lat="45.93765" lon="5.54494">
        <ele>854</ele>
        <time>2021-09-04T14:42:23.256Z</time>
      </trkpt>
      <trkpt lat="45.93774" lon="5.54499">
        <ele>854</ele>
        <time>2021-09-04T14:42:28.224Z</time>
      </trkpt>
      <trkpt lat="45.93779" lon="5.54505">
        <ele>854</ele>
        <time>2021-09-04T14:42:32.255Z</time>
      </trkpt>
      <trkpt lat="45.93787" lon="5.54513">
        <ele>854</ele>
        <time>2021-09-04T14:42:37.268Z</time>
      </trkpt>
      <trkpt lat="45.93792" lon="5.54523">
        <ele>858</ele>
        <time>2021-09-04T14:42:42.250Z</time>
      </trkpt>
      <trkpt lat="45.93799" lon="5.54532">
        <ele>858</ele>
        <time>2021-09-04T14:42:47.259Z</time>
      </trkpt>
      <trkpt lat="45.93804" lon="5.54539">
        <ele>858</ele>
        <time>2021-09-04T14:42:51.282Z</time>
      </trkpt>
      <trkpt lat="45.93811" lon="5.54546">
        <ele>859</ele>
        <time>2021-09-04T14:42:56.251Z</time>
      </trkpt>
      <trkpt lat="45.93819" lon="5.54553">
        <ele>859</ele>
        <time>2021-09-04T14:43:01.261Z</time>
      </trkpt>
      <trkpt lat="45.93827" lon="5.54559">
        <ele>857</ele>
        <time>2021-09-04T14:43:06.248Z</time>
      </trkpt>
      <trkpt lat="45.93833" lon="5.54562">
        <ele>857</ele>
        <time>2021-09-04T14:43:10.264Z</time>
      </trkpt>
      <trkpt lat="45.9384" lon="5.54567">
        <ele>857</ele>
        <time>2021-09-04T14:43:15.259Z</time>
      </trkpt>
      <trkpt lat="45.93846" lon="5.54571">
        <ele>857</ele>
        <time>2021-09-04T14:43:20.265Z</time>
      </trkpt>
      <trkpt lat="45.93852" lon="5.54576">
        <ele>853</ele>
        <time>2021-09-04T14:43:24.280Z</time>
      </trkpt>
      <trkpt lat="45.93858" lon="5.5458">
        <ele>853</ele>
        <time>2021-09-04T14:43:29.251Z</time>
      </trkpt>
      <trkpt lat="45.93863" lon="5.54582">
        <ele>853</ele>
        <time>2021-09-04T14:43:33.272Z</time>
      </trkpt>
      <trkpt lat="45.93869" lon="5.54587">
        <ele>853</ele>
        <time>2021-09-04T14:43:38.255Z</time>
      </trkpt>
      <trkpt lat="45.93875" lon="5.54591">
        <ele>852</ele>
        <time>2021-09-04T14:43:43.238Z</time>
      </trkpt>
      <trkpt lat="45.9388" lon="5.54594">
        <ele>852</ele>
        <time>2021-09-04T14:43:47.253Z</time>
      </trkpt>
      <trkpt lat="45.93885" lon="5.54599">
        <ele>852</ele>
        <time>2021-09-04T14:43:51.274Z</time>
      </trkpt>
      <trkpt lat="45.9389" lon="5.54605">
        <ele>852</ele>
        <time>2021-09-04T14:43:56.205Z</time>
      </trkpt>
      <trkpt lat="45.93895" lon="5.5461">
        <ele>852</ele>
        <time>2021-09-04T14:44:00.276Z</time>
      </trkpt>
      <trkpt lat="45.93898" lon="5.54617">
        <ele>852</ele>
        <time>2021-09-04T14:44:04.287Z</time>
      </trkpt>
      <trkpt lat="45.93901" lon="5.54625">
        <ele>851</ele>
        <time>2021-09-04T14:44:09.309Z</time>
      </trkpt>
      <trkpt lat="45.93904" lon="5.54635">
        <ele>849</ele>
        <time>2021-09-04T14:44:14.252Z</time>
      </trkpt>
      <trkpt lat="45.93906" lon="5.54643">
        <ele>849</ele>
        <time>2021-09-04T14:44:18.253Z</time>
      </trkpt>
      <trkpt lat="45.93909" lon="5.54653">
        <ele>849</ele>
        <time>2021-09-04T14:44:23.267Z</time>
      </trkpt>
      <trkpt lat="45.93915" lon="5.54661">
        <ele>849</ele>
        <time>2021-09-04T14:44:28.259Z</time>
      </trkpt>
      <trkpt lat="45.9392" lon="5.54666">
        <ele>849</ele>
        <time>2021-09-04T14:44:32.275Z</time>
      </trkpt>
      <trkpt lat="45.93926" lon="5.54669">
        <ele>849</ele>
        <time>2021-09-04T14:44:37.264Z</time>
      </trkpt>
      <trkpt lat="45.93933" lon="5.5467">
        <ele>847</ele>
        <time>2021-09-04T14:44:42.251Z</time>
      </trkpt>
      <trkpt lat="45.9394" lon="5.5467">
        <ele>847</ele>
        <time>2021-09-04T14:44:47.249Z</time>
      </trkpt>
      <trkpt lat="45.93947" lon="5.5467">
        <ele>847</ele>
        <time>2021-09-04T14:44:52.264Z</time>
      </trkpt>
      <trkpt lat="45.93955" lon="5.5467">
        <ele>847</ele>
        <time>2021-09-04T14:44:57.247Z</time>
      </trkpt>
      <trkpt lat="45.93962" lon="5.54669">
        <ele>847</ele>
        <time>2021-09-04T14:45:02.239Z</time>
      </trkpt>
      <trkpt lat="45.93969" lon="5.5467">
        <ele>847</ele>
        <time>2021-09-04T14:45:06.254Z</time>
      </trkpt>
      <trkpt lat="45.93979" lon="5.5467">
        <ele>847</ele>
        <time>2021-09-04T14:45:10.263Z</time>
      </trkpt>
      <trkpt lat="45.9399" lon="5.54674">
        <ele>846</ele>
        <time>2021-09-04T14:45:15.243Z</time>
      </trkpt>
      <trkpt lat="45.93996" lon="5.54676">
        <ele>846</ele>
        <time>2021-09-04T14:45:19.250Z</time>
      </trkpt>
      <trkpt lat="45.94002" lon="5.54677">
        <ele>846</ele>
        <time>2021-09-04T14:45:23.323Z</time>
      </trkpt>
      <trkpt lat="45.94009" lon="5.5468">
        <ele>846</ele>
        <time>2021-09-04T14:45:28.254Z</time>
      </trkpt>
      <trkpt lat="45.94016" lon="5.54682">
        <ele>842</ele>
        <time>2021-09-04T14:45:33.247Z</time>
      </trkpt>
      <trkpt lat="45.94021" lon="5.54685">
        <ele>842</ele>
        <time>2021-09-04T14:45:37.253Z</time>
      </trkpt>
      <trkpt lat="45.94027" lon="5.54687">
        <ele>842</ele>
        <time>2021-09-04T14:45:41.260Z</time>
      </trkpt>
      <trkpt lat="45.94032" lon="5.5469">
        <ele>842</ele>
        <time>2021-09-04T14:45:46.255Z</time>
      </trkpt>
      <trkpt lat="45.94038" lon="5.54691">
        <ele>842</ele>
        <time>2021-09-04T14:45:51.257Z</time>
      </trkpt>
      <trkpt lat="45.94044" lon="5.54694">
        <ele>838</ele>
        <time>2021-09-04T14:45:56.211Z</time>
      </trkpt>
      <trkpt lat="45.9405" lon="5.54696">
        <ele>838</ele>
        <time>2021-09-04T14:46:00.243Z</time>
      </trkpt>
      <trkpt lat="45.94055" lon="5.54699">
        <ele>838</ele>
        <time>2021-09-04T14:46:04.267Z</time>
      </trkpt>
      <trkpt lat="45.9406" lon="5.54704">
        <ele>838</ele>
        <time>2021-09-04T14:46:09.252Z</time>
      </trkpt>
      <trkpt lat="45.94064" lon="5.54709">
        <ele>841</ele>
        <time>2021-09-04T14:46:13.276Z</time>
      </trkpt>
      <trkpt lat="45.94068" lon="5.54715">
        <ele>841</ele>
        <time>2021-09-04T14:46:18.241Z</time>
      </trkpt>
      <trkpt lat="45.94074" lon="5.54719">
        <ele>838</ele>
        <time>2021-09-04T14:46:23.252Z</time>
      </trkpt>
      <trkpt lat="45.94079" lon="5.54722">
        <ele>838</ele>
        <time>2021-09-04T14:46:27.262Z</time>
      </trkpt>
      <trkpt lat="45.94086" lon="5.54725">
        <ele>838</ele>
        <time>2021-09-04T14:46:32.255Z</time>
      </trkpt>
      <trkpt lat="45.94093" lon="5.54725">
        <ele>838</ele>
        <time>2021-09-04T14:46:37.252Z</time>
      </trkpt>
      <trkpt lat="45.94099" lon="5.54725">
        <ele>837</ele>
        <time>2021-09-04T14:46:41.257Z</time>
      </trkpt>
      <trkpt lat="45.94106" lon="5.54725">
        <ele>837</ele>
        <time>2021-09-04T14:46:46.265Z</time>
      </trkpt>
      <trkpt lat="45.94114" lon="5.54724">
        <ele>837</ele>
        <time>2021-09-04T14:46:51.258Z</time>
      </trkpt>
      <trkpt lat="45.9412" lon="5.54725">
        <ele>837</ele>
        <time>2021-09-04T14:46:55.275Z</time>
      </trkpt>
      <trkpt lat="45.94129" lon="5.54726">
        <ele>837</ele>
        <time>2021-09-04T14:47:00.270Z</time>
      </trkpt>
      <trkpt lat="45.94137" lon="5.54725">
        <ele>837</ele>
        <time>2021-09-04T14:47:05.259Z</time>
      </trkpt>
      <trkpt lat="45.94144" lon="5.54725">
        <ele>837</ele>
        <time>2021-09-04T14:47:10.248Z</time>
      </trkpt>
      <trkpt lat="45.94151" lon="5.54723">
        <ele>837</ele>
        <time>2021-09-04T14:47:15.280Z</time>
      </trkpt>
      <trkpt lat="45.94158" lon="5.54721">
        <ele>838</ele>
        <time>2021-09-04T14:47:20.259Z</time>
      </trkpt>
      <trkpt lat="45.94163" lon="5.5472">
        <ele>838</ele>
        <time>2021-09-04T14:47:24.265Z</time>
      </trkpt>
      <trkpt lat="45.94171" lon="5.5472">
        <ele>838</ele>
        <time>2021-09-04T14:47:29.252Z</time>
      </trkpt>
      <trkpt lat="45.94178" lon="5.54719">
        <ele>838</ele>
        <time>2021-09-04T14:47:34.280Z</time>
      </trkpt>
      <trkpt lat="45.94185" lon="5.54719">
        <ele>842</ele>
        <time>2021-09-04T14:47:39.269Z</time>
      </trkpt>
      <trkpt lat="45.94191" lon="5.54718">
        <ele>842</ele>
        <time>2021-09-04T14:47:43.279Z</time>
      </trkpt>
      <trkpt lat="45.94198" lon="5.54719">
        <ele>842</ele>
        <time>2021-09-04T14:47:48.251Z</time>
      </trkpt>
      <trkpt lat="45.94206" lon="5.54719">
        <ele>842</ele>
        <time>2021-09-04T14:47:53.263Z</time>
      </trkpt>
      <trkpt lat="45.94213" lon="5.54718">
        <ele>845</ele>
        <time>2021-09-04T14:47:58.262Z</time>
      </trkpt>
      <trkpt lat="45.94219" lon="5.54716">
        <ele>845</ele>
        <time>2021-09-04T14:48:03.262Z</time>
      </trkpt>
      <trkpt lat="45.94225" lon="5.54716">
        <ele>845</ele>
        <time>2021-09-04T14:48:07.271Z</time>
      </trkpt>
      <trkpt lat="45.94231" lon="5.54716">
        <ele>845</ele>
        <time>2021-09-04T14:48:12.250Z</time>
      </trkpt>
      <trkpt lat="45.94234" lon="5.54717">
        <ele>845</ele>
        <time>2021-09-04T14:48:16.264Z</time>
      </trkpt>
      <trkpt lat="45.94237" lon="5.54717">
        <ele>844</ele>
        <time>2021-09-04T14:48:20.248Z</time>
      </trkpt>
      <trkpt lat="45.94244" lon="5.54716">
        <ele>844</ele>
        <time>2021-09-04T14:48:25.260Z</time>
      </trkpt>
      <trkpt lat="45.94251" lon="5.54715">
        <ele>844</ele>
        <time>2021-09-04T14:48:30.281Z</time>
      </trkpt>
      <trkpt lat="45.94258" lon="5.54714">
        <ele>844</ele>
        <time>2021-09-04T14:48:35.260Z</time>
      </trkpt>
      <trkpt lat="45.94264" lon="5.54714">
        <ele>844</ele>
        <time>2021-09-04T14:48:40.252Z</time>
      </trkpt>
      <trkpt lat="45.9427" lon="5.54713">
        <ele>844</ele>
        <time>2021-09-04T14:48:45.257Z</time>
      </trkpt>
      <trkpt lat="45.94275" lon="5.54712">
        <ele>844</ele>
        <time>2021-09-04T14:48:49.272Z</time>
      </trkpt>
      <trkpt lat="45.94281" lon="5.54711">
        <ele>844</ele>
        <time>2021-09-04T14:48:54.248Z</time>
      </trkpt>
      <trkpt lat="45.94286" lon="5.54712">
        <ele>844</ele>
        <time>2021-09-04T14:48:58.233Z</time>
      </trkpt>
      <trkpt lat="45.94293" lon="5.54712">
        <ele>844</ele>
        <time>2021-09-04T14:49:03.281Z</time>
      </trkpt>
      <trkpt lat="45.94299" lon="5.54712">
        <ele>844</ele>
        <time>2021-09-04T14:49:08.260Z</time>
      </trkpt>
      <trkpt lat="45.94305" lon="5.54712">
        <ele>844</ele>
        <time>2021-09-04T14:49:13.257Z</time>
      </trkpt>
      <trkpt lat="45.94312" lon="5.54713">
        <ele>844</ele>
        <time>2021-09-04T14:49:18.280Z</time>
      </trkpt>
      <trkpt lat="45.94319" lon="5.54713">
        <ele>844</ele>
        <time>2021-09-04T14:49:23.265Z</time>
      </trkpt>
      <trkpt lat="45.94323" lon="5.54713">
        <ele>841</ele>
        <time>2021-09-04T14:49:27.278Z</time>
      </trkpt>
      <trkpt lat="45.94329" lon="5.54713">
        <ele>841</ele>
        <time>2021-09-04T14:49:32.277Z</time>
      </trkpt>
      <trkpt lat="45.94335" lon="5.54712">
        <ele>841</ele>
        <time>2021-09-04T14:49:37.248Z</time>
      </trkpt>
      <trkpt lat="45.9434" lon="5.54713">
        <ele>841</ele>
        <time>2021-09-04T14:49:41.251Z</time>
      </trkpt>
      <trkpt lat="45.94346" lon="5.54715">
        <ele>841</ele>
        <time>2021-09-04T14:49:46.248Z</time>
      </trkpt>
      <trkpt lat="45.94352" lon="5.54719">
        <ele>836</ele>
        <time>2021-09-04T14:49:51.254Z</time>
      </trkpt>
      <trkpt lat="45.94358" lon="5.54722">
        <ele>836</ele>
        <time>2021-09-04T14:49:56.200Z</time>
      </trkpt>
      <trkpt lat="45.94363" lon="5.54726">
        <ele>836</ele>
        <time>2021-09-04T14:50:00.219Z</time>
      </trkpt>
      <trkpt lat="45.94368" lon="5.5473">
        <ele>836</ele>
        <time>2021-09-04T14:50:04.251Z</time>
      </trkpt>
      <trkpt lat="45.94375" lon="5.54733">
        <ele>836</ele>
        <time>2021-09-04T14:50:09.215Z</time>
      </trkpt>
      <trkpt lat="45.9438" lon="5.54736">
        <ele>839</ele>
        <time>2021-09-04T14:50:13.258Z</time>
      </trkpt>
      <trkpt lat="45.94386" lon="5.54738">
        <ele>839</ele>
        <time>2021-09-04T14:50:17.263Z</time>
      </trkpt>
      <trkpt lat="45.94393" lon="5.54742">
        <ele>839</ele>
        <time>2021-09-04T14:50:22.272Z</time>
      </trkpt>
      <trkpt lat="45.944" lon="5.54746">
        <ele>839</ele>
        <time>2021-09-04T14:50:27.256Z</time>
      </trkpt>
      <trkpt lat="45.94405" lon="5.54749">
        <ele>835</ele>
        <time>2021-09-04T14:50:31.255Z</time>
      </trkpt>
      <trkpt lat="45.94412" lon="5.54753">
        <ele>835</ele>
        <time>2021-09-04T14:50:36.256Z</time>
      </trkpt>
      <trkpt lat="45.94417" lon="5.54755">
        <ele>835</ele>
        <time>2021-09-04T14:50:40.265Z</time>
      </trkpt>
      <trkpt lat="45.94424" lon="5.5476">
        <ele>835</ele>
        <time>2021-09-04T14:50:45.244Z</time>
      </trkpt>
      <trkpt lat="45.94431" lon="5.54763">
        <ele>832</ele>
        <time>2021-09-04T14:50:50.251Z</time>
      </trkpt>
      <trkpt lat="45.94437" lon="5.54767">
        <ele>838</ele>
        <time>2021-09-04T14:50:55.248Z</time>
      </trkpt>
      <trkpt lat="45.94444" lon="5.54773">
        <ele>838</ele>
        <time>2021-09-04T14:51:00.256Z</time>
      </trkpt>
      <trkpt lat="45.94451" lon="5.54776">
        <ele>838</ele>
        <time>2021-09-04T14:51:05.275Z</time>
      </trkpt>
      <trkpt lat="45.94458" lon="5.54779">
        <ele>836</ele>
        <time>2021-09-04T14:51:10.272Z</time>
      </trkpt>
      <trkpt lat="45.94464" lon="5.54783">
        <ele>836</ele>
        <time>2021-09-04T14:51:14.279Z</time>
      </trkpt>
      <trkpt lat="45.94471" lon="5.54787">
        <ele>836</ele>
        <time>2021-09-04T14:51:19.261Z</time>
      </trkpt>
      <trkpt lat="45.94478" lon="5.54791">
        <ele>836</ele>
        <time>2021-09-04T14:51:24.252Z</time>
      </trkpt>
      <trkpt lat="45.94482" lon="5.54798">
        <ele>843</ele>
        <time>2021-09-04T14:51:28.288Z</time>
      </trkpt>
      <trkpt lat="45.94489" lon="5.54803">
        <ele>837</ele>
        <time>2021-09-04T14:51:33.244Z</time>
      </trkpt>
      <trkpt lat="45.94495" lon="5.54807">
        <ele>837</ele>
        <time>2021-09-04T14:51:38.280Z</time>
      </trkpt>
      <trkpt lat="45.94502" lon="5.54811">
        <ele>837</ele>
        <time>2021-09-04T14:51:43.256Z</time>
      </trkpt>
      <trkpt lat="45.94507" lon="5.54814">
        <ele>837</ele>
        <time>2021-09-04T14:51:47.267Z</time>
      </trkpt>
      <trkpt lat="45.94513" lon="5.54819">
        <ele>837</ele>
        <time>2021-09-04T14:51:52.259Z</time>
      </trkpt>
      <trkpt lat="45.9452" lon="5.54823">
        <ele>835</ele>
        <time>2021-09-04T14:51:57.270Z</time>
      </trkpt>
      <trkpt lat="45.94527" lon="5.54826">
        <ele>835</ele>
        <time>2021-09-04T14:52:02.244Z</time>
      </trkpt>
      <trkpt lat="45.94532" lon="5.5483">
        <ele>835</ele>
        <time>2021-09-04T14:52:06.255Z</time>
      </trkpt>
      <trkpt lat="45.94539" lon="5.54834">
        <ele>835</ele>
        <time>2021-09-04T14:52:11.270Z</time>
      </trkpt>
      <trkpt lat="45.94545" lon="5.54839">
        <ele>832</ele>
        <time>2021-09-04T14:52:16.258Z</time>
      </trkpt>
      <trkpt lat="45.94551" lon="5.54847">
        <ele>832</ele>
        <time>2021-09-04T14:52:21.259Z</time>
      </trkpt>
      <trkpt lat="45.94559" lon="5.54854">
        <ele>835</ele>
        <time>2021-09-04T14:52:26.247Z</time>
      </trkpt>
      <trkpt lat="45.94563" lon="5.5486">
        <ele>835</ele>
        <time>2021-09-04T14:52:30.258Z</time>
      </trkpt>
      <trkpt lat="45.94567" lon="5.54868">
        <ele>835</ele>
        <time>2021-09-04T14:52:35.244Z</time>
      </trkpt>
      <trkpt lat="45.94569" lon="5.54875">
        <ele>837</ele>
        <time>2021-09-04T14:52:39.256Z</time>
      </trkpt>
      <trkpt lat="45.94571" lon="5.54882">
        <ele>834</ele>
        <time>2021-09-04T14:52:43.263Z</time>
      </trkpt>
      <trkpt lat="45.94573" lon="5.5489">
        <ele>834</ele>
        <time>2021-09-04T14:52:48.245Z</time>
      </trkpt>
      <trkpt lat="45.94575" lon="5.54896">
        <ele>834</ele>
        <time>2021-09-04T14:52:52.276Z</time>
      </trkpt>
      <trkpt lat="45.94577" lon="5.54905">
        <ele>834</ele>
        <time>2021-09-04T14:52:57.276Z</time>
      </trkpt>
      <trkpt lat="45.94578" lon="5.54912">
        <ele>834</ele>
        <time>2021-09-04T14:53:01.298Z</time>
      </trkpt>
      <trkpt lat="45.9458" lon="5.54921">
        <ele>834</ele>
        <time>2021-09-04T14:53:06.300Z</time>
      </trkpt>
      <trkpt lat="45.94583" lon="5.54929">
        <ele>834</ele>
        <time>2021-09-04T14:53:11.295Z</time>
      </trkpt>
      <trkpt lat="45.94585" lon="5.54938">
        <ele>834</ele>
        <time>2021-09-04T14:53:16.282Z</time>
      </trkpt>
      <trkpt lat="45.9459" lon="5.54945">
        <ele>834</ele>
        <time>2021-09-04T14:53:21.261Z</time>
      </trkpt>
      <trkpt lat="45.94593" lon="5.54953">
        <ele>834</ele>
        <time>2021-09-04T14:53:26.255Z</time>
      </trkpt>
      <trkpt lat="45.94596" lon="5.54958">
        <ele>834</ele>
        <time>2021-09-04T14:53:30.268Z</time>
      </trkpt>
      <trkpt lat="45.946" lon="5.54965">
        <ele>834</ele>
        <time>2021-09-04T14:53:35.267Z</time>
      </trkpt>
      <trkpt lat="45.94604" lon="5.54972">
        <ele>834</ele>
        <time>2021-09-04T14:53:40.258Z</time>
      </trkpt>
      <trkpt lat="45.94609" lon="5.54979">
        <ele>834</ele>
        <time>2021-09-04T14:53:45.264Z</time>
      </trkpt>
      <trkpt lat="45.94614" lon="5.54983">
        <ele>834</ele>
        <time>2021-09-04T14:53:49.276Z</time>
      </trkpt>
      <trkpt lat="45.94621" lon="5.54987">
        <ele>838</ele>
        <time>2021-09-04T14:53:54.258Z</time>
      </trkpt>
      <trkpt lat="45.94626" lon="5.54989">
        <ele>837</ele>
        <time>2021-09-04T14:53:58.257Z</time>
      </trkpt>
      <trkpt lat="45.94632" lon="5.54992">
        <ele>837</ele>
        <time>2021-09-04T14:54:03.258Z</time>
      </trkpt>
      <trkpt lat="45.94637" lon="5.54995">
        <ele>837</ele>
        <time>2021-09-04T14:54:07.277Z</time>
      </trkpt>
      <trkpt lat="45.94643" lon="5.54998">
        <ele>837</ele>
        <time>2021-09-04T14:54:12.245Z</time>
      </trkpt>
      <trkpt lat="45.94649" lon="5.55002">
        <ele>837</ele>
        <time>2021-09-04T14:54:17.253Z</time>
      </trkpt>
      <trkpt lat="45.94657" lon="5.55005">
        <ele>836</ele>
        <time>2021-09-04T14:54:22.278Z</time>
      </trkpt>
      <trkpt lat="45.94663" lon="5.55009">
        <ele>836</ele>
        <time>2021-09-04T14:54:27.253Z</time>
      </trkpt>
      <trkpt lat="45.94668" lon="5.55012">
        <ele>836</ele>
        <time>2021-09-04T14:54:31.287Z</time>
      </trkpt>
      <trkpt lat="45.94674" lon="5.55015">
        <ele>837</ele>
        <time>2021-09-04T14:54:36.277Z</time>
      </trkpt>
      <trkpt lat="45.94678" lon="5.55017">
        <ele>837</ele>
        <time>2021-09-04T14:54:40.282Z</time>
      </trkpt>
      <trkpt lat="45.94684" lon="5.5502">
        <ele>836</ele>
        <time>2021-09-04T14:54:45.252Z</time>
      </trkpt>
      <trkpt lat="45.94688" lon="5.55022">
        <ele>836</ele>
        <time>2021-09-04T14:54:49.255Z</time>
      </trkpt>
      <trkpt lat="45.94694" lon="5.55026">
        <ele>836</ele>
        <time>2021-09-04T14:54:54.253Z</time>
      </trkpt>
      <trkpt lat="45.94699" lon="5.55029">
        <ele>836</ele>
        <time>2021-09-04T14:54:59.292Z</time>
      </trkpt>
      <trkpt lat="45.94704" lon="5.55033">
        <ele>836</ele>
        <time>2021-09-04T14:55:04.225Z</time>
      </trkpt>
      <trkpt lat="45.94709" lon="5.55035">
        <ele>836</ele>
        <time>2021-09-04T14:55:09.281Z</time>
      </trkpt>
      <trkpt lat="45.94715" lon="5.55038">
        <ele>836</ele>
        <time>2021-09-04T14:55:14.284Z</time>
      </trkpt>
      <trkpt lat="45.94721" lon="5.55041">
        <ele>836</ele>
        <time>2021-09-04T14:55:19.282Z</time>
      </trkpt>
      <trkpt lat="45.94727" lon="5.55043">
        <ele>834</ele>
        <time>2021-09-04T14:55:24.253Z</time>
      </trkpt>
      <trkpt lat="45.94734" lon="5.55045">
        <ele>834</ele>
        <time>2021-09-04T14:55:28.255Z</time>
      </trkpt>
      <trkpt lat="45.94738" lon="5.55047">
        <ele>832</ele>
        <time>2021-09-04T14:55:32.292Z</time>
      </trkpt>
      <trkpt lat="45.94744" lon="5.5505">
        <ele>832</ele>
        <time>2021-09-04T14:55:37.254Z</time>
      </trkpt>
      <trkpt lat="45.94749" lon="5.55054">
        <ele>832</ele>
        <time>2021-09-04T14:55:41.278Z</time>
      </trkpt>
      <trkpt lat="45.94752" lon="5.55059">
        <ele>832</ele>
        <time>2021-09-04T14:55:46.262Z</time>
      </trkpt>
      <trkpt lat="45.94756" lon="5.55064">
        <ele>832</ele>
        <time>2021-09-04T14:55:51.244Z</time>
      </trkpt>
      <trkpt lat="45.94759" lon="5.55068">
        <ele>832</ele>
        <time>2021-09-04T14:55:55.251Z</time>
      </trkpt>
      <trkpt lat="45.94762" lon="5.55075">
        <ele>831</ele>
        <time>2021-09-04T14:56:00.252Z</time>
      </trkpt>
      <trkpt lat="45.94766" lon="5.55083">
        <ele>830</ele>
        <time>2021-09-04T14:56:04.255Z</time>
      </trkpt>
      <trkpt lat="45.9477" lon="5.55091">
        <ele>830</ele>
        <time>2021-09-04T14:56:09.245Z</time>
      </trkpt>
      <trkpt lat="45.94768" lon="5.55095">
        <ele>830</ele>
        <time>2021-09-04T14:56:14.227Z</time>
      </trkpt>
      <trkpt lat="45.94765" lon="5.55094">
        <ele>830</ele>
        <time>2021-09-04T14:56:18.255Z</time>
      </trkpt>
      <trkpt lat="45.94761" lon="5.55092">
        <ele>831</ele>
        <time>2021-09-04T14:56:23.249Z</time>
      </trkpt>
      <trkpt lat="45.94759" lon="5.55092">
        <ele>831</ele>
        <time>2021-09-04T14:56:28.241Z</time>
      </trkpt>
      <trkpt lat="45.94759" lon="5.55092">
        <ele>831</ele>
        <time>2021-09-04T14:56:33.242Z</time>
      </trkpt>
      <trkpt lat="45.94756" lon="5.55092">
        <ele>831</ele>
        <time>2021-09-04T14:56:38.242Z</time>
      </trkpt>
      <trkpt lat="45.94752" lon="5.55093">
        <ele>831</ele>
        <time>2021-09-04T14:56:42.250Z</time>
      </trkpt>
      <trkpt lat="45.94745" lon="5.55092">
        <ele>831</ele>
        <time>2021-09-04T14:56:47.264Z</time>
      </trkpt>
      <trkpt lat="45.9474" lon="5.55089">
        <ele>831</ele>
        <time>2021-09-04T14:56:52.255Z</time>
      </trkpt>
      <trkpt lat="45.94734" lon="5.55086">
        <ele>832</ele>
        <time>2021-09-04T14:56:56.306Z</time>
      </trkpt>
      <trkpt lat="45.94727" lon="5.55085">
        <ele>832</ele>
        <time>2021-09-04T14:57:01.233Z</time>
      </trkpt>
      <trkpt lat="45.94719" lon="5.55085">
        <ele>832</ele>
        <time>2021-09-04T14:57:06.248Z</time>
      </trkpt>
      <trkpt lat="45.94714" lon="5.55086">
        <ele>832</ele>
        <time>2021-09-04T14:57:10.270Z</time>
      </trkpt>
      <trkpt lat="45.94707" lon="5.55086">
        <ele>833</ele>
        <time>2021-09-04T14:57:15.245Z</time>
      </trkpt>
      <trkpt lat="45.94702" lon="5.55086">
        <ele>833</ele>
        <time>2021-09-04T14:57:19.261Z</time>
      </trkpt>
      <trkpt lat="45.94698" lon="5.55087">
        <ele>833</ele>
        <time>2021-09-04T14:57:23.278Z</time>
      </trkpt>
      <trkpt lat="45.94691" lon="5.55086">
        <ele>833</ele>
        <time>2021-09-04T14:57:28.252Z</time>
      </trkpt>
      <trkpt lat="45.94684" lon="5.55088">
        <ele>833</ele>
        <time>2021-09-04T14:57:33.233Z</time>
      </trkpt>
      <trkpt lat="45.94679" lon="5.55089">
        <ele>837</ele>
        <time>2021-09-04T14:57:37.248Z</time>
      </trkpt>
      <trkpt lat="45.94672" lon="5.55089">
        <ele>837</ele>
        <time>2021-09-04T14:57:42.271Z</time>
      </trkpt>
      <trkpt lat="45.94666" lon="5.55088">
        <ele>837</ele>
        <time>2021-09-04T14:57:47.241Z</time>
      </trkpt>
      <trkpt lat="45.94661" lon="5.55086">
        <ele>837</ele>
        <time>2021-09-04T14:57:51.254Z</time>
      </trkpt>
      <trkpt lat="45.94656" lon="5.55083">
        <ele>837</ele>
        <time>2021-09-04T14:57:55.267Z</time>
      </trkpt>
      <trkpt lat="45.9465" lon="5.55082">
        <ele>842</ele>
        <time>2021-09-04T14:58:00.243Z</time>
      </trkpt>
      <trkpt lat="45.94645" lon="5.55082">
        <ele>842</ele>
        <time>2021-09-04T14:58:04.264Z</time>
      </trkpt>
      <trkpt lat="45.94639" lon="5.55081">
        <ele>842</ele>
        <time>2021-09-04T14:58:09.298Z</time>
      </trkpt>
      <trkpt lat="45.94633" lon="5.55079">
        <ele>842</ele>
        <time>2021-09-04T14:58:14.221Z</time>
      </trkpt>
      <trkpt lat="45.94629" lon="5.55076">
        <ele>842</ele>
        <time>2021-09-04T14:58:18.248Z</time>
      </trkpt>
      <trkpt lat="45.94623" lon="5.55075">
        <ele>844</ele>
        <time>2021-09-04T14:58:23.239Z</time>
      </trkpt>
      <trkpt lat="45.94619" lon="5.55073">
        <ele>844</ele>
        <time>2021-09-04T14:58:27.265Z</time>
      </trkpt>
      <trkpt lat="45.94613" lon="5.5507">
        <ele>844</ele>
        <time>2021-09-04T14:58:32.247Z</time>
      </trkpt>
      <trkpt lat="45.94607" lon="5.55067">
        <ele>843</ele>
        <time>2021-09-04T14:58:37.283Z</time>
      </trkpt>
      <trkpt lat="45.94602" lon="5.55063">
        <ele>843</ele>
        <time>2021-09-04T14:58:42.261Z</time>
      </trkpt>
      <trkpt lat="45.94598" lon="5.5506">
        <ele>843</ele>
        <time>2021-09-04T14:58:46.275Z</time>
      </trkpt>
      <trkpt lat="45.94591" lon="5.55059">
        <ele>841</ele>
        <time>2021-09-04T14:58:51.242Z</time>
      </trkpt>
      <trkpt lat="45.94585" lon="5.55058">
        <ele>841</ele>
        <time>2021-09-04T14:58:55.283Z</time>
      </trkpt>
      <trkpt lat="45.94578" lon="5.55058">
        <ele>841</ele>
        <time>2021-09-04T14:59:00.273Z</time>
      </trkpt>
      <trkpt lat="45.94572" lon="5.55056">
        <ele>841</ele>
        <time>2021-09-04T14:59:05.241Z</time>
      </trkpt>
      <trkpt lat="45.94566" lon="5.55054">
        <ele>842</ele>
        <time>2021-09-04T14:59:09.255Z</time>
      </trkpt>
      <trkpt lat="45.9456" lon="5.55052">
        <ele>842</ele>
        <time>2021-09-04T14:59:14.235Z</time>
      </trkpt>
      <trkpt lat="45.94553" lon="5.55051">
        <ele>842</ele>
        <time>2021-09-04T14:59:19.244Z</time>
      </trkpt>
      <trkpt lat="45.94549" lon="5.55047">
        <ele>842</ele>
        <time>2021-09-04T14:59:23.268Z</time>
      </trkpt>
      <trkpt lat="45.94544" lon="5.55044">
        <ele>842</ele>
        <time>2021-09-04T14:59:28.234Z</time>
      </trkpt>
      <trkpt lat="45.9454" lon="5.55041">
        <ele>845</ele>
        <time>2021-09-04T14:59:32.238Z</time>
      </trkpt>
      <trkpt lat="45.94533" lon="5.55039">
        <ele>845</ele>
        <time>2021-09-04T14:59:37.209Z</time>
      </trkpt>
      <trkpt lat="45.94527" lon="5.55039">
        <ele>845</ele>
        <time>2021-09-04T14:59:41.251Z</time>
      </trkpt>
      <trkpt lat="45.94521" lon="5.55038">
        <ele>845</ele>
        <time>2021-09-04T14:59:46.271Z</time>
      </trkpt>
      <trkpt lat="45.94514" lon="5.55038">
        <ele>847</ele>
        <time>2021-09-04T14:59:51.243Z</time>
      </trkpt>
      <trkpt lat="45.94508" lon="5.5504">
        <ele>847</ele>
        <time>2021-09-04T14:59:55.249Z</time>
      </trkpt>
      <trkpt lat="45.94502" lon="5.55043">
        <ele>848</ele>
        <time>2021-09-04T15:00:00.240Z</time>
      </trkpt>
      <trkpt lat="45.94495" lon="5.55043">
        <ele>848</ele>
        <time>2021-09-04T15:00:05.235Z</time>
      </trkpt>
      <trkpt lat="45.94488" lon="5.55044">
        <ele>848</ele>
        <time>2021-09-04T15:00:10.234Z</time>
      </trkpt>
      <trkpt lat="45.94481" lon="5.55046">
        <ele>847</ele>
        <time>2021-09-04T15:00:15.220Z</time>
      </trkpt>
      <trkpt lat="45.94476" lon="5.55049">
        <ele>847</ele>
        <time>2021-09-04T15:00:19.236Z</time>
      </trkpt>
      <trkpt lat="45.94469" lon="5.55053">
        <ele>847</ele>
        <time>2021-09-04T15:00:24.227Z</time>
      </trkpt>
      <trkpt lat="45.94463" lon="5.55057">
        <ele>847</ele>
        <time>2021-09-04T15:00:29.237Z</time>
      </trkpt>
      <trkpt lat="45.94456" lon="5.55062">
        <ele>846</ele>
        <time>2021-09-04T15:00:34.232Z</time>
      </trkpt>
      <trkpt lat="45.94452" lon="5.55065">
        <ele>846</ele>
        <time>2021-09-04T15:00:38.231Z</time>
      </trkpt>
      <trkpt lat="45.94445" lon="5.55068">
        <ele>846</ele>
        <time>2021-09-04T15:00:43.202Z</time>
      </trkpt>
      <trkpt lat="45.94441" lon="5.55071">
        <ele>847</ele>
        <time>2021-09-04T15:00:47.234Z</time>
      </trkpt>
      <trkpt lat="45.94436" lon="5.55073">
        <ele>847</ele>
        <time>2021-09-04T15:00:51.243Z</time>
      </trkpt>
      <trkpt lat="45.94431" lon="5.55076">
        <ele>847</ele>
        <time>2021-09-04T15:00:55.267Z</time>
      </trkpt>
      <trkpt lat="45.94426" lon="5.55081">
        <ele>844</ele>
        <time>2021-09-04T15:01:00.236Z</time>
      </trkpt>
      <trkpt lat="45.94422" lon="5.55085">
        <ele>844</ele>
        <time>2021-09-04T15:01:04.264Z</time>
      </trkpt>
      <trkpt lat="45.94414" lon="5.55086">
        <ele>844</ele>
        <time>2021-09-04T15:01:09.278Z</time>
      </trkpt>
      <trkpt lat="45.94408" lon="5.55087">
        <ele>844</ele>
        <time>2021-09-04T15:01:14.237Z</time>
      </trkpt>
      <trkpt lat="45.94405" lon="5.55089">
        <ele>844</ele>
        <time>2021-09-04T15:01:18.245Z</time>
      </trkpt>
      <trkpt lat="45.94399" lon="5.55093">
        <ele>841</ele>
        <time>2021-09-04T15:01:23.252Z</time>
      </trkpt>
      <trkpt lat="45.94394" lon="5.55096">
        <ele>841</ele>
        <time>2021-09-04T15:01:28.275Z</time>
      </trkpt>
      <trkpt lat="45.94388" lon="5.551">
        <ele>840</ele>
        <time>2021-09-04T15:01:33.245Z</time>
      </trkpt>
      <trkpt lat="45.94382" lon="5.55102">
        <ele>840</ele>
        <time>2021-09-04T15:01:38.270Z</time>
      </trkpt>
      <trkpt lat="45.94376" lon="5.55106">
        <ele>840</ele>
        <time>2021-09-04T15:01:43.230Z</time>
      </trkpt>
      <trkpt lat="45.94371" lon="5.55111">
        <ele>835</ele>
        <time>2021-09-04T15:01:48.239Z</time>
      </trkpt>
      <trkpt lat="45.94366" lon="5.55113">
        <ele>835</ele>
        <time>2021-09-04T15:01:52.271Z</time>
      </trkpt>
      <trkpt lat="45.9436" lon="5.55116">
        <ele>835</ele>
        <time>2021-09-04T15:01:57.231Z</time>
      </trkpt>
      <trkpt lat="45.94354" lon="5.55118">
        <ele>835</ele>
        <time>2021-09-04T15:02:01.238Z</time>
      </trkpt>
      <trkpt lat="45.94349" lon="5.55119">
        <ele>835</ele>
        <time>2021-09-04T15:02:05.272Z</time>
      </trkpt>
      <trkpt lat="45.94343" lon="5.55121">
        <ele>835</ele>
        <time>2021-09-04T15:02:10.291Z</time>
      </trkpt>
      <trkpt lat="45.94337" lon="5.55123">
        <ele>835</ele>
        <time>2021-09-04T15:02:15.242Z</time>
      </trkpt>
      <trkpt lat="45.94332" lon="5.55125">
        <ele>835</ele>
        <time>2021-09-04T15:02:19.298Z</time>
      </trkpt>
      <trkpt lat="45.94325" lon="5.55126">
        <ele>834</ele>
        <time>2021-09-04T15:02:24.239Z</time>
      </trkpt>
      <trkpt lat="45.94319" lon="5.55129">
        <ele>837</ele>
        <time>2021-09-04T15:02:29.215Z</time>
      </trkpt>
      <trkpt lat="45.94316" lon="5.55133">
        <ele>837</ele>
        <time>2021-09-04T15:02:33.273Z</time>
      </trkpt>
      <trkpt lat="45.9431" lon="5.55137">
        <ele>837</ele>
        <time>2021-09-04T15:02:38.279Z</time>
      </trkpt>
      <trkpt lat="45.94306" lon="5.55142">
        <ele>837</ele>
        <time>2021-09-04T15:02:43.269Z</time>
      </trkpt>
      <trkpt lat="45.94301" lon="5.55145">
        <ele>837</ele>
        <time>2021-09-04T15:02:48.245Z</time>
      </trkpt>
      <trkpt lat="45.94296" lon="5.5515">
        <ele>837</ele>
        <time>2021-09-04T15:02:52.253Z</time>
      </trkpt>
      <trkpt lat="45.94292" lon="5.55154">
        <ele>835</ele>
        <time>2021-09-04T15:02:56.274Z</time>
      </trkpt>
      <trkpt lat="45.94286" lon="5.55158">
        <ele>834</ele>
        <time>2021-09-04T15:03:01.236Z</time>
      </trkpt>
      <trkpt lat="45.94281" lon="5.55158">
        <ele>834</ele>
        <time>2021-09-04T15:03:05.267Z</time>
      </trkpt>
      <trkpt lat="45.94277" lon="5.5516">
        <ele>834</ele>
        <time>2021-09-04T15:03:09.271Z</time>
      </trkpt>
      <trkpt lat="45.94272" lon="5.55163">
        <ele>834</ele>
        <time>2021-09-04T15:03:13.284Z</time>
      </trkpt>
      <trkpt lat="45.94266" lon="5.55167">
        <ele>834</ele>
        <time>2021-09-04T15:03:18.267Z</time>
      </trkpt>
      <trkpt lat="45.94259" lon="5.55169">
        <ele>835</ele>
        <time>2021-09-04T15:03:23.268Z</time>
      </trkpt>
      <trkpt lat="45.94253" lon="5.5517">
        <ele>835</ele>
        <time>2021-09-04T15:03:28.229Z</time>
      </trkpt>
      <trkpt lat="45.94249" lon="5.55174">
        <ele>835</ele>
        <time>2021-09-04T15:03:32.246Z</time>
      </trkpt>
      <trkpt lat="45.94244" lon="5.55177">
        <ele>835</ele>
        <time>2021-09-04T15:03:36.270Z</time>
      </trkpt>
      <trkpt lat="45.94242" lon="5.55188">
        <ele>834</ele>
        <time>2021-09-04T15:03:41.244Z</time>
      </trkpt>
      <trkpt lat="45.94245" lon="5.55196">
        <ele>834</ele>
        <time>2021-09-04T15:03:46.227Z</time>
      </trkpt>
      <trkpt lat="45.94246" lon="5.55204">
        <ele>834</ele>
        <time>2021-09-04T15:03:50.246Z</time>
      </trkpt>
      <trkpt lat="45.94247" lon="5.55212">
        <ele>834</ele>
        <time>2021-09-04T15:03:54.273Z</time>
      </trkpt>
      <trkpt lat="45.9425" lon="5.55221">
        <ele>834</ele>
        <time>2021-09-04T15:03:58.282Z</time>
      </trkpt>
      <trkpt lat="45.94255" lon="5.5523">
        <ele>834</ele>
        <time>2021-09-04T15:04:03.240Z</time>
      </trkpt>
      <trkpt lat="45.94259" lon="5.55235">
        <ele>834</ele>
        <time>2021-09-04T15:04:08.262Z</time>
      </trkpt>
      <trkpt lat="45.94264" lon="5.5524">
        <ele>829</ele>
        <time>2021-09-04T15:04:13.234Z</time>
      </trkpt>
      <trkpt lat="45.9427" lon="5.55244">
        <ele>829</ele>
        <time>2021-09-04T15:04:18.216Z</time>
      </trkpt>
      <trkpt lat="45.94275" lon="5.55247">
        <ele>829</ele>
        <time>2021-09-04T15:04:22.241Z</time>
      </trkpt>
      <trkpt lat="45.9428" lon="5.55248">
        <ele>829</ele>
        <time>2021-09-04T15:04:26.276Z</time>
      </trkpt>
      <trkpt lat="45.94289" lon="5.55251">
        <ele>829</ele>
        <time>2021-09-04T15:04:31.239Z</time>
      </trkpt>
      <trkpt lat="45.94297" lon="5.55251">
        <ele>826</ele>
        <time>2021-09-04T15:04:35.245Z</time>
      </trkpt>
      <trkpt lat="45.94303" lon="5.55247">
        <ele>826</ele>
        <time>2021-09-04T15:04:40.231Z</time>
      </trkpt>
      <trkpt lat="45.94307" lon="5.55247">
        <ele>826</ele>
        <time>2021-09-04T15:04:44.239Z</time>
      </trkpt>
      <trkpt lat="45.94308" lon="5.55247">
        <ele>826</ele>
        <time>2021-09-04T15:04:49.233Z</time>
      </trkpt>
      <trkpt lat="45.94312" lon="5.55247">
        <ele>826</ele>
        <time>2021-09-04T15:04:53.234Z</time>
      </trkpt>
      <trkpt lat="45.94315" lon="5.55248">
        <ele>826</ele>
        <time>2021-09-04T15:04:57.273Z</time>
      </trkpt>
      <trkpt lat="45.94319" lon="5.5525">
        <ele>826</ele>
        <time>2021-09-04T15:05:02.271Z</time>
      </trkpt>
      <trkpt lat="45.94323" lon="5.55253">
        <ele>825</ele>
        <time>2021-09-04T15:05:07.270Z</time>
      </trkpt>
      <trkpt lat="45.94325" lon="5.55257">
        <ele>825</ele>
        <time>2021-09-04T15:05:11.273Z</time>
      </trkpt>
      <trkpt lat="45.94326" lon="5.55263">
        <ele>825</ele>
        <time>2021-09-04T15:05:16.235Z</time>
      </trkpt>
      <trkpt lat="45.94327" lon="5.55271">
        <ele>823</ele>
        <time>2021-09-04T15:05:21.256Z</time>
      </trkpt>
      <trkpt lat="45.9433" lon="5.55275">
        <ele>823</ele>
        <time>2021-09-04T15:05:26.245Z</time>
      </trkpt>
      <trkpt lat="45.94332" lon="5.55277">
        <ele>823</ele>
        <time>2021-09-04T15:05:30.306Z</time>
      </trkpt>
      <trkpt lat="45.94336" lon="5.55281">
        <ele>823</ele>
        <time>2021-09-04T15:05:35.288Z</time>
      </trkpt>
      <trkpt lat="45.9434" lon="5.55284">
        <ele>823</ele>
        <time>2021-09-04T15:05:40.251Z</time>
      </trkpt>
      <trkpt lat="45.94346" lon="5.5529">
        <ele>823</ele>
        <time>2021-09-04T15:05:45.242Z</time>
      </trkpt>
      <trkpt lat="45.94352" lon="5.55297">
        <ele>820</ele>
        <time>2021-09-04T15:05:50.246Z</time>
      </trkpt>
      <trkpt lat="45.94354" lon="5.55304">
        <ele>820</ele>
        <time>2021-09-04T15:05:55.253Z</time>
      </trkpt>
      <trkpt lat="45.94351" lon="5.55309">
        <ele>820</ele>
        <time>2021-09-04T15:06:00.234Z</time>
      </trkpt>
      <trkpt lat="45.94345" lon="5.55308">
        <ele>820</ele>
        <time>2021-09-04T15:06:05.236Z</time>
      </trkpt>
      <trkpt lat="45.94341" lon="5.55311">
        <ele>820</ele>
        <time>2021-09-04T15:06:09.254Z</time>
      </trkpt>
      <trkpt lat="45.94334" lon="5.55311">
        <ele>820</ele>
        <time>2021-09-04T15:06:14.264Z</time>
      </trkpt>
      <trkpt lat="45.94327" lon="5.55312">
        <ele>820</ele>
        <time>2021-09-04T15:06:19.222Z</time>
      </trkpt>
      <trkpt lat="45.94322" lon="5.55314">
        <ele>820</ele>
        <time>2021-09-04T15:06:23.246Z</time>
      </trkpt>
      <trkpt lat="45.94314" lon="5.55315">
        <ele>821</ele>
        <time>2021-09-04T15:06:28.255Z</time>
      </trkpt>
      <trkpt lat="45.94306" lon="5.55317">
        <ele>821</ele>
        <time>2021-09-04T15:06:33.245Z</time>
      </trkpt>
      <trkpt lat="45.94299" lon="5.55317">
        <ele>821</ele>
        <time>2021-09-04T15:06:38.254Z</time>
      </trkpt>
      <trkpt lat="45.94291" lon="5.5532">
        <ele>819</ele>
        <time>2021-09-04T15:06:43.252Z</time>
      </trkpt>
      <trkpt lat="45.94284" lon="5.5532">
        <ele>819</ele>
        <time>2021-09-04T15:06:48.220Z</time>
      </trkpt>
      <trkpt lat="45.94279" lon="5.55321">
        <ele>819</ele>
        <time>2021-09-04T15:06:52.248Z</time>
      </trkpt>
      <trkpt lat="45.94272" lon="5.55321">
        <ele>819</ele>
        <time>2021-09-04T15:06:57.245Z</time>
      </trkpt>
      <trkpt lat="45.94265" lon="5.55322">
        <ele>819</ele>
        <time>2021-09-04T15:07:02.255Z</time>
      </trkpt>
      <trkpt lat="45.94258" lon="5.55323">
        <ele>820</ele>
        <time>2021-09-04T15:07:07.243Z</time>
      </trkpt>
      <trkpt lat="45.94252" lon="5.55324">
        <ele>820</ele>
        <time>2021-09-04T15:07:12.233Z</time>
      </trkpt>
      <trkpt lat="45.94245" lon="5.55326">
        <ele>820</ele>
        <time>2021-09-04T15:07:17.262Z</time>
      </trkpt>
      <trkpt lat="45.94238" lon="5.55327">
        <ele>820</ele>
        <time>2021-09-04T15:07:22.225Z</time>
      </trkpt>
      <trkpt lat="45.94233" lon="5.55327">
        <ele>822</ele>
        <time>2021-09-04T15:07:26.256Z</time>
      </trkpt>
      <trkpt lat="45.94225" lon="5.55329">
        <ele>822</ele>
        <time>2021-09-04T15:07:31.254Z</time>
      </trkpt>
      <trkpt lat="45.94219" lon="5.55331">
        <ele>822</ele>
        <time>2021-09-04T15:07:35.253Z</time>
      </trkpt>
      <trkpt lat="45.94212" lon="5.55334">
        <ele>822</ele>
        <time>2021-09-04T15:07:40.231Z</time>
      </trkpt>
      <trkpt lat="45.94206" lon="5.55337">
        <ele>824</ele>
        <time>2021-09-04T15:07:45.262Z</time>
      </trkpt>
      <trkpt lat="45.94199" lon="5.5534">
        <ele>824</ele>
        <time>2021-09-04T15:07:50.251Z</time>
      </trkpt>
      <trkpt lat="45.94192" lon="5.55342">
        <ele>824</ele>
        <time>2021-09-04T15:07:55.245Z</time>
      </trkpt>
      <trkpt lat="45.94184" lon="5.55345">
        <ele>824</ele>
        <time>2021-09-04T15:07:59.239Z</time>
      </trkpt>
      <trkpt lat="45.94176" lon="5.55348">
        <ele>824</ele>
        <time>2021-09-04T15:08:04.236Z</time>
      </trkpt>
      <trkpt lat="45.94169" lon="5.55351">
        <ele>824</ele>
        <time>2021-09-04T15:08:09.233Z</time>
      </trkpt>
      <trkpt lat="45.94165" lon="5.55352">
        <ele>824</ele>
        <time>2021-09-04T15:08:13.261Z</time>
      </trkpt>
      <trkpt lat="45.94158" lon="5.55353">
        <ele>824</ele>
        <time>2021-09-04T15:08:18.236Z</time>
      </trkpt>
      <trkpt lat="45.94154" lon="5.55355">
        <ele>824</ele>
        <time>2021-09-04T15:08:22.244Z</time>
      </trkpt>
      <trkpt lat="45.94147" lon="5.55359">
        <ele>827</ele>
        <time>2021-09-04T15:08:27.213Z</time>
      </trkpt>
      <trkpt lat="45.94142" lon="5.55362">
        <ele>827</ele>
        <time>2021-09-04T15:08:31.244Z</time>
      </trkpt>
      <trkpt lat="45.94135" lon="5.55365">
        <ele>827</ele>
        <time>2021-09-04T15:08:36.231Z</time>
      </trkpt>
      <trkpt lat="45.9413" lon="5.55366">
        <ele>827</ele>
        <time>2021-09-04T15:08:40.248Z</time>
      </trkpt>
      <trkpt lat="45.94126" lon="5.55368">
        <ele>827</ele>
        <time>2021-09-04T15:08:44.250Z</time>
      </trkpt>
      <trkpt lat="45.9412" lon="5.55372">
        <ele>829</ele>
        <time>2021-09-04T15:08:49.266Z</time>
      </trkpt>
      <trkpt lat="45.94115" lon="5.55377">
        <ele>826</ele>
        <time>2021-09-04T15:08:54.251Z</time>
      </trkpt>
      <trkpt lat="45.9411" lon="5.55381">
        <ele>826</ele>
        <time>2021-09-04T15:08:59.232Z</time>
      </trkpt>
      <trkpt lat="45.94105" lon="5.55384">
        <ele>826</ele>
        <time>2021-09-04T15:09:03.278Z</time>
      </trkpt>
      <trkpt lat="45.941" lon="5.55387">
        <ele>826</ele>
        <time>2021-09-04T15:09:08.242Z</time>
      </trkpt>
      <trkpt lat="45.94094" lon="5.55392">
        <ele>829</ele>
        <time>2021-09-04T15:09:13.241Z</time>
      </trkpt>
      <trkpt lat="45.94089" lon="5.55396">
        <ele>829</ele>
        <time>2021-09-04T15:09:18.254Z</time>
      </trkpt>
      <trkpt lat="45.94083" lon="5.55402">
        <ele>829</ele>
        <time>2021-09-04T15:09:23.234Z</time>
      </trkpt>
      <trkpt lat="45.94077" lon="5.55405">
        <ele>826</ele>
        <time>2021-09-04T15:09:28.243Z</time>
      </trkpt>
      <trkpt lat="45.94072" lon="5.55409">
        <ele>826</ele>
        <time>2021-09-04T15:09:33.250Z</time>
      </trkpt>
      <trkpt lat="45.94067" lon="5.55414">
        <ele>827</ele>
        <time>2021-09-04T15:09:38.240Z</time>
      </trkpt>
      <trkpt lat="45.94062" lon="5.55418">
        <ele>827</ele>
        <time>2021-09-04T15:09:42.251Z</time>
      </trkpt>
      <trkpt lat="45.94059" lon="5.55421">
        <ele>827</ele>
        <time>2021-09-04T15:09:46.266Z</time>
      </trkpt>
      <trkpt lat="45.94054" lon="5.55427">
        <ele>827</ele>
        <time>2021-09-04T15:09:51.245Z</time>
      </trkpt>
      <trkpt lat="45.94049" lon="5.55433">
        <ele>827</ele>
        <time>2021-09-04T15:09:56.224Z</time>
      </trkpt>
      <trkpt lat="45.94044" lon="5.55436">
        <ele>827</ele>
        <time>2021-09-04T15:10:00.271Z</time>
      </trkpt>
      <trkpt lat="45.94038" lon="5.55439">
        <ele>827</ele>
        <time>2021-09-04T15:10:05.255Z</time>
      </trkpt>
      <trkpt lat="45.94032" lon="5.55443">
        <ele>827</ele>
        <time>2021-09-04T15:10:10.248Z</time>
      </trkpt>
      <trkpt lat="45.94027" lon="5.55447">
        <ele>827</ele>
        <time>2021-09-04T15:10:14.262Z</time>
      </trkpt>
      <trkpt lat="45.9402" lon="5.5545">
        <ele>827</ele>
        <time>2021-09-04T15:10:19.242Z</time>
      </trkpt>
      <trkpt lat="45.94015" lon="5.55452">
        <ele>827</ele>
        <time>2021-09-04T15:10:23.255Z</time>
      </trkpt>
      <trkpt lat="45.9401" lon="5.55456">
        <ele>827</ele>
        <time>2021-09-04T15:10:28.215Z</time>
      </trkpt>
      <trkpt lat="45.94005" lon="5.55458">
        <ele>827</ele>
        <time>2021-09-04T15:10:32.248Z</time>
      </trkpt>
      <trkpt lat="45.94" lon="5.55464">
        <ele>826</ele>
        <time>2021-09-04T15:10:36.268Z</time>
      </trkpt>
      <trkpt lat="45.93994" lon="5.55466">
        <ele>826</ele>
        <time>2021-09-04T15:10:41.254Z</time>
      </trkpt>
      <trkpt lat="45.93988" lon="5.55469">
        <ele>826</ele>
        <time>2021-09-04T15:10:46.250Z</time>
      </trkpt>
      <trkpt lat="45.93982" lon="5.55474">
        <ele>826</ele>
        <time>2021-09-04T15:10:50.271Z</time>
      </trkpt>
      <trkpt lat="45.93976" lon="5.55481">
        <ele>826</ele>
        <time>2021-09-04T15:10:55.231Z</time>
      </trkpt>
      <trkpt lat="45.9397" lon="5.55481">
        <ele>826</ele>
        <time>2021-09-04T15:10:59.282Z</time>
      </trkpt>
      <trkpt lat="45.93963" lon="5.55483">
        <ele>826</ele>
        <time>2021-09-04T15:11:04.248Z</time>
      </trkpt>
      <trkpt lat="45.93956" lon="5.55484">
        <ele>826</ele>
        <time>2021-09-04T15:11:09.255Z</time>
      </trkpt>
      <trkpt lat="45.9395" lon="5.55484">
        <ele>826</ele>
        <time>2021-09-04T15:11:14.250Z</time>
      </trkpt>
      <trkpt lat="45.93943" lon="5.55487">
        <ele>826</ele>
        <time>2021-09-04T15:11:19.244Z</time>
      </trkpt>
      <trkpt lat="45.93936" lon="5.55493">
        <ele>826</ele>
        <time>2021-09-04T15:11:24.243Z</time>
      </trkpt>
      <trkpt lat="45.9393" lon="5.55494">
        <ele>827</ele>
        <time>2021-09-04T15:11:28.243Z</time>
      </trkpt>
      <trkpt lat="45.93923" lon="5.55496">
        <ele>827</ele>
        <time>2021-09-04T15:11:33.229Z</time>
      </trkpt>
      <trkpt lat="45.93917" lon="5.55496">
        <ele>827</ele>
        <time>2021-09-04T15:11:37.255Z</time>
      </trkpt>
      <trkpt lat="45.93911" lon="5.55495">
        <ele>827</ele>
        <time>2021-09-04T15:11:42.246Z</time>
      </trkpt>
      <trkpt lat="45.93906" lon="5.55496">
        <ele>827</ele>
        <time>2021-09-04T15:11:46.256Z</time>
      </trkpt>
      <trkpt lat="45.93899" lon="5.55497">
        <ele>828</ele>
        <time>2021-09-04T15:11:51.248Z</time>
      </trkpt>
      <trkpt lat="45.93894" lon="5.55499">
        <ele>828</ele>
        <time>2021-09-04T15:11:55.255Z</time>
      </trkpt>
      <trkpt lat="45.93887" lon="5.555">
        <ele>828</ele>
        <time>2021-09-04T15:12:00.247Z</time>
      </trkpt>
      <trkpt lat="45.9388" lon="5.55503">
        <ele>828</ele>
        <time>2021-09-04T15:12:05.203Z</time>
      </trkpt>
      <trkpt lat="45.93875" lon="5.55505">
        <ele>829</ele>
        <time>2021-09-04T15:12:09.225Z</time>
      </trkpt>
      <trkpt lat="45.93868" lon="5.55508">
        <ele>829</ele>
        <time>2021-09-04T15:12:14.226Z</time>
      </trkpt>
      <trkpt lat="45.93863" lon="5.55509">
        <ele>829</ele>
        <time>2021-09-04T15:12:18.237Z</time>
      </trkpt>
      <trkpt lat="45.93857" lon="5.55509">
        <ele>829</ele>
        <time>2021-09-04T15:12:22.255Z</time>
      </trkpt>
      <trkpt lat="45.9385" lon="5.55512">
        <ele>829</ele>
        <time>2021-09-04T15:12:27.218Z</time>
      </trkpt>
      <trkpt lat="45.93845" lon="5.55513">
        <ele>829</ele>
        <time>2021-09-04T15:12:31.255Z</time>
      </trkpt>
      <trkpt lat="45.9384" lon="5.55515">
        <ele>830</ele>
        <time>2021-09-04T15:12:36.238Z</time>
      </trkpt>
      <trkpt lat="45.93833" lon="5.55515">
        <ele>830</ele>
        <time>2021-09-04T15:12:41.236Z</time>
      </trkpt>
      <trkpt lat="45.93828" lon="5.55517">
        <ele>830</ele>
        <time>2021-09-04T15:12:45.243Z</time>
      </trkpt>
      <trkpt lat="45.93823" lon="5.55517">
        <ele>830</ele>
        <time>2021-09-04T15:12:49.245Z</time>
      </trkpt>
      <trkpt lat="45.93816" lon="5.55517">
        <ele>830</ele>
        <time>2021-09-04T15:12:54.253Z</time>
      </trkpt>
      <trkpt lat="45.9381" lon="5.55516">
        <ele>830</ele>
        <time>2021-09-04T15:12:59.239Z</time>
      </trkpt>
      <trkpt lat="45.93804" lon="5.55516">
        <ele>830</ele>
        <time>2021-09-04T15:13:04.252Z</time>
      </trkpt>
      <trkpt lat="45.93797" lon="5.5552">
        <ele>830</ele>
        <time>2021-09-04T15:13:09.231Z</time>
      </trkpt>
      <trkpt lat="45.93792" lon="5.55523">
        <ele>830</ele>
        <time>2021-09-04T15:13:13.235Z</time>
      </trkpt>
      <trkpt lat="45.93786" lon="5.55526">
        <ele>830</ele>
        <time>2021-09-04T15:13:18.246Z</time>
      </trkpt>
      <trkpt lat="45.93781" lon="5.55527">
        <ele>830</ele>
        <time>2021-09-04T15:13:22.250Z</time>
      </trkpt>
      <trkpt lat="45.93775" lon="5.55528">
        <ele>830</ele>
        <time>2021-09-04T15:13:27.229Z</time>
      </trkpt>
      <trkpt lat="45.93771" lon="5.5553">
        <ele>830</ele>
        <time>2021-09-04T15:13:31.268Z</time>
      </trkpt>
      <trkpt lat="45.93764" lon="5.55533">
        <ele>831</ele>
        <time>2021-09-04T15:13:36.235Z</time>
      </trkpt>
      <trkpt lat="45.93756" lon="5.55535">
        <ele>831</ele>
        <time>2021-09-04T15:13:41.236Z</time>
      </trkpt>
      <trkpt lat="45.93751" lon="5.55538">
        <ele>831</ele>
        <time>2021-09-04T15:13:45.244Z</time>
      </trkpt>
      <trkpt lat="45.93745" lon="5.55542">
        <ele>829</ele>
        <time>2021-09-04T15:13:50.230Z</time>
      </trkpt>
      <trkpt lat="45.93741" lon="5.55549">
        <ele>829</ele>
        <time>2021-09-04T15:13:54.249Z</time>
      </trkpt>
      <trkpt lat="45.93734" lon="5.55551">
        <ele>830</ele>
        <time>2021-09-04T15:13:59.240Z</time>
      </trkpt>
      <trkpt lat="45.93727" lon="5.55554">
        <ele>830</ele>
        <time>2021-09-04T15:14:04.236Z</time>
      </trkpt>
      <trkpt lat="45.93721" lon="5.5556">
        <ele>830</ele>
        <time>2021-09-04T15:14:08.241Z</time>
      </trkpt>
      <trkpt lat="45.93716" lon="5.55563">
        <ele>830</ele>
        <time>2021-09-04T15:14:13.252Z</time>
      </trkpt>
      <trkpt lat="45.9371" lon="5.55566">
        <ele>830</ele>
        <time>2021-09-04T15:14:18.248Z</time>
      </trkpt>
      <trkpt lat="45.93705" lon="5.55568">
        <ele>831</ele>
        <time>2021-09-04T15:14:22.254Z</time>
      </trkpt>
      <trkpt lat="45.93701" lon="5.55578">
        <ele>827</ele>
        <time>2021-09-04T15:14:27.207Z</time>
      </trkpt>
      <trkpt lat="45.93698" lon="5.5558">
        <ele>827</ele>
        <time>2021-09-04T15:14:31.245Z</time>
      </trkpt>
      <trkpt lat="45.93694" lon="5.55581">
        <ele>827</ele>
        <time>2021-09-04T15:14:35.252Z</time>
      </trkpt>
      <trkpt lat="45.93689" lon="5.55586">
        <ele>827</ele>
        <time>2021-09-04T15:14:40.240Z</time>
      </trkpt>
      <trkpt lat="45.9368" lon="5.55587">
        <ele>828</ele>
        <time>2021-09-04T15:14:45.252Z</time>
      </trkpt>
      <trkpt lat="45.93674" lon="5.55592">
        <ele>828</ele>
        <time>2021-09-04T15:14:50.233Z</time>
      </trkpt>
      <trkpt lat="45.93669" lon="5.55594">
        <ele>828</ele>
        <time>2021-09-04T15:14:55.206Z</time>
      </trkpt>
      <trkpt lat="45.93665" lon="5.55597">
        <ele>825</ele>
        <time>2021-09-04T15:14:59.242Z</time>
      </trkpt>
      <trkpt lat="45.93659" lon="5.55601">
        <ele>825</ele>
        <time>2021-09-04T15:15:04.248Z</time>
      </trkpt>
      <trkpt lat="45.93654" lon="5.55605">
        <ele>825</ele>
        <time>2021-09-04T15:15:09.234Z</time>
      </trkpt>
      <trkpt lat="45.93647" lon="5.55607">
        <ele>827</ele>
        <time>2021-09-04T15:15:13.242Z</time>
      </trkpt>
      <trkpt lat="45.93641" lon="5.5561">
        <ele>827</ele>
        <time>2021-09-04T15:15:18.246Z</time>
      </trkpt>
      <trkpt lat="45.93634" lon="5.55613">
        <ele>827</ele>
        <time>2021-09-04T15:15:23.238Z</time>
      </trkpt>
      <trkpt lat="45.93628" lon="5.55617">
        <ele>827</ele>
        <time>2021-09-04T15:15:27.269Z</time>
      </trkpt>
      <trkpt lat="45.93622" lon="5.55622">
        <ele>829</ele>
        <time>2021-09-04T15:15:32.234Z</time>
      </trkpt>
      <trkpt lat="45.93617" lon="5.55626">
        <ele>827</ele>
        <time>2021-09-04T15:15:37.236Z</time>
      </trkpt>
      <trkpt lat="45.93611" lon="5.55629">
        <ele>827</ele>
        <time>2021-09-04T15:15:42.239Z</time>
      </trkpt>
      <trkpt lat="45.93607" lon="5.55633">
        <ele>827</ele>
        <time>2021-09-04T15:15:46.238Z</time>
      </trkpt>
      <trkpt lat="45.93603" lon="5.55639">
        <ele>827</ele>
        <time>2021-09-04T15:15:51.234Z</time>
      </trkpt>
      <trkpt lat="45.93599" lon="5.55645">
        <ele>827</ele>
        <time>2021-09-04T15:15:55.251Z</time>
      </trkpt>
      <trkpt lat="45.9359" lon="5.55649">
        <ele>827</ele>
        <time>2021-09-04T15:16:00.239Z</time>
      </trkpt>
      <trkpt lat="45.93585" lon="5.55652">
        <ele>827</ele>
        <time>2021-09-04T15:16:05.256Z</time>
      </trkpt>
      <trkpt lat="45.93578" lon="5.55658">
        <ele>825</ele>
        <time>2021-09-04T15:16:10.249Z</time>
      </trkpt>
      <trkpt lat="45.93572" lon="5.55663">
        <ele>825</ele>
        <time>2021-09-04T15:16:15.235Z</time>
      </trkpt>
      <trkpt lat="45.93567" lon="5.55667">
        <ele>826</ele>
        <time>2021-09-04T15:16:20.206Z</time>
      </trkpt>
      <trkpt lat="45.93562" lon="5.55668">
        <ele>826</ele>
        <time>2021-09-04T15:16:24.235Z</time>
      </trkpt>
      <trkpt lat="45.93557" lon="5.55671">
        <ele>826</ele>
        <time>2021-09-04T15:16:29.217Z</time>
      </trkpt>
      <trkpt lat="45.93551" lon="5.55675">
        <ele>826</ele>
        <time>2021-09-04T15:16:34.247Z</time>
      </trkpt>
      <trkpt lat="45.93545" lon="5.5568">
        <ele>826</ele>
        <time>2021-09-04T15:16:39.218Z</time>
      </trkpt>
      <trkpt lat="45.93538" lon="5.55686">
        <ele>825</ele>
        <time>2021-09-04T15:16:43.259Z</time>
      </trkpt>
      <trkpt lat="45.93531" lon="5.55689">
        <ele>825</ele>
        <time>2021-09-04T15:16:48.231Z</time>
      </trkpt>
      <trkpt lat="45.93527" lon="5.55693">
        <ele>825</ele>
        <time>2021-09-04T15:16:52.238Z</time>
      </trkpt>
      <trkpt lat="45.93521" lon="5.55696">
        <ele>825</ele>
        <time>2021-09-04T15:16:57.258Z</time>
      </trkpt>
      <trkpt lat="45.93514" lon="5.55702">
        <ele>825</ele>
        <time>2021-09-04T15:17:02.239Z</time>
      </trkpt>
      <trkpt lat="45.93509" lon="5.55709">
        <ele>823</ele>
        <time>2021-09-04T15:17:07.213Z</time>
      </trkpt>
      <trkpt lat="45.93505" lon="5.55713">
        <ele>823</ele>
        <time>2021-09-04T15:17:11.258Z</time>
      </trkpt>
      <trkpt lat="45.935" lon="5.55716">
        <ele>823</ele>
        <time>2021-09-04T15:17:16.246Z</time>
      </trkpt>
      <trkpt lat="45.93493" lon="5.5572">
        <ele>823</ele>
        <time>2021-09-04T15:17:21.238Z</time>
      </trkpt>
      <trkpt lat="45.93486" lon="5.55722">
        <ele>826</ele>
        <time>2021-09-04T15:17:26.238Z</time>
      </trkpt>
      <trkpt lat="45.93481" lon="5.55725">
        <ele>826</ele>
        <time>2021-09-04T15:17:31.239Z</time>
      </trkpt>
      <trkpt lat="45.93475" lon="5.5573">
        <ele>826</ele>
        <time>2021-09-04T15:17:36.239Z</time>
      </trkpt>
      <trkpt lat="45.9347" lon="5.55733">
        <ele>826</ele>
        <time>2021-09-04T15:17:41.238Z</time>
      </trkpt>
      <trkpt lat="45.93466" lon="5.55734">
        <ele>826</ele>
        <time>2021-09-04T15:17:45.244Z</time>
      </trkpt>
      <trkpt lat="45.93461" lon="5.55731">
        <ele>826</ele>
        <time>2021-09-04T15:17:50.248Z</time>
      </trkpt>
      <trkpt lat="45.93457" lon="5.55725">
        <ele>827</ele>
        <time>2021-09-04T15:17:55.250Z</time>
      </trkpt>
      <trkpt lat="45.93453" lon="5.55722">
        <ele>827</ele>
        <time>2021-09-04T15:18:00.245Z</time>
      </trkpt>
      <trkpt lat="45.93446" lon="5.55722">
        <ele>827</ele>
        <time>2021-09-04T15:18:05.228Z</time>
      </trkpt>
      <trkpt lat="45.93439" lon="5.55725">
        <ele>827</ele>
        <time>2021-09-04T15:18:10.225Z</time>
      </trkpt>
      <trkpt lat="45.93433" lon="5.55729">
        <ele>827</ele>
        <time>2021-09-04T15:18:14.247Z</time>
      </trkpt>
      <trkpt lat="45.93424" lon="5.5573">
        <ele>826</ele>
        <time>2021-09-04T15:18:19.242Z</time>
      </trkpt>
      <trkpt lat="45.93418" lon="5.55738">
        <ele>824</ele>
        <time>2021-09-04T15:18:24.240Z</time>
      </trkpt>
      <trkpt lat="45.93415" lon="5.55745">
        <ele>824</ele>
        <time>2021-09-04T15:18:28.263Z</time>
      </trkpt>
      <trkpt lat="45.9341" lon="5.55751">
        <ele>824</ele>
        <time>2021-09-04T15:18:33.260Z</time>
      </trkpt>
      <trkpt lat="45.93407" lon="5.55759">
        <ele>824</ele>
        <time>2021-09-04T15:18:38.245Z</time>
      </trkpt>
      <trkpt lat="45.93403" lon="5.55765">
        <ele>822</ele>
        <time>2021-09-04T15:18:43.234Z</time>
      </trkpt>
      <trkpt lat="45.93399" lon="5.5577">
        <ele>821</ele>
        <time>2021-09-04T15:18:47.240Z</time>
      </trkpt>
      <trkpt lat="45.93395" lon="5.55776">
        <ele>821</ele>
        <time>2021-09-04T15:18:52.229Z</time>
      </trkpt>
      <trkpt lat="45.9339" lon="5.55781">
        <ele>821</ele>
        <time>2021-09-04T15:18:57.255Z</time>
      </trkpt>
      <trkpt lat="45.93387" lon="5.55786">
        <ele>821</ele>
        <time>2021-09-04T15:19:02.253Z</time>
      </trkpt>
      <trkpt lat="45.93383" lon="5.55793">
        <ele>819</ele>
        <time>2021-09-04T15:19:07.230Z</time>
      </trkpt>
      <trkpt lat="45.93379" lon="5.55799">
        <ele>819</ele>
        <time>2021-09-04T15:19:12.256Z</time>
      </trkpt>
      <trkpt lat="45.93375" lon="5.55807">
        <ele>819</ele>
        <time>2021-09-04T15:19:17.243Z</time>
      </trkpt>
      <trkpt lat="45.93371" lon="5.55813">
        <ele>819</ele>
        <time>2021-09-04T15:19:21.246Z</time>
      </trkpt>
      <trkpt lat="45.93368" lon="5.5582">
        <ele>819</ele>
        <time>2021-09-04T15:19:26.249Z</time>
      </trkpt>
      <trkpt lat="45.93366" lon="5.55829">
        <ele>819</ele>
        <time>2021-09-04T15:19:31.238Z</time>
      </trkpt>
      <trkpt lat="45.93364" lon="5.55837">
        <ele>819</ele>
        <time>2021-09-04T15:19:35.249Z</time>
      </trkpt>
      <trkpt lat="45.93361" lon="5.55847">
        <ele>819</ele>
        <time>2021-09-04T15:19:40.245Z</time>
      </trkpt>
      <trkpt lat="45.93359" lon="5.55857">
        <ele>818</ele>
        <time>2021-09-04T15:19:45.245Z</time>
      </trkpt>
      <trkpt lat="45.93356" lon="5.55866">
        <ele>818</ele>
        <time>2021-09-04T15:19:50.233Z</time>
      </trkpt>
      <trkpt lat="45.93354" lon="5.55873">
        <ele>818</ele>
        <time>2021-09-04T15:19:54.243Z</time>
      </trkpt>
      <trkpt lat="45.93352" lon="5.5588">
        <ele>817</ele>
        <time>2021-09-04T15:19:58.270Z</time>
      </trkpt>
      <trkpt lat="45.93349" lon="5.55887">
        <ele>817</ele>
        <time>2021-09-04T15:20:03.245Z</time>
      </trkpt>
      <trkpt lat="45.93346" lon="5.55895">
        <ele>819</ele>
        <time>2021-09-04T15:20:08.243Z</time>
      </trkpt>
      <trkpt lat="45.93344" lon="5.55901">
        <ele>819</ele>
        <time>2021-09-04T15:20:12.253Z</time>
      </trkpt>
      <trkpt lat="45.93342" lon="5.5591">
        <ele>819</ele>
        <time>2021-09-04T15:20:17.246Z</time>
      </trkpt>
      <trkpt lat="45.9334" lon="5.55917">
        <ele>819</ele>
        <time>2021-09-04T15:20:22.251Z</time>
      </trkpt>
      <trkpt lat="45.93338" lon="5.55925">
        <ele>819</ele>
        <time>2021-09-04T15:20:27.267Z</time>
      </trkpt>
      <trkpt lat="45.93335" lon="5.55932">
        <ele>818</ele>
        <time>2021-09-04T15:20:32.237Z</time>
      </trkpt>
      <trkpt lat="45.93332" lon="5.55942">
        <ele>818</ele>
        <time>2021-09-04T15:20:37.236Z</time>
      </trkpt>
      <trkpt lat="45.93329" lon="5.55949">
        <ele>818</ele>
        <time>2021-09-04T15:20:42.242Z</time>
      </trkpt>
      <trkpt lat="45.93327" lon="5.55956">
        <ele>818</ele>
        <time>2021-09-04T15:20:47.229Z</time>
      </trkpt>
      <trkpt lat="45.93324" lon="5.55962">
        <ele>817</ele>
        <time>2021-09-04T15:20:51.240Z</time>
      </trkpt>
      <trkpt lat="45.93321" lon="5.55968">
        <ele>817</ele>
        <time>2021-09-04T15:20:56.249Z</time>
      </trkpt>
      <trkpt lat="45.93317" lon="5.55976">
        <ele>816</ele>
        <time>2021-09-04T15:21:01.237Z</time>
      </trkpt>
      <trkpt lat="45.93314" lon="5.55982">
        <ele>816</ele>
        <time>2021-09-04T15:21:05.239Z</time>
      </trkpt>
      <trkpt lat="45.93311" lon="5.55986">
        <ele>813</ele>
        <time>2021-09-04T15:21:09.256Z</time>
      </trkpt>
      <trkpt lat="45.93306" lon="5.55989">
        <ele>813</ele>
        <time>2021-09-04T15:21:14.241Z</time>
      </trkpt>
      <trkpt lat="45.933" lon="5.55989">
        <ele>813</ele>
        <time>2021-09-04T15:21:18.246Z</time>
      </trkpt>
      <trkpt lat="45.93294" lon="5.55991">
        <ele>813</ele>
        <time>2021-09-04T15:21:23.241Z</time>
      </trkpt>
      <trkpt lat="45.9329" lon="5.55993">
        <ele>813</ele>
        <time>2021-09-04T15:21:27.262Z</time>
      </trkpt>
      <trkpt lat="45.93285" lon="5.55997">
        <ele>813</ele>
        <time>2021-09-04T15:21:32.247Z</time>
      </trkpt>
      <trkpt lat="45.93281" lon="5.56002">
        <ele>813</ele>
        <time>2021-09-04T15:21:36.247Z</time>
      </trkpt>
      <trkpt lat="45.93277" lon="5.56009">
        <ele>813</ele>
        <time>2021-09-04T15:21:41.245Z</time>
      </trkpt>
      <trkpt lat="45.93271" lon="5.56013">
        <ele>813</ele>
        <time>2021-09-04T15:21:46.227Z</time>
      </trkpt>
      <trkpt lat="45.93266" lon="5.56016">
        <ele>810</ele>
        <time>2021-09-04T15:21:50.231Z</time>
      </trkpt>
      <trkpt lat="45.9326" lon="5.56018">
        <ele>810</ele>
        <time>2021-09-04T15:21:55.247Z</time>
      </trkpt>
      <trkpt lat="45.93255" lon="5.56019">
        <ele>810</ele>
        <time>2021-09-04T15:21:59.254Z</time>
      </trkpt>
      <trkpt lat="45.93249" lon="5.56018">
        <ele>810</ele>
        <time>2021-09-04T15:22:04.230Z</time>
      </trkpt>
      <trkpt lat="45.93241" lon="5.56017">
        <ele>810</ele>
        <time>2021-09-04T15:22:09.229Z</time>
      </trkpt>
      <trkpt lat="45.93234" lon="5.5602">
        <ele>807</ele>
        <time>2021-09-04T15:22:14.238Z</time>
      </trkpt>
      <trkpt lat="45.93229" lon="5.56023">
        <ele>807</ele>
        <time>2021-09-04T15:22:19.248Z</time>
      </trkpt>
      <trkpt lat="45.93222" lon="5.56026">
        <ele>807</ele>
        <time>2021-09-04T15:22:24.258Z</time>
      </trkpt>
      <trkpt lat="45.93217" lon="5.5603">
        <ele>807</ele>
        <time>2021-09-04T15:22:29.213Z</time>
      </trkpt>
      <trkpt lat="45.93213" lon="5.56032">
        <ele>807</ele>
        <time>2021-09-04T15:22:33.234Z</time>
      </trkpt>
      <trkpt lat="45.93208" lon="5.56036">
        <ele>806</ele>
        <time>2021-09-04T15:22:39.236Z</time>
      </trkpt>
      <trkpt lat="45.932" lon="5.5604">
        <ele>806</ele>
        <time>2021-09-04T15:22:44.246Z</time>
      </trkpt>
      <trkpt lat="45.93194" lon="5.56042">
        <ele>803</ele>
        <time>2021-09-04T15:22:49.250Z</time>
      </trkpt>
      <trkpt lat="45.93189" lon="5.56044">
        <ele>803</ele>
        <time>2021-09-04T15:22:53.255Z</time>
      </trkpt>
      <trkpt lat="45.93183" lon="5.56047">
        <ele>803</ele>
        <time>2021-09-04T15:22:58.237Z</time>
      </trkpt>
      <trkpt lat="45.93179" lon="5.56049">
        <ele>803</ele>
        <time>2021-09-04T15:23:02.267Z</time>
      </trkpt>
      <trkpt lat="45.93173" lon="5.56052">
        <ele>803</ele>
        <time>2021-09-04T15:23:07.243Z</time>
      </trkpt>
      <trkpt lat="45.93168" lon="5.56052">
        <ele>803</ele>
        <time>2021-09-04T15:23:11.252Z</time>
      </trkpt>
      <trkpt lat="45.93162" lon="5.56053">
        <ele>803</ele>
        <time>2021-09-04T15:23:16.242Z</time>
      </trkpt>
      <trkpt lat="45.93156" lon="5.56056">
        <ele>803</ele>
        <time>2021-09-04T15:23:21.236Z</time>
      </trkpt>
      <trkpt lat="45.93151" lon="5.56058">
        <ele>802</ele>
        <time>2021-09-04T15:23:25.242Z</time>
      </trkpt>
      <trkpt lat="45.93146" lon="5.5606">
        <ele>802</ele>
        <time>2021-09-04T15:23:29.249Z</time>
      </trkpt>
      <trkpt lat="45.9314" lon="5.56062">
        <ele>802</ele>
        <time>2021-09-04T15:23:34.256Z</time>
      </trkpt>
      <trkpt lat="45.93137" lon="5.5607">
        <ele>800</ele>
        <time>2021-09-04T15:23:39.249Z</time>
      </trkpt>
      <trkpt lat="45.93136" lon="5.5608">
        <ele>800</ele>
        <time>2021-09-04T15:23:44.238Z</time>
      </trkpt>
      <trkpt lat="45.93137" lon="5.56087">
        <ele>800</ele>
        <time>2021-09-04T15:23:48.247Z</time>
      </trkpt>
      <trkpt lat="45.93141" lon="5.56094">
        <ele>800</ele>
        <time>2021-09-04T15:23:52.257Z</time>
      </trkpt>
      <trkpt lat="45.93145" lon="5.561">
        <ele>796</ele>
        <time>2021-09-04T15:23:57.242Z</time>
      </trkpt>
      <trkpt lat="45.9315" lon="5.56104">
        <ele>796</ele>
        <time>2021-09-04T15:24:02.240Z</time>
      </trkpt>
      <trkpt lat="45.93154" lon="5.5611">
        <ele>796</ele>
        <time>2021-09-04T15:24:07.227Z</time>
      </trkpt>
      <trkpt lat="45.93158" lon="5.56115">
        <ele>796</ele>
        <time>2021-09-04T15:24:11.239Z</time>
      </trkpt>
      <trkpt lat="45.93162" lon="5.56119">
        <ele>796</ele>
        <time>2021-09-04T15:24:15.243Z</time>
      </trkpt>
      <trkpt lat="45.93167" lon="5.56124">
        <ele>796</ele>
        <time>2021-09-04T15:24:20.240Z</time>
      </trkpt>
      <trkpt lat="45.93171" lon="5.5613">
        <ele>793</ele>
        <time>2021-09-04T15:24:25.232Z</time>
      </trkpt>
      <trkpt lat="45.93175" lon="5.56135">
        <ele>793</ele>
        <time>2021-09-04T15:24:29.259Z</time>
      </trkpt>
      <trkpt lat="45.93176" lon="5.56143">
        <ele>793</ele>
        <time>2021-09-04T15:24:34.253Z</time>
      </trkpt>
      <trkpt lat="45.93174" lon="5.56152">
        <ele>793</ele>
        <time>2021-09-04T15:24:39.241Z</time>
      </trkpt>
      <trkpt lat="45.93169" lon="5.56157">
        <ele>790</ele>
        <time>2021-09-04T15:24:44.235Z</time>
      </trkpt>
      <trkpt lat="45.93165" lon="5.5616">
        <ele>790</ele>
        <time>2021-09-04T15:24:48.235Z</time>
      </trkpt>
      <trkpt lat="45.9316" lon="5.56165">
        <ele>790</ele>
        <time>2021-09-04T15:24:53.236Z</time>
      </trkpt>
      <trkpt lat="45.93155" lon="5.56167">
        <ele>790</ele>
        <time>2021-09-04T15:24:57.257Z</time>
      </trkpt>
      <trkpt lat="45.9315" lon="5.5617">
        <ele>789</ele>
        <time>2021-09-04T15:25:02.238Z</time>
      </trkpt>
      <trkpt lat="45.93144" lon="5.56171">
        <ele>789</ele>
        <time>2021-09-04T15:25:07.246Z</time>
      </trkpt>
      <trkpt lat="45.9314" lon="5.56174">
        <ele>789</ele>
        <time>2021-09-04T15:25:11.243Z</time>
      </trkpt>
      <trkpt lat="45.93134" lon="5.56176">
        <ele>789</ele>
        <time>2021-09-04T15:25:16.248Z</time>
      </trkpt>
      <trkpt lat="45.93128" lon="5.56179">
        <ele>789</ele>
        <time>2021-09-04T15:25:21.243Z</time>
      </trkpt>
      <trkpt lat="45.93122" lon="5.5618">
        <ele>786</ele>
        <time>2021-09-04T15:25:26.240Z</time>
      </trkpt>
      <trkpt lat="45.93116" lon="5.56182">
        <ele>783</ele>
        <time>2021-09-04T15:25:31.261Z</time>
      </trkpt>
      <trkpt lat="45.9311" lon="5.56182">
        <ele>783</ele>
        <time>2021-09-04T15:25:36.226Z</time>
      </trkpt>
      <trkpt lat="45.93105" lon="5.56181">
        <ele>786</ele>
        <time>2021-09-04T15:25:40.223Z</time>
      </trkpt>
      <trkpt lat="45.93101" lon="5.5618">
        <ele>786</ele>
        <time>2021-09-04T15:25:44.240Z</time>
      </trkpt>
      <trkpt lat="45.93095" lon="5.56177">
        <ele>783</ele>
        <time>2021-09-04T15:25:49.256Z</time>
      </trkpt>
      <trkpt lat="45.9309" lon="5.56176">
        <ele>783</ele>
        <time>2021-09-04T15:25:54.238Z</time>
      </trkpt>
      <trkpt lat="45.93086" lon="5.56174">
        <ele>783</ele>
        <time>2021-09-04T15:25:58.254Z</time>
      </trkpt>
      <trkpt lat="45.9308" lon="5.56172">
        <ele>783</ele>
        <time>2021-09-04T15:26:03.242Z</time>
      </trkpt>
      <trkpt lat="45.93076" lon="5.56169">
        <ele>783</ele>
        <time>2021-09-04T15:26:07.240Z</time>
      </trkpt>
      <trkpt lat="45.93069" lon="5.56168">
        <ele>781</ele>
        <time>2021-09-04T15:26:12.247Z</time>
      </trkpt>
      <trkpt lat="45.93062" lon="5.56168">
        <ele>781</ele>
        <time>2021-09-04T15:26:17.237Z</time>
      </trkpt>
      <trkpt lat="45.93055" lon="5.56169">
        <ele>781</ele>
        <time>2021-09-04T15:26:21.268Z</time>
      </trkpt>
      <trkpt lat="45.93049" lon="5.56171">
        <ele>781</ele>
        <time>2021-09-04T15:26:26.206Z</time>
      </trkpt>
      <trkpt lat="45.93044" lon="5.56172">
        <ele>781</ele>
        <time>2021-09-04T15:26:30.230Z</time>
      </trkpt>
      <trkpt lat="45.93038" lon="5.56176">
        <ele>783</ele>
        <time>2021-09-04T15:26:34.244Z</time>
      </trkpt>
      <trkpt lat="45.93032" lon="5.5618">
        <ele>783</ele>
        <time>2021-09-04T15:26:39.218Z</time>
      </trkpt>
      <trkpt lat="45.93026" lon="5.56184">
        <ele>780</ele>
        <time>2021-09-04T15:26:44.236Z</time>
      </trkpt>
      <trkpt lat="45.93019" lon="5.56187">
        <ele>780</ele>
        <time>2021-09-04T15:26:49.231Z</time>
      </trkpt>
      <trkpt lat="45.93013" lon="5.56192">
        <ele>780</ele>
        <time>2021-09-04T15:26:54.251Z</time>
      </trkpt>
      <trkpt lat="45.93006" lon="5.56199">
        <ele>780</ele>
        <time>2021-09-04T15:26:59.244Z</time>
      </trkpt>
      <trkpt lat="45.93" lon="5.56202">
        <ele>780</ele>
        <time>2021-09-04T15:27:04.248Z</time>
      </trkpt>
      <trkpt lat="45.92994" lon="5.56208">
        <ele>780</ele>
        <time>2021-09-04T15:27:09.241Z</time>
      </trkpt>
      <trkpt lat="45.92992" lon="5.56219">
        <ele>778</ele>
        <time>2021-09-04T15:27:13.249Z</time>
      </trkpt>
      <trkpt lat="45.92989" lon="5.56229">
        <ele>778</ele>
        <time>2021-09-04T15:27:18.248Z</time>
      </trkpt>
      <trkpt lat="45.92985" lon="5.56234">
        <ele>779</ele>
        <time>2021-09-04T15:27:22.296Z</time>
      </trkpt>
      <trkpt lat="45.92978" lon="5.56236">
        <ele>779</ele>
        <time>2021-09-04T15:27:27.256Z</time>
      </trkpt>
      <trkpt lat="45.92971" lon="5.56236">
        <ele>778</ele>
        <time>2021-09-04T15:27:32.236Z</time>
      </trkpt>
      <trkpt lat="45.92963" lon="5.56238">
        <ele>778</ele>
        <time>2021-09-04T15:27:37.225Z</time>
      </trkpt>
      <trkpt lat="45.92955" lon="5.56241">
        <ele>776</ele>
        <time>2021-09-04T15:27:41.245Z</time>
      </trkpt>
      <trkpt lat="45.92948" lon="5.56243">
        <ele>776</ele>
        <time>2021-09-04T15:27:45.285Z</time>
      </trkpt>
      <trkpt lat="45.92941" lon="5.56246">
        <ele>776</ele>
        <time>2021-09-04T15:27:49.300Z</time>
      </trkpt>
      <trkpt lat="45.92934" lon="5.5625">
        <ele>776</ele>
        <time>2021-09-04T15:27:54.242Z</time>
      </trkpt>
      <trkpt lat="45.92926" lon="5.56255">
        <ele>773</ele>
        <time>2021-09-04T15:27:59.275Z</time>
      </trkpt>
      <trkpt lat="45.92918" lon="5.56258">
        <ele>773</ele>
        <time>2021-09-04T15:28:04.248Z</time>
      </trkpt>
      <trkpt lat="45.92912" lon="5.5626">
        <ele>773</ele>
        <time>2021-09-04T15:28:08.270Z</time>
      </trkpt>
      <trkpt lat="45.92892" lon="5.56263">
        <ele>772</ele>
        <time>2021-09-04T15:28:27.255Z</time>
      </trkpt>
      <trkpt lat="45.92891" lon="5.56266">
        <ele>771</ele>
        <time>2021-09-04T15:28:32.246Z</time>
      </trkpt>
      <trkpt lat="45.9289" lon="5.56266">
        <ele>771</ele>
        <time>2021-09-04T15:28:37.267Z</time>
      </trkpt>
      <trkpt lat="45.92889" lon="5.56265">
        <ele>771</ele>
        <time>2021-09-04T15:28:41.286Z</time>
      </trkpt>
      <trkpt lat="45.92889" lon="5.56265">
        <ele>771</ele>
        <time>2021-09-04T15:28:46.241Z</time>
      </trkpt>
      <trkpt lat="45.92888" lon="5.56264">
        <ele>771</ele>
        <time>2021-09-04T15:28:51.268Z</time>
      </trkpt>
      <trkpt lat="45.92884" lon="5.56263">
        <ele>772</ele>
        <time>2021-09-04T15:28:55.272Z</time>
      </trkpt>
      <trkpt lat="45.92876" lon="5.56264">
        <ele>771</ele>
        <time>2021-09-04T15:29:00.249Z</time>
      </trkpt>
      <trkpt lat="45.92867" lon="5.56266">
        <ele>770</ele>
        <time>2021-09-04T15:29:05.267Z</time>
      </trkpt>
      <trkpt lat="45.92858" lon="5.56269">
        <ele>770</ele>
        <time>2021-09-04T15:29:10.250Z</time>
      </trkpt>
      <trkpt lat="45.92843" lon="5.56275">
        <ele>770</ele>
        <time>2021-09-04T15:29:15.307Z</time>
      </trkpt>
      <trkpt lat="45.92831" lon="5.5628">
        <ele>770</ele>
        <time>2021-09-04T15:29:20.282Z</time>
      </trkpt>
      <trkpt lat="45.9282" lon="5.56286">
        <ele>770</ele>
        <time>2021-09-04T15:29:25.240Z</time>
      </trkpt>
      <trkpt lat="45.92808" lon="5.56292">
        <ele>770</ele>
        <time>2021-09-04T15:29:30.242Z</time>
      </trkpt>
      <trkpt lat="45.92795" lon="5.56298">
        <ele>770</ele>
        <time>2021-09-04T15:29:35.243Z</time>
      </trkpt>
      <trkpt lat="45.92781" lon="5.56304">
        <ele>772</ele>
        <time>2021-09-04T15:29:40.225Z</time>
      </trkpt>
      <trkpt lat="45.9277" lon="5.56309">
        <ele>772</ele>
        <time>2021-09-04T15:29:44.296Z</time>
      </trkpt>
      <trkpt lat="45.92757" lon="5.56314">
        <ele>772</ele>
        <time>2021-09-04T15:29:49.277Z</time>
      </trkpt>
      <trkpt lat="45.92745" lon="5.5632">
        <ele>771</ele>
        <time>2021-09-04T15:29:54.230Z</time>
      </trkpt>
      <trkpt lat="45.92735" lon="5.56325">
        <ele>771</ele>
        <time>2021-09-04T15:29:58.240Z</time>
      </trkpt>
      <trkpt lat="45.92724" lon="5.5633">
        <ele>771</ele>
        <time>2021-09-04T15:30:02.242Z</time>
      </trkpt>
      <trkpt lat="45.92713" lon="5.56333">
        <ele>771</ele>
        <time>2021-09-04T15:30:06.275Z</time>
      </trkpt>
      <trkpt lat="45.927" lon="5.56338">
        <ele>773</ele>
        <time>2021-09-04T15:30:11.314Z</time>
      </trkpt>
      <trkpt lat="45.92687" lon="5.56346">
        <ele>773</ele>
        <time>2021-09-04T15:30:16.270Z</time>
      </trkpt>
      <trkpt lat="45.92676" lon="5.56351">
        <ele>772</ele>
        <time>2021-09-04T15:30:20.295Z</time>
      </trkpt>
      <trkpt lat="45.92661" lon="5.56358">
        <ele>772</ele>
        <time>2021-09-04T15:30:25.270Z</time>
      </trkpt>
      <trkpt lat="45.92648" lon="5.56363">
        <ele>771</ele>
        <time>2021-09-04T15:30:29.280Z</time>
      </trkpt>
      <trkpt lat="45.92633" lon="5.5637">
        <ele>771</ele>
        <time>2021-09-04T15:30:34.248Z</time>
      </trkpt>
      <trkpt lat="45.92621" lon="5.56376">
        <ele>772</ele>
        <time>2021-09-04T15:30:38.274Z</time>
      </trkpt>
      <trkpt lat="45.92607" lon="5.56384">
        <ele>772</ele>
        <time>2021-09-04T15:30:43.280Z</time>
      </trkpt>
      <trkpt lat="45.92597" lon="5.5639">
        <ele>773</ele>
        <time>2021-09-04T15:30:48.267Z</time>
      </trkpt>
      <trkpt lat="45.92587" lon="5.56394">
        <ele>773</ele>
        <time>2021-09-04T15:30:53.220Z</time>
      </trkpt>
      <trkpt lat="45.92581" lon="5.56398">
        <ele>773</ele>
        <time>2021-09-04T15:30:57.246Z</time>
      </trkpt>
      <trkpt lat="45.92574" lon="5.56402">
        <ele>773</ele>
        <time>2021-09-04T15:31:02.285Z</time>
      </trkpt>
      <trkpt lat="45.92567" lon="5.56405">
        <ele>776</ele>
        <time>2021-09-04T15:31:07.280Z</time>
      </trkpt>
      <trkpt lat="45.9256" lon="5.56408">
        <ele>776</ele>
        <time>2021-09-04T15:31:12.253Z</time>
      </trkpt>
      <trkpt lat="45.92554" lon="5.5641">
        <ele>776</ele>
        <time>2021-09-04T15:31:16.275Z</time>
      </trkpt>
      <trkpt lat="45.92547" lon="5.5641">
        <ele>776</ele>
        <time>2021-09-04T15:31:21.238Z</time>
      </trkpt>
      <trkpt lat="45.92541" lon="5.56413">
        <ele>777</ele>
        <time>2021-09-04T15:31:25.274Z</time>
      </trkpt>
      <trkpt lat="45.92536" lon="5.56417">
        <ele>777</ele>
        <time>2021-09-04T15:31:29.274Z</time>
      </trkpt>
      <trkpt lat="45.92529" lon="5.56421">
        <ele>777</ele>
        <time>2021-09-04T15:31:34.247Z</time>
      </trkpt>
      <trkpt lat="45.92523" lon="5.56422">
        <ele>777</ele>
        <time>2021-09-04T15:31:38.280Z</time>
      </trkpt>
      <trkpt lat="45.92516" lon="5.56423">
        <ele>777</ele>
        <time>2021-09-04T15:31:43.248Z</time>
      </trkpt>
      <trkpt lat="45.9251" lon="5.56423">
        <ele>774</ele>
        <time>2021-09-04T15:31:47.276Z</time>
      </trkpt>
      <trkpt lat="45.92503" lon="5.56422">
        <ele>774</ele>
        <time>2021-09-04T15:31:52.273Z</time>
      </trkpt>
      <trkpt lat="45.92496" lon="5.5642">
        <ele>774</ele>
        <time>2021-09-04T15:31:57.294Z</time>
      </trkpt>
      <trkpt lat="45.92488" lon="5.56418">
        <ele>774</ele>
        <time>2021-09-04T15:32:02.285Z</time>
      </trkpt>
      <trkpt lat="45.92481" lon="5.56418">
        <ele>773</ele>
        <time>2021-09-04T15:32:07.288Z</time>
      </trkpt>
      <trkpt lat="45.92475" lon="5.56417">
        <ele>773</ele>
        <time>2021-09-04T15:32:11.287Z</time>
      </trkpt>
      <trkpt lat="45.92468" lon="5.56418">
        <ele>773</ele>
        <time>2021-09-04T15:32:16.230Z</time>
      </trkpt>
      <trkpt lat="45.92462" lon="5.56419">
        <ele>773</ele>
        <time>2021-09-04T15:32:20.287Z</time>
      </trkpt>
      <trkpt lat="45.92454" lon="5.56419">
        <ele>772</ele>
        <time>2021-09-04T15:32:25.273Z</time>
      </trkpt>
      <trkpt lat="45.92448" lon="5.5642">
        <ele>772</ele>
        <time>2021-09-04T15:32:30.248Z</time>
      </trkpt>
      <trkpt lat="45.92442" lon="5.56422">
        <ele>772</ele>
        <time>2021-09-04T15:32:35.240Z</time>
      </trkpt>
      <trkpt lat="45.92435" lon="5.56425">
        <ele>772</ele>
        <time>2021-09-04T15:32:40.243Z</time>
      </trkpt>
      <trkpt lat="45.92429" lon="5.56427">
        <ele>772</ele>
        <time>2021-09-04T15:32:45.268Z</time>
      </trkpt>
      <trkpt lat="45.92422" lon="5.56428">
        <ele>772</ele>
        <time>2021-09-04T15:32:50.250Z</time>
      </trkpt>
      <trkpt lat="45.92415" lon="5.5643">
        <ele>772</ele>
        <time>2021-09-04T15:32:55.234Z</time>
      </trkpt>
      <trkpt lat="45.9241" lon="5.56432">
        <ele>772</ele>
        <time>2021-09-04T15:32:59.235Z</time>
      </trkpt>
      <trkpt lat="45.92405" lon="5.56433">
        <ele>772</ele>
        <time>2021-09-04T15:33:03.248Z</time>
      </trkpt>
      <trkpt lat="45.92398" lon="5.56436">
        <ele>773</ele>
        <time>2021-09-04T15:33:08.272Z</time>
      </trkpt>
      <trkpt lat="45.92392" lon="5.56438">
        <ele>773</ele>
        <time>2021-09-04T15:33:13.246Z</time>
      </trkpt>
      <trkpt lat="45.92385" lon="5.56438">
        <ele>773</ele>
        <time>2021-09-04T15:33:18.239Z</time>
      </trkpt>
      <trkpt lat="45.92378" lon="5.56438">
        <ele>773</ele>
        <time>2021-09-04T15:33:23.293Z</time>
      </trkpt>
      <trkpt lat="45.92371" lon="5.5644">
        <ele>774</ele>
        <time>2021-09-04T15:33:28.278Z</time>
      </trkpt>
      <trkpt lat="45.92364" lon="5.56442">
        <ele>774</ele>
        <time>2021-09-04T15:33:33.245Z</time>
      </trkpt>
      <trkpt lat="45.92358" lon="5.56442">
        <ele>774</ele>
        <time>2021-09-04T15:33:38.236Z</time>
      </trkpt>
      <trkpt lat="45.92351" lon="5.56446">
        <ele>774</ele>
        <time>2021-09-04T15:33:43.237Z</time>
      </trkpt>
      <trkpt lat="45.92344" lon="5.56449">
        <ele>774</ele>
        <time>2021-09-04T15:33:48.298Z</time>
      </trkpt>
      <trkpt lat="45.92337" lon="5.56448">
        <ele>774</ele>
        <time>2021-09-04T15:33:53.244Z</time>
      </trkpt>
      <trkpt lat="45.92329" lon="5.56449">
        <ele>774</ele>
        <time>2021-09-04T15:33:58.274Z</time>
      </trkpt>
      <trkpt lat="45.92318" lon="5.56451">
        <ele>775</ele>
        <time>2021-09-04T15:34:03.243Z</time>
      </trkpt>
      <trkpt lat="45.92299" lon="5.56455">
        <ele>775</ele>
        <time>2021-09-04T15:34:08.241Z</time>
      </trkpt>
      <trkpt lat="45.92281" lon="5.5646">
        <ele>775</ele>
        <time>2021-09-04T15:34:13.268Z</time>
      </trkpt>
      <trkpt lat="45.92262" lon="5.56467">
        <ele>774</ele>
        <time>2021-09-04T15:34:18.277Z</time>
      </trkpt>
      <trkpt lat="45.92245" lon="5.56474">
        <ele>774</ele>
        <time>2021-09-04T15:34:23.241Z</time>
      </trkpt>
      <trkpt lat="45.92239" lon="5.56478">
        <ele>774</ele>
        <time>2021-09-04T15:34:27.265Z</time>
      </trkpt>
      <trkpt lat="45.9223" lon="5.56486">
        <ele>773</ele>
        <time>2021-09-04T15:34:32.267Z</time>
      </trkpt>
      <trkpt lat="45.92221" lon="5.56487">
        <ele>774</ele>
        <time>2021-09-04T15:34:36.278Z</time>
      </trkpt>
      <trkpt lat="45.92207" lon="5.56482">
        <ele>772</ele>
        <time>2021-09-04T15:34:41.239Z</time>
      </trkpt>
      <trkpt lat="45.92194" lon="5.56481">
        <ele>772</ele>
        <time>2021-09-04T15:34:45.280Z</time>
      </trkpt>
      <trkpt lat="45.92179" lon="5.56481">
        <ele>772</ele>
        <time>2021-09-04T15:34:49.281Z</time>
      </trkpt>
      <trkpt lat="45.92158" lon="5.5648">
        <ele>772</ele>
        <time>2021-09-04T15:34:54.208Z</time>
      </trkpt>
      <trkpt lat="45.92145" lon="5.5648">
        <ele>773</ele>
        <time>2021-09-04T15:34:58.276Z</time>
      </trkpt>
      <trkpt lat="45.9213" lon="5.56481">
        <ele>773</ele>
        <time>2021-09-04T15:35:03.242Z</time>
      </trkpt>
      <trkpt lat="45.92116" lon="5.56481">
        <ele>773</ele>
        <time>2021-09-04T15:35:08.237Z</time>
      </trkpt>
      <trkpt lat="45.92105" lon="5.56482">
        <ele>773</ele>
        <time>2021-09-04T15:35:13.263Z</time>
      </trkpt>
      <trkpt lat="45.92094" lon="5.56483">
        <ele>773</ele>
        <time>2021-09-04T15:35:18.225Z</time>
      </trkpt>
      <trkpt lat="45.92085" lon="5.56484">
        <ele>773</ele>
        <time>2021-09-04T15:35:22.242Z</time>
      </trkpt>
      <trkpt lat="45.92075" lon="5.56486">
        <ele>773</ele>
        <time>2021-09-04T15:35:27.237Z</time>
      </trkpt>
      <trkpt lat="45.92066" lon="5.56486">
        <ele>773</ele>
        <time>2021-09-04T15:35:31.235Z</time>
      </trkpt>
      <trkpt lat="45.92059" lon="5.56487">
        <ele>773</ele>
        <time>2021-09-04T15:35:35.273Z</time>
      </trkpt>
      <trkpt lat="45.92049" lon="5.56487">
        <ele>773</ele>
        <time>2021-09-04T15:35:40.249Z</time>
      </trkpt>
      <trkpt lat="45.9204" lon="5.56486">
        <ele>772</ele>
        <time>2021-09-04T15:35:45.249Z</time>
      </trkpt>
      <trkpt lat="45.92031" lon="5.56486">
        <ele>772</ele>
        <time>2021-09-04T15:35:50.273Z</time>
      </trkpt>
      <trkpt lat="45.92017" lon="5.56485">
        <ele>772</ele>
        <time>2021-09-04T15:35:55.275Z</time>
      </trkpt>
      <trkpt lat="45.91995" lon="5.56483">
        <ele>774</ele>
        <time>2021-09-04T15:36:00.273Z</time>
      </trkpt>
      <trkpt lat="45.91983" lon="5.56482">
        <ele>775</ele>
        <time>2021-09-04T15:36:05.244Z</time>
      </trkpt>
      <trkpt lat="45.91973" lon="5.56482">
        <ele>775</ele>
        <time>2021-09-04T15:36:10.236Z</time>
      </trkpt>
      <trkpt lat="45.91962" lon="5.56482">
        <ele>775</ele>
        <time>2021-09-04T15:36:15.243Z</time>
      </trkpt>
      <trkpt lat="45.91946" lon="5.56481">
        <ele>773</ele>
        <time>2021-09-04T15:36:19.273Z</time>
      </trkpt>
      <trkpt lat="45.91925" lon="5.56484">
        <ele>772</ele>
        <time>2021-09-04T15:36:24.246Z</time>
      </trkpt>
      <trkpt lat="45.91914" lon="5.56488">
        <ele>773</ele>
        <time>2021-09-04T15:36:28.246Z</time>
      </trkpt>
      <trkpt lat="45.91906" lon="5.56488">
        <ele>773</ele>
        <time>2021-09-04T15:36:32.280Z</time>
      </trkpt>
      <trkpt lat="45.9189" lon="5.56489">
        <ele>773</ele>
        <time>2021-09-04T15:36:37.262Z</time>
      </trkpt>
      <trkpt lat="45.91876" lon="5.56489">
        <ele>773</ele>
        <time>2021-09-04T15:36:42.276Z</time>
      </trkpt>
      <trkpt lat="45.91865" lon="5.5649">
        <ele>773</ele>
        <time>2021-09-04T15:36:47.243Z</time>
      </trkpt>
      <trkpt lat="45.91856" lon="5.56489">
        <ele>773</ele>
        <time>2021-09-04T15:36:51.242Z</time>
      </trkpt>
      <trkpt lat="45.91845" lon="5.56488">
        <ele>774</ele>
        <time>2021-09-04T15:36:56.277Z</time>
      </trkpt>
      <trkpt lat="45.91834" lon="5.56487">
        <ele>774</ele>
        <time>2021-09-04T15:37:01.269Z</time>
      </trkpt>
      <trkpt lat="45.91826" lon="5.56482">
        <ele>774</ele>
        <time>2021-09-04T15:37:05.279Z</time>
      </trkpt>
      <trkpt lat="45.91814" lon="5.56476">
        <ele>776</ele>
        <time>2021-09-04T15:37:10.257Z</time>
      </trkpt>
      <trkpt lat="45.91801" lon="5.56471">
        <ele>776</ele>
        <time>2021-09-04T15:37:15.248Z</time>
      </trkpt>
      <trkpt lat="45.91793" lon="5.56468">
        <ele>776</ele>
        <time>2021-09-04T15:37:19.267Z</time>
      </trkpt>
      <trkpt lat="45.91784" lon="5.56465">
        <ele>777</ele>
        <time>2021-09-04T15:37:23.284Z</time>
      </trkpt>
      <trkpt lat="45.91776" lon="5.56461">
        <ele>777</ele>
        <time>2021-09-04T15:37:28.246Z</time>
      </trkpt>
      <trkpt lat="45.91769" lon="5.56459">
        <ele>777</ele>
        <time>2021-09-04T15:37:32.273Z</time>
      </trkpt>
      <trkpt lat="45.91761" lon="5.56458">
        <ele>782</ele>
        <time>2021-09-04T15:37:37.254Z</time>
      </trkpt>
      <trkpt lat="45.91754" lon="5.56458">
        <ele>780</ele>
        <time>2021-09-04T15:37:41.277Z</time>
      </trkpt>
      <trkpt lat="45.91747" lon="5.56456">
        <ele>782</ele>
        <time>2021-09-04T15:37:46.258Z</time>
      </trkpt>
      <trkpt lat="45.91739" lon="5.56455">
        <ele>782</ele>
        <time>2021-09-04T15:37:51.242Z</time>
      </trkpt>
      <trkpt lat="45.91733" lon="5.56454">
        <ele>784</ele>
        <time>2021-09-04T15:37:55.246Z</time>
      </trkpt>
      <trkpt lat="45.91727" lon="5.56454">
        <ele>784</ele>
        <time>2021-09-04T15:37:59.277Z</time>
      </trkpt>
      <trkpt lat="45.9172" lon="5.56452">
        <ele>784</ele>
        <time>2021-09-04T15:38:04.260Z</time>
      </trkpt>
      <trkpt lat="45.91713" lon="5.56452">
        <ele>784</ele>
        <time>2021-09-04T15:38:09.264Z</time>
      </trkpt>
      <trkpt lat="45.91708" lon="5.56451">
        <ele>786</ele>
        <time>2021-09-04T15:38:13.270Z</time>
      </trkpt>
      <trkpt lat="45.91701" lon="5.56451">
        <ele>786</ele>
        <time>2021-09-04T15:38:18.238Z</time>
      </trkpt>
      <trkpt lat="45.91696" lon="5.56452">
        <ele>786</ele>
        <time>2021-09-04T15:38:22.284Z</time>
      </trkpt>
      <trkpt lat="45.91689" lon="5.56449">
        <ele>786</ele>
        <time>2021-09-04T15:38:27.262Z</time>
      </trkpt>
      <trkpt lat="45.91682" lon="5.56449">
        <ele>786</ele>
        <time>2021-09-04T15:38:32.234Z</time>
      </trkpt>
      <trkpt lat="45.91677" lon="5.56451">
        <ele>787</ele>
        <time>2021-09-04T15:38:36.243Z</time>
      </trkpt>
      <trkpt lat="45.91672" lon="5.56454">
        <ele>787</ele>
        <time>2021-09-04T15:38:41.239Z</time>
      </trkpt>
      <trkpt lat="45.91665" lon="5.56455">
        <ele>787</ele>
        <time>2021-09-04T15:38:46.238Z</time>
      </trkpt>
      <trkpt lat="45.91658" lon="5.56456">
        <ele>787</ele>
        <time>2021-09-04T15:38:51.248Z</time>
      </trkpt>
      <trkpt lat="45.91651" lon="5.56457">
        <ele>787</ele>
        <time>2021-09-04T15:38:56.245Z</time>
      </trkpt>
      <trkpt lat="45.91645" lon="5.56458">
        <ele>787</ele>
        <time>2021-09-04T15:39:01.245Z</time>
      </trkpt>
      <trkpt lat="45.91639" lon="5.56459">
        <ele>785</ele>
        <time>2021-09-04T15:39:05.270Z</time>
      </trkpt>
      <trkpt lat="45.91633" lon="5.56462">
        <ele>785</ele>
        <time>2021-09-04T15:39:10.235Z</time>
      </trkpt>
      <trkpt lat="45.91628" lon="5.56464">
        <ele>785</ele>
        <time>2021-09-04T15:39:14.246Z</time>
      </trkpt>
      <trkpt lat="45.91623" lon="5.56467">
        <ele>786</ele>
        <time>2021-09-04T15:39:18.281Z</time>
      </trkpt>
      <trkpt lat="45.91617" lon="5.5647">
        <ele>786</ele>
        <time>2021-09-04T15:39:23.242Z</time>
      </trkpt>
      <trkpt lat="45.91611" lon="5.56472">
        <ele>786</ele>
        <time>2021-09-04T15:39:28.204Z</time>
      </trkpt>
      <trkpt lat="45.91606" lon="5.5647">
        <ele>786</ele>
        <time>2021-09-04T15:39:32.212Z</time>
      </trkpt>
      <trkpt lat="45.91601" lon="5.56469">
        <ele>786</ele>
        <time>2021-09-04T15:39:36.238Z</time>
      </trkpt>
      <trkpt lat="45.91595" lon="5.56469">
        <ele>788</ele>
        <time>2021-09-04T15:39:41.305Z</time>
      </trkpt>
      <trkpt lat="45.91589" lon="5.56472">
        <ele>788</ele>
        <time>2021-09-04T15:39:46.241Z</time>
      </trkpt>
      <trkpt lat="45.91584" lon="5.56473">
        <ele>788</ele>
        <time>2021-09-04T15:39:50.295Z</time>
      </trkpt>
      <trkpt lat="45.91577" lon="5.56474">
        <ele>788</ele>
        <time>2021-09-04T15:39:55.240Z</time>
      </trkpt>
      <trkpt lat="45.91572" lon="5.56474">
        <ele>788</ele>
        <time>2021-09-04T15:39:59.303Z</time>
      </trkpt>
      <trkpt lat="45.91565" lon="5.56476">
        <ele>789</ele>
        <time>2021-09-04T15:40:04.242Z</time>
      </trkpt>
      <trkpt lat="45.91558" lon="5.56479">
        <ele>789</ele>
        <time>2021-09-04T15:40:09.230Z</time>
      </trkpt>
      <trkpt lat="45.91552" lon="5.56481">
        <ele>789</ele>
        <time>2021-09-04T15:40:13.250Z</time>
      </trkpt>
      <trkpt lat="45.91546" lon="5.56485">
        <ele>789</ele>
        <time>2021-09-04T15:40:18.256Z</time>
      </trkpt>
      <trkpt lat="45.9154" lon="5.5649">
        <ele>787</ele>
        <time>2021-09-04T15:40:23.253Z</time>
      </trkpt>
      <trkpt lat="45.91535" lon="5.56494">
        <ele>787</ele>
        <time>2021-09-04T15:40:27.255Z</time>
      </trkpt>
      <trkpt lat="45.91529" lon="5.56499">
        <ele>787</ele>
        <time>2021-09-04T15:40:32.245Z</time>
      </trkpt>
      <trkpt lat="45.91522" lon="5.56503">
        <ele>787</ele>
        <time>2021-09-04T15:40:37.253Z</time>
      </trkpt>
      <trkpt lat="45.91518" lon="5.56506">
        <ele>787</ele>
        <time>2021-09-04T15:40:41.268Z</time>
      </trkpt>
      <trkpt lat="45.91513" lon="5.56507">
        <ele>789</ele>
        <time>2021-09-04T15:40:45.280Z</time>
      </trkpt>
      <trkpt lat="45.91507" lon="5.56509">
        <ele>789</ele>
        <time>2021-09-04T15:40:50.267Z</time>
      </trkpt>
      <trkpt lat="45.91501" lon="5.56512">
        <ele>789</ele>
        <time>2021-09-04T15:40:55.275Z</time>
      </trkpt>
      <trkpt lat="45.91494" lon="5.56515">
        <ele>787</ele>
        <time>2021-09-04T15:41:00.222Z</time>
      </trkpt>
      <trkpt lat="45.91489" lon="5.56519">
        <ele>787</ele>
        <time>2021-09-04T15:41:04.253Z</time>
      </trkpt>
      <trkpt lat="45.91483" lon="5.56522">
        <ele>790</ele>
        <time>2021-09-04T15:41:09.236Z</time>
      </trkpt>
      <trkpt lat="45.91477" lon="5.56525">
        <ele>790</ele>
        <time>2021-09-04T15:41:13.240Z</time>
      </trkpt>
      <trkpt lat="45.91472" lon="5.56528">
        <ele>790</ele>
        <time>2021-09-04T15:41:17.247Z</time>
      </trkpt>
      <trkpt lat="45.91465" lon="5.56533">
        <ele>790</ele>
        <time>2021-09-04T15:41:22.260Z</time>
      </trkpt>
      <trkpt lat="45.91459" lon="5.56538">
        <ele>790</ele>
        <time>2021-09-04T15:41:27.258Z</time>
      </trkpt>
      <trkpt lat="45.91454" lon="5.56541">
        <ele>792</ele>
        <time>2021-09-04T15:41:31.265Z</time>
      </trkpt>
      <trkpt lat="45.91447" lon="5.56544">
        <ele>789</ele>
        <time>2021-09-04T15:41:36.264Z</time>
      </trkpt>
      <trkpt lat="45.9144" lon="5.56545">
        <ele>789</ele>
        <time>2021-09-04T15:41:41.250Z</time>
      </trkpt>
      <trkpt lat="45.91434" lon="5.56547">
        <ele>789</ele>
        <time>2021-09-04T15:41:45.258Z</time>
      </trkpt>
      <trkpt lat="45.91428" lon="5.56548">
        <ele>786</ele>
        <time>2021-09-04T15:41:50.249Z</time>
      </trkpt>
      <trkpt lat="45.91422" lon="5.56549">
        <ele>786</ele>
        <time>2021-09-04T15:41:54.255Z</time>
      </trkpt>
      <trkpt lat="45.91417" lon="5.56552">
        <ele>786</ele>
        <time>2021-09-04T15:41:58.264Z</time>
      </trkpt>
      <trkpt lat="45.91409" lon="5.56556">
        <ele>786</ele>
        <time>2021-09-04T15:42:03.225Z</time>
      </trkpt>
      <trkpt lat="45.91404" lon="5.56558">
        <ele>786</ele>
        <time>2021-09-04T15:42:07.245Z</time>
      </trkpt>
      <trkpt lat="45.91399" lon="5.56561">
        <ele>788</ele>
        <time>2021-09-04T15:42:12.239Z</time>
      </trkpt>
      <trkpt lat="45.91393" lon="5.56566">
        <ele>788</ele>
        <time>2021-09-04T15:42:17.256Z</time>
      </trkpt>
      <trkpt lat="45.91388" lon="5.56572">
        <ele>786</ele>
        <time>2021-09-04T15:42:22.234Z</time>
      </trkpt>
      <trkpt lat="45.91383" lon="5.56578">
        <ele>786</ele>
        <time>2021-09-04T15:42:27.259Z</time>
      </trkpt>
      <trkpt lat="45.91378" lon="5.56583">
        <ele>786</ele>
        <time>2021-09-04T15:42:32.247Z</time>
      </trkpt>
      <trkpt lat="45.91374" lon="5.56586">
        <ele>787</ele>
        <time>2021-09-04T15:42:36.249Z</time>
      </trkpt>
      <trkpt lat="45.9137" lon="5.56592">
        <ele>787</ele>
        <time>2021-09-04T15:42:41.240Z</time>
      </trkpt>
      <trkpt lat="45.91366" lon="5.56597">
        <ele>787</ele>
        <time>2021-09-04T15:42:45.255Z</time>
      </trkpt>
      <trkpt lat="45.9136" lon="5.566">
        <ele>785</ele>
        <time>2021-09-04T15:42:50.249Z</time>
      </trkpt>
      <trkpt lat="45.91354" lon="5.56601">
        <ele>785</ele>
        <time>2021-09-04T15:42:55.254Z</time>
      </trkpt>
      <trkpt lat="45.91348" lon="5.56602">
        <ele>785</ele>
        <time>2021-09-04T15:43:00.216Z</time>
      </trkpt>
      <trkpt lat="45.91343" lon="5.56601">
        <ele>785</ele>
        <time>2021-09-04T15:43:04.254Z</time>
      </trkpt>
      <trkpt lat="45.91337" lon="5.56601">
        <ele>785</ele>
        <time>2021-09-04T15:43:09.254Z</time>
      </trkpt>
      <trkpt lat="45.91331" lon="5.56598">
        <ele>785</ele>
        <time>2021-09-04T15:43:14.230Z</time>
      </trkpt>
      <trkpt lat="45.91329" lon="5.56598">
        <ele>785</ele>
        <time>2021-09-04T15:43:18.241Z</time>
      </trkpt>
      <trkpt lat="45.91325" lon="5.56598">
        <ele>785</ele>
        <time>2021-09-04T15:43:22.249Z</time>
      </trkpt>
      <trkpt lat="45.91319" lon="5.56603">
        <ele>785</ele>
        <time>2021-09-04T15:44:45.247Z</time>
      </trkpt>
      <trkpt lat="45.91314" lon="5.56605">
        <ele>785</ele>
        <time>2021-09-04T15:44:49.254Z</time>
      </trkpt>
      <trkpt lat="45.91309" lon="5.56606">
        <ele>785</ele>
        <time>2021-09-04T15:44:53.261Z</time>
      </trkpt>
      <trkpt lat="45.91303" lon="5.56607">
        <ele>785</ele>
        <time>2021-09-04T15:44:58.219Z</time>
      </trkpt>
      <trkpt lat="45.91298" lon="5.56609">
        <ele>785</ele>
        <time>2021-09-04T15:45:02.250Z</time>
      </trkpt>
      <trkpt lat="45.91292" lon="5.5661">
        <ele>784</ele>
        <time>2021-09-04T15:45:07.250Z</time>
      </trkpt>
      <trkpt lat="45.91287" lon="5.56615">
        <ele>784</ele>
        <time>2021-09-04T15:45:12.246Z</time>
      </trkpt>
      <trkpt lat="45.91281" lon="5.56619">
        <ele>784</ele>
        <time>2021-09-04T15:45:16.247Z</time>
      </trkpt>
      <trkpt lat="45.91277" lon="5.56624">
        <ele>784</ele>
        <time>2021-09-04T15:45:20.256Z</time>
      </trkpt>
      <trkpt lat="45.91272" lon="5.5663">
        <ele>782</ele>
        <time>2021-09-04T15:45:25.250Z</time>
      </trkpt>
      <trkpt lat="45.91268" lon="5.56638">
        <ele>782</ele>
        <time>2021-09-04T15:45:30.253Z</time>
      </trkpt>
      <trkpt lat="45.91265" lon="5.56644">
        <ele>782</ele>
        <time>2021-09-04T15:45:34.262Z</time>
      </trkpt>
      <trkpt lat="45.91261" lon="5.56651">
        <ele>781</ele>
        <time>2021-09-04T15:45:39.242Z</time>
      </trkpt>
      <trkpt lat="45.91257" lon="5.56659">
        <ele>781</ele>
        <time>2021-09-04T15:45:44.248Z</time>
      </trkpt>
      <trkpt lat="45.91254" lon="5.56668">
        <ele>781</ele>
        <time>2021-09-04T15:45:49.245Z</time>
      </trkpt>
      <trkpt lat="45.9125" lon="5.56675">
        <ele>781</ele>
        <time>2021-09-04T15:45:54.281Z</time>
      </trkpt>
      <trkpt lat="45.91246" lon="5.56684">
        <ele>781</ele>
        <time>2021-09-04T15:45:59.251Z</time>
      </trkpt>
      <trkpt lat="45.91243" lon="5.56691">
        <ele>781</ele>
        <time>2021-09-04T15:46:04.238Z</time>
      </trkpt>
      <trkpt lat="45.91239" lon="5.56698">
        <ele>781</ele>
        <time>2021-09-04T15:46:08.270Z</time>
      </trkpt>
      <trkpt lat="45.91234" lon="5.56706">
        <ele>781</ele>
        <time>2021-09-04T15:46:13.251Z</time>
      </trkpt>
      <trkpt lat="45.9123" lon="5.56713">
        <ele>782</ele>
        <time>2021-09-04T15:46:18.240Z</time>
      </trkpt>
      <trkpt lat="45.91226" lon="5.56721">
        <ele>782</ele>
        <time>2021-09-04T15:46:23.231Z</time>
      </trkpt>
      <trkpt lat="45.91222" lon="5.56729">
        <ele>782</ele>
        <time>2021-09-04T15:46:28.248Z</time>
      </trkpt>
      <trkpt lat="45.91218" lon="5.56737">
        <ele>782</ele>
        <time>2021-09-04T15:46:33.232Z</time>
      </trkpt>
      <trkpt lat="45.91214" lon="5.56745">
        <ele>782</ele>
        <time>2021-09-04T15:46:38.216Z</time>
      </trkpt>
      <trkpt lat="45.9121" lon="5.56753">
        <ele>782</ele>
        <time>2021-09-04T15:46:43.248Z</time>
      </trkpt>
      <trkpt lat="45.91206" lon="5.5676">
        <ele>782</ele>
        <time>2021-09-04T15:46:48.250Z</time>
      </trkpt>
      <trkpt lat="45.91202" lon="5.56768">
        <ele>782</ele>
        <time>2021-09-04T15:46:53.259Z</time>
      </trkpt>
      <trkpt lat="45.91198" lon="5.56776">
        <ele>782</ele>
        <time>2021-09-04T15:46:58.239Z</time>
      </trkpt>
      <trkpt lat="45.91194" lon="5.56784">
        <ele>782</ele>
        <time>2021-09-04T15:47:03.244Z</time>
      </trkpt>
      <trkpt lat="45.91191" lon="5.5679">
        <ele>782</ele>
        <time>2021-09-04T15:47:07.261Z</time>
      </trkpt>
      <trkpt lat="45.91187" lon="5.56799">
        <ele>782</ele>
        <time>2021-09-04T15:47:12.260Z</time>
      </trkpt>
      <trkpt lat="45.91183" lon="5.56807">
        <ele>782</ele>
        <time>2021-09-04T15:47:17.237Z</time>
      </trkpt>
      <trkpt lat="45.9118" lon="5.56815">
        <ele>783</ele>
        <time>2021-09-04T15:47:22.255Z</time>
      </trkpt>
      <trkpt lat="45.91177" lon="5.56823">
        <ele>783</ele>
        <time>2021-09-04T15:47:27.238Z</time>
      </trkpt>
      <trkpt lat="45.91173" lon="5.56832">
        <ele>783</ele>
        <time>2021-09-04T15:47:32.205Z</time>
      </trkpt>
      <trkpt lat="45.91171" lon="5.56839">
        <ele>783</ele>
        <time>2021-09-04T15:47:36.233Z</time>
      </trkpt>
      <trkpt lat="45.91168" lon="5.56847">
        <ele>783</ele>
        <time>2021-09-04T15:47:40.241Z</time>
      </trkpt>
      <trkpt lat="45.91165" lon="5.56856">
        <ele>784</ele>
        <time>2021-09-04T15:47:45.227Z</time>
      </trkpt>
      <trkpt lat="45.91163" lon="5.56863">
        <ele>784</ele>
        <time>2021-09-04T15:47:49.242Z</time>
      </trkpt>
      <trkpt lat="45.9116" lon="5.56871">
        <ele>784</ele>
        <time>2021-09-04T15:47:54.232Z</time>
      </trkpt>
      <trkpt lat="45.91157" lon="5.5688">
        <ele>784</ele>
        <time>2021-09-04T15:47:59.243Z</time>
      </trkpt>
      <trkpt lat="45.91154" lon="5.56888">
        <ele>784</ele>
        <time>2021-09-04T15:48:04.233Z</time>
      </trkpt>
      <trkpt lat="45.91151" lon="5.56895">
        <ele>785</ele>
        <time>2021-09-04T15:48:08.256Z</time>
      </trkpt>
      <trkpt lat="45.91147" lon="5.56902">
        <ele>785</ele>
        <time>2021-09-04T15:48:13.238Z</time>
      </trkpt>
      <trkpt lat="45.91144" lon="5.5691">
        <ele>785</ele>
        <time>2021-09-04T15:48:18.229Z</time>
      </trkpt>
      <trkpt lat="45.91141" lon="5.56917">
        <ele>785</ele>
        <time>2021-09-04T15:48:22.244Z</time>
      </trkpt>
      <trkpt lat="45.91137" lon="5.56925">
        <ele>785</ele>
        <time>2021-09-04T15:48:27.245Z</time>
      </trkpt>
      <trkpt lat="45.91134" lon="5.56933">
        <ele>785</ele>
        <time>2021-09-04T15:48:32.272Z</time>
      </trkpt>
      <trkpt lat="45.91131" lon="5.56941">
        <ele>785</ele>
        <time>2021-09-04T15:48:37.241Z</time>
      </trkpt>
      <trkpt lat="45.91128" lon="5.5695">
        <ele>785</ele>
        <time>2021-09-04T15:48:42.245Z</time>
      </trkpt>
      <trkpt lat="45.91126" lon="5.56957">
        <ele>785</ele>
        <time>2021-09-04T15:48:46.247Z</time>
      </trkpt>
      <trkpt lat="45.91124" lon="5.56965">
        <ele>783</ele>
        <time>2021-09-04T15:48:51.261Z</time>
      </trkpt>
      <trkpt lat="45.91122" lon="5.56974">
        <ele>783</ele>
        <time>2021-09-04T15:48:56.256Z</time>
      </trkpt>
      <trkpt lat="45.91121" lon="5.56983">
        <ele>783</ele>
        <time>2021-09-04T15:49:01.249Z</time>
      </trkpt>
      <trkpt lat="45.91122" lon="5.5699">
        <ele>782</ele>
        <time>2021-09-04T15:49:05.266Z</time>
      </trkpt>
      <trkpt lat="45.91123" lon="5.56999">
        <ele>782</ele>
        <time>2021-09-04T15:49:10.240Z</time>
      </trkpt>
      <trkpt lat="45.91125" lon="5.57008">
        <ele>781</ele>
        <time>2021-09-04T15:49:15.249Z</time>
      </trkpt>
      <trkpt lat="45.91128" lon="5.57017">
        <ele>781</ele>
        <time>2021-09-04T15:49:20.229Z</time>
      </trkpt>
      <trkpt lat="45.9113" lon="5.57024">
        <ele>781</ele>
        <time>2021-09-04T15:49:24.241Z</time>
      </trkpt>
      <trkpt lat="45.91133" lon="5.57033">
        <ele>781</ele>
        <time>2021-09-04T15:49:29.228Z</time>
      </trkpt>
      <trkpt lat="45.91137" lon="5.57038">
        <ele>781</ele>
        <time>2021-09-04T15:49:33.235Z</time>
      </trkpt>
      <trkpt lat="45.9114" lon="5.57044">
        <ele>782</ele>
        <time>2021-09-04T15:49:37.249Z</time>
      </trkpt>
      <trkpt lat="45.91142" lon="5.57052">
        <ele>782</ele>
        <time>2021-09-04T15:49:42.273Z</time>
      </trkpt>
      <trkpt lat="45.91144" lon="5.57061">
        <ele>782</ele>
        <time>2021-09-04T15:49:47.238Z</time>
      </trkpt>
      <trkpt lat="45.91146" lon="5.5707">
        <ele>783</ele>
        <time>2021-09-04T15:49:52.238Z</time>
      </trkpt>
      <trkpt lat="45.91148" lon="5.57078">
        <ele>783</ele>
        <time>2021-09-04T15:49:57.278Z</time>
      </trkpt>
      <trkpt lat="45.9115" lon="5.57087">
        <ele>783</ele>
        <time>2021-09-04T15:50:02.234Z</time>
      </trkpt>
      <trkpt lat="45.91152" lon="5.57096">
        <ele>783</ele>
        <time>2021-09-04T15:50:07.232Z</time>
      </trkpt>
      <trkpt lat="45.91154" lon="5.57104">
        <ele>783</ele>
        <time>2021-09-04T15:50:12.253Z</time>
      </trkpt>
      <trkpt lat="45.91156" lon="5.57113">
        <ele>783</ele>
        <time>2021-09-04T15:50:17.247Z</time>
      </trkpt>
      <trkpt lat="45.91158" lon="5.57122">
        <ele>783</ele>
        <time>2021-09-04T15:50:22.262Z</time>
      </trkpt>
      <trkpt lat="45.91159" lon="5.5713">
        <ele>783</ele>
        <time>2021-09-04T15:50:27.242Z</time>
      </trkpt>
      <trkpt lat="45.91159" lon="5.57138">
        <ele>783</ele>
        <time>2021-09-04T15:50:32.260Z</time>
      </trkpt>
      <trkpt lat="45.91156" lon="5.57146">
        <ele>783</ele>
        <time>2021-09-04T15:50:37.248Z</time>
      </trkpt>
      <trkpt lat="45.91153" lon="5.57152">
        <ele>781</ele>
        <time>2021-09-04T15:50:42.244Z</time>
      </trkpt>
      <trkpt lat="45.91149" lon="5.57157">
        <ele>780</ele>
        <time>2021-09-04T15:50:46.259Z</time>
      </trkpt>
      <trkpt lat="45.91144" lon="5.57161">
        <ele>780</ele>
        <time>2021-09-04T15:50:51.242Z</time>
      </trkpt>
      <trkpt lat="45.9114" lon="5.57166">
        <ele>780</ele>
        <time>2021-09-04T15:50:55.249Z</time>
      </trkpt>
      <trkpt lat="45.91135" lon="5.57173">
        <ele>780</ele>
        <time>2021-09-04T15:51:00.241Z</time>
      </trkpt>
      <trkpt lat="45.91131" lon="5.57178">
        <ele>780</ele>
        <time>2021-09-04T15:51:04.243Z</time>
      </trkpt>
      <trkpt lat="45.91125" lon="5.57184">
        <ele>780</ele>
        <time>2021-09-04T15:51:09.201Z</time>
      </trkpt>
      <trkpt lat="45.91119" lon="5.57191">
        <ele>781</ele>
        <time>2021-09-04T15:51:14.202Z</time>
      </trkpt>
      <trkpt lat="45.91115" lon="5.57196">
        <ele>781</ele>
        <time>2021-09-04T15:51:18.237Z</time>
      </trkpt>
      <trkpt lat="45.9111" lon="5.57201">
        <ele>781</ele>
        <time>2021-09-04T15:51:23.245Z</time>
      </trkpt>
      <trkpt lat="45.91106" lon="5.57207">
        <ele>781</ele>
        <time>2021-09-04T15:51:28.259Z</time>
      </trkpt>
      <trkpt lat="45.91102" lon="5.57213">
        <ele>781</ele>
        <time>2021-09-04T15:51:32.271Z</time>
      </trkpt>
      <trkpt lat="45.91097" lon="5.57217">
        <ele>783</ele>
        <time>2021-09-04T15:51:37.234Z</time>
      </trkpt>
      <trkpt lat="45.91092" lon="5.57224">
        <ele>783</ele>
        <time>2021-09-04T15:51:41.246Z</time>
      </trkpt>
      <trkpt lat="45.91086" lon="5.5723">
        <ele>783</ele>
        <time>2021-09-04T15:51:46.238Z</time>
      </trkpt>
      <trkpt lat="45.91082" lon="5.57235">
        <ele>783</ele>
        <time>2021-09-04T15:51:50.247Z</time>
      </trkpt>
      <trkpt lat="45.91076" lon="5.57241">
        <ele>783</ele>
        <time>2021-09-04T15:51:55.236Z</time>
      </trkpt>
      <trkpt lat="45.91071" lon="5.57247">
        <ele>783</ele>
        <time>2021-09-04T15:52:00.242Z</time>
      </trkpt>
      <trkpt lat="45.91066" lon="5.57252">
        <ele>785</ele>
        <time>2021-09-04T15:52:05.232Z</time>
      </trkpt>
      <trkpt lat="45.9106" lon="5.57258">
        <ele>785</ele>
        <time>2021-09-04T15:52:10.247Z</time>
      </trkpt>
      <trkpt lat="45.91055" lon="5.57265">
        <ele>786</ele>
        <time>2021-09-04T15:52:15.248Z</time>
      </trkpt>
      <trkpt lat="45.91049" lon="5.5727">
        <ele>786</ele>
        <time>2021-09-04T15:52:20.271Z</time>
      </trkpt>
      <trkpt lat="45.91044" lon="5.57276">
        <ele>786</ele>
        <time>2021-09-04T15:52:25.228Z</time>
      </trkpt>
      <trkpt lat="45.91039" lon="5.57282">
        <ele>786</ele>
        <time>2021-09-04T15:52:30.256Z</time>
      </trkpt>
      <trkpt lat="45.91033" lon="5.57288">
        <ele>786</ele>
        <time>2021-09-04T15:52:35.247Z</time>
      </trkpt>
      <trkpt lat="45.91028" lon="5.57294">
        <ele>786</ele>
        <time>2021-09-04T15:52:40.237Z</time>
      </trkpt>
      <trkpt lat="45.91023" lon="5.57299">
        <ele>786</ele>
        <time>2021-09-04T15:52:44.246Z</time>
      </trkpt>
      <trkpt lat="45.91018" lon="5.57303">
        <ele>786</ele>
        <time>2021-09-04T15:52:48.259Z</time>
      </trkpt>
      <trkpt lat="45.91014" lon="5.57307">
        <ele>785</ele>
        <time>2021-09-04T15:52:52.269Z</time>
      </trkpt>
      <trkpt lat="45.91008" lon="5.57313">
        <ele>785</ele>
        <time>2021-09-04T15:52:57.255Z</time>
      </trkpt>
      <trkpt lat="45.91002" lon="5.57319">
        <ele>785</ele>
        <time>2021-09-04T15:53:02.243Z</time>
      </trkpt>
      <trkpt lat="45.90995" lon="5.57325">
        <ele>786</ele>
        <time>2021-09-04T15:53:07.234Z</time>
      </trkpt>
      <trkpt lat="45.9099" lon="5.5733">
        <ele>786</ele>
        <time>2021-09-04T15:53:12.253Z</time>
      </trkpt>
      <trkpt lat="45.90983" lon="5.57336">
        <ele>785</ele>
        <time>2021-09-04T15:53:17.241Z</time>
      </trkpt>
      <trkpt lat="45.90977" lon="5.57342">
        <ele>785</ele>
        <time>2021-09-04T15:53:22.255Z</time>
      </trkpt>
      <trkpt lat="45.90973" lon="5.57345">
        <ele>785</ele>
        <time>2021-09-04T15:53:26.255Z</time>
      </trkpt>
      <trkpt lat="45.90968" lon="5.57351">
        <ele>785</ele>
        <time>2021-09-04T15:53:31.253Z</time>
      </trkpt>
      <trkpt lat="45.90962" lon="5.57356">
        <ele>785</ele>
        <time>2021-09-04T15:53:36.242Z</time>
      </trkpt>
      <trkpt lat="45.90958" lon="5.5736">
        <ele>784</ele>
        <time>2021-09-04T15:53:40.248Z</time>
      </trkpt>
      <trkpt lat="45.90953" lon="5.57366">
        <ele>784</ele>
        <time>2021-09-04T15:53:45.245Z</time>
      </trkpt>
      <trkpt lat="45.90947" lon="5.57369">
        <ele>784</ele>
        <time>2021-09-04T15:53:50.248Z</time>
      </trkpt>
      <trkpt lat="45.90941" lon="5.57366">
        <ele>784</ele>
        <time>2021-09-04T15:53:55.232Z</time>
      </trkpt>
      <trkpt lat="45.90936" lon="5.5736">
        <ele>784</ele>
        <time>2021-09-04T15:54:00.259Z</time>
      </trkpt>
      <trkpt lat="45.90931" lon="5.57353">
        <ele>784</ele>
        <time>2021-09-04T15:54:05.240Z</time>
      </trkpt>
      <trkpt lat="45.90925" lon="5.57352">
        <ele>784</ele>
        <time>2021-09-04T15:54:09.243Z</time>
      </trkpt>
      <trkpt lat="45.90919" lon="5.57348">
        <ele>784</ele>
        <time>2021-09-04T15:54:14.247Z</time>
      </trkpt>
      <trkpt lat="45.90914" lon="5.57343">
        <ele>784</ele>
        <time>2021-09-04T15:54:18.248Z</time>
      </trkpt>
      <trkpt lat="45.90908" lon="5.57338">
        <ele>784</ele>
        <time>2021-09-04T15:54:23.237Z</time>
      </trkpt>
      <trkpt lat="45.90904" lon="5.57333">
        <ele>784</ele>
        <time>2021-09-04T15:54:27.247Z</time>
      </trkpt>
      <trkpt lat="45.90893" lon="5.57329">
        <ele>785</ele>
        <time>2021-09-04T15:54:32.237Z</time>
      </trkpt>
      <trkpt lat="45.90875" lon="5.57315">
        <ele>786</ele>
        <time>2021-09-04T15:54:37.232Z</time>
      </trkpt>
      <trkpt lat="45.90867" lon="5.57311">
        <ele>787</ele>
        <time>2021-09-04T15:54:41.245Z</time>
      </trkpt>
      <trkpt lat="45.90859" lon="5.57307">
        <ele>787</ele>
        <time>2021-09-04T15:54:45.274Z</time>
      </trkpt>
      <trkpt lat="45.9084" lon="5.57284">
        <ele>787</ele>
        <time>2021-09-04T15:54:50.231Z</time>
      </trkpt>
      <trkpt lat="45.90828" lon="5.57276">
        <ele>787</ele>
        <time>2021-09-04T15:54:55.233Z</time>
      </trkpt>
      <trkpt lat="45.90818" lon="5.57266">
        <ele>787</ele>
        <time>2021-09-04T15:55:00.249Z</time>
      </trkpt>
      <trkpt lat="45.90808" lon="5.57254">
        <ele>789</ele>
        <time>2021-09-04T15:55:05.238Z</time>
      </trkpt>
      <trkpt lat="45.908" lon="5.57248">
        <ele>789</ele>
        <time>2021-09-04T15:55:10.196Z</time>
      </trkpt>
      <trkpt lat="45.90793" lon="5.5724">
        <ele>789</ele>
        <time>2021-09-04T15:55:14.246Z</time>
      </trkpt>
      <trkpt lat="45.90785" lon="5.57229">
        <ele>794</ele>
        <time>2021-09-04T15:55:19.240Z</time>
      </trkpt>
      <trkpt lat="45.90776" lon="5.5722">
        <ele>794</ele>
        <time>2021-09-04T15:55:24.239Z</time>
      </trkpt>
      <trkpt lat="45.90767" lon="5.57213">
        <ele>794</ele>
        <time>2021-09-04T15:55:29.241Z</time>
      </trkpt>
      <trkpt lat="45.9076" lon="5.57208">
        <ele>802</ele>
        <time>2021-09-04T15:55:33.258Z</time>
      </trkpt>
      <trkpt lat="45.90753" lon="5.57204">
        <ele>802</ele>
        <time>2021-09-04T15:55:38.223Z</time>
      </trkpt>
      <trkpt lat="45.90744" lon="5.57198">
        <ele>802</ele>
        <time>2021-09-04T15:55:43.239Z</time>
      </trkpt>
      <trkpt lat="45.90735" lon="5.57192">
        <ele>804</ele>
        <time>2021-09-04T15:55:48.237Z</time>
      </trkpt>
      <trkpt lat="45.90729" lon="5.57187">
        <ele>804</ele>
        <time>2021-09-04T15:55:52.244Z</time>
      </trkpt>
      <trkpt lat="45.90722" lon="5.57184">
        <ele>804</ele>
        <time>2021-09-04T15:55:56.265Z</time>
      </trkpt>
      <trkpt lat="45.90714" lon="5.57178">
        <ele>806</ele>
        <time>2021-09-04T15:56:01.241Z</time>
      </trkpt>
      <trkpt lat="45.90706" lon="5.57174">
        <ele>812</ele>
        <time>2021-09-04T15:56:06.236Z</time>
      </trkpt>
      <trkpt lat="45.90693" lon="5.57178">
        <ele>812</ele>
        <time>2021-09-04T15:56:11.269Z</time>
      </trkpt>
      <trkpt lat="45.90681" lon="5.57189">
        <ele>808</ele>
        <time>2021-09-04T15:56:16.254Z</time>
      </trkpt>
      <trkpt lat="45.90675" lon="5.57193">
        <ele>813</ele>
        <time>2021-09-04T15:56:21.240Z</time>
      </trkpt>
      <trkpt lat="45.90669" lon="5.57199">
        <ele>813</ele>
        <time>2021-09-04T15:56:26.260Z</time>
      </trkpt>
      <trkpt lat="45.90664" lon="5.57202">
        <ele>813</ele>
        <time>2021-09-04T15:56:30.266Z</time>
      </trkpt>
      <trkpt lat="45.90658" lon="5.57206">
        <ele>813</ele>
        <time>2021-09-04T15:56:35.252Z</time>
      </trkpt>
      <trkpt lat="45.90652" lon="5.5721">
        <ele>812</ele>
        <time>2021-09-04T15:56:40.255Z</time>
      </trkpt>
      <trkpt lat="45.90648" lon="5.57215">
        <ele>812</ele>
        <time>2021-09-04T15:56:44.250Z</time>
      </trkpt>
      <trkpt lat="45.90642" lon="5.57218">
        <ele>812</ele>
        <time>2021-09-04T15:56:49.249Z</time>
      </trkpt>
      <trkpt lat="45.90634" lon="5.57223">
        <ele>812</ele>
        <time>2021-09-04T15:56:53.252Z</time>
      </trkpt>
      <trkpt lat="45.9062" lon="5.57231">
        <ele>816</ele>
        <time>2021-09-04T15:56:58.249Z</time>
      </trkpt>
      <trkpt lat="45.90613" lon="5.57237">
        <ele>813</ele>
        <time>2021-09-04T15:57:03.235Z</time>
      </trkpt>
      <trkpt lat="45.90608" lon="5.57241">
        <ele>813</ele>
        <time>2021-09-04T15:57:07.261Z</time>
      </trkpt>
      <trkpt lat="45.90603" lon="5.57245">
        <ele>813</ele>
        <time>2021-09-04T15:57:12.240Z</time>
      </trkpt>
      <trkpt lat="45.90597" lon="5.57248">
        <ele>813</ele>
        <time>2021-09-04T15:57:17.204Z</time>
      </trkpt>
      <trkpt lat="45.90593" lon="5.57252">
        <ele>813</ele>
        <time>2021-09-04T15:57:21.248Z</time>
      </trkpt>
      <trkpt lat="45.90585" lon="5.57257">
        <ele>813</ele>
        <time>2021-09-04T15:57:26.254Z</time>
      </trkpt>
      <trkpt lat="45.90572" lon="5.57264">
        <ele>809</ele>
        <time>2021-09-04T15:57:31.249Z</time>
      </trkpt>
      <trkpt lat="45.90565" lon="5.57269">
        <ele>811</ele>
        <time>2021-09-04T15:57:36.240Z</time>
      </trkpt>
      <trkpt lat="45.90559" lon="5.57272">
        <ele>811</ele>
        <time>2021-09-04T15:57:40.251Z</time>
      </trkpt>
      <trkpt lat="45.90553" lon="5.57276">
        <ele>811</ele>
        <time>2021-09-04T15:57:45.236Z</time>
      </trkpt>
      <trkpt lat="45.90549" lon="5.57277">
        <ele>811</ele>
        <time>2021-09-04T15:57:49.250Z</time>
      </trkpt>
      <trkpt lat="45.90543" lon="5.57281">
        <ele>811</ele>
        <time>2021-09-04T15:57:53.258Z</time>
      </trkpt>
      <trkpt lat="45.90538" lon="5.57285">
        <ele>815</ele>
        <time>2021-09-04T15:57:58.247Z</time>
      </trkpt>
      <trkpt lat="45.90527" lon="5.5729">
        <ele>815</ele>
        <time>2021-09-04T15:58:03.241Z</time>
      </trkpt>
      <trkpt lat="45.90519" lon="5.57293">
        <ele>810</ele>
        <time>2021-09-04T15:58:08.259Z</time>
      </trkpt>
      <trkpt lat="45.90513" lon="5.57296">
        <ele>814</ele>
        <time>2021-09-04T15:58:13.232Z</time>
      </trkpt>
      <trkpt lat="45.90507" lon="5.57299">
        <ele>814</ele>
        <time>2021-09-04T15:58:18.226Z</time>
      </trkpt>
      <trkpt lat="45.90501" lon="5.57301">
        <ele>814</ele>
        <time>2021-09-04T15:58:22.255Z</time>
      </trkpt>
      <trkpt lat="45.90494" lon="5.57304">
        <ele>814</ele>
        <time>2021-09-04T15:58:27.202Z</time>
      </trkpt>
      <trkpt lat="45.90488" lon="5.57303">
        <ele>814</ele>
        <time>2021-09-04T15:58:31.256Z</time>
      </trkpt>
      <trkpt lat="45.90481" lon="5.57303">
        <ele>819</ele>
        <time>2021-09-04T15:58:36.244Z</time>
      </trkpt>
      <trkpt lat="45.90473" lon="5.57305">
        <ele>819</ele>
        <time>2021-09-04T15:58:41.245Z</time>
      </trkpt>
      <trkpt lat="45.90465" lon="5.57306">
        <ele>819</ele>
        <time>2021-09-04T15:58:46.253Z</time>
      </trkpt>
      <trkpt lat="45.90458" lon="5.57306">
        <ele>826</ele>
        <time>2021-09-04T15:58:51.247Z</time>
      </trkpt>
      <trkpt lat="45.90451" lon="5.57307">
        <ele>826</ele>
        <time>2021-09-04T15:58:56.241Z</time>
      </trkpt>
      <trkpt lat="45.90444" lon="5.57309">
        <ele>826</ele>
        <time>2021-09-04T15:59:01.234Z</time>
      </trkpt>
      <trkpt lat="45.90438" lon="5.57311">
        <ele>826</ele>
        <time>2021-09-04T15:59:05.238Z</time>
      </trkpt>
      <trkpt lat="45.90433" lon="5.57316">
        <ele>826</ele>
        <time>2021-09-04T15:59:09.249Z</time>
      </trkpt>
      <trkpt lat="45.90427" lon="5.57322">
        <ele>824</ele>
        <time>2021-09-04T15:59:14.231Z</time>
      </trkpt>
      <trkpt lat="45.90421" lon="5.5733">
        <ele>824</ele>
        <time>2021-09-04T15:59:19.238Z</time>
      </trkpt>
      <trkpt lat="45.90416" lon="5.57338">
        <ele>824</ele>
        <time>2021-09-04T15:59:24.212Z</time>
      </trkpt>
      <trkpt lat="45.9041" lon="5.5736">
        <ele>817</ele>
        <time>2021-09-04T15:59:29.200Z</time>
      </trkpt>
      <trkpt lat="45.90404" lon="5.57374">
        <ele>817</ele>
        <time>2021-09-04T15:59:34.204Z</time>
      </trkpt>
      <trkpt lat="45.904" lon="5.5738">
        <ele>819</ele>
        <time>2021-09-04T15:59:38.217Z</time>
      </trkpt>
      <trkpt lat="45.90394" lon="5.57382">
        <ele>819</ele>
        <time>2021-09-04T15:59:42.223Z</time>
      </trkpt>
      <trkpt lat="45.90387" lon="5.57383">
        <ele>819</ele>
        <time>2021-09-04T15:59:47.219Z</time>
      </trkpt>
      <trkpt lat="45.90382" lon="5.57384">
        <ele>819</ele>
        <time>2021-09-04T15:59:51.226Z</time>
      </trkpt>
      <trkpt lat="45.90376" lon="5.57385">
        <ele>819</ele>
        <time>2021-09-04T15:59:56.218Z</time>
      </trkpt>
      <trkpt lat="45.9037" lon="5.57388">
        <ele>823</ele>
        <time>2021-09-04T16:00:01.218Z</time>
      </trkpt>
      <trkpt lat="45.90363" lon="5.57388">
        <ele>823</ele>
        <time>2021-09-04T16:00:06.201Z</time>
      </trkpt>
      <trkpt lat="45.90358" lon="5.57391">
        <ele>823</ele>
        <time>2021-09-04T16:00:10.215Z</time>
      </trkpt>
      <trkpt lat="45.90352" lon="5.57393">
        <ele>823</ele>
        <time>2021-09-04T16:00:14.216Z</time>
      </trkpt>
      <trkpt lat="45.90346" lon="5.57395">
        <ele>825</ele>
        <time>2021-09-04T16:00:19.224Z</time>
      </trkpt>
      <trkpt lat="45.90338" lon="5.57398">
        <ele>825</ele>
        <time>2021-09-04T16:00:24.217Z</time>
      </trkpt>
      <trkpt lat="45.90327" lon="5.57399">
        <ele>825</ele>
        <time>2021-09-04T16:00:29.223Z</time>
      </trkpt>
      <trkpt lat="45.90317" lon="5.57396">
        <ele>825</ele>
        <time>2021-09-04T16:00:34.217Z</time>
      </trkpt>
      <trkpt lat="45.90312" lon="5.57395">
        <ele>825</ele>
        <time>2021-09-04T16:00:38.259Z</time>
      </trkpt>
      <trkpt lat="45.90308" lon="5.57396">
        <ele>825</ele>
        <time>2021-09-04T16:00:43.217Z</time>
      </trkpt>
      <trkpt lat="45.90304" lon="5.57399">
        <ele>825</ele>
        <time>2021-09-04T16:00:48.214Z</time>
      </trkpt>
      <trkpt lat="45.90298" lon="5.57402">
        <ele>825</ele>
        <time>2021-09-04T16:00:53.223Z</time>
      </trkpt>
      <trkpt lat="45.90292" lon="5.57403">
        <ele>821</ele>
        <time>2021-09-04T16:00:58.220Z</time>
      </trkpt>
      <trkpt lat="45.90286" lon="5.57402">
        <ele>829</ele>
        <time>2021-09-04T16:01:03.218Z</time>
      </trkpt>
      <trkpt lat="45.90279" lon="5.57404">
        <ele>825</ele>
        <time>2021-09-04T16:01:07.226Z</time>
      </trkpt>
      <trkpt lat="45.90273" lon="5.57403">
        <ele>825</ele>
        <time>2021-09-04T16:01:12.217Z</time>
      </trkpt>
      <trkpt lat="45.90266" lon="5.57403">
        <ele>829</ele>
        <time>2021-09-04T16:01:17.215Z</time>
      </trkpt>
      <trkpt lat="45.90261" lon="5.57401">
        <ele>835</ele>
        <time>2021-09-04T16:01:21.217Z</time>
      </trkpt>
      <trkpt lat="45.90253" lon="5.57403">
        <ele>831</ele>
        <time>2021-09-04T16:01:26.208Z</time>
      </trkpt>
      <trkpt lat="45.90248" lon="5.57403">
        <ele>831</ele>
        <time>2021-09-04T16:01:30.215Z</time>
      </trkpt>
      <trkpt lat="45.90241" lon="5.57407">
        <ele>831</ele>
        <time>2021-09-04T16:01:34.224Z</time>
      </trkpt>
      <trkpt lat="45.90233" lon="5.5741">
        <ele>835</ele>
        <time>2021-09-04T16:01:39.211Z</time>
      </trkpt>
      <trkpt lat="45.90226" lon="5.57416">
        <ele>835</ele>
        <time>2021-09-04T16:01:44.222Z</time>
      </trkpt>
      <trkpt lat="45.90219" lon="5.57421">
        <ele>835</ele>
        <time>2021-09-04T16:01:49.209Z</time>
      </trkpt>
      <trkpt lat="45.90212" lon="5.57432">
        <ele>832</ele>
        <time>2021-09-04T16:01:53.219Z</time>
      </trkpt>
      <trkpt lat="45.90204" lon="5.57437">
        <ele>838</ele>
        <time>2021-09-04T16:01:58.226Z</time>
      </trkpt>
      <trkpt lat="45.90197" lon="5.5744">
        <ele>838</ele>
        <time>2021-09-04T16:02:03.214Z</time>
      </trkpt>
      <trkpt lat="45.9019" lon="5.57442">
        <ele>838</ele>
        <time>2021-09-04T16:02:08.213Z</time>
      </trkpt>
      <trkpt lat="45.90184" lon="5.57442">
        <ele>838</ele>
        <time>2021-09-04T16:02:12.220Z</time>
      </trkpt>
      <trkpt lat="45.90178" lon="5.57442">
        <ele>844</ele>
        <time>2021-09-04T16:02:17.257Z</time>
      </trkpt>
      <trkpt lat="45.90173" lon="5.57448">
        <ele>844</ele>
        <time>2021-09-04T16:02:22.223Z</time>
      </trkpt>
      <trkpt lat="45.90167" lon="5.57451">
        <ele>844</ele>
        <time>2021-09-04T16:02:27.218Z</time>
      </trkpt>
      <trkpt lat="45.90159" lon="5.57455">
        <ele>844</ele>
        <time>2021-09-04T16:02:32.221Z</time>
      </trkpt>
      <trkpt lat="45.90153" lon="5.57459">
        <ele>842</ele>
        <time>2021-09-04T16:02:37.217Z</time>
      </trkpt>
      <trkpt lat="45.90147" lon="5.57461">
        <ele>842</ele>
        <time>2021-09-04T16:02:41.258Z</time>
      </trkpt>
      <trkpt lat="45.9014" lon="5.57465">
        <ele>842</ele>
        <time>2021-09-04T16:02:46.208Z</time>
      </trkpt>
      <trkpt lat="45.90133" lon="5.57468">
        <ele>842</ele>
        <time>2021-09-04T16:02:51.223Z</time>
      </trkpt>
      <trkpt lat="45.90126" lon="5.57472">
        <ele>842</ele>
        <time>2021-09-04T16:02:56.200Z</time>
      </trkpt>
      <trkpt lat="45.90121" lon="5.57476">
        <ele>846</ele>
        <time>2021-09-04T16:03:00.217Z</time>
      </trkpt>
      <trkpt lat="45.90115" lon="5.5748">
        <ele>846</ele>
        <time>2021-09-04T16:03:04.217Z</time>
      </trkpt>
      <trkpt lat="45.90105" lon="5.57495">
        <ele>839</ele>
        <time>2021-09-04T16:03:09.222Z</time>
      </trkpt>
      <trkpt lat="45.90094" lon="5.57501">
        <ele>842</ele>
        <time>2021-09-04T16:03:14.215Z</time>
      </trkpt>
      <trkpt lat="45.90087" lon="5.57504">
        <ele>842</ele>
        <time>2021-09-04T16:03:19.216Z</time>
      </trkpt>
      <trkpt lat="45.90082" lon="5.57504">
        <ele>842</ele>
        <time>2021-09-04T16:03:23.222Z</time>
      </trkpt>
      <trkpt lat="45.90075" lon="5.57506">
        <ele>842</ele>
        <time>2021-09-04T16:03:28.214Z</time>
      </trkpt>
      <trkpt lat="45.90071" lon="5.57514">
        <ele>835</ele>
        <time>2021-09-04T16:03:33.226Z</time>
      </trkpt>
      <trkpt lat="45.90065" lon="5.57514">
        <ele>834</ele>
        <time>2021-09-04T16:03:38.219Z</time>
      </trkpt>
      <trkpt lat="45.90058" lon="5.57516">
        <ele>834</ele>
        <time>2021-09-04T16:03:43.216Z</time>
      </trkpt>
      <trkpt lat="45.90051" lon="5.57518">
        <ele>834</ele>
        <time>2021-09-04T16:03:47.220Z</time>
      </trkpt>
      <trkpt lat="45.90044" lon="5.57518">
        <ele>834</ele>
        <time>2021-09-04T16:03:51.220Z</time>
      </trkpt>
      <trkpt lat="45.90034" lon="5.57521">
        <ele>838</ele>
        <time>2021-09-04T16:03:56.211Z</time>
      </trkpt>
      <trkpt lat="45.90028" lon="5.57522">
        <ele>838</ele>
        <time>2021-09-04T16:04:01.215Z</time>
      </trkpt>
      <trkpt lat="45.90022" lon="5.57524">
        <ele>838</ele>
        <time>2021-09-04T16:04:05.223Z</time>
      </trkpt>
      <trkpt lat="45.90018" lon="5.57526">
        <ele>838</ele>
        <time>2021-09-04T16:04:09.220Z</time>
      </trkpt>
      <trkpt lat="45.90011" lon="5.57529">
        <ele>845</ele>
        <time>2021-09-04T16:04:14.223Z</time>
      </trkpt>
      <trkpt lat="45.90004" lon="5.57532">
        <ele>845</ele>
        <time>2021-09-04T16:04:19.221Z</time>
      </trkpt>
      <trkpt lat="45.89997" lon="5.57541">
        <ele>845</ele>
        <time>2021-09-04T16:04:24.222Z</time>
      </trkpt>
      <trkpt lat="45.89993" lon="5.5755">
        <ele>834</ele>
        <time>2021-09-04T16:04:29.243Z</time>
      </trkpt>
      <trkpt lat="45.89987" lon="5.57556">
        <ele>834</ele>
        <time>2021-09-04T16:04:34.248Z</time>
      </trkpt>
      <trkpt lat="45.89981" lon="5.57559">
        <ele>844</ele>
        <time>2021-09-04T16:04:39.245Z</time>
      </trkpt>
      <trkpt lat="45.89975" lon="5.57561">
        <ele>844</ele>
        <time>2021-09-04T16:04:43.255Z</time>
      </trkpt>
      <trkpt lat="45.89969" lon="5.57566">
        <ele>844</ele>
        <time>2021-09-04T16:04:48.243Z</time>
      </trkpt>
      <trkpt lat="45.89963" lon="5.57571">
        <ele>835</ele>
        <time>2021-09-04T16:04:53.264Z</time>
      </trkpt>
      <trkpt lat="45.89958" lon="5.57576">
        <ele>848</ele>
        <time>2021-09-04T16:04:58.595Z</time>
      </trkpt>
      <trkpt lat="45.89946" lon="5.57581">
        <ele>848</ele>
        <time>2021-09-04T16:05:03.243Z</time>
      </trkpt>
      <trkpt lat="45.89937" lon="5.57585">
        <ele>848</ele>
        <time>2021-09-04T16:05:08.247Z</time>
      </trkpt>
      <trkpt lat="45.89932" lon="5.57586">
        <ele>848</ele>
        <time>2021-09-04T16:05:12.251Z</time>
      </trkpt>
      <trkpt lat="45.89925" lon="5.5759">
        <ele>853</ele>
        <time>2021-09-04T16:05:17.238Z</time>
      </trkpt>
      <trkpt lat="45.89919" lon="5.57594">
        <ele>853</ele>
        <time>2021-09-04T16:05:22.253Z</time>
      </trkpt>
      <trkpt lat="45.89914" lon="5.57601">
        <ele>846</ele>
        <time>2021-09-04T16:05:27.224Z</time>
      </trkpt>
      <trkpt lat="45.89908" lon="5.57606">
        <ele>846</ele>
        <time>2021-09-04T16:05:32.249Z</time>
      </trkpt>
      <trkpt lat="45.89903" lon="5.57611">
        <ele>852</ele>
        <time>2021-09-04T16:05:37.236Z</time>
      </trkpt>
      <trkpt lat="45.89898" lon="5.57616">
        <ele>852</ele>
        <time>2021-09-04T16:05:41.245Z</time>
      </trkpt>
      <trkpt lat="45.89894" lon="5.57622">
        <ele>852</ele>
        <time>2021-09-04T16:05:46.232Z</time>
      </trkpt>
      <trkpt lat="45.8989" lon="5.57628">
        <ele>846</ele>
        <time>2021-09-04T16:05:50.243Z</time>
      </trkpt>
      <trkpt lat="45.89886" lon="5.57635">
        <ele>846</ele>
        <time>2021-09-04T16:05:54.272Z</time>
      </trkpt>
      <trkpt lat="45.89883" lon="5.57643">
        <ele>846</ele>
        <time>2021-09-04T16:05:59.229Z</time>
      </trkpt>
      <trkpt lat="45.8988" lon="5.57651">
        <ele>846</ele>
        <time>2021-09-04T16:06:03.257Z</time>
      </trkpt>
      <trkpt lat="45.89877" lon="5.57662">
        <ele>842</ele>
        <time>2021-09-04T16:06:08.232Z</time>
      </trkpt>
      <trkpt lat="45.89876" lon="5.57671">
        <ele>842</ele>
        <time>2021-09-04T16:06:13.239Z</time>
      </trkpt>
      <trkpt lat="45.89873" lon="5.57689">
        <ele>847</ele>
        <time>2021-09-04T16:06:18.229Z</time>
      </trkpt>
      <trkpt lat="45.8987" lon="5.57704">
        <ele>847</ele>
        <time>2021-09-04T16:06:22.233Z</time>
      </trkpt>
      <trkpt lat="45.89865" lon="5.57718">
        <ele>843</ele>
        <time>2021-09-04T16:06:27.245Z</time>
      </trkpt>
      <trkpt lat="45.89863" lon="5.57728">
        <ele>843</ele>
        <time>2021-09-04T16:06:32.253Z</time>
      </trkpt>
      <trkpt lat="45.89855" lon="5.57736">
        <ele>841</ele>
        <time>2021-09-04T16:06:37.264Z</time>
      </trkpt>
      <trkpt lat="45.89847" lon="5.57741">
        <ele>847</ele>
        <time>2021-09-04T16:06:42.231Z</time>
      </trkpt>
      <trkpt lat="45.89841" lon="5.57744">
        <ele>847</ele>
        <time>2021-09-04T16:06:47.246Z</time>
      </trkpt>
      <trkpt lat="45.89834" lon="5.57744">
        <ele>847</ele>
        <time>2021-09-04T16:06:52.251Z</time>
      </trkpt>
      <trkpt lat="45.89829" lon="5.57745">
        <ele>847</ele>
        <time>2021-09-04T16:06:57.247Z</time>
      </trkpt>
      <trkpt lat="45.89824" lon="5.57746">
        <ele>847</ele>
        <time>2021-09-04T16:07:02.247Z</time>
      </trkpt>
      <trkpt lat="45.89821" lon="5.57745">
        <ele>847</ele>
        <time>2021-09-04T16:07:07.195Z</time>
      </trkpt>
      <trkpt lat="45.89816" lon="5.57747">
        <ele>851</ele>
        <time>2021-09-04T16:07:11.237Z</time>
      </trkpt>
      <trkpt lat="45.89811" lon="5.57748">
        <ele>851</ele>
        <time>2021-09-04T16:07:15.244Z</time>
      </trkpt>
      <trkpt lat="45.89807" lon="5.5775">
        <ele>851</ele>
        <time>2021-09-04T16:07:20.255Z</time>
      </trkpt>
      <trkpt lat="45.89802" lon="5.5775">
        <ele>851</ele>
        <time>2021-09-04T16:07:25.227Z</time>
      </trkpt>
      <trkpt lat="45.89797" lon="5.57749">
        <ele>851</ele>
        <time>2021-09-04T16:07:30.213Z</time>
      </trkpt>
      <trkpt lat="45.89793" lon="5.57749">
        <ele>851</ele>
        <time>2021-09-04T16:07:34.248Z</time>
      </trkpt>
      <trkpt lat="45.89789" lon="5.57749">
        <ele>853</ele>
        <time>2021-09-04T16:07:39.239Z</time>
      </trkpt>
      <trkpt lat="45.89784" lon="5.5775">
        <ele>853</ele>
        <time>2021-09-04T16:07:44.235Z</time>
      </trkpt>
      <trkpt lat="45.89781" lon="5.57749">
        <ele>853</ele>
        <time>2021-09-04T16:07:48.237Z</time>
      </trkpt>
      <trkpt lat="45.89775" lon="5.57751">
        <ele>853</ele>
        <time>2021-09-04T16:07:52.248Z</time>
      </trkpt>
      <trkpt lat="45.8977" lon="5.5775">
        <ele>853</ele>
        <time>2021-09-04T16:07:57.242Z</time>
      </trkpt>
      <trkpt lat="45.89764" lon="5.57749">
        <ele>853</ele>
        <time>2021-09-04T16:08:02.238Z</time>
      </trkpt>
      <trkpt lat="45.89759" lon="5.57748">
        <ele>854</ele>
        <time>2021-09-04T16:08:07.254Z</time>
      </trkpt>
      <trkpt lat="45.89752" lon="5.57747">
        <ele>854</ele>
        <time>2021-09-04T16:08:12.229Z</time>
      </trkpt>
      <trkpt lat="45.89748" lon="5.57749">
        <ele>854</ele>
        <time>2021-09-04T16:08:16.236Z</time>
      </trkpt>
      <trkpt lat="45.89741" lon="5.57749">
        <ele>854</ele>
        <time>2021-09-04T16:08:21.237Z</time>
      </trkpt>
      <trkpt lat="45.89736" lon="5.5775">
        <ele>854</ele>
        <time>2021-09-04T16:08:25.236Z</time>
      </trkpt>
      <trkpt lat="45.89728" lon="5.57751">
        <ele>854</ele>
        <time>2021-09-04T16:08:30.240Z</time>
      </trkpt>
      <trkpt lat="45.89719" lon="5.57758">
        <ele>854</ele>
        <time>2021-09-04T16:08:35.236Z</time>
      </trkpt>
      <trkpt lat="45.89713" lon="5.57765">
        <ele>851</ele>
        <time>2021-09-04T16:08:39.256Z</time>
      </trkpt>
      <trkpt lat="45.89707" lon="5.57767">
        <ele>852</ele>
        <time>2021-09-04T16:08:44.234Z</time>
      </trkpt>
      <trkpt lat="45.89702" lon="5.57772">
        <ele>852</ele>
        <time>2021-09-04T16:08:48.238Z</time>
      </trkpt>
      <trkpt lat="45.897" lon="5.57774">
        <ele>852</ele>
        <time>2021-09-04T16:08:52.246Z</time>
      </trkpt>
      <trkpt lat="45.89698" lon="5.57776">
        <ele>852</ele>
        <time>2021-09-04T16:08:57.237Z</time>
      </trkpt>
      <trkpt lat="45.89695" lon="5.57781">
        <ele>852</ele>
        <time>2021-09-04T16:09:02.231Z</time>
      </trkpt>
      <trkpt lat="45.8969" lon="5.57786">
        <ele>852</ele>
        <time>2021-09-04T16:09:06.253Z</time>
      </trkpt>
      <trkpt lat="45.89685" lon="5.57791">
        <ele>852</ele>
        <time>2021-09-04T16:09:11.223Z</time>
      </trkpt>
      <trkpt lat="45.89681" lon="5.57795">
        <ele>852</ele>
        <time>2021-09-04T16:09:15.257Z</time>
      </trkpt>
      <trkpt lat="45.89676" lon="5.57804">
        <ele>852</ele>
        <time>2021-09-04T16:09:20.238Z</time>
      </trkpt>
      <trkpt lat="45.89672" lon="5.57813">
        <ele>852</ele>
        <time>2021-09-04T16:09:25.240Z</time>
      </trkpt>
      <trkpt lat="45.89671" lon="5.57821">
        <ele>850</ele>
        <time>2021-09-04T16:09:29.247Z</time>
      </trkpt>
      <trkpt lat="45.89668" lon="5.57829">
        <ele>850</ele>
        <time>2021-09-04T16:09:34.228Z</time>
      </trkpt>
      <trkpt lat="45.89663" lon="5.57837">
        <ele>850</ele>
        <time>2021-09-04T16:09:39.210Z</time>
      </trkpt>
      <trkpt lat="45.89659" lon="5.57843">
        <ele>850</ele>
        <time>2021-09-04T16:09:43.232Z</time>
      </trkpt>
      <trkpt lat="45.89656" lon="5.57852">
        <ele>849</ele>
        <time>2021-09-04T16:09:48.234Z</time>
      </trkpt>
      <trkpt lat="45.89655" lon="5.57861">
        <ele>849</ele>
        <time>2021-09-04T16:09:53.244Z</time>
      </trkpt>
      <trkpt lat="45.89656" lon="5.57869">
        <ele>849</ele>
        <time>2021-09-04T16:09:58.227Z</time>
      </trkpt>
      <trkpt lat="45.89656" lon="5.57876">
        <ele>848</ele>
        <time>2021-09-04T16:10:02.268Z</time>
      </trkpt>
      <trkpt lat="45.89656" lon="5.57887">
        <ele>848</ele>
        <time>2021-09-04T16:10:07.243Z</time>
      </trkpt>
      <trkpt lat="45.89657" lon="5.57896">
        <ele>848</ele>
        <time>2021-09-04T16:10:12.242Z</time>
      </trkpt>
      <trkpt lat="45.89657" lon="5.57905">
        <ele>848</ele>
        <time>2021-09-04T16:10:16.242Z</time>
      </trkpt>
      <trkpt lat="45.89654" lon="5.57918">
        <ele>848</ele>
        <time>2021-09-04T16:10:21.224Z</time>
      </trkpt>
      <trkpt lat="45.89653" lon="5.57929">
        <ele>851</ele>
        <time>2021-09-04T16:10:25.256Z</time>
      </trkpt>
      <trkpt lat="45.8965" lon="5.5794">
        <ele>849</ele>
        <time>2021-09-04T16:10:30.250Z</time>
      </trkpt>
      <trkpt lat="45.89647" lon="5.57948">
        <ele>849</ele>
        <time>2021-09-04T16:10:35.247Z</time>
      </trkpt>
      <trkpt lat="45.89644" lon="5.57953">
        <ele>849</ele>
        <time>2021-09-04T16:10:39.254Z</time>
      </trkpt>
      <trkpt lat="45.89641" lon="5.57959">
        <ele>846</ele>
        <time>2021-09-04T16:10:44.233Z</time>
      </trkpt>
      <trkpt lat="45.89637" lon="5.57963">
        <ele>846</ele>
        <time>2021-09-04T16:10:48.243Z</time>
      </trkpt>
      <trkpt lat="45.89636" lon="5.5797">
        <ele>846</ele>
        <time>2021-09-04T16:10:53.248Z</time>
      </trkpt>
      <trkpt lat="45.89636" lon="5.57976">
        <ele>846</ele>
        <time>2021-09-04T16:10:58.231Z</time>
      </trkpt>
      <trkpt lat="45.89633" lon="5.5798">
        <ele>846</ele>
        <time>2021-09-04T16:11:03.238Z</time>
      </trkpt>
      <trkpt lat="45.89633" lon="5.57982">
        <ele>846</ele>
        <time>2021-09-04T16:11:08.263Z</time>
      </trkpt>
      <trkpt lat="45.89631" lon="5.57983">
        <ele>846</ele>
        <time>2021-09-04T16:11:28.231Z</time>
      </trkpt>
      <trkpt lat="45.89631" lon="5.57983">
        <ele>846</ele>
        <time>2021-09-04T16:11:32.242Z</time>
      </trkpt>
      <trkpt lat="45.8963" lon="5.57984">
        <ele>846</ele>
        <time>2021-09-04T16:11:37.245Z</time>
      </trkpt>
      <trkpt lat="45.89628" lon="5.57987">
        <ele>841</ele>
        <time>2021-09-04T16:11:41.248Z</time>
      </trkpt>
      <trkpt lat="45.89627" lon="5.57992">
        <ele>841</ele>
        <time>2021-09-04T16:11:45.254Z</time>
      </trkpt>
      <trkpt lat="45.89626" lon="5.57998">
        <ele>841</ele>
        <time>2021-09-04T16:11:50.251Z</time>
      </trkpt>
      <trkpt lat="45.89625" lon="5.58002">
        <ele>840</ele>
        <time>2021-09-04T16:11:54.260Z</time>
      </trkpt>
      <trkpt lat="45.89624" lon="5.58007">
        <ele>840</ele>
        <time>2021-09-04T16:11:59.251Z</time>
      </trkpt>
      <trkpt lat="45.89622" lon="5.58014">
        <ele>833</ele>
        <time>2021-09-04T16:12:04.237Z</time>
      </trkpt>
      <trkpt lat="45.89619" lon="5.58018">
        <ele>833</ele>
        <time>2021-09-04T16:12:08.237Z</time>
      </trkpt>
      <trkpt lat="45.89617" lon="5.58019">
        <ele>833</ele>
        <time>2021-09-04T16:12:13.243Z</time>
      </trkpt>
      <trkpt lat="45.89615" lon="5.58024">
        <ele>833</ele>
        <time>2021-09-04T16:12:18.242Z</time>
      </trkpt>
      <trkpt lat="45.89613" lon="5.58028">
        <ele>833</ele>
        <time>2021-09-04T16:12:23.234Z</time>
      </trkpt>
      <trkpt lat="45.89613" lon="5.58029">
        <ele>833</ele>
        <time>2021-09-04T16:13:30.239Z</time>
      </trkpt>
      <trkpt lat="45.89614" lon="5.58032">
        <ele>833</ele>
        <time>2021-09-04T16:13:35.241Z</time>
      </trkpt>
      <trkpt lat="45.89614" lon="5.58039">
        <ele>833</ele>
        <time>2021-09-04T16:13:40.205Z</time>
      </trkpt>
      <trkpt lat="45.89615" lon="5.58045">
        <ele>826</ele>
        <time>2021-09-04T16:13:44.227Z</time>
      </trkpt>
      <trkpt lat="45.89614" lon="5.5805">
        <ele>826</ele>
        <time>2021-09-04T16:13:48.237Z</time>
      </trkpt>
      <trkpt lat="45.89613" lon="5.58055">
        <ele>826</ele>
        <time>2021-09-04T16:13:52.237Z</time>
      </trkpt>
      <trkpt lat="45.89611" lon="5.58063">
        <ele>826</ele>
        <time>2021-09-04T16:13:57.239Z</time>
      </trkpt>
      <trkpt lat="45.89611" lon="5.5807">
        <ele>822</ele>
        <time>2021-09-04T16:14:01.255Z</time>
      </trkpt>
      <trkpt lat="45.89611" lon="5.58078">
        <ele>822</ele>
        <time>2021-09-04T16:14:06.242Z</time>
      </trkpt>
      <trkpt lat="45.89608" lon="5.58081">
        <ele>822</ele>
        <time>2021-09-04T16:14:10.252Z</time>
      </trkpt>
      <trkpt lat="45.89604" lon="5.58088">
        <ele>822</ele>
        <time>2021-09-04T16:14:15.245Z</time>
      </trkpt>
      <trkpt lat="45.89602" lon="5.58094">
        <ele>822</ele>
        <time>2021-09-04T16:14:19.247Z</time>
      </trkpt>
      <trkpt lat="45.896" lon="5.58101">
        <ele>820</ele>
        <time>2021-09-04T16:14:24.227Z</time>
      </trkpt>
      <trkpt lat="45.89596" lon="5.58116">
        <ele>818</ele>
        <time>2021-09-04T16:14:43.236Z</time>
      </trkpt>
      <trkpt lat="45.89596" lon="5.58116">
        <ele>818</ele>
        <time>2021-09-04T16:14:47.239Z</time>
      </trkpt>
      <trkpt lat="45.89596" lon="5.58116">
        <ele>818</ele>
        <time>2021-09-04T16:14:51.246Z</time>
      </trkpt>
      <trkpt lat="45.89596" lon="5.5812">
        <ele>818</ele>
        <time>2021-09-04T16:14:56.224Z</time>
      </trkpt>
      <trkpt lat="45.89596" lon="5.58127">
        <ele>814</ele>
        <time>2021-09-04T16:15:00.240Z</time>
      </trkpt>
      <trkpt lat="45.89596" lon="5.58134">
        <ele>814</ele>
        <time>2021-09-04T16:15:04.237Z</time>
      </trkpt>
      <trkpt lat="45.89596" lon="5.5814">
        <ele>814</ele>
        <time>2021-09-04T16:15:08.244Z</time>
      </trkpt>
      <trkpt lat="45.896" lon="5.58146">
        <ele>818</ele>
        <time>2021-09-04T16:15:13.233Z</time>
      </trkpt>
      <trkpt lat="45.89601" lon="5.58154">
        <ele>816</ele>
        <time>2021-09-04T16:15:18.249Z</time>
      </trkpt>
      <trkpt lat="45.89601" lon="5.58162">
        <ele>816</ele>
        <time>2021-09-04T16:15:23.245Z</time>
      </trkpt>
      <trkpt lat="45.89601" lon="5.5817">
        <ele>816</ele>
        <time>2021-09-04T16:15:28.266Z</time>
      </trkpt>
      <trkpt lat="45.89602" lon="5.58178">
        <ele>816</ele>
        <time>2021-09-04T16:15:33.253Z</time>
      </trkpt>
      <trkpt lat="45.89602" lon="5.58186">
        <ele>813</ele>
        <time>2021-09-04T16:15:38.258Z</time>
      </trkpt>
      <trkpt lat="45.89603" lon="5.5819">
        <ele>813</ele>
        <time>2021-09-04T16:15:43.240Z</time>
      </trkpt>
      <trkpt lat="45.89604" lon="5.58198">
        <ele>813</ele>
        <time>2021-09-04T16:15:47.240Z</time>
      </trkpt>
      <trkpt lat="45.89602" lon="5.58206">
        <ele>813</ele>
        <time>2021-09-04T16:15:52.205Z</time>
      </trkpt>
      <trkpt lat="45.89601" lon="5.58214">
        <ele>810</ele>
        <time>2021-09-04T16:15:56.234Z</time>
      </trkpt>
      <trkpt lat="45.896" lon="5.58221">
        <ele>810</ele>
        <time>2021-09-04T16:16:00.259Z</time>
      </trkpt>
      <trkpt lat="45.896" lon="5.58231">
        <ele>810</ele>
        <time>2021-09-04T16:16:05.233Z</time>
      </trkpt>
      <trkpt lat="45.89599" lon="5.58238">
        <ele>808</ele>
        <time>2021-09-04T16:16:09.244Z</time>
      </trkpt>
      <trkpt lat="45.89596" lon="5.58248">
        <ele>807</ele>
        <time>2021-09-04T16:16:14.230Z</time>
      </trkpt>
      <trkpt lat="45.89596" lon="5.58255">
        <ele>807</ele>
        <time>2021-09-04T16:16:18.244Z</time>
      </trkpt>
      <trkpt lat="45.89597" lon="5.58263">
        <ele>807</ele>
        <time>2021-09-04T16:16:22.267Z</time>
      </trkpt>
      <trkpt lat="45.896" lon="5.58272">
        <ele>808</ele>
        <time>2021-09-04T16:16:27.235Z</time>
      </trkpt>
      <trkpt lat="45.896" lon="5.58283">
        <ele>808</ele>
        <time>2021-09-04T16:16:32.239Z</time>
      </trkpt>
      <trkpt lat="45.896" lon="5.58294">
        <ele>808</ele>
        <time>2021-09-04T16:16:37.228Z</time>
      </trkpt>
      <trkpt lat="45.89599" lon="5.58303">
        <ele>808</ele>
        <time>2021-09-04T16:16:41.239Z</time>
      </trkpt>
      <trkpt lat="45.89597" lon="5.5831">
        <ele>808</ele>
        <time>2021-09-04T16:16:45.238Z</time>
      </trkpt>
      <trkpt lat="45.89595" lon="5.58319">
        <ele>809</ele>
        <time>2021-09-04T16:16:50.219Z</time>
      </trkpt>
      <trkpt lat="45.89594" lon="5.58326">
        <ele>810</ele>
        <time>2021-09-04T16:16:54.239Z</time>
      </trkpt>
      <trkpt lat="45.89592" lon="5.58335">
        <ele>810</ele>
        <time>2021-09-04T16:16:58.250Z</time>
      </trkpt>
      <trkpt lat="45.89589" lon="5.58344">
        <ele>810</ele>
        <time>2021-09-04T16:17:03.230Z</time>
      </trkpt>
      <trkpt lat="45.89588" lon="5.58352">
        <ele>811</ele>
        <time>2021-09-04T16:17:07.244Z</time>
      </trkpt>
      <trkpt lat="45.89589" lon="5.5836">
        <ele>811</ele>
        <time>2021-09-04T16:17:11.277Z</time>
      </trkpt>
      <trkpt lat="45.8959" lon="5.58368">
        <ele>811</ele>
        <time>2021-09-04T16:17:16.237Z</time>
      </trkpt>
      <trkpt lat="45.89591" lon="5.58375">
        <ele>811</ele>
        <time>2021-09-04T16:17:20.252Z</time>
      </trkpt>
      <trkpt lat="45.89592" lon="5.58384">
        <ele>811</ele>
        <time>2021-09-04T16:17:25.210Z</time>
      </trkpt>
      <trkpt lat="45.89592" lon="5.58393">
        <ele>811</ele>
        <time>2021-09-04T16:17:29.232Z</time>
      </trkpt>
      <trkpt lat="45.89589" lon="5.58405">
        <ele>811</ele>
        <time>2021-09-04T16:17:34.244Z</time>
      </trkpt>
      <trkpt lat="45.89588" lon="5.58413">
        <ele>811</ele>
        <time>2021-09-04T16:17:38.251Z</time>
      </trkpt>
      <trkpt lat="45.89589" lon="5.58424">
        <ele>811</ele>
        <time>2021-09-04T16:17:43.221Z</time>
      </trkpt>
      <trkpt lat="45.89591" lon="5.58433">
        <ele>809</ele>
        <time>2021-09-04T16:17:47.234Z</time>
      </trkpt>
      <trkpt lat="45.89592" lon="5.58443">
        <ele>809</ele>
        <time>2021-09-04T16:17:52.199Z</time>
      </trkpt>
      <trkpt lat="45.89593" lon="5.58451">
        <ele>809</ele>
        <time>2021-09-04T16:17:56.221Z</time>
      </trkpt>
      <trkpt lat="45.89594" lon="5.58461">
        <ele>807</ele>
        <time>2021-09-04T16:18:01.201Z</time>
      </trkpt>
      <trkpt lat="45.89594" lon="5.58469">
        <ele>807</ele>
        <time>2021-09-04T16:18:05.231Z</time>
      </trkpt>
      <trkpt lat="45.89593" lon="5.58479">
        <ele>807</ele>
        <time>2021-09-04T16:18:10.248Z</time>
      </trkpt>
      <trkpt lat="45.89592" lon="5.58489">
        <ele>806</ele>
        <time>2021-09-04T16:18:15.238Z</time>
      </trkpt>
      <trkpt lat="45.89591" lon="5.585">
        <ele>806</ele>
        <time>2021-09-04T16:18:20.221Z</time>
      </trkpt>
      <trkpt lat="45.89589" lon="5.5851">
        <ele>806</ele>
        <time>2021-09-04T16:18:25.235Z</time>
      </trkpt>
      <trkpt lat="45.89587" lon="5.58518">
        <ele>806</ele>
        <time>2021-09-04T16:18:29.243Z</time>
      </trkpt>
      <trkpt lat="45.89584" lon="5.58529">
        <ele>806</ele>
        <time>2021-09-04T16:18:34.238Z</time>
      </trkpt>
      <trkpt lat="45.89581" lon="5.58536">
        <ele>806</ele>
        <time>2021-09-04T16:18:38.249Z</time>
      </trkpt>
      <trkpt lat="45.89577" lon="5.58547">
        <ele>806</ele>
        <time>2021-09-04T16:18:43.244Z</time>
      </trkpt>
      <trkpt lat="45.89573" lon="5.58557">
        <ele>806</ele>
        <time>2021-09-04T16:18:48.236Z</time>
      </trkpt>
      <trkpt lat="45.89569" lon="5.58565">
        <ele>810</ele>
        <time>2021-09-04T16:18:52.242Z</time>
      </trkpt>
      <trkpt lat="45.89563" lon="5.58573">
        <ele>808</ele>
        <time>2021-09-04T16:18:57.238Z</time>
      </trkpt>
      <trkpt lat="45.89558" lon="5.58579">
        <ele>808</ele>
        <time>2021-09-04T16:19:01.254Z</time>
      </trkpt>
      <trkpt lat="45.89552" lon="5.58587">
        <ele>808</ele>
        <time>2021-09-04T16:19:06.228Z</time>
      </trkpt>
      <trkpt lat="45.89547" lon="5.58594">
        <ele>808</ele>
        <time>2021-09-04T16:19:11.274Z</time>
      </trkpt>
      <trkpt lat="45.89542" lon="5.58602">
        <ele>808</ele>
        <time>2021-09-04T16:19:16.239Z</time>
      </trkpt>
      <trkpt lat="45.89537" lon="5.58608">
        <ele>808</ele>
        <time>2021-09-04T16:19:21.199Z</time>
      </trkpt>
      <trkpt lat="45.89533" lon="5.58613">
        <ele>808</ele>
        <time>2021-09-04T16:19:25.230Z</time>
      </trkpt>
      <trkpt lat="45.89527" lon="5.58617">
        <ele>808</ele>
        <time>2021-09-04T16:19:30.230Z</time>
      </trkpt>
      <trkpt lat="45.8952" lon="5.5862">
        <ele>808</ele>
        <time>2021-09-04T16:19:35.228Z</time>
      </trkpt>
      <trkpt lat="45.89514" lon="5.58623">
        <ele>808</ele>
        <time>2021-09-04T16:19:40.233Z</time>
      </trkpt>
      <trkpt lat="45.89507" lon="5.58626">
        <ele>808</ele>
        <time>2021-09-04T16:19:45.225Z</time>
      </trkpt>
      <trkpt lat="45.895" lon="5.5863">
        <ele>808</ele>
        <time>2021-09-04T16:19:50.231Z</time>
      </trkpt>
      <trkpt lat="45.89494" lon="5.58635">
        <ele>808</ele>
        <time>2021-09-04T16:19:55.213Z</time>
      </trkpt>
      <trkpt lat="45.89489" lon="5.58642">
        <ele>808</ele>
        <time>2021-09-04T16:19:59.228Z</time>
      </trkpt>
      <trkpt lat="45.89482" lon="5.58653">
        <ele>811</ele>
        <time>2021-09-04T16:20:04.236Z</time>
      </trkpt>
      <trkpt lat="45.89475" lon="5.58662">
        <ele>811</ele>
        <time>2021-09-04T16:20:09.238Z</time>
      </trkpt>
      <trkpt lat="45.89465" lon="5.5867">
        <ele>811</ele>
        <time>2021-09-04T16:20:14.258Z</time>
      </trkpt>
      <trkpt lat="45.89461" lon="5.58684">
        <ele>810</ele>
        <time>2021-09-04T16:20:19.240Z</time>
      </trkpt>
      <trkpt lat="45.89456" lon="5.58692">
        <ele>814</ele>
        <time>2021-09-04T16:20:23.243Z</time>
      </trkpt>
      <trkpt lat="45.89448" lon="5.58698">
        <ele>814</ele>
        <time>2021-09-04T16:20:28.238Z</time>
      </trkpt>
      <trkpt lat="45.8944" lon="5.58707">
        <ele>814</ele>
        <time>2021-09-04T16:20:33.238Z</time>
      </trkpt>
      <trkpt lat="45.89436" lon="5.58716">
        <ele>813</ele>
        <time>2021-09-04T16:20:37.239Z</time>
      </trkpt>
      <trkpt lat="45.89431" lon="5.58724">
        <ele>813</ele>
        <time>2021-09-04T16:20:41.266Z</time>
      </trkpt>
      <trkpt lat="45.89424" lon="5.58732">
        <ele>815</ele>
        <time>2021-09-04T16:20:46.239Z</time>
      </trkpt>
      <trkpt lat="45.89415" lon="5.58744">
        <ele>815</ele>
        <time>2021-09-04T16:20:51.238Z</time>
      </trkpt>
      <trkpt lat="45.8941" lon="5.5875">
        <ele>815</ele>
        <time>2021-09-04T16:20:55.251Z</time>
      </trkpt>
      <trkpt lat="45.89404" lon="5.58756">
        <ele>815</ele>
        <time>2021-09-04T16:21:00.236Z</time>
      </trkpt>
      <trkpt lat="45.89398" lon="5.58764">
        <ele>819</ele>
        <time>2021-09-04T16:21:04.270Z</time>
      </trkpt>
      <trkpt lat="45.89392" lon="5.58775">
        <ele>819</ele>
        <time>2021-09-04T16:21:09.242Z</time>
      </trkpt>
      <trkpt lat="45.89388" lon="5.58781">
        <ele>819</ele>
        <time>2021-09-04T16:21:13.268Z</time>
      </trkpt>
      <trkpt lat="45.89384" lon="5.5879">
        <ele>819</ele>
        <time>2021-09-04T16:21:18.259Z</time>
      </trkpt>
      <trkpt lat="45.89379" lon="5.58798">
        <ele>822</ele>
        <time>2021-09-04T16:21:23.260Z</time>
      </trkpt>
      <trkpt lat="45.89374" lon="5.58808">
        <ele>822</ele>
        <time>2021-09-04T16:21:28.243Z</time>
      </trkpt>
      <trkpt lat="45.89368" lon="5.58819">
        <ele>822</ele>
        <time>2021-09-04T16:21:32.254Z</time>
      </trkpt>
      <trkpt lat="45.89361" lon="5.58829">
        <ele>823</ele>
        <time>2021-09-04T16:21:37.256Z</time>
      </trkpt>
      <trkpt lat="45.89354" lon="5.58839">
        <ele>823</ele>
        <time>2021-09-04T16:21:42.233Z</time>
      </trkpt>
      <trkpt lat="45.89345" lon="5.58846">
        <ele>820</ele>
        <time>2021-09-04T16:21:47.222Z</time>
      </trkpt>
      <trkpt lat="45.8934" lon="5.58853">
        <ele>820</ele>
        <time>2021-09-04T16:21:51.274Z</time>
      </trkpt>
      <trkpt lat="45.89331" lon="5.5886">
        <ele>820</ele>
        <time>2021-09-04T16:21:56.237Z</time>
      </trkpt>
      <trkpt lat="45.89323" lon="5.58868">
        <ele>820</ele>
        <time>2021-09-04T16:22:01.236Z</time>
      </trkpt>
      <trkpt lat="45.89313" lon="5.58875">
        <ele>821</ele>
        <time>2021-09-04T16:22:06.209Z</time>
      </trkpt>
      <trkpt lat="45.89306" lon="5.58882">
        <ele>821</ele>
        <time>2021-09-04T16:22:10.237Z</time>
      </trkpt>
      <trkpt lat="45.89297" lon="5.58889">
        <ele>821</ele>
        <time>2021-09-04T16:22:15.222Z</time>
      </trkpt>
      <trkpt lat="45.89287" lon="5.58898">
        <ele>822</ele>
        <time>2021-09-04T16:22:20.233Z</time>
      </trkpt>
      <trkpt lat="45.89276" lon="5.58907">
        <ele>824</ele>
        <time>2021-09-04T16:22:25.238Z</time>
      </trkpt>
      <trkpt lat="45.89262" lon="5.58911">
        <ele>823</ele>
        <time>2021-09-04T16:22:30.223Z</time>
      </trkpt>
      <trkpt lat="45.89247" lon="5.58916">
        <ele>823</ele>
        <time>2021-09-04T16:22:35.254Z</time>
      </trkpt>
      <trkpt lat="45.89234" lon="5.58924">
        <ele>825</ele>
        <time>2021-09-04T16:22:40.233Z</time>
      </trkpt>
      <trkpt lat="45.89223" lon="5.58927">
        <ele>825</ele>
        <time>2021-09-04T16:22:45.237Z</time>
      </trkpt>
      <trkpt lat="45.89213" lon="5.58931">
        <ele>827</ele>
        <time>2021-09-04T16:22:49.245Z</time>
      </trkpt>
      <trkpt lat="45.892" lon="5.58934">
        <ele>829</ele>
        <time>2021-09-04T16:22:54.247Z</time>
      </trkpt>
      <trkpt lat="45.89187" lon="5.58937">
        <ele>829</ele>
        <time>2021-09-04T16:22:59.232Z</time>
      </trkpt>
      <trkpt lat="45.89176" lon="5.58941">
        <ele>831</ele>
        <time>2021-09-04T16:23:04.218Z</time>
      </trkpt>
      <trkpt lat="45.89166" lon="5.58943">
        <ele>831</ele>
        <time>2021-09-04T16:23:08.230Z</time>
      </trkpt>
      <trkpt lat="45.89157" lon="5.58946">
        <ele>831</ele>
        <time>2021-09-04T16:23:12.236Z</time>
      </trkpt>
      <trkpt lat="45.89148" lon="5.5895">
        <ele>833</ele>
        <time>2021-09-04T16:23:16.243Z</time>
      </trkpt>
      <trkpt lat="45.89137" lon="5.58954">
        <ele>833</ele>
        <time>2021-09-04T16:23:21.246Z</time>
      </trkpt>
      <trkpt lat="45.89127" lon="5.58955">
        <ele>833</ele>
        <time>2021-09-04T16:23:25.254Z</time>
      </trkpt>
      <trkpt lat="45.89116" lon="5.58955">
        <ele>835</ele>
        <time>2021-09-04T16:23:30.239Z</time>
      </trkpt>
      <trkpt lat="45.89108" lon="5.58955">
        <ele>835</ele>
        <time>2021-09-04T16:23:34.244Z</time>
      </trkpt>
      <trkpt lat="45.89098" lon="5.58957">
        <ele>835</ele>
        <time>2021-09-04T16:23:39.230Z</time>
      </trkpt>
      <trkpt lat="45.8909" lon="5.58958">
        <ele>835</ele>
        <time>2021-09-04T16:23:43.237Z</time>
      </trkpt>
      <trkpt lat="45.89083" lon="5.58956">
        <ele>835</ele>
        <time>2021-09-04T16:23:47.244Z</time>
      </trkpt>
      <trkpt lat="45.89076" lon="5.58961">
        <ele>836</ele>
        <time>2021-09-04T16:23:52.235Z</time>
      </trkpt>
      <trkpt lat="45.89067" lon="5.58969">
        <ele>835</ele>
        <time>2021-09-04T16:23:57.227Z</time>
      </trkpt>
      <trkpt lat="45.89062" lon="5.58976">
        <ele>835</ele>
        <time>2021-09-04T16:24:01.242Z</time>
      </trkpt>
      <trkpt lat="45.89052" lon="5.58985">
        <ele>835</ele>
        <time>2021-09-04T16:24:06.200Z</time>
      </trkpt>
      <trkpt lat="45.89041" lon="5.58992">
        <ele>835</ele>
        <time>2021-09-04T16:24:10.233Z</time>
      </trkpt>
      <trkpt lat="45.89029" lon="5.58998">
        <ele>835</ele>
        <time>2021-09-04T16:24:15.230Z</time>
      </trkpt>
      <trkpt lat="45.8902" lon="5.59004">
        <ele>835</ele>
        <time>2021-09-04T16:24:19.228Z</time>
      </trkpt>
      <trkpt lat="45.89008" lon="5.59006">
        <ele>839</ele>
        <time>2021-09-04T16:24:24.232Z</time>
      </trkpt>
      <trkpt lat="45.88996" lon="5.59011">
        <ele>839</ele>
        <time>2021-09-04T16:24:29.234Z</time>
      </trkpt>
      <trkpt lat="45.88985" lon="5.59016">
        <ele>841</ele>
        <time>2021-09-04T16:24:34.223Z</time>
      </trkpt>
      <trkpt lat="45.88975" lon="5.59021">
        <ele>841</ele>
        <time>2021-09-04T16:24:39.254Z</time>
      </trkpt>
      <trkpt lat="45.88967" lon="5.59026">
        <ele>841</ele>
        <time>2021-09-04T16:24:44.242Z</time>
      </trkpt>
      <trkpt lat="45.88958" lon="5.59028">
        <ele>840</ele>
        <time>2021-09-04T16:24:49.247Z</time>
      </trkpt>
      <trkpt lat="45.88951" lon="5.59035">
        <ele>840</ele>
        <time>2021-09-04T16:24:54.233Z</time>
      </trkpt>
      <trkpt lat="45.88944" lon="5.59039">
        <ele>840</ele>
        <time>2021-09-04T16:24:59.233Z</time>
      </trkpt>
      <trkpt lat="45.88937" lon="5.59043">
        <ele>841</ele>
        <time>2021-09-04T16:25:04.244Z</time>
      </trkpt>
      <trkpt lat="45.8893" lon="5.59048">
        <ele>840</ele>
        <time>2021-09-04T16:25:09.249Z</time>
      </trkpt>
      <trkpt lat="45.88924" lon="5.59052">
        <ele>840</ele>
        <time>2021-09-04T16:25:14.229Z</time>
      </trkpt>
      <trkpt lat="45.88913" lon="5.59048">
        <ele>840</ele>
        <time>2021-09-04T16:25:24.217Z</time>
      </trkpt>
      <trkpt lat="45.88913" lon="5.59048">
        <ele>840</ele>
        <time>2021-09-04T16:25:29.233Z</time>
      </trkpt>
      <trkpt lat="45.8891" lon="5.59048">
        <ele>840</ele>
        <time>2021-09-04T16:25:34.251Z</time>
      </trkpt>
      <trkpt lat="45.88914" lon="5.59042">
        <ele>840</ele>
        <time>2021-09-04T16:25:39.237Z</time>
      </trkpt>
      <trkpt lat="45.88916" lon="5.59037">
        <ele>839</ele>
        <time>2021-09-04T16:25:43.243Z</time>
      </trkpt>
      <trkpt lat="45.88918" lon="5.5903">
        <ele>839</ele>
        <time>2021-09-04T16:25:47.259Z</time>
      </trkpt>
      <trkpt lat="45.8892" lon="5.59021">
        <ele>839</ele>
        <time>2021-09-04T16:25:52.257Z</time>
      </trkpt>
      <trkpt lat="45.88922" lon="5.59013">
        <ele>839</ele>
        <time>2021-09-04T16:25:57.247Z</time>
      </trkpt>
      <trkpt lat="45.88924" lon="5.59007">
        <ele>839</ele>
        <time>2021-09-04T16:26:01.256Z</time>
      </trkpt>
      <trkpt lat="45.88927" lon="5.58999">
        <ele>839</ele>
        <time>2021-09-04T16:26:06.199Z</time>
      </trkpt>
      <trkpt lat="45.88929" lon="5.58991">
        <ele>839</ele>
        <time>2021-09-04T16:26:10.232Z</time>
      </trkpt>
      <trkpt lat="45.88932" lon="5.58982">
        <ele>840</ele>
        <time>2021-09-04T16:26:15.241Z</time>
      </trkpt>
      <trkpt lat="45.88934" lon="5.58973">
        <ele>840</ele>
        <time>2021-09-04T16:26:20.224Z</time>
      </trkpt>
      <trkpt lat="45.88935" lon="5.58962">
        <ele>840</ele>
        <time>2021-09-04T16:26:25.227Z</time>
      </trkpt>
      <trkpt lat="45.88937" lon="5.58953">
        <ele>841</ele>
        <time>2021-09-04T16:26:30.240Z</time>
      </trkpt>
      <trkpt lat="45.8894" lon="5.58945">
        <ele>841</ele>
        <time>2021-09-04T16:26:35.236Z</time>
      </trkpt>
      <trkpt lat="45.88944" lon="5.58937">
        <ele>841</ele>
        <time>2021-09-04T16:26:40.248Z</time>
      </trkpt>
      <trkpt lat="45.88947" lon="5.58929">
        <ele>842</ele>
        <time>2021-09-04T16:26:45.245Z</time>
      </trkpt>
      <trkpt lat="45.88951" lon="5.58923">
        <ele>842</ele>
        <time>2021-09-04T16:26:49.262Z</time>
      </trkpt>
      <trkpt lat="45.88956" lon="5.58916">
        <ele>842</ele>
        <time>2021-09-04T16:26:54.251Z</time>
      </trkpt>
      <trkpt lat="45.8896" lon="5.58912">
        <ele>843</ele>
        <time>2021-09-04T16:26:58.265Z</time>
      </trkpt>
      <trkpt lat="45.88966" lon="5.58906">
        <ele>843</ele>
        <time>2021-09-04T16:27:03.217Z</time>
      </trkpt>
      <trkpt lat="45.8897" lon="5.58901">
        <ele>844</ele>
        <time>2021-09-04T16:27:07.248Z</time>
      </trkpt>
      <trkpt lat="45.88975" lon="5.58895">
        <ele>844</ele>
        <time>2021-09-04T16:27:12.231Z</time>
      </trkpt>
      <trkpt lat="45.88976" lon="5.58884">
        <ele>844</ele>
        <time>2021-09-04T16:27:17.245Z</time>
      </trkpt>
      <trkpt lat="45.88967" lon="5.58871">
        <ele>845</ele>
        <time>2021-09-04T16:27:49.252Z</time>
      </trkpt>
      <trkpt lat="45.88967" lon="5.58881">
        <ele>844</ele>
        <time>2021-09-04T16:27:54.244Z</time>
      </trkpt>
      <trkpt lat="45.88966" lon="5.58887">
        <ele>844</ele>
        <time>2021-09-04T16:27:58.247Z</time>
      </trkpt>
      <trkpt lat="45.88963" lon="5.58893">
        <ele>844</ele>
        <time>2021-09-04T16:28:03.248Z</time>
      </trkpt>
      <trkpt lat="45.88958" lon="5.58894">
        <ele>842</ele>
        <time>2021-09-04T16:28:08.202Z</time>
      </trkpt>
      <trkpt lat="45.88953" lon="5.58895">
        <ele>842</ele>
        <time>2021-09-04T16:28:12.246Z</time>
      </trkpt>
      <trkpt lat="45.88947" lon="5.58897">
        <ele>842</ele>
        <time>2021-09-04T16:28:16.262Z</time>
      </trkpt>
      <trkpt lat="45.88944" lon="5.58904">
        <ele>842</ele>
        <time>2021-09-04T16:28:21.238Z</time>
      </trkpt>
      <trkpt lat="45.88942" lon="5.5891">
        <ele>842</ele>
        <time>2021-09-04T16:28:25.261Z</time>
      </trkpt>
      <trkpt lat="45.88939" lon="5.58918">
        <ele>842</ele>
        <time>2021-09-04T16:28:30.241Z</time>
      </trkpt>
      <trkpt lat="45.88936" lon="5.58927">
        <ele>842</ele>
        <time>2021-09-04T16:28:35.240Z</time>
      </trkpt>
      <trkpt lat="45.88932" lon="5.58931">
        <ele>841</ele>
        <time>2021-09-04T16:28:39.245Z</time>
      </trkpt>
      <trkpt lat="45.88927" lon="5.58934">
        <ele>840</ele>
        <time>2021-09-04T16:28:44.231Z</time>
      </trkpt>
      <trkpt lat="45.88922" lon="5.58936">
        <ele>840</ele>
        <time>2021-09-04T16:28:48.239Z</time>
      </trkpt>
      <trkpt lat="45.88915" lon="5.58937">
        <ele>840</ele>
        <time>2021-09-04T16:28:53.250Z</time>
      </trkpt>
      <trkpt lat="45.88908" lon="5.58937">
        <ele>840</ele>
        <time>2021-09-04T16:28:58.247Z</time>
      </trkpt>
      <trkpt lat="45.88902" lon="5.58936">
        <ele>839</ele>
        <time>2021-09-04T16:29:02.259Z</time>
      </trkpt>
      <trkpt lat="45.88896" lon="5.58933">
        <ele>839</ele>
        <time>2021-09-04T16:29:07.246Z</time>
      </trkpt>
      <trkpt lat="45.88891" lon="5.58931">
        <ele>839</ele>
        <time>2021-09-04T16:29:11.249Z</time>
      </trkpt>
      <trkpt lat="45.88885" lon="5.58928">
        <ele>838</ele>
        <time>2021-09-04T16:29:16.235Z</time>
      </trkpt>
      <trkpt lat="45.88879" lon="5.58925">
        <ele>838</ele>
        <time>2021-09-04T16:29:21.241Z</time>
      </trkpt>
      <trkpt lat="45.88873" lon="5.58923">
        <ele>836</ele>
        <time>2021-09-04T16:29:25.245Z</time>
      </trkpt>
      <trkpt lat="45.88868" lon="5.58921">
        <ele>836</ele>
        <time>2021-09-04T16:29:29.250Z</time>
      </trkpt>
      <trkpt lat="45.88862" lon="5.58917">
        <ele>836</ele>
        <time>2021-09-04T16:29:34.230Z</time>
      </trkpt>
      <trkpt lat="45.88858" lon="5.58915">
        <ele>836</ele>
        <time>2021-09-04T16:29:38.253Z</time>
      </trkpt>
      <trkpt lat="45.88852" lon="5.58912">
        <ele>836</ele>
        <time>2021-09-04T16:29:43.233Z</time>
      </trkpt>
      <trkpt lat="45.88849" lon="5.58906">
        <ele>836</ele>
        <time>2021-09-04T16:29:47.248Z</time>
      </trkpt>
      <trkpt lat="45.88841" lon="5.58905">
        <ele>835</ele>
        <time>2021-09-04T16:29:52.244Z</time>
      </trkpt>
      <trkpt lat="45.88834" lon="5.58904">
        <ele>835</ele>
        <time>2021-09-04T16:29:57.234Z</time>
      </trkpt>
      <trkpt lat="45.8883" lon="5.58903">
        <ele>835</ele>
        <time>2021-09-04T16:30:52.241Z</time>
      </trkpt>
      <trkpt lat="45.88826" lon="5.58906">
        <ele>835</ele>
        <time>2021-09-04T16:30:56.244Z</time>
      </trkpt>
      <trkpt lat="45.88821" lon="5.58907">
        <ele>835</ele>
        <time>2021-09-04T16:31:01.240Z</time>
      </trkpt>
      <trkpt lat="45.88816" lon="5.58907">
        <ele>834</ele>
        <time>2021-09-04T16:31:05.248Z</time>
      </trkpt>
      <trkpt lat="45.8881" lon="5.58908">
        <ele>834</ele>
        <time>2021-09-04T16:31:10.246Z</time>
      </trkpt>
      <trkpt lat="45.88806" lon="5.58908">
        <ele>834</ele>
        <time>2021-09-04T16:31:14.245Z</time>
      </trkpt>
      <trkpt lat="45.888" lon="5.58911">
        <ele>834</ele>
        <time>2021-09-04T16:31:19.222Z</time>
      </trkpt>
      <trkpt lat="45.88794" lon="5.58912">
        <ele>834</ele>
        <time>2021-09-04T16:31:24.196Z</time>
      </trkpt>
      <trkpt lat="45.88791" lon="5.58908">
        <ele>835</ele>
        <time>2021-09-04T16:31:28.204Z</time>
      </trkpt>
      <trkpt lat="45.88787" lon="5.58907">
        <ele>835</ele>
        <time>2021-09-04T16:31:33.201Z</time>
      </trkpt>
      <trkpt lat="45.88783" lon="5.58909">
        <ele>835</ele>
        <time>2021-09-04T16:31:37.249Z</time>
      </trkpt>
      <trkpt lat="45.88777" lon="5.5891">
        <ele>835</ele>
        <time>2021-09-04T16:31:42.255Z</time>
      </trkpt>
      <trkpt lat="45.88771" lon="5.58909">
        <ele>835</ele>
        <time>2021-09-04T16:31:47.239Z</time>
      </trkpt>
      <trkpt lat="45.8877" lon="5.58906">
        <ele>835</ele>
        <time>2021-09-04T16:31:52.239Z</time>
      </trkpt>
      <trkpt lat="45.88765" lon="5.58907">
        <ele>835</ele>
        <time>2021-09-04T16:31:57.264Z</time>
      </trkpt>
      <trkpt lat="45.88759" lon="5.58907">
        <ele>834</ele>
        <time>2021-09-04T16:32:02.234Z</time>
      </trkpt>
      <trkpt lat="45.88754" lon="5.58905">
        <ele>834</ele>
        <time>2021-09-04T16:32:07.246Z</time>
      </trkpt>
      <trkpt lat="45.88749" lon="5.58903">
        <ele>834</ele>
        <time>2021-09-04T16:32:12.242Z</time>
      </trkpt>
      <trkpt lat="45.88744" lon="5.58899">
        <ele>836</ele>
        <time>2021-09-04T16:32:17.211Z</time>
      </trkpt>
      <trkpt lat="45.8874" lon="5.58895">
        <ele>836</ele>
        <time>2021-09-04T16:32:21.244Z</time>
      </trkpt>
      <trkpt lat="45.88737" lon="5.58889">
        <ele>836</ele>
        <time>2021-09-04T16:32:26.250Z</time>
      </trkpt>
      <trkpt lat="45.88734" lon="5.58882">
        <ele>833</ele>
        <time>2021-09-04T16:32:31.245Z</time>
      </trkpt>
      <trkpt lat="45.88733" lon="5.58876">
        <ele>833</ele>
        <time>2021-09-04T16:32:35.260Z</time>
      </trkpt>
      <trkpt lat="45.8873" lon="5.58869">
        <ele>833</ele>
        <time>2021-09-04T16:32:40.223Z</time>
      </trkpt>
      <trkpt lat="45.88729" lon="5.58863">
        <ele>833</ele>
        <time>2021-09-04T16:32:44.254Z</time>
      </trkpt>
      <trkpt lat="45.88727" lon="5.58855">
        <ele>833</ele>
        <time>2021-09-04T16:32:49.245Z</time>
      </trkpt>
      <trkpt lat="45.88729" lon="5.58853">
        <ele>833</ele>
        <time>2021-09-04T16:32:54.232Z</time>
      </trkpt>
      <trkpt lat="45.88727" lon="5.5885">
        <ele>833</ele>
        <time>2021-09-04T16:32:59.260Z</time>
      </trkpt>
      <trkpt lat="45.88723" lon="5.58844">
        <ele>832</ele>
        <time>2021-09-04T16:33:04.251Z</time>
      </trkpt>
      <trkpt lat="45.88721" lon="5.58837">
        <ele>832</ele>
        <time>2021-09-04T16:33:09.244Z</time>
      </trkpt>
      <trkpt lat="45.8872" lon="5.58831">
        <ele>832</ele>
        <time>2021-09-04T16:33:13.243Z</time>
      </trkpt>
      <trkpt lat="45.88717" lon="5.58824">
        <ele>832</ele>
        <time>2021-09-04T16:33:18.249Z</time>
      </trkpt>
      <trkpt lat="45.88714" lon="5.58817">
        <ele>831</ele>
        <time>2021-09-04T16:33:23.228Z</time>
      </trkpt>
      <trkpt lat="45.88713" lon="5.5881">
        <ele>831</ele>
        <time>2021-09-04T16:33:27.256Z</time>
      </trkpt>
      <trkpt lat="45.88714" lon="5.58805">
        <ele>831</ele>
        <time>2021-09-04T16:33:32.214Z</time>
      </trkpt>
      <trkpt lat="45.88714" lon="5.58805">
        <ele>831</ele>
        <time>2021-09-04T16:33:36.236Z</time>
      </trkpt>
      <trkpt lat="45.88712" lon="5.58805">
        <ele>831</ele>
        <time>2021-09-04T16:33:41.223Z</time>
      </trkpt>
      <trkpt lat="45.88707" lon="5.58805">
        <ele>831</ele>
        <time>2021-09-04T16:33:45.246Z</time>
      </trkpt>
      <trkpt lat="45.88703" lon="5.58805">
        <ele>831</ele>
        <time>2021-09-04T16:33:49.241Z</time>
      </trkpt>
      <trkpt lat="45.88702" lon="5.58806">
        <ele>831</ele>
        <time>2021-09-04T16:37:54.263Z</time>
      </trkpt>
      <trkpt lat="45.88702" lon="5.58804">
        <ele>831</ele>
        <time>2021-09-04T16:37:59.227Z</time>
      </trkpt>
      <trkpt lat="45.88705" lon="5.58802">
        <ele>831</ele>
        <time>2021-09-04T16:38:03.228Z</time>
      </trkpt>
      <trkpt lat="45.8871" lon="5.58808">
        <ele>831</ele>
        <time>2021-09-04T16:38:07.246Z</time>
      </trkpt>
      <trkpt lat="45.88712" lon="5.58809">
        <ele>831</ele>
        <time>2021-09-04T16:38:12.239Z</time>
      </trkpt>
    </trkseg>
  </trk>
</gpx>